<?xml version='1.0' encoding='UTF-8'?><gpx version="1.1" creator="JPX - https://github.com/jenetics/jpx" xmlns="http://www.topografix.com/GPX/1/1"><trk><trkseg><trkpt lat="43.1885992" lon="12.3205688"><ele>287.0</ele><time>2026-03-22T07:53:10.622Z</time></trkpt><trkpt lat="43.1886628" lon="12.3205979"><ele>287.0</ele><time>2026-03-22T07:56:30.622Z</time></trkpt><trkpt lat="43.1887358" lon="12.3205654"><ele>287.0</ele><time>2026-03-22T07:57:01.623Z</time></trkpt><trkpt lat="43.188671" lon="12.3205488"><ele>287.0</ele><time>2026-03-22T07:57:09.622Z</time></trkpt><trkpt lat="43.1886176" lon="12.3206"><ele>287.0</ele><time>2026-03-22T07:57:33.623Z</time></trkpt><trkpt lat="43.1886824" lon="12.3205776"><ele>287.0</ele><time>2026-03-22T07:57:39.623Z</time></trkpt><trkpt lat="43.1887561" lon="12.3205432"><ele>287.0</ele><time>2026-03-22T07:57:43.623Z</time></trkpt><trkpt lat="43.1887319" lon="12.3204497"><ele>287.0</ele><time>2026-03-22T07:57:47.622Z</time></trkpt><trkpt lat="43.1886657" lon="12.3204789"><ele>287.0</ele><time>2026-03-22T07:57:50.623Z</time></trkpt><trkpt lat="43.1885784" lon="12.3205131"><ele>287.0</ele><time>2026-03-22T07:57:53.622Z</time></trkpt><trkpt lat="43.1885145" lon="12.3205387"><ele>287.0</ele><time>2026-03-22T07:57:55.623Z</time></trkpt><trkpt lat="43.1884418" lon="12.3205816"><ele>287.0</ele><time>2026-03-22T07:57:57.622Z</time></trkpt><trkpt lat="43.1883595" lon="12.320607"><ele>287.0</ele><time>2026-03-22T07:57:59.622Z</time></trkpt><trkpt lat="43.1882736" lon="12.3206274"><ele>287.0</ele><time>2026-03-22T07:58:01.622Z</time></trkpt><trkpt lat="43.1881911" lon="12.3206597"><ele>287.0</ele><time>2026-03-22T07:58:03.622Z</time></trkpt><trkpt lat="43.1881108" lon="12.3206784"><ele>287.0</ele><time>2026-03-22T07:58:05.623Z</time></trkpt><trkpt lat="43.1880407" lon="12.3207089"><ele>287.0</ele><time>2026-03-22T07:58:07.623Z</time></trkpt><trkpt lat="43.1879751" lon="12.3207289"><ele>287.0</ele><time>2026-03-22T07:58:09.622Z</time></trkpt><trkpt lat="43.1878928" lon="12.3207732"><ele>287.0</ele><time>2026-03-22T07:58:12.622Z</time></trkpt><trkpt lat="43.1878123" lon="12.3208067"><ele>286.6666666666667</ele><time>2026-03-22T07:58:15.622Z</time></trkpt><trkpt lat="43.1877341" lon="12.32083"><ele>286.33333333333337</ele><time>2026-03-22T07:58:18.623Z</time></trkpt><trkpt lat="43.1876534" lon="12.3208585"><ele>286.0</ele><time>2026-03-22T07:58:21.623Z</time></trkpt><trkpt lat="43.1875624" lon="12.3208893"><ele>285.6666666666667</ele><time>2026-03-22T07:58:24.623Z</time></trkpt><trkpt lat="43.1874981" lon="12.3209146"><ele>285.3333333333333</ele><time>2026-03-22T07:58:26.622Z</time></trkpt><trkpt lat="43.1874194" lon="12.3209405"><ele>285.0</ele><time>2026-03-22T07:58:29.623Z</time></trkpt><trkpt lat="43.1873462" lon="12.3209649"><ele>284.5</ele><time>2026-03-22T07:58:32.622Z</time></trkpt><trkpt lat="43.1872573" lon="12.3209997"><ele>284.0</ele><time>2026-03-22T07:58:35.622Z</time></trkpt><trkpt lat="43.1871704" lon="12.3210277"><ele>283.5</ele><time>2026-03-22T07:58:38.623Z</time></trkpt><trkpt lat="43.1871023" lon="12.3210624"><ele>283.0</ele><time>2026-03-22T07:58:42.623Z</time></trkpt><trkpt lat="43.1870327" lon="12.3211086"><ele>282.5</ele><time>2026-03-22T07:58:45.623Z</time></trkpt><trkpt lat="43.1869587" lon="12.3211319"><ele>282.0</ele><time>2026-03-22T07:58:48.622Z</time></trkpt><trkpt lat="43.1868843" lon="12.3211662"><ele>282.0</ele><time>2026-03-22T07:58:51.623Z</time></trkpt><trkpt lat="43.186805" lon="12.3212121"><ele>282.0</ele><time>2026-03-22T07:58:54.622Z</time></trkpt><trkpt lat="43.1867303" lon="12.3212482"><ele>282.0</ele><time>2026-03-22T07:58:57.623Z</time></trkpt><trkpt lat="43.1866586" lon="12.3212824"><ele>282.0</ele><time>2026-03-22T07:59:00.623Z</time></trkpt><trkpt lat="43.1865791" lon="12.3213163"><ele>282.0</ele><time>2026-03-22T07:59:03.623Z</time></trkpt><trkpt lat="43.1864965" lon="12.3213554"><ele>282.0</ele><time>2026-03-22T07:59:06.622Z</time></trkpt><trkpt lat="43.1864128" lon="12.3213865"><ele>282.8333333333333</ele><time>2026-03-22T07:59:09.623Z</time></trkpt><trkpt lat="43.1863526" lon="12.3214329"><ele>283.6666666666667</ele><time>2026-03-22T07:59:11.622Z</time></trkpt><trkpt lat="43.1862632" lon="12.3214579"><ele>284.5</ele><time>2026-03-22T07:59:14.623Z</time></trkpt><trkpt lat="43.1861904" lon="12.3214798"><ele>285.33333333333337</ele><time>2026-03-22T07:59:17.622Z</time></trkpt><trkpt lat="43.1861115" lon="12.3215101"><ele>286.1666666666667</ele><time>2026-03-22T07:59:20.623Z</time></trkpt><trkpt lat="43.1860482" lon="12.3215545"><ele>287.0</ele><time>2026-03-22T07:59:23.623Z</time></trkpt><trkpt lat="43.185969" lon="12.3215734"><ele>287.0</ele><time>2026-03-22T07:59:26.622Z</time></trkpt><trkpt lat="43.1859251" lon="12.3214981"><ele>287.0</ele><time>2026-03-22T07:59:29.622Z</time></trkpt><trkpt lat="43.1858923" lon="12.3213978"><ele>287.0</ele><time>2026-03-22T07:59:32.623Z</time></trkpt><trkpt lat="43.1858693" lon="12.321293"><ele>287.0</ele><time>2026-03-22T07:59:35.622Z</time></trkpt><trkpt lat="43.1858373" lon="12.3211869"><ele>287.0</ele><time>2026-03-22T07:59:38.623Z</time></trkpt><trkpt lat="43.185803" lon="12.3210725"><ele>287.0</ele><time>2026-03-22T07:59:41.623Z</time></trkpt><trkpt lat="43.1857618" lon="12.3209784"><ele>286.6666666666667</ele><time>2026-03-22T07:59:43.622Z</time></trkpt><trkpt lat="43.1857191" lon="12.3208945"><ele>286.33333333333337</ele><time>2026-03-22T07:59:45.622Z</time></trkpt><trkpt lat="43.1856443" lon="12.3207947"><ele>286.0</ele><time>2026-03-22T07:59:48.623Z</time></trkpt><trkpt lat="43.1855847" lon="12.3207219"><ele>285.6666666666667</ele><time>2026-03-22T07:59:50.623Z</time></trkpt><trkpt lat="43.1855123" lon="12.3206933"><ele>285.3333333333333</ele><time>2026-03-22T07:59:51.623Z</time></trkpt><trkpt lat="43.1854497" lon="12.3206512"><ele>285.0</ele><time>2026-03-22T07:59:53.623Z</time></trkpt><trkpt lat="43.1853796" lon="12.320584"><ele>284.0</ele><time>2026-03-22T07:59:55.623Z</time></trkpt><trkpt lat="43.1853371" lon="12.3205167"><ele>283.0</ele><time>2026-03-22T07:59:57.622Z</time></trkpt><trkpt lat="43.1852526" lon="12.3204768"><ele>282.0</ele><time>2026-03-22T07:59:59.623Z</time></trkpt><trkpt lat="43.1851403" lon="12.3205053"><ele>281.0</ele><time>2026-03-22T08:00:01.622Z</time></trkpt><trkpt lat="43.185022" lon="12.3205207"><ele>280.0</ele><time>2026-03-22T08:00:03.623Z</time></trkpt><trkpt lat="43.184905" lon="12.320499"><ele>279.6</ele><time>2026-03-22T08:00:05.623Z</time></trkpt><trkpt lat="43.1847933" lon="12.32047"><ele>279.2</ele><time>2026-03-22T08:00:07.623Z</time></trkpt><trkpt lat="43.1846904" lon="12.3204425"><ele>278.8</ele><time>2026-03-22T08:00:09.623Z</time></trkpt><trkpt lat="43.184593" lon="12.3204105"><ele>278.4</ele><time>2026-03-22T08:00:11.623Z</time></trkpt><trkpt lat="43.1844953" lon="12.3203804"><ele>278.0</ele><time>2026-03-22T08:00:13.623Z</time></trkpt><trkpt lat="43.1844012" lon="12.3203495"><ele>278.0</ele><time>2026-03-22T08:00:15.622Z</time></trkpt><trkpt lat="43.1843092" lon="12.3203111"><ele>278.0</ele><time>2026-03-22T08:00:17.623Z</time></trkpt><trkpt lat="43.1842253" lon="12.3202713"><ele>278.0</ele><time>2026-03-22T08:00:19.622Z</time></trkpt><trkpt lat="43.1841412" lon="12.3202206"><ele>278.0</ele><time>2026-03-22T08:00:21.622Z</time></trkpt><trkpt lat="43.1840776" lon="12.3201394"><ele>278.0</ele><time>2026-03-22T08:00:23.622Z</time></trkpt><trkpt lat="43.184035" lon="12.3200384"><ele>278.0</ele><time>2026-03-22T08:00:25.623Z</time></trkpt><trkpt lat="43.1839784" lon="12.3199561"><ele>278.0</ele><time>2026-03-22T08:00:27.622Z</time></trkpt><trkpt lat="43.1839037" lon="12.3199117"><ele>278.0</ele><time>2026-03-22T08:00:29.623Z</time></trkpt><trkpt lat="43.1838176" lon="12.319889"><ele>278.0</ele><time>2026-03-22T08:00:31.622Z</time></trkpt><trkpt lat="43.1837404" lon="12.3198444"><ele>278.0</ele><time>2026-03-22T08:00:33.622Z</time></trkpt><trkpt lat="43.1836758" lon="12.3197512"><ele>278.0</ele><time>2026-03-22T08:00:35.623Z</time></trkpt><trkpt lat="43.1836452" lon="12.3196299"><ele>278.0</ele><time>2026-03-22T08:00:37.623Z</time></trkpt><trkpt lat="43.1836369" lon="12.3195038"><ele>277.8</ele><time>2026-03-22T08:00:39.623Z</time></trkpt><trkpt lat="43.183622" lon="12.3193843"><ele>277.6</ele><time>2026-03-22T08:00:41.622Z</time></trkpt><trkpt lat="43.183588" lon="12.3192722"><ele>277.4</ele><time>2026-03-22T08:00:43.623Z</time></trkpt><trkpt lat="43.1835308" lon="12.3191666"><ele>277.2</ele><time>2026-03-22T08:00:45.623Z</time></trkpt><trkpt lat="43.1834647" lon="12.319068"><ele>277.0</ele><time>2026-03-22T08:00:47.623Z</time></trkpt><trkpt lat="43.1834039" lon="12.3189657"><ele>276.66666666666663</ele><time>2026-03-22T08:00:49.622Z</time></trkpt><trkpt lat="43.1833552" lon="12.3188491"><ele>276.3333333333333</ele><time>2026-03-22T08:00:51.623Z</time></trkpt><trkpt lat="43.1833123" lon="12.3187376"><ele>276.0</ele><time>2026-03-22T08:00:53.622Z</time></trkpt><trkpt lat="43.1832685" lon="12.3186268"><ele>275.6666666666667</ele><time>2026-03-22T08:00:55.623Z</time></trkpt><trkpt lat="43.1832327" lon="12.3185244"><ele>275.33333333333337</ele><time>2026-03-22T08:00:57.623Z</time></trkpt><trkpt lat="43.1831984" lon="12.3184199"><ele>275.0</ele><time>2026-03-22T08:00:59.622Z</time></trkpt><trkpt lat="43.1831642" lon="12.3183191"><ele>274.83333333333337</ele><time>2026-03-22T08:01:01.622Z</time></trkpt><trkpt lat="43.1831258" lon="12.3182189"><ele>274.6666666666667</ele><time>2026-03-22T08:01:03.623Z</time></trkpt><trkpt lat="43.18309" lon="12.3181168"><ele>274.5</ele><time>2026-03-22T08:01:05.623Z</time></trkpt><trkpt lat="43.183051" lon="12.3180162"><ele>274.3333333333333</ele><time>2026-03-22T08:01:07.623Z</time></trkpt><trkpt lat="43.183015" lon="12.3179132"><ele>274.16666666666663</ele><time>2026-03-22T08:01:09.622Z</time></trkpt><trkpt lat="43.1829742" lon="12.3178065"><ele>274.0</ele><time>2026-03-22T08:01:11.622Z</time></trkpt><trkpt lat="43.1829339" lon="12.3176946"><ele>274.59999999999997</ele><time>2026-03-22T08:01:13.622Z</time></trkpt><trkpt lat="43.1828921" lon="12.3175823"><ele>275.2</ele><time>2026-03-22T08:01:15.623Z</time></trkpt><trkpt lat="43.1828188" lon="12.3174939"><ele>275.79999999999995</ele><time>2026-03-22T08:01:17.622Z</time></trkpt><trkpt lat="43.182722" lon="12.3175042"><ele>276.4</ele><time>2026-03-22T08:01:19.623Z</time></trkpt><trkpt lat="43.1826286" lon="12.3175444"><ele>277.0</ele><time>2026-03-22T08:01:21.622Z</time></trkpt><trkpt lat="43.1825336" lon="12.3176065"><ele>277.0</ele><time>2026-03-22T08:01:23.623Z</time></trkpt><trkpt lat="43.1824358" lon="12.3176667"><ele>277.0</ele><time>2026-03-22T08:01:25.622Z</time></trkpt><trkpt lat="43.1823338" lon="12.3177336"><ele>277.0</ele><time>2026-03-22T08:01:27.623Z</time></trkpt><trkpt lat="43.1822258" lon="12.3177974"><ele>277.0</ele><time>2026-03-22T08:01:29.623Z</time></trkpt><trkpt lat="43.1821162" lon="12.317847"><ele>276.75</ele><time>2026-03-22T08:01:31.622Z</time></trkpt><trkpt lat="43.1820051" lon="12.3178973"><ele>276.5</ele><time>2026-03-22T08:01:33.623Z</time></trkpt><trkpt lat="43.1818952" lon="12.3179471"><ele>276.25</ele><time>2026-03-22T08:01:35.623Z</time></trkpt><trkpt lat="43.181785" lon="12.3179999"><ele>276.0</ele><time>2026-03-22T08:01:37.622Z</time></trkpt><trkpt lat="43.1816735" lon="12.318039"><ele>276.0</ele><time>2026-03-22T08:01:39.622Z</time></trkpt><trkpt lat="43.1815679" lon="12.3180791"><ele>276.0</ele><time>2026-03-22T08:01:41.622Z</time></trkpt><trkpt lat="43.1814671" lon="12.3181074"><ele>276.0</ele><time>2026-03-22T08:01:43.623Z</time></trkpt><trkpt lat="43.1813624" lon="12.3181437"><ele>276.0</ele><time>2026-03-22T08:01:45.623Z</time></trkpt><trkpt lat="43.1812563" lon="12.3181726"><ele>276.0</ele><time>2026-03-22T08:01:47.623Z</time></trkpt><trkpt lat="43.1811539" lon="12.3182109"><ele>276.0</ele><time>2026-03-22T08:01:49.623Z</time></trkpt><trkpt lat="43.1810462" lon="12.3182465"><ele>276.0</ele><time>2026-03-22T08:01:51.623Z</time></trkpt><trkpt lat="43.1809403" lon="12.3182863"><ele>276.0</ele><time>2026-03-22T08:01:53.622Z</time></trkpt><trkpt lat="43.1808395" lon="12.3183161"><ele>276.0</ele><time>2026-03-22T08:01:55.623Z</time></trkpt><trkpt lat="43.1807339" lon="12.3183443"><ele>276.0</ele><time>2026-03-22T08:01:57.622Z</time></trkpt><trkpt lat="43.1806268" lon="12.3183745"><ele>275.2</ele><time>2026-03-22T08:01:59.623Z</time></trkpt><trkpt lat="43.1805221" lon="12.3184037"><ele>274.40000000000003</ele><time>2026-03-22T08:02:01.622Z</time></trkpt><trkpt lat="43.1804181" lon="12.3184389"><ele>273.6</ele><time>2026-03-22T08:02:03.622Z</time></trkpt><trkpt lat="43.1803099" lon="12.3184671"><ele>272.8</ele><time>2026-03-22T08:02:05.623Z</time></trkpt><trkpt lat="43.1802026" lon="12.3185117"><ele>272.0</ele><time>2026-03-22T08:02:07.622Z</time></trkpt><trkpt lat="43.180096" lon="12.3185643"><ele>272.0</ele><time>2026-03-22T08:02:09.622Z</time></trkpt><trkpt lat="43.1799928" lon="12.3186196"><ele>272.0</ele><time>2026-03-22T08:02:11.623Z</time></trkpt><trkpt lat="43.179882" lon="12.3186832"><ele>272.0</ele><time>2026-03-22T08:02:13.623Z</time></trkpt><trkpt lat="43.1797696" lon="12.3187435"><ele>272.0</ele><time>2026-03-22T08:02:15.623Z</time></trkpt><trkpt lat="43.1796604" lon="12.3188073"><ele>272.0</ele><time>2026-03-22T08:02:17.623Z</time></trkpt><trkpt lat="43.1795524" lon="12.3188591"><ele>272.0</ele><time>2026-03-22T08:02:19.622Z</time></trkpt><trkpt lat="43.1794585" lon="12.3189169"><ele>272.0</ele><time>2026-03-22T08:02:21.622Z</time></trkpt><trkpt lat="43.1793622" lon="12.318969"><ele>272.0</ele><time>2026-03-22T08:02:23.622Z</time></trkpt><trkpt lat="43.179268" lon="12.3190021"><ele>272.0</ele><time>2026-03-22T08:02:25.622Z</time></trkpt><trkpt lat="43.1791712" lon="12.3190211"><ele>272.33333333333337</ele><time>2026-03-22T08:02:27.622Z</time></trkpt><trkpt lat="43.1790793" lon="12.3190739"><ele>272.6666666666667</ele><time>2026-03-22T08:02:29.623Z</time></trkpt><trkpt lat="43.1790234" lon="12.3191751"><ele>273.0</ele><time>2026-03-22T08:02:31.622Z</time></trkpt><trkpt lat="43.1790414" lon="12.3192771"><ele>273.3333333333333</ele><time>2026-03-22T08:02:33.622Z</time></trkpt><trkpt lat="43.1790631" lon="12.319374"><ele>273.66666666666663</ele><time>2026-03-22T08:02:35.623Z</time></trkpt><trkpt lat="43.1790871" lon="12.3194668"><ele>274.0</ele><time>2026-03-22T08:02:37.623Z</time></trkpt><trkpt lat="43.1791086" lon="12.3195619"><ele>274.0</ele><time>2026-03-22T08:02:39.622Z</time></trkpt><trkpt lat="43.1791219" lon="12.3196612"><ele>274.0</ele><time>2026-03-22T08:02:41.623Z</time></trkpt><trkpt lat="43.1791453" lon="12.3197796"><ele>274.0</ele><time>2026-03-22T08:02:44.622Z</time></trkpt><trkpt lat="43.1791709" lon="12.3198914"><ele>274.0</ele><time>2026-03-22T08:02:47.622Z</time></trkpt><trkpt lat="43.1791882" lon="12.3200105"><ele>274.0</ele><time>2026-03-22T08:02:50.622Z</time></trkpt><trkpt lat="43.1792081" lon="12.3201156"><ele>274.0</ele><time>2026-03-22T08:02:53.622Z</time></trkpt><trkpt lat="43.1792296" lon="12.3202161"><ele>274.3333333333333</ele><time>2026-03-22T08:02:56.623Z</time></trkpt><trkpt lat="43.1792418" lon="12.3203122"><ele>274.66666666666663</ele><time>2026-03-22T08:02:59.623Z</time></trkpt><trkpt lat="43.1792366" lon="12.320418"><ele>275.0</ele><time>2026-03-22T08:03:03.622Z</time></trkpt><trkpt lat="43.1792259" lon="12.3205175"><ele>275.3333333333333</ele><time>2026-03-22T08:03:07.623Z</time></trkpt><trkpt lat="43.1792125" lon="12.3206265"><ele>275.6666666666667</ele><time>2026-03-22T08:03:11.623Z</time></trkpt><trkpt lat="43.1792014" lon="12.3207355"><ele>276.0</ele><time>2026-03-22T08:03:15.622Z</time></trkpt><trkpt lat="43.1792016" lon="12.3208443"><ele>277.42857142857144</ele><time>2026-03-22T08:03:19.622Z</time></trkpt><trkpt lat="43.1792181" lon="12.3209572"><ele>278.8571428571429</ele><time>2026-03-22T08:03:23.622Z</time></trkpt><trkpt lat="43.1792524" lon="12.3210341"><ele>280.2857142857143</ele><time>2026-03-22T08:03:26.623Z</time></trkpt><trkpt lat="43.1793051" lon="12.3210829"><ele>281.7142857142857</ele><time>2026-03-22T08:03:29.623Z</time></trkpt><trkpt lat="43.1793672" lon="12.3210995"><ele>283.1428571428571</ele><time>2026-03-22T08:03:32.622Z</time></trkpt><trkpt lat="43.1794437" lon="12.321088"><ele>284.57142857142856</ele><time>2026-03-22T08:03:36.623Z</time></trkpt><trkpt lat="43.1795081" lon="12.3211329"><ele>286.0</ele><time>2026-03-22T08:03:40.622Z</time></trkpt><trkpt lat="43.1794336" lon="12.3211841"><ele>286.0</ele><time>2026-03-22T08:03:44.623Z</time></trkpt><trkpt lat="43.1793628" lon="12.3211946"><ele>286.0</ele><time>2026-03-22T08:03:47.623Z</time></trkpt><trkpt lat="43.1792856" lon="12.3212071"><ele>286.0</ele><time>2026-03-22T08:03:50.623Z</time></trkpt><trkpt lat="43.1792069" lon="12.3212265"><ele>286.0</ele><time>2026-03-22T08:03:53.623Z</time></trkpt><trkpt lat="43.179126" lon="12.3212467"><ele>286.0</ele><time>2026-03-22T08:03:56.623Z</time></trkpt><trkpt lat="43.1790401" lon="12.3212697"><ele>286.0</ele><time>2026-03-22T08:03:59.623Z</time></trkpt><trkpt lat="43.1789786" lon="12.32129"><ele>285.2857142857143</ele><time>2026-03-22T08:04:01.622Z</time></trkpt><trkpt lat="43.1789133" lon="12.3213096"><ele>284.57142857142856</ele><time>2026-03-22T08:04:03.623Z</time></trkpt><trkpt lat="43.178852" lon="12.3213368"><ele>283.8571428571429</ele><time>2026-03-22T08:04:05.622Z</time></trkpt><trkpt lat="43.1787918" lon="12.3213698"><ele>283.1428571428571</ele><time>2026-03-22T08:04:07.623Z</time></trkpt><trkpt lat="43.1787059" lon="12.3214169"><ele>282.42857142857144</ele><time>2026-03-22T08:04:10.622Z</time></trkpt><trkpt lat="43.1786485" lon="12.321455"><ele>281.7142857142857</ele><time>2026-03-22T08:04:12.622Z</time></trkpt><trkpt lat="43.1785865" lon="12.3214933"><ele>281.0</ele><time>2026-03-22T08:04:14.623Z</time></trkpt><trkpt lat="43.1785085" lon="12.3215417"><ele>282.33333333333337</ele><time>2026-03-22T08:04:16.622Z</time></trkpt><trkpt lat="43.1784124" lon="12.3216079"><ele>283.6666666666667</ele><time>2026-03-22T08:04:18.623Z</time></trkpt><trkpt lat="43.1783513" lon="12.3216407"><ele>285.0</ele><time>2026-03-22T08:04:19.623Z</time></trkpt><trkpt lat="43.1782834" lon="12.3216695"><ele>286.3333333333333</ele><time>2026-03-22T08:04:20.622Z</time></trkpt><trkpt lat="43.1782165" lon="12.3216893"><ele>287.66666666666663</ele><time>2026-03-22T08:04:21.622Z</time></trkpt><trkpt lat="43.1781522" lon="12.3217014"><ele>289.0</ele><time>2026-03-22T08:04:22.622Z</time></trkpt><trkpt lat="43.1780393" lon="12.3217271"><ele>289.0</ele><time>2026-03-22T08:04:24.622Z</time></trkpt><trkpt lat="43.1779347" lon="12.321732"><ele>289.0</ele><time>2026-03-22T08:04:26.622Z</time></trkpt><trkpt lat="43.1778544" lon="12.3217564"><ele>289.0</ele><time>2026-03-22T08:04:28.622Z</time></trkpt><trkpt lat="43.1777733" lon="12.3217956"><ele>289.0</ele><time>2026-03-22T08:04:31.622Z</time></trkpt><trkpt lat="43.1777045" lon="12.321829"><ele>289.0</ele><time>2026-03-22T08:04:35.623Z</time></trkpt><trkpt lat="43.1776493" lon="12.321871"><ele>289.0</ele><time>2026-03-22T08:04:42.622Z</time></trkpt><trkpt lat="43.1775874" lon="12.3219115"><ele>289.0</ele><time>2026-03-22T08:04:47.622Z</time></trkpt><trkpt lat="43.1775242" lon="12.3219544"><ele>289.0</ele><time>2026-03-22T08:04:52.622Z</time></trkpt><trkpt lat="43.1774537" lon="12.3219997"><ele>289.0</ele><time>2026-03-22T08:04:56.622Z</time></trkpt><trkpt lat="43.1773788" lon="12.3220463"><ele>289.0</ele><time>2026-03-22T08:05:00.622Z</time></trkpt><trkpt lat="43.1773151" lon="12.3220829"><ele>289.0</ele><time>2026-03-22T08:05:03.623Z</time></trkpt><trkpt lat="43.1772388" lon="12.3221153"><ele>289.0</ele><time>2026-03-22T08:05:06.622Z</time></trkpt><trkpt lat="43.1771604" lon="12.3221437"><ele>288.8333333333333</ele><time>2026-03-22T08:05:09.623Z</time></trkpt><trkpt lat="43.177073" lon="12.3221765"><ele>288.66666666666663</ele><time>2026-03-22T08:05:12.622Z</time></trkpt><trkpt lat="43.1770012" lon="12.3222079"><ele>288.5</ele><time>2026-03-22T08:05:14.623Z</time></trkpt><trkpt lat="43.17692" lon="12.3222464"><ele>288.3333333333333</ele><time>2026-03-22T08:05:16.622Z</time></trkpt><trkpt lat="43.1768392" lon="12.3222914"><ele>288.1666666666667</ele><time>2026-03-22T08:05:18.623Z</time></trkpt><trkpt lat="43.1767531" lon="12.3223411"><ele>288.0</ele><time>2026-03-22T08:05:20.623Z</time></trkpt><trkpt lat="43.17665" lon="12.3223694"><ele>288.00000000000006</ele><time>2026-03-22T08:05:22.622Z</time></trkpt><trkpt lat="43.1765324" lon="12.3223889"><ele>288.0</ele><time>2026-03-22T08:05:24.623Z</time></trkpt><trkpt lat="43.1764697" lon="12.3223998"><ele>288.0</ele><time>2026-03-22T08:05:25.623Z</time></trkpt><trkpt lat="43.1764058" lon="12.3224109"><ele>288.0</ele><time>2026-03-22T08:05:26.623Z</time></trkpt><trkpt lat="43.1763427" lon="12.3224303"><ele>288.0</ele><time>2026-03-22T08:05:27.623Z</time></trkpt><trkpt lat="43.1762789" lon="12.3224465"><ele>288.00000000000006</ele><time>2026-03-22T08:05:28.622Z</time></trkpt><trkpt lat="43.1762147" lon="12.3224697"><ele>288.0</ele><time>2026-03-22T08:05:29.622Z</time></trkpt><trkpt lat="43.1761517" lon="12.3224966"><ele>286.8571428571429</ele><time>2026-03-22T08:05:30.622Z</time></trkpt><trkpt lat="43.1760883" lon="12.322526"><ele>285.7142857142857</ele><time>2026-03-22T08:05:31.623Z</time></trkpt><trkpt lat="43.1760272" lon="12.322554"><ele>284.57142857142856</ele><time>2026-03-22T08:05:32.622Z</time></trkpt><trkpt lat="43.1759681" lon="12.322585"><ele>283.42857142857144</ele><time>2026-03-22T08:05:33.622Z</time></trkpt><trkpt lat="43.175909" lon="12.3226156"><ele>282.2857142857143</ele><time>2026-03-22T08:05:34.623Z</time></trkpt><trkpt lat="43.175849" lon="12.322644"><ele>281.14285714285717</ele><time>2026-03-22T08:05:35.623Z</time></trkpt><trkpt lat="43.1757408" lon="12.3227163"><ele>280.0</ele><time>2026-03-22T08:05:37.623Z</time></trkpt><trkpt lat="43.1756639" lon="12.3227878"><ele>279.6</ele><time>2026-03-22T08:05:39.623Z</time></trkpt><trkpt lat="43.1756136" lon="12.3228988"><ele>279.2</ele><time>2026-03-22T08:05:41.622Z</time></trkpt><trkpt lat="43.1755934" lon="12.3230287"><ele>278.8</ele><time>2026-03-22T08:05:43.623Z</time></trkpt><trkpt lat="43.1755605" lon="12.3231455"><ele>278.4</ele><time>2026-03-22T08:05:45.623Z</time></trkpt><trkpt lat="43.175521" lon="12.3232553"><ele>278.0</ele><time>2026-03-22T08:05:47.622Z</time></trkpt><trkpt lat="43.1754713" lon="12.3233505"><ele>278.0</ele><time>2026-03-22T08:05:49.622Z</time></trkpt><trkpt lat="43.1754126" lon="12.323433"><ele>278.0</ele><time>2026-03-22T08:05:51.623Z</time></trkpt><trkpt lat="43.1753491" lon="12.3234966"><ele>278.0</ele><time>2026-03-22T08:05:53.623Z</time></trkpt><trkpt lat="43.1752777" lon="12.3235626"><ele>278.0</ele><time>2026-03-22T08:05:55.623Z</time></trkpt><trkpt lat="43.1752026" lon="12.3236258"><ele>278.0</ele><time>2026-03-22T08:05:57.622Z</time></trkpt><trkpt lat="43.175132" lon="12.3237018"><ele>278.0</ele><time>2026-03-22T08:05:59.622Z</time></trkpt><trkpt lat="43.1750606" lon="12.3237751"><ele>278.0</ele><time>2026-03-22T08:06:01.623Z</time></trkpt><trkpt lat="43.1749852" lon="12.3238601"><ele>278.0</ele><time>2026-03-22T08:06:03.622Z</time></trkpt><trkpt lat="43.1749114" lon="12.3239404"><ele>278.0</ele><time>2026-03-22T08:06:05.622Z</time></trkpt><trkpt lat="43.1748432" lon="12.3240125"><ele>278.0</ele><time>2026-03-22T08:06:07.623Z</time></trkpt><trkpt lat="43.1747739" lon="12.3240765"><ele>278.0</ele><time>2026-03-22T08:06:09.623Z</time></trkpt><trkpt lat="43.174704" lon="12.3241417"><ele>278.0</ele><time>2026-03-22T08:06:11.623Z</time></trkpt><trkpt lat="43.1746256" lon="12.3241903"><ele>277.83333333333337</ele><time>2026-03-22T08:06:13.622Z</time></trkpt><trkpt lat="43.174542" lon="12.3242271"><ele>277.6666666666667</ele><time>2026-03-22T08:06:15.623Z</time></trkpt><trkpt lat="43.1744602" lon="12.324263"><ele>277.5</ele><time>2026-03-22T08:06:17.623Z</time></trkpt><trkpt lat="43.1743781" lon="12.3242993"><ele>277.3333333333333</ele><time>2026-03-22T08:06:19.623Z</time></trkpt><trkpt lat="43.1742981" lon="12.3243317"><ele>277.16666666666663</ele><time>2026-03-22T08:06:21.622Z</time></trkpt><trkpt lat="43.17422" lon="12.3243713"><ele>277.0</ele><time>2026-03-22T08:06:23.622Z</time></trkpt><trkpt lat="43.1741494" lon="12.3244007"><ele>277.0</ele><time>2026-03-22T08:06:25.622Z</time></trkpt><trkpt lat="43.1740807" lon="12.3244491"><ele>277.0</ele><time>2026-03-22T08:06:35.623Z</time></trkpt><trkpt lat="43.1740068" lon="12.3244906"><ele>277.0</ele><time>2026-03-22T08:06:39.623Z</time></trkpt><trkpt lat="43.1739325" lon="12.3244989"><ele>277.0</ele><time>2026-03-22T08:06:42.623Z</time></trkpt><trkpt lat="43.1738418" lon="12.3245222"><ele>277.0</ele><time>2026-03-22T08:06:45.622Z</time></trkpt><trkpt lat="43.1737729" lon="12.3245222"><ele>277.0</ele><time>2026-03-22T08:06:47.623Z</time></trkpt><trkpt lat="43.1737072" lon="12.3245093"><ele>277.0</ele><time>2026-03-22T08:06:49.622Z</time></trkpt><trkpt lat="43.1736405" lon="12.324494"><ele>277.0</ele><time>2026-03-22T08:06:51.622Z</time></trkpt><trkpt lat="43.1735766" lon="12.3244159"><ele>277.0</ele><time>2026-03-22T08:06:54.623Z</time></trkpt><trkpt lat="43.1735745" lon="12.3243213"><ele>277.0</ele><time>2026-03-22T08:06:56.623Z</time></trkpt><trkpt lat="43.173574" lon="12.3242097"><ele>277.0</ele><time>2026-03-22T08:06:58.622Z</time></trkpt><trkpt lat="43.1735548" lon="12.324071"><ele>277.0</ele><time>2026-03-22T08:07:00.622Z</time></trkpt><trkpt lat="43.1735379" lon="12.3239234"><ele>276.6</ele><time>2026-03-22T08:07:02.623Z</time></trkpt><trkpt lat="43.1735085" lon="12.3237738"><ele>276.2</ele><time>2026-03-22T08:07:04.622Z</time></trkpt><trkpt lat="43.1734881" lon="12.3236335"><ele>275.8</ele><time>2026-03-22T08:07:06.622Z</time></trkpt><trkpt lat="43.1734544" lon="12.3234983"><ele>275.4</ele><time>2026-03-22T08:07:08.622Z</time></trkpt><trkpt lat="43.1734079" lon="12.3233505"><ele>275.0</ele><time>2026-03-22T08:07:10.623Z</time></trkpt><trkpt lat="43.173364" lon="12.323196"><ele>275.0</ele><time>2026-03-22T08:07:12.623Z</time></trkpt><trkpt lat="43.1733394" lon="12.3231134"><ele>275.0</ele><time>2026-03-22T08:07:13.622Z</time></trkpt><trkpt lat="43.1732895" lon="12.3229604"><ele>275.0</ele><time>2026-03-22T08:07:15.623Z</time></trkpt><trkpt lat="43.1732491" lon="12.3227992"><ele>275.0</ele><time>2026-03-22T08:07:17.623Z</time></trkpt><trkpt lat="43.1732156" lon="12.3226483"><ele>275.0</ele><time>2026-03-22T08:07:19.623Z</time></trkpt><trkpt lat="43.1731865" lon="12.3224977"><ele>273.5</ele><time>2026-03-22T08:07:21.622Z</time></trkpt><trkpt lat="43.1731515" lon="12.3223413"><ele>272.0</ele><time>2026-03-22T08:07:23.622Z</time></trkpt><trkpt lat="43.1731154" lon="12.3221903"><ele>270.5</ele><time>2026-03-22T08:07:25.623Z</time></trkpt><trkpt lat="43.1730742" lon="12.3220358"><ele>269.0</ele><time>2026-03-22T08:07:27.623Z</time></trkpt><trkpt lat="43.1730389" lon="12.3218734"><ele>269.0</ele><time>2026-03-22T08:07:29.622Z</time></trkpt><trkpt lat="43.173" lon="12.3217075"><ele>269.0</ele><time>2026-03-22T08:07:31.622Z</time></trkpt><trkpt lat="43.172943" lon="12.3215352"><ele>269.0</ele><time>2026-03-22T08:07:33.622Z</time></trkpt><trkpt lat="43.172918" lon="12.3214359"><ele>269.0</ele><time>2026-03-22T08:07:34.623Z</time></trkpt><trkpt lat="43.1728965" lon="12.3213449"><ele>269.0</ele><time>2026-03-22T08:07:35.623Z</time></trkpt><trkpt lat="43.1728753" lon="12.3212555"><ele>268.5</ele><time>2026-03-22T08:07:36.622Z</time></trkpt><trkpt lat="43.172854" lon="12.3211609"><ele>268.0</ele><time>2026-03-22T08:07:37.622Z</time></trkpt><trkpt lat="43.172835" lon="12.3210703"><ele>267.5</ele><time>2026-03-22T08:07:38.623Z</time></trkpt><trkpt lat="43.1728175" lon="12.3209838"><ele>267.0</ele><time>2026-03-22T08:07:39.623Z</time></trkpt><trkpt lat="43.1727843" lon="12.3208188"><ele>266.5</ele><time>2026-03-22T08:07:41.622Z</time></trkpt><trkpt lat="43.1727723" lon="12.3207336"><ele>266.0</ele><time>2026-03-22T08:07:42.622Z</time></trkpt><trkpt lat="43.1727649" lon="12.3205699"><ele>265.75</ele><time>2026-03-22T08:07:44.622Z</time></trkpt><trkpt lat="43.172784" lon="12.3204168"><ele>265.5</ele><time>2026-03-22T08:07:46.623Z</time></trkpt><trkpt lat="43.1727995" lon="12.3202514"><ele>265.25</ele><time>2026-03-22T08:07:48.622Z</time></trkpt><trkpt lat="43.1728235" lon="12.3200935"><ele>265.0</ele><time>2026-03-22T08:07:50.622Z</time></trkpt><trkpt lat="43.172851" lon="12.3199333"><ele>265.0</ele><time>2026-03-22T08:07:52.623Z</time></trkpt><trkpt lat="43.1728686" lon="12.3198486"><ele>265.0</ele><time>2026-03-22T08:07:53.622Z</time></trkpt><trkpt lat="43.1728924" lon="12.3196853"><ele>265.0</ele><time>2026-03-22T08:07:55.623Z</time></trkpt><trkpt lat="43.1729095" lon="12.319524"><ele>265.0</ele><time>2026-03-22T08:07:57.623Z</time></trkpt><trkpt lat="43.1729246" lon="12.3193612"><ele>265.0</ele><time>2026-03-22T08:07:59.622Z</time></trkpt><trkpt lat="43.1729182" lon="12.3191988"><ele>265.2</ele><time>2026-03-22T08:08:01.623Z</time></trkpt><trkpt lat="43.1728953" lon="12.3190393"><ele>265.4</ele><time>2026-03-22T08:08:03.622Z</time></trkpt><trkpt lat="43.1728372" lon="12.318891"><ele>265.6</ele><time>2026-03-22T08:08:05.622Z</time></trkpt><trkpt lat="43.1727942" lon="12.3188244"><ele>265.8</ele><time>2026-03-22T08:08:06.623Z</time></trkpt><trkpt lat="43.1727124" lon="12.3187084"><ele>266.0</ele><time>2026-03-22T08:08:08.622Z</time></trkpt><trkpt lat="43.172624" lon="12.3185965"><ele>266.0</ele><time>2026-03-22T08:08:10.623Z</time></trkpt><trkpt lat="43.1725315" lon="12.3184835"><ele>266.0</ele><time>2026-03-22T08:08:12.623Z</time></trkpt><trkpt lat="43.1724345" lon="12.3183792"><ele>266.0</ele><time>2026-03-22T08:08:14.622Z</time></trkpt><trkpt lat="43.1723422" lon="12.3182742"><ele>266.0</ele><time>2026-03-22T08:08:16.622Z</time></trkpt><trkpt lat="43.172256" lon="12.3181678"><ele>266.1666666666667</ele><time>2026-03-22T08:08:18.622Z</time></trkpt><trkpt lat="43.1722131" lon="12.3180556"><ele>266.33333333333337</ele><time>2026-03-22T08:08:20.623Z</time></trkpt><trkpt lat="43.1722464" lon="12.3179541"><ele>266.5</ele><time>2026-03-22T08:08:22.622Z</time></trkpt><trkpt lat="43.1723081" lon="12.3178697"><ele>266.6666666666667</ele><time>2026-03-22T08:08:24.622Z</time></trkpt><trkpt lat="43.172381" lon="12.3177963"><ele>266.8333333333333</ele><time>2026-03-22T08:08:26.622Z</time></trkpt><trkpt lat="43.1724541" lon="12.3177383"><ele>267.0</ele><time>2026-03-22T08:08:28.623Z</time></trkpt><trkpt lat="43.1725409" lon="12.317699"><ele>267.0</ele><time>2026-03-22T08:08:30.623Z</time></trkpt><trkpt lat="43.1726029" lon="12.317623"><ele>267.0</ele><time>2026-03-22T08:08:32.623Z</time></trkpt><trkpt lat="43.1726481" lon="12.3175244"><ele>267.0</ele><time>2026-03-22T08:08:34.622Z</time></trkpt><trkpt lat="43.1727123" lon="12.3174592"><ele>267.0</ele><time>2026-03-22T08:08:36.623Z</time></trkpt><trkpt lat="43.1727823" lon="12.3174206"><ele>267.0</ele><time>2026-03-22T08:08:38.623Z</time></trkpt><trkpt lat="43.1728452" lon="12.3173677"><ele>267.0</ele><time>2026-03-22T08:08:40.623Z</time></trkpt><trkpt lat="43.1729012" lon="12.3173132"><ele>267.0</ele><time>2026-03-22T08:08:42.622Z</time></trkpt><trkpt lat="43.172981" lon="12.3172547"><ele>267.0</ele><time>2026-03-22T08:08:45.622Z</time></trkpt><trkpt lat="43.1730397" lon="12.3171926"><ele>267.0</ele><time>2026-03-22T08:08:48.623Z</time></trkpt><trkpt lat="43.1730851" lon="12.3171184"><ele>267.0</ele><time>2026-03-22T08:08:51.623Z</time></trkpt><trkpt lat="43.1731453" lon="12.3170423"><ele>267.0</ele><time>2026-03-22T08:08:54.622Z</time></trkpt><trkpt lat="43.173205" lon="12.3169706"><ele>267.0</ele><time>2026-03-22T08:08:57.623Z</time></trkpt><trkpt lat="43.1732791" lon="12.3168767"><ele>267.0</ele><time>2026-03-22T08:09:00.623Z</time></trkpt><trkpt lat="43.1733647" lon="12.3168233"><ele>267.0</ele><time>2026-03-22T08:09:02.622Z</time></trkpt><trkpt lat="43.1734476" lon="12.3167511"><ele>267.0</ele><time>2026-03-22T08:09:04.623Z</time></trkpt><trkpt lat="43.1735316" lon="12.3166671"><ele>267.0</ele><time>2026-03-22T08:09:06.622Z</time></trkpt><trkpt lat="43.1736189" lon="12.3165741"><ele>267.0</ele><time>2026-03-22T08:09:08.622Z</time></trkpt><trkpt lat="43.1737081" lon="12.3164808"><ele>266.6</ele><time>2026-03-22T08:09:10.623Z</time></trkpt><trkpt lat="43.1737987" lon="12.316385"><ele>266.2</ele><time>2026-03-22T08:09:12.622Z</time></trkpt><trkpt lat="43.1738841" lon="12.3163022"><ele>265.8</ele><time>2026-03-22T08:09:14.622Z</time></trkpt><trkpt lat="43.1739608" lon="12.3162252"><ele>265.4</ele><time>2026-03-22T08:09:16.623Z</time></trkpt><trkpt lat="43.1740375" lon="12.316152"><ele>265.0</ele><time>2026-03-22T08:09:18.622Z</time></trkpt><trkpt lat="43.1741083" lon="12.3160808"><ele>265.0</ele><time>2026-03-22T08:09:20.622Z</time></trkpt><trkpt lat="43.1741789" lon="12.3160158"><ele>265.0</ele><time>2026-03-22T08:09:22.623Z</time></trkpt><trkpt lat="43.1742482" lon="12.3159358"><ele>265.0</ele><time>2026-03-22T08:09:24.622Z</time></trkpt><trkpt lat="43.1743142" lon="12.315866"><ele>265.0</ele><time>2026-03-22T08:09:26.623Z</time></trkpt><trkpt lat="43.1743804" lon="12.3157985"><ele>265.0</ele><time>2026-03-22T08:09:28.622Z</time></trkpt><trkpt lat="43.17445" lon="12.3157368"><ele>265.0</ele><time>2026-03-22T08:09:30.622Z</time></trkpt><trkpt lat="43.1745232" lon="12.31566"><ele>265.0</ele><time>2026-03-22T08:09:32.622Z</time></trkpt><trkpt lat="43.1745936" lon="12.3155959"><ele>265.0</ele><time>2026-03-22T08:09:34.623Z</time></trkpt><trkpt lat="43.1746626" lon="12.3155315"><ele>265.0</ele><time>2026-03-22T08:09:36.623Z</time></trkpt><trkpt lat="43.1747346" lon="12.3154703"><ele>265.0</ele><time>2026-03-22T08:09:38.622Z</time></trkpt><trkpt lat="43.1748084" lon="12.3154005"><ele>265.0</ele><time>2026-03-22T08:09:40.623Z</time></trkpt><trkpt lat="43.1748811" lon="12.3153278"><ele>265.0</ele><time>2026-03-22T08:09:42.623Z</time></trkpt><trkpt lat="43.1749589" lon="12.3152514"><ele>265.0</ele><time>2026-03-22T08:09:44.622Z</time></trkpt><trkpt lat="43.1750344" lon="12.3151769"><ele>265.0</ele><time>2026-03-22T08:09:46.623Z</time></trkpt><trkpt lat="43.1751097" lon="12.3151023"><ele>265.0</ele><time>2026-03-22T08:09:48.622Z</time></trkpt><trkpt lat="43.1751828" lon="12.3150297"><ele>265.0</ele><time>2026-03-22T08:09:50.623Z</time></trkpt><trkpt lat="43.1752574" lon="12.3149516"><ele>265.0</ele><time>2026-03-22T08:09:52.623Z</time></trkpt><trkpt lat="43.1753317" lon="12.3148823"><ele>265.0</ele><time>2026-03-22T08:09:54.622Z</time></trkpt><trkpt lat="43.1754019" lon="12.3148101"><ele>265.0</ele><time>2026-03-22T08:09:56.622Z</time></trkpt><trkpt lat="43.1754756" lon="12.3147395"><ele>265.0</ele><time>2026-03-22T08:09:58.622Z</time></trkpt><trkpt lat="43.1755514" lon="12.3146669"><ele>265.0</ele><time>2026-03-22T08:10:00.622Z</time></trkpt><trkpt lat="43.1756243" lon="12.3145963"><ele>265.0</ele><time>2026-03-22T08:10:02.623Z</time></trkpt><trkpt lat="43.1756975" lon="12.3145183"><ele>265.2</ele><time>2026-03-22T08:10:04.622Z</time></trkpt><trkpt lat="43.1757721" lon="12.3144377"><ele>265.4</ele><time>2026-03-22T08:10:06.622Z</time></trkpt><trkpt lat="43.1758467" lon="12.3143543"><ele>265.6</ele><time>2026-03-22T08:10:08.623Z</time></trkpt><trkpt lat="43.1759224" lon="12.3142724"><ele>265.8</ele><time>2026-03-22T08:10:10.623Z</time></trkpt><trkpt lat="43.1760006" lon="12.3141913"><ele>266.0</ele><time>2026-03-22T08:10:12.623Z</time></trkpt><trkpt lat="43.1760763" lon="12.3141096"><ele>266.0</ele><time>2026-03-22T08:10:14.623Z</time></trkpt><trkpt lat="43.1761571" lon="12.3140288"><ele>266.0</ele><time>2026-03-22T08:10:16.623Z</time></trkpt><trkpt lat="43.1762381" lon="12.3139524"><ele>266.0</ele><time>2026-03-22T08:10:18.623Z</time></trkpt><trkpt lat="43.1763259" lon="12.3138817"><ele>266.0</ele><time>2026-03-22T08:10:20.622Z</time></trkpt><trkpt lat="43.1764218" lon="12.3138311"><ele>266.0</ele><time>2026-03-22T08:10:22.623Z</time></trkpt><trkpt lat="43.1765195" lon="12.3137958"><ele>266.40000000000003</ele><time>2026-03-22T08:10:24.623Z</time></trkpt><trkpt lat="43.1766116" lon="12.3137697"><ele>266.8</ele><time>2026-03-22T08:10:26.623Z</time></trkpt><trkpt lat="43.176708" lon="12.3137379"><ele>267.20000000000005</ele><time>2026-03-22T08:10:28.622Z</time></trkpt><trkpt lat="43.1767941" lon="12.3137043"><ele>267.6</ele><time>2026-03-22T08:10:30.622Z</time></trkpt><trkpt lat="43.1768732" lon="12.313672"><ele>268.0</ele><time>2026-03-22T08:10:32.623Z</time></trkpt><trkpt lat="43.1769451" lon="12.3135873"><ele>268.0</ele><time>2026-03-22T08:10:34.623Z</time></trkpt><trkpt lat="43.1770037" lon="12.3134897"><ele>268.0</ele><time>2026-03-22T08:10:36.622Z</time></trkpt><trkpt lat="43.1770383" lon="12.3133888"><ele>268.0</ele><time>2026-03-22T08:10:38.623Z</time></trkpt><trkpt lat="43.1770866" lon="12.3132808"><ele>268.0</ele><time>2026-03-22T08:10:40.622Z</time></trkpt><trkpt lat="43.1771379" lon="12.3131439"><ele>268.0</ele><time>2026-03-22T08:10:42.623Z</time></trkpt><trkpt lat="43.1771906" lon="12.3130077"><ele>268.0</ele><time>2026-03-22T08:10:44.623Z</time></trkpt><trkpt lat="43.17724" lon="12.3128859"><ele>268.0</ele><time>2026-03-22T08:10:46.622Z</time></trkpt><trkpt lat="43.1772888" lon="12.3127664"><ele>268.0</ele><time>2026-03-22T08:10:48.623Z</time></trkpt><trkpt lat="43.1773363" lon="12.3126518"><ele>268.0</ele><time>2026-03-22T08:10:50.623Z</time></trkpt><trkpt lat="43.1773835" lon="12.3125429"><ele>268.0</ele><time>2026-03-22T08:10:52.622Z</time></trkpt><trkpt lat="43.1774305" lon="12.3124305"><ele>268.16666666666663</ele><time>2026-03-22T08:10:54.622Z</time></trkpt><trkpt lat="43.1774669" lon="12.3123219"><ele>268.3333333333333</ele><time>2026-03-22T08:10:56.623Z</time></trkpt><trkpt lat="43.1775104" lon="12.3122098"><ele>268.5</ele><time>2026-03-22T08:10:58.622Z</time></trkpt><trkpt lat="43.1775461" lon="12.3120954"><ele>268.6666666666667</ele><time>2026-03-22T08:11:00.622Z</time></trkpt><trkpt lat="43.1775898" lon="12.3120052"><ele>268.83333333333337</ele><time>2026-03-22T08:11:02.622Z</time></trkpt><trkpt lat="43.1776307" lon="12.3119162"><ele>269.0</ele><time>2026-03-22T08:11:04.623Z</time></trkpt><trkpt lat="43.1776589" lon="12.3118353"><ele>269.33333333333337</ele><time>2026-03-22T08:11:06.622Z</time></trkpt><trkpt lat="43.1776987" lon="12.3117341"><ele>269.6666666666667</ele><time>2026-03-22T08:11:09.623Z</time></trkpt><trkpt lat="43.1777294" lon="12.3116415"><ele>270.0</ele><time>2026-03-22T08:11:12.623Z</time></trkpt><trkpt lat="43.1777548" lon="12.3115525"><ele>270.3333333333333</ele><time>2026-03-22T08:11:15.623Z</time></trkpt><trkpt lat="43.1777896" lon="12.3114534"><ele>270.66666666666663</ele><time>2026-03-22T08:11:19.622Z</time></trkpt><trkpt lat="43.1778284" lon="12.3113624"><ele>271.0</ele><time>2026-03-22T08:11:22.623Z</time></trkpt><trkpt lat="43.1778736" lon="12.3112629"><ele>271.0</ele><time>2026-03-22T08:11:25.623Z</time></trkpt><trkpt lat="43.1779052" lon="12.311176"><ele>271.0</ele><time>2026-03-22T08:11:28.623Z</time></trkpt><trkpt lat="43.1779309" lon="12.3110924"><ele>271.0</ele><time>2026-03-22T08:11:31.623Z</time></trkpt><trkpt lat="43.1779623" lon="12.3110081"><ele>271.0</ele><time>2026-03-22T08:11:34.623Z</time></trkpt><trkpt lat="43.177997" lon="12.3109234"><ele>271.0</ele><time>2026-03-22T08:11:37.622Z</time></trkpt><trkpt lat="43.1780272" lon="12.3108448"><ele>271.0</ele><time>2026-03-22T08:11:40.622Z</time></trkpt><trkpt lat="43.1780602" lon="12.3107649"><ele>271.0</ele><time>2026-03-22T08:11:43.623Z</time></trkpt><trkpt lat="43.1780918" lon="12.3106802"><ele>271.0</ele><time>2026-03-22T08:11:46.622Z</time></trkpt><trkpt lat="43.1781201" lon="12.3106009"><ele>271.0</ele><time>2026-03-22T08:11:49.623Z</time></trkpt><trkpt lat="43.1781511" lon="12.3105189"><ele>271.0</ele><time>2026-03-22T08:11:52.622Z</time></trkpt><trkpt lat="43.1781859" lon="12.3104369"><ele>271.0</ele><time>2026-03-22T08:11:55.622Z</time></trkpt><trkpt lat="43.1782159" lon="12.3103511"><ele>271.0</ele><time>2026-03-22T08:11:58.623Z</time></trkpt><trkpt lat="43.1782515" lon="12.3102661"><ele>271.0</ele><time>2026-03-22T08:12:01.623Z</time></trkpt><trkpt lat="43.178278" lon="12.3101788"><ele>271.0</ele><time>2026-03-22T08:12:04.623Z</time></trkpt><trkpt lat="43.17831" lon="12.3100924"><ele>272.7142857142857</ele><time>2026-03-22T08:12:07.622Z</time></trkpt><trkpt lat="43.1783456" lon="12.310006"><ele>274.42857142857144</ele><time>2026-03-22T08:12:10.623Z</time></trkpt><trkpt lat="43.1783809" lon="12.3099221"><ele>276.14285714285717</ele><time>2026-03-22T08:12:13.623Z</time></trkpt><trkpt lat="43.1784093" lon="12.3098351"><ele>277.8571428571429</ele><time>2026-03-22T08:12:16.622Z</time></trkpt><trkpt lat="43.1784411" lon="12.309753"><ele>279.5714285714286</ele><time>2026-03-22T08:12:19.622Z</time></trkpt><trkpt lat="43.1784747" lon="12.3096756"><ele>281.2857142857143</ele><time>2026-03-22T08:12:22.622Z</time></trkpt><trkpt lat="43.1785098" lon="12.309577"><ele>283.0</ele><time>2026-03-22T08:12:26.622Z</time></trkpt><trkpt lat="43.1785451" lon="12.3094856"><ele>284.57142857142856</ele><time>2026-03-22T08:12:30.623Z</time></trkpt><trkpt lat="43.1785763" lon="12.3093996"><ele>286.14285714285717</ele><time>2026-03-22T08:12:34.623Z</time></trkpt><trkpt lat="43.1786095" lon="12.3093124"><ele>287.7142857142857</ele><time>2026-03-22T08:12:38.622Z</time></trkpt><trkpt lat="43.1786415" lon="12.3092176"><ele>289.2857142857143</ele><time>2026-03-22T08:12:42.623Z</time></trkpt><trkpt lat="43.178673" lon="12.3091295"><ele>290.8571428571429</ele><time>2026-03-22T08:12:46.623Z</time></trkpt><trkpt lat="43.1787004" lon="12.3090486"><ele>292.42857142857144</ele><time>2026-03-22T08:12:50.623Z</time></trkpt><trkpt lat="43.1787001" lon="12.3089494"><ele>294.0</ele><time>2026-03-22T08:12:55.622Z</time></trkpt><trkpt lat="43.1786761" lon="12.3088669"><ele>294.57142857142856</ele><time>2026-03-22T08:12:59.622Z</time></trkpt><trkpt lat="43.1786517" lon="12.3087779"><ele>295.1428571428571</ele><time>2026-03-22T08:13:03.622Z</time></trkpt><trkpt lat="43.1786442" lon="12.3086748"><ele>295.7142857142857</ele><time>2026-03-22T08:13:08.623Z</time></trkpt><trkpt lat="43.1786581" lon="12.3085745"><ele>296.2857142857143</ele><time>2026-03-22T08:13:14.623Z</time></trkpt><trkpt lat="43.1786834" lon="12.3084945"><ele>296.85714285714283</ele><time>2026-03-22T08:13:19.623Z</time></trkpt><trkpt lat="43.1787021" lon="12.3084111"><ele>297.42857142857144</ele><time>2026-03-22T08:13:25.623Z</time></trkpt><trkpt lat="43.1786793" lon="12.3083223"><ele>298.0</ele><time>2026-03-22T08:13:31.622Z</time></trkpt><trkpt lat="43.1787418" lon="12.3083081"><ele>298.0</ele><time>2026-03-22T08:14:06.623Z</time></trkpt><trkpt lat="43.1787938" lon="12.3083647"><ele>298.0</ele><time>2026-03-22T08:14:12.622Z</time></trkpt><trkpt lat="43.1788501" lon="12.3084073"><ele>298.0</ele><time>2026-03-22T08:15:40.622Z</time></trkpt><trkpt lat="43.1787966" lon="12.3083603"><ele>298.0</ele><time>2026-03-22T08:16:47.623Z</time></trkpt><trkpt lat="43.1787363" lon="12.3083244"><ele>298.0</ele><time>2026-03-22T08:16:53.622Z</time></trkpt><trkpt lat="43.1786676" lon="12.308296"><ele>298.0</ele><time>2026-03-22T08:17:06.623Z</time></trkpt><trkpt lat="43.1785937" lon="12.3082632"><ele>298.0</ele><time>2026-03-22T08:17:11.622Z</time></trkpt><trkpt lat="43.1785289" lon="12.308246"><ele>298.0</ele><time>2026-03-22T08:17:15.622Z</time></trkpt><trkpt lat="43.1784569" lon="12.3082347"><ele>298.0</ele><time>2026-03-22T08:17:19.622Z</time></trkpt><trkpt lat="43.1783807" lon="12.3082259"><ele>298.0</ele><time>2026-03-22T08:17:23.622Z</time></trkpt><trkpt lat="43.1783047" lon="12.3082333"><ele>298.0</ele><time>2026-03-22T08:17:27.623Z</time></trkpt><trkpt lat="43.178222" lon="12.3082384"><ele>298.0</ele><time>2026-03-22T08:17:31.622Z</time></trkpt><trkpt lat="43.1781574" lon="12.3082466"><ele>298.0</ele><time>2026-03-22T08:17:34.623Z</time></trkpt><trkpt lat="43.1780875" lon="12.3082621"><ele>298.0</ele><time>2026-03-22T08:17:38.622Z</time></trkpt><trkpt lat="43.1780092" lon="12.3082583"><ele>297.66666666666663</ele><time>2026-03-22T08:17:42.622Z</time></trkpt><trkpt lat="43.1779486" lon="12.3082826"><ele>297.3333333333333</ele><time>2026-03-22T08:17:45.623Z</time></trkpt><trkpt lat="43.1778774" lon="12.3083119"><ele>297.0</ele><time>2026-03-22T08:17:49.623Z</time></trkpt><trkpt lat="43.1778006" lon="12.3083346"><ele>296.6666666666667</ele><time>2026-03-22T08:17:53.623Z</time></trkpt><trkpt lat="43.1777198" lon="12.3083385"><ele>296.33333333333337</ele><time>2026-03-22T08:17:57.622Z</time></trkpt><trkpt lat="43.1776448" lon="12.3083904"><ele>296.0</ele><time>2026-03-22T08:18:01.622Z</time></trkpt><trkpt lat="43.1775827" lon="12.308477"><ele>296.0</ele><time>2026-03-22T08:18:04.622Z</time></trkpt><trkpt lat="43.1774896" lon="12.3084076"><ele>296.0</ele><time>2026-03-22T08:18:06.623Z</time></trkpt><trkpt lat="43.177452" lon="12.3082769"><ele>296.0</ele><time>2026-03-22T08:18:08.622Z</time></trkpt><trkpt lat="43.1775154" lon="12.3081543"><ele>296.0</ele><time>2026-03-22T08:18:10.622Z</time></trkpt><trkpt lat="43.1776001" lon="12.3080518"><ele>296.0</ele><time>2026-03-22T08:18:12.622Z</time></trkpt><trkpt lat="43.1777001" lon="12.3079479"><ele>293.2</ele><time>2026-03-22T08:18:14.623Z</time></trkpt><trkpt lat="43.1777553" lon="12.3078985"><ele>290.40000000000003</ele><time>2026-03-22T08:18:15.622Z</time></trkpt><trkpt lat="43.1778191" lon="12.3078553"><ele>287.6</ele><time>2026-03-22T08:18:16.622Z</time></trkpt><trkpt lat="43.17792" lon="12.3077493"><ele>284.8</ele><time>2026-03-22T08:18:18.623Z</time></trkpt><trkpt lat="43.1779874" lon="12.3076975"><ele>282.0</ele><time>2026-03-22T08:18:19.623Z</time></trkpt><trkpt lat="43.1781127" lon="12.3076291"><ele>282.0</ele><time>2026-03-22T08:18:21.623Z</time></trkpt><trkpt lat="43.1781706" lon="12.3075873"><ele>282.0</ele><time>2026-03-22T08:18:22.622Z</time></trkpt><trkpt lat="43.1782325" lon="12.3075332"><ele>282.0</ele><time>2026-03-22T08:18:23.622Z</time></trkpt><trkpt lat="43.1783304" lon="12.307436"><ele>282.0</ele><time>2026-03-22T08:18:25.622Z</time></trkpt><trkpt lat="43.1783842" lon="12.3073879"><ele>282.0</ele><time>2026-03-22T08:18:26.623Z</time></trkpt><trkpt lat="43.1784613" lon="12.3073054"><ele>282.0</ele><time>2026-03-22T08:18:28.623Z</time></trkpt><trkpt lat="43.1785026" lon="12.3072338"><ele>282.0</ele><time>2026-03-22T08:18:30.622Z</time></trkpt><trkpt lat="43.1785638" lon="12.3071426"><ele>282.0</ele><time>2026-03-22T08:18:33.623Z</time></trkpt><trkpt lat="43.1786202" lon="12.307085"><ele>282.0</ele><time>2026-03-22T08:18:35.622Z</time></trkpt><trkpt lat="43.1786911" lon="12.307086"><ele>282.0</ele><time>2026-03-22T08:18:37.622Z</time></trkpt><trkpt lat="43.1787565" lon="12.3070802"><ele>282.0</ele><time>2026-03-22T08:18:39.622Z</time></trkpt><trkpt lat="43.1788375" lon="12.3070707"><ele>282.0</ele><time>2026-03-22T08:18:42.623Z</time></trkpt><trkpt lat="43.1789214" lon="12.3070573"><ele>282.0</ele><time>2026-03-22T08:18:45.623Z</time></trkpt><trkpt lat="43.1790046" lon="12.3070293"><ele>282.0</ele><time>2026-03-22T08:18:48.622Z</time></trkpt><trkpt lat="43.1790808" lon="12.306974"><ele>282.0</ele><time>2026-03-22T08:18:51.623Z</time></trkpt><trkpt lat="43.1791514" lon="12.3069212"><ele>282.0</ele><time>2026-03-22T08:18:54.623Z</time></trkpt><trkpt lat="43.1792231" lon="12.3068621"><ele>282.0</ele><time>2026-03-22T08:18:57.623Z</time></trkpt><trkpt lat="43.1793015" lon="12.3068002"><ele>282.0</ele><time>2026-03-22T08:19:00.623Z</time></trkpt><trkpt lat="43.1793811" lon="12.3067317"><ele>282.7142857142857</ele><time>2026-03-22T08:19:03.622Z</time></trkpt><trkpt lat="43.1794399" lon="12.3066814"><ele>283.42857142857144</ele><time>2026-03-22T08:19:05.623Z</time></trkpt><trkpt lat="43.1795024" lon="12.3066396"><ele>284.1428571428571</ele><time>2026-03-22T08:19:07.622Z</time></trkpt><trkpt lat="43.1795632" lon="12.3065964"><ele>284.8571428571429</ele><time>2026-03-22T08:19:09.623Z</time></trkpt><trkpt lat="43.1796262" lon="12.3065658"><ele>285.57142857142856</ele><time>2026-03-22T08:19:11.623Z</time></trkpt><trkpt lat="43.1796906" lon="12.3065444"><ele>286.2857142857143</ele><time>2026-03-22T08:19:13.623Z</time></trkpt><trkpt lat="43.1797557" lon="12.3065287"><ele>287.0</ele><time>2026-03-22T08:19:15.622Z</time></trkpt><trkpt lat="43.1798494" lon="12.3065282"><ele>288.0</ele><time>2026-03-22T08:19:18.622Z</time></trkpt><trkpt lat="43.1799129" lon="12.3065254"><ele>289.0</ele><time>2026-03-22T08:19:20.622Z</time></trkpt><trkpt lat="43.1799776" lon="12.3065319"><ele>290.0</ele><time>2026-03-22T08:19:22.622Z</time></trkpt><trkpt lat="43.1800479" lon="12.3065348"><ele>291.0</ele><time>2026-03-22T08:19:24.622Z</time></trkpt><trkpt lat="43.180122" lon="12.3065334"><ele>292.0</ele><time>2026-03-22T08:19:26.622Z</time></trkpt><trkpt lat="43.1801938" lon="12.3065367"><ele>293.0</ele><time>2026-03-22T08:19:28.622Z</time></trkpt><trkpt lat="43.1802604" lon="12.3065327"><ele>294.0</ele><time>2026-03-22T08:19:30.623Z</time></trkpt><trkpt lat="43.1803234" lon="12.3065402"><ele>294.0</ele><time>2026-03-22T08:19:32.622Z</time></trkpt><trkpt lat="43.1803875" lon="12.3065486"><ele>294.0</ele><time>2026-03-22T08:19:34.623Z</time></trkpt><trkpt lat="43.1804552" lon="12.306553"><ele>294.0</ele><time>2026-03-22T08:19:36.622Z</time></trkpt><trkpt lat="43.1805215" lon="12.3065659"><ele>294.0</ele><time>2026-03-22T08:19:38.623Z</time></trkpt><trkpt lat="43.1805877" lon="12.3065814"><ele>294.0</ele><time>2026-03-22T08:19:40.622Z</time></trkpt><trkpt lat="43.1806542" lon="12.3065974"><ele>294.0</ele><time>2026-03-22T08:19:42.622Z</time></trkpt><trkpt lat="43.180722" lon="12.3066159"><ele>294.0</ele><time>2026-03-22T08:19:44.623Z</time></trkpt><trkpt lat="43.180788" lon="12.3066389"><ele>294.42857142857144</ele><time>2026-03-22T08:19:46.622Z</time></trkpt><trkpt lat="43.1808523" lon="12.3066679"><ele>294.8571428571429</ele><time>2026-03-22T08:19:48.622Z</time></trkpt><trkpt lat="43.1809131" lon="12.3066995"><ele>295.2857142857143</ele><time>2026-03-22T08:19:50.623Z</time></trkpt><trkpt lat="43.1809733" lon="12.306739"><ele>295.7142857142857</ele><time>2026-03-22T08:19:52.623Z</time></trkpt><trkpt lat="43.1810354" lon="12.3067748"><ele>296.14285714285717</ele><time>2026-03-22T08:19:54.623Z</time></trkpt><trkpt lat="43.1810946" lon="12.306812"><ele>296.57142857142856</ele><time>2026-03-22T08:19:56.623Z</time></trkpt><trkpt lat="43.1811518" lon="12.3068507"><ele>297.0</ele><time>2026-03-22T08:19:58.622Z</time></trkpt><trkpt lat="43.1812107" lon="12.3068899"><ele>297.0</ele><time>2026-03-22T08:20:00.623Z</time></trkpt><trkpt lat="43.1812713" lon="12.3069319"><ele>297.0</ele><time>2026-03-22T08:20:02.622Z</time></trkpt><trkpt lat="43.1813317" lon="12.3069687"><ele>297.0</ele><time>2026-03-22T08:20:04.623Z</time></trkpt><trkpt lat="43.1813914" lon="12.3070012"><ele>297.0</ele><time>2026-03-22T08:20:06.623Z</time></trkpt><trkpt lat="43.1814527" lon="12.3070318"><ele>297.0</ele><time>2026-03-22T08:20:08.622Z</time></trkpt><trkpt lat="43.1815121" lon="12.3070666"><ele>297.0</ele><time>2026-03-22T08:20:10.622Z</time></trkpt><trkpt lat="43.181576" lon="12.3070993"><ele>297.0</ele><time>2026-03-22T08:20:12.623Z</time></trkpt><trkpt lat="43.181657" lon="12.3071572"><ele>296.57142857142856</ele><time>2026-03-22T08:20:15.623Z</time></trkpt><trkpt lat="43.1817144" lon="12.3071989"><ele>296.14285714285717</ele><time>2026-03-22T08:20:17.622Z</time></trkpt><trkpt lat="43.1817763" lon="12.3072279"><ele>295.7142857142857</ele><time>2026-03-22T08:20:19.623Z</time></trkpt><trkpt lat="43.1818358" lon="12.3072613"><ele>295.2857142857143</ele><time>2026-03-22T08:20:21.623Z</time></trkpt><trkpt lat="43.181915" lon="12.3073076"><ele>294.8571428571429</ele><time>2026-03-22T08:20:24.623Z</time></trkpt><trkpt lat="43.18199" lon="12.3073497"><ele>294.42857142857144</ele><time>2026-03-22T08:20:27.623Z</time></trkpt><trkpt lat="43.1820657" lon="12.3073997"><ele>294.0</ele><time>2026-03-22T08:20:30.622Z</time></trkpt><trkpt lat="43.1821479" lon="12.307445"><ele>295.5</ele><time>2026-03-22T08:20:33.623Z</time></trkpt><trkpt lat="43.1822198" lon="12.3074879"><ele>297.0</ele><time>2026-03-22T08:20:36.622Z</time></trkpt><trkpt lat="43.1822942" lon="12.3075372"><ele>298.5</ele><time>2026-03-22T08:20:39.622Z</time></trkpt><trkpt lat="43.1823763" lon="12.3075869"><ele>300.0</ele><time>2026-03-22T08:20:42.622Z</time></trkpt><trkpt lat="43.1824574" lon="12.3076242"><ele>301.5</ele><time>2026-03-22T08:20:45.622Z</time></trkpt><trkpt lat="43.1825406" lon="12.3076821"><ele>303.0</ele><time>2026-03-22T08:20:48.622Z</time></trkpt><trkpt lat="43.182621" lon="12.3077396"><ele>303.0</ele><time>2026-03-22T08:20:51.623Z</time></trkpt><trkpt lat="43.1826716" lon="12.3077936"><ele>303.0</ele><time>2026-03-22T08:20:53.623Z</time></trkpt><trkpt lat="43.1827298" lon="12.3078893"><ele>303.0</ele><time>2026-03-22T08:20:56.623Z</time></trkpt><trkpt lat="43.1827731" lon="12.3079903"><ele>303.0</ele><time>2026-03-22T08:20:59.623Z</time></trkpt><trkpt lat="43.1828113" lon="12.3080764"><ele>303.0</ele><time>2026-03-22T08:21:02.623Z</time></trkpt><trkpt lat="43.1828371" lon="12.3081578"><ele>303.0</ele><time>2026-03-22T08:21:05.623Z</time></trkpt><trkpt lat="43.1828536" lon="12.3082618"><ele>304.57142857142856</ele><time>2026-03-22T08:21:09.623Z</time></trkpt><trkpt lat="43.1828891" lon="12.3083538"><ele>306.1428571428571</ele><time>2026-03-22T08:21:13.622Z</time></trkpt><trkpt lat="43.1829325" lon="12.3084487"><ele>307.71428571428567</ele><time>2026-03-22T08:21:17.622Z</time></trkpt><trkpt lat="43.182978" lon="12.3085125"><ele>309.2857142857143</ele><time>2026-03-22T08:21:20.623Z</time></trkpt><trkpt lat="43.1830275" lon="12.3085666"><ele>310.85714285714283</ele><time>2026-03-22T08:21:23.622Z</time></trkpt><trkpt lat="43.1830892" lon="12.3086144"><ele>312.4285714285714</ele><time>2026-03-22T08:21:27.623Z</time></trkpt><trkpt lat="43.1831628" lon="12.30865"><ele>314.0</ele><time>2026-03-22T08:21:31.623Z</time></trkpt><trkpt lat="43.1832442" lon="12.3086488"><ele>313.99999999999994</ele><time>2026-03-22T08:21:35.623Z</time></trkpt><trkpt lat="43.1833194" lon="12.3086285"><ele>314.0</ele><time>2026-03-22T08:21:39.623Z</time></trkpt><trkpt lat="43.1833854" lon="12.3086026"><ele>314.0</ele><time>2026-03-22T08:21:43.622Z</time></trkpt><trkpt lat="43.1834527" lon="12.3085689"><ele>314.0</ele><time>2026-03-22T08:21:47.623Z</time></trkpt><trkpt lat="43.1835201" lon="12.3085302"><ele>314.0</ele><time>2026-03-22T08:21:51.622Z</time></trkpt><trkpt lat="43.1835845" lon="12.3084847"><ele>313.99999999999994</ele><time>2026-03-22T08:21:55.622Z</time></trkpt><trkpt lat="43.1836411" lon="12.3084279"><ele>314.0</ele><time>2026-03-22T08:21:59.622Z</time></trkpt><trkpt lat="43.1836994" lon="12.3083685"><ele>313.99999999999994</ele><time>2026-03-22T08:22:03.622Z</time></trkpt><trkpt lat="43.1837577" lon="12.3083077"><ele>314.0</ele><time>2026-03-22T08:22:07.622Z</time></trkpt><trkpt lat="43.1838223" lon="12.3082497"><ele>314.0</ele><time>2026-03-22T08:22:11.623Z</time></trkpt><trkpt lat="43.1838829" lon="12.3081939"><ele>314.0</ele><time>2026-03-22T08:22:15.622Z</time></trkpt><trkpt lat="43.1839431" lon="12.3081355"><ele>314.0</ele><time>2026-03-22T08:22:19.623Z</time></trkpt><trkpt lat="43.1840045" lon="12.3080773"><ele>313.99999999999994</ele><time>2026-03-22T08:22:23.623Z</time></trkpt><trkpt lat="43.1840646" lon="12.3080209"><ele>314.0</ele><time>2026-03-22T08:22:27.622Z</time></trkpt><trkpt lat="43.1841197" lon="12.3079639"><ele>315.57142857142856</ele><time>2026-03-22T08:22:31.623Z</time></trkpt><trkpt lat="43.1841792" lon="12.3079039"><ele>317.1428571428571</ele><time>2026-03-22T08:22:35.622Z</time></trkpt><trkpt lat="43.1842359" lon="12.3078376"><ele>318.71428571428567</ele><time>2026-03-22T08:22:39.623Z</time></trkpt><trkpt lat="43.1842927" lon="12.3077668"><ele>320.2857142857143</ele><time>2026-03-22T08:22:43.622Z</time></trkpt><trkpt lat="43.18436" lon="12.3077058"><ele>321.8571428571429</ele><time>2026-03-22T08:22:47.623Z</time></trkpt><trkpt lat="43.1844125" lon="12.3076534"><ele>323.4285714285714</ele><time>2026-03-22T08:22:50.623Z</time></trkpt><trkpt lat="43.1844742" lon="12.3075903"><ele>325.0</ele><time>2026-03-22T08:22:54.623Z</time></trkpt><trkpt lat="43.1845346" lon="12.307511"><ele>325.0</ele><time>2026-03-22T08:22:58.622Z</time></trkpt><trkpt lat="43.1845777" lon="12.3074431"><ele>325.0</ele><time>2026-03-22T08:23:01.623Z</time></trkpt><trkpt lat="43.1846249" lon="12.3073794"><ele>325.0</ele><time>2026-03-22T08:23:04.623Z</time></trkpt><trkpt lat="43.1846663" lon="12.3072881"><ele>325.0</ele><time>2026-03-22T08:23:07.623Z</time></trkpt><trkpt lat="43.1847156" lon="12.3072037"><ele>325.0</ele><time>2026-03-22T08:23:10.622Z</time></trkpt><trkpt lat="43.1847664" lon="12.3071255"><ele>325.0</ele><time>2026-03-22T08:23:13.622Z</time></trkpt><trkpt lat="43.1848125" lon="12.30705"><ele>325.0</ele><time>2026-03-22T08:23:16.623Z</time></trkpt><trkpt lat="43.1848558" lon="12.3069694"><ele>327.16666666666663</ele><time>2026-03-22T08:23:19.622Z</time></trkpt><trkpt lat="43.1849116" lon="12.3069023"><ele>329.3333333333333</ele><time>2026-03-22T08:23:22.623Z</time></trkpt><trkpt lat="43.1849738" lon="12.3068317"><ele>331.5</ele><time>2026-03-22T08:23:25.622Z</time></trkpt><trkpt lat="43.1850367" lon="12.3067748"><ele>333.6666666666667</ele><time>2026-03-22T08:23:28.622Z</time></trkpt><trkpt lat="43.1850937" lon="12.3067089"><ele>335.83333333333337</ele><time>2026-03-22T08:23:31.622Z</time></trkpt><trkpt lat="43.1851441" lon="12.3066245"><ele>338.0</ele><time>2026-03-22T08:23:34.623Z</time></trkpt><trkpt lat="43.185192" lon="12.3065358"><ele>338.0</ele><time>2026-03-22T08:23:37.622Z</time></trkpt><trkpt lat="43.1852329" lon="12.3064365"><ele>338.0</ele><time>2026-03-22T08:23:40.623Z</time></trkpt><trkpt lat="43.1852732" lon="12.3063325"><ele>338.0</ele><time>2026-03-22T08:23:43.623Z</time></trkpt><trkpt lat="43.1853011" lon="12.3062301"><ele>338.0</ele><time>2026-03-22T08:23:46.623Z</time></trkpt><trkpt lat="43.1853271" lon="12.3061415"><ele>338.0</ele><time>2026-03-22T08:23:49.623Z</time></trkpt><trkpt lat="43.1853546" lon="12.3060474"><ele>338.0</ele><time>2026-03-22T08:23:52.622Z</time></trkpt><trkpt lat="43.1853871" lon="12.3059578"><ele>338.1666666666667</ele><time>2026-03-22T08:23:55.622Z</time></trkpt><trkpt lat="43.185424" lon="12.3058533"><ele>338.33333333333337</ele><time>2026-03-22T08:23:58.623Z</time></trkpt><trkpt lat="43.185469" lon="12.3057571"><ele>338.5</ele><time>2026-03-22T08:24:01.623Z</time></trkpt><trkpt lat="43.1855242" lon="12.3056654"><ele>338.6666666666667</ele><time>2026-03-22T08:24:04.623Z</time></trkpt><trkpt lat="43.1855864" lon="12.3055743"><ele>338.8333333333333</ele><time>2026-03-22T08:24:07.622Z</time></trkpt><trkpt lat="43.1856527" lon="12.3055011"><ele>339.0</ele><time>2026-03-22T08:24:10.623Z</time></trkpt><trkpt lat="43.1857216" lon="12.3054434"><ele>339.0</ele><time>2026-03-22T08:24:13.623Z</time></trkpt><trkpt lat="43.1857958" lon="12.3054042"><ele>339.0</ele><time>2026-03-22T08:24:16.623Z</time></trkpt><trkpt lat="43.1858725" lon="12.3053594"><ele>339.0</ele><time>2026-03-22T08:24:19.623Z</time></trkpt><trkpt lat="43.1859501" lon="12.3053188"><ele>339.0</ele><time>2026-03-22T08:24:22.623Z</time></trkpt><trkpt lat="43.186034" lon="12.3052996"><ele>339.0</ele><time>2026-03-22T08:24:25.623Z</time></trkpt><trkpt lat="43.1861195" lon="12.3052925"><ele>339.0</ele><time>2026-03-22T08:24:28.623Z</time></trkpt><trkpt lat="43.1861974" lon="12.3052697"><ele>339.0</ele><time>2026-03-22T08:24:31.623Z</time></trkpt><trkpt lat="43.1862704" lon="12.3052684"><ele>339.0</ele><time>2026-03-22T08:24:34.622Z</time></trkpt><trkpt lat="43.1863422" lon="12.3052776"><ele>339.0</ele><time>2026-03-22T08:24:37.622Z</time></trkpt><trkpt lat="43.1864092" lon="12.3052857"><ele>339.0</ele><time>2026-03-22T08:24:40.623Z</time></trkpt><trkpt lat="43.1864752" lon="12.3052931"><ele>339.0</ele><time>2026-03-22T08:24:43.622Z</time></trkpt><trkpt lat="43.1865414" lon="12.3052963"><ele>339.0</ele><time>2026-03-22T08:24:46.623Z</time></trkpt><trkpt lat="43.1866086" lon="12.3053154"><ele>339.0</ele><time>2026-03-22T08:24:49.623Z</time></trkpt><trkpt lat="43.1866783" lon="12.3053276"><ele>341.1666666666667</ele><time>2026-03-22T08:24:52.623Z</time></trkpt><trkpt lat="43.1867496" lon="12.305347"><ele>343.3333333333333</ele><time>2026-03-22T08:24:55.622Z</time></trkpt><trkpt lat="43.1868176" lon="12.30537"><ele>345.5</ele><time>2026-03-22T08:24:58.623Z</time></trkpt><trkpt lat="43.1868863" lon="12.3054019"><ele>347.66666666666663</ele><time>2026-03-22T08:25:01.622Z</time></trkpt><trkpt lat="43.1869559" lon="12.3054525"><ele>349.8333333333333</ele><time>2026-03-22T08:25:04.623Z</time></trkpt><trkpt lat="43.1870232" lon="12.3055185"><ele>352.0</ele><time>2026-03-22T08:25:07.623Z</time></trkpt><trkpt lat="43.187094" lon="12.3055993"><ele>354.3333333333333</ele><time>2026-03-22T08:25:10.622Z</time></trkpt><trkpt lat="43.1871462" lon="12.3056592"><ele>356.66666666666663</ele><time>2026-03-22T08:25:12.622Z</time></trkpt><trkpt lat="43.1872019" lon="12.3057226"><ele>359.0</ele><time>2026-03-22T08:25:14.622Z</time></trkpt><trkpt lat="43.1872571" lon="12.3057866"><ele>361.3333333333333</ele><time>2026-03-22T08:25:16.623Z</time></trkpt><trkpt lat="43.1873075" lon="12.3058488"><ele>363.6666666666667</ele><time>2026-03-22T08:25:18.622Z</time></trkpt><trkpt lat="43.1873757" lon="12.3059352"><ele>366.0</ele><time>2026-03-22T08:25:21.623Z</time></trkpt><trkpt lat="43.1874355" lon="12.3060269"><ele>366.0</ele><time>2026-03-22T08:25:24.622Z</time></trkpt><trkpt lat="43.1874833" lon="12.3061135"><ele>366.0</ele><time>2026-03-22T08:25:27.622Z</time></trkpt><trkpt lat="43.1875306" lon="12.3062034"><ele>366.0</ele><time>2026-03-22T08:25:30.622Z</time></trkpt><trkpt lat="43.1875756" lon="12.3062865"><ele>366.0</ele><time>2026-03-22T08:25:33.623Z</time></trkpt><trkpt lat="43.1876291" lon="12.3063664"><ele>366.0</ele><time>2026-03-22T08:25:36.623Z</time></trkpt><trkpt lat="43.1876921" lon="12.3064468"><ele>366.0</ele><time>2026-03-22T08:25:39.622Z</time></trkpt><trkpt lat="43.1877496" lon="12.3065198"><ele>366.8333333333333</ele><time>2026-03-22T08:25:42.622Z</time></trkpt><trkpt lat="43.1878239" lon="12.3065839"><ele>367.6666666666667</ele><time>2026-03-22T08:25:45.622Z</time></trkpt><trkpt lat="43.1878899" lon="12.3066408"><ele>368.5</ele><time>2026-03-22T08:25:48.623Z</time></trkpt><trkpt lat="43.1879605" lon="12.3066964"><ele>369.33333333333337</ele><time>2026-03-22T08:25:51.623Z</time></trkpt><trkpt lat="43.1880388" lon="12.3067433"><ele>370.1666666666667</ele><time>2026-03-22T08:25:54.623Z</time></trkpt><trkpt lat="43.1881018" lon="12.3067646"><ele>371.0</ele><time>2026-03-22T08:25:57.623Z</time></trkpt><trkpt lat="43.1881812" lon="12.306793"><ele>371.0</ele><time>2026-03-22T08:26:00.623Z</time></trkpt><trkpt lat="43.188286" lon="12.3068227"><ele>371.0</ele><time>2026-03-22T08:26:04.622Z</time></trkpt><trkpt lat="43.1883586" lon="12.3068473"><ele>371.0</ele><time>2026-03-22T08:26:07.623Z</time></trkpt><trkpt lat="43.1884473" lon="12.3068675"><ele>371.0</ele><time>2026-03-22T08:26:11.623Z</time></trkpt><trkpt lat="43.1885215" lon="12.3068756"><ele>371.0</ele><time>2026-03-22T08:26:14.623Z</time></trkpt><trkpt lat="43.1885976" lon="12.3068817"><ele>371.0</ele><time>2026-03-22T08:26:17.623Z</time></trkpt><trkpt lat="43.1886732" lon="12.3068868"><ele>371.0</ele><time>2026-03-22T08:26:20.622Z</time></trkpt><trkpt lat="43.1887526" lon="12.3069012"><ele>371.0</ele><time>2026-03-22T08:26:23.623Z</time></trkpt><trkpt lat="43.1888287" lon="12.3069137"><ele>371.0</ele><time>2026-03-22T08:26:26.623Z</time></trkpt><trkpt lat="43.1889017" lon="12.3069104"><ele>371.0</ele><time>2026-03-22T08:26:29.622Z</time></trkpt><trkpt lat="43.1889833" lon="12.3069118"><ele>371.0</ele><time>2026-03-22T08:26:32.622Z</time></trkpt><trkpt lat="43.1890598" lon="12.306918"><ele>371.0</ele><time>2026-03-22T08:26:35.623Z</time></trkpt><trkpt lat="43.189139" lon="12.3069219"><ele>372.0</ele><time>2026-03-22T08:26:38.622Z</time></trkpt><trkpt lat="43.1892222" lon="12.306925"><ele>373.0</ele><time>2026-03-22T08:26:41.622Z</time></trkpt><trkpt lat="43.1893046" lon="12.3069363"><ele>374.0</ele><time>2026-03-22T08:26:44.623Z</time></trkpt><trkpt lat="43.1893848" lon="12.3069461"><ele>375.0</ele><time>2026-03-22T08:26:47.623Z</time></trkpt><trkpt lat="43.189474" lon="12.3069701"><ele>376.0</ele><time>2026-03-22T08:26:50.622Z</time></trkpt><trkpt lat="43.1895423" lon="12.3069979"><ele>377.0</ele><time>2026-03-22T08:26:52.623Z</time></trkpt><trkpt lat="43.1896115" lon="12.3070318"><ele>377.0</ele><time>2026-03-22T08:26:54.623Z</time></trkpt><trkpt lat="43.1896845" lon="12.3070703"><ele>377.0</ele><time>2026-03-22T08:26:56.622Z</time></trkpt><trkpt lat="43.1897586" lon="12.3071102"><ele>377.0</ele><time>2026-03-22T08:26:58.622Z</time></trkpt><trkpt lat="43.1898356" lon="12.3071437"><ele>377.0</ele><time>2026-03-22T08:27:00.623Z</time></trkpt><trkpt lat="43.1899085" lon="12.3071686"><ele>377.0</ele><time>2026-03-22T08:27:02.623Z</time></trkpt><trkpt lat="43.1899783" lon="12.3071957"><ele>377.0</ele><time>2026-03-22T08:27:04.622Z</time></trkpt><trkpt lat="43.1900483" lon="12.3072224"><ele>376.71428571428567</ele><time>2026-03-22T08:27:06.623Z</time></trkpt><trkpt lat="43.190117" lon="12.3072516"><ele>376.42857142857144</ele><time>2026-03-22T08:27:08.623Z</time></trkpt><trkpt lat="43.1901843" lon="12.3072817"><ele>376.1428571428571</ele><time>2026-03-22T08:27:10.622Z</time></trkpt><trkpt lat="43.1902491" lon="12.3073107"><ele>375.85714285714283</ele><time>2026-03-22T08:27:12.623Z</time></trkpt><trkpt lat="43.1903107" lon="12.3073343"><ele>375.57142857142856</ele><time>2026-03-22T08:27:14.623Z</time></trkpt><trkpt lat="43.1903729" lon="12.3073632"><ele>375.2857142857143</ele><time>2026-03-22T08:27:16.622Z</time></trkpt><trkpt lat="43.1904406" lon="12.3073945"><ele>375.0</ele><time>2026-03-22T08:27:18.622Z</time></trkpt><trkpt lat="43.1905106" lon="12.3074249"><ele>375.0</ele><time>2026-03-22T08:27:20.623Z</time></trkpt><trkpt lat="43.1905803" lon="12.3074587"><ele>375.0</ele><time>2026-03-22T08:27:22.622Z</time></trkpt><trkpt lat="43.1906473" lon="12.307499"><ele>375.0</ele><time>2026-03-22T08:27:24.623Z</time></trkpt><trkpt lat="43.190714" lon="12.3075412"><ele>375.0</ele><time>2026-03-22T08:27:26.623Z</time></trkpt><trkpt lat="43.1907769" lon="12.3075918"><ele>375.0</ele><time>2026-03-22T08:27:28.622Z</time></trkpt><trkpt lat="43.1908405" lon="12.3076339"><ele>375.0</ele><time>2026-03-22T08:27:30.622Z</time></trkpt><trkpt lat="43.1909042" lon="12.3076807"><ele>375.0</ele><time>2026-03-22T08:27:32.622Z</time></trkpt><trkpt lat="43.1909676" lon="12.3077297"><ele>375.5</ele><time>2026-03-22T08:27:34.623Z</time></trkpt><trkpt lat="43.1910331" lon="12.307778"><ele>376.0</ele><time>2026-03-22T08:27:36.623Z</time></trkpt><trkpt lat="43.1910988" lon="12.3078303"><ele>376.5</ele><time>2026-03-22T08:27:38.622Z</time></trkpt><trkpt lat="43.1911655" lon="12.3078828"><ele>377.0</ele><time>2026-03-22T08:27:40.622Z</time></trkpt><trkpt lat="43.1912329" lon="12.3079341"><ele>377.5</ele><time>2026-03-22T08:27:42.623Z</time></trkpt><trkpt lat="43.1913003" lon="12.3079841"><ele>378.0</ele><time>2026-03-22T08:27:44.622Z</time></trkpt><trkpt lat="43.1913672" lon="12.3080369"><ele>378.6666666666667</ele><time>2026-03-22T08:27:46.622Z</time></trkpt><trkpt lat="43.1914337" lon="12.3080918"><ele>379.3333333333333</ele><time>2026-03-22T08:27:48.623Z</time></trkpt><trkpt lat="43.1915008" lon="12.3081389"><ele>380.0</ele><time>2026-03-22T08:27:50.622Z</time></trkpt><trkpt lat="43.191563" lon="12.308188"><ele>380.66666666666663</ele><time>2026-03-22T08:27:52.622Z</time></trkpt><trkpt lat="43.1916264" lon="12.3082332"><ele>381.3333333333333</ele><time>2026-03-22T08:27:54.622Z</time></trkpt><trkpt lat="43.1916869" lon="12.3082789"><ele>382.0</ele><time>2026-03-22T08:27:56.623Z</time></trkpt><trkpt lat="43.1917715" lon="12.3083333"><ele>382.0</ele><time>2026-03-22T08:27:59.623Z</time></trkpt><trkpt lat="43.1918528" lon="12.3083919"><ele>382.0</ele><time>2026-03-22T08:28:02.623Z</time></trkpt><trkpt lat="43.1919362" lon="12.3084459"><ele>382.0</ele><time>2026-03-22T08:28:05.622Z</time></trkpt><trkpt lat="43.1920125" lon="12.3085103"><ele>382.0</ele><time>2026-03-22T08:28:08.623Z</time></trkpt><trkpt lat="43.1920836" lon="12.3085803"><ele>382.0</ele><time>2026-03-22T08:28:11.623Z</time></trkpt><trkpt lat="43.1921498" lon="12.308658"><ele>382.0</ele><time>2026-03-22T08:28:14.623Z</time></trkpt><trkpt lat="43.1922101" lon="12.3087404"><ele>382.0</ele><time>2026-03-22T08:28:17.623Z</time></trkpt><trkpt lat="43.1922659" lon="12.3088274"><ele>382.0</ele><time>2026-03-22T08:28:20.623Z</time></trkpt><trkpt lat="43.1923168" lon="12.3089157"><ele>382.0</ele><time>2026-03-22T08:28:23.622Z</time></trkpt><trkpt lat="43.1923665" lon="12.3090059"><ele>382.0</ele><time>2026-03-22T08:28:26.622Z</time></trkpt><trkpt lat="43.1924163" lon="12.309098"><ele>382.0</ele><time>2026-03-22T08:28:29.623Z</time></trkpt><trkpt lat="43.1924708" lon="12.3091937"><ele>382.0</ele><time>2026-03-22T08:28:32.623Z</time></trkpt><trkpt lat="43.1925262" lon="12.3092879"><ele>383.0</ele><time>2026-03-22T08:28:35.622Z</time></trkpt><trkpt lat="43.1925765" lon="12.3093812"><ele>384.0</ele><time>2026-03-22T08:28:38.622Z</time></trkpt><trkpt lat="43.1926308" lon="12.3094702"><ele>385.0</ele><time>2026-03-22T08:28:41.622Z</time></trkpt><trkpt lat="43.1926833" lon="12.3095616"><ele>386.0</ele><time>2026-03-22T08:28:44.623Z</time></trkpt><trkpt lat="43.192732" lon="12.309652"><ele>387.00000000000006</ele><time>2026-03-22T08:28:47.623Z</time></trkpt><trkpt lat="43.1927835" lon="12.3097439"><ele>388.0</ele><time>2026-03-22T08:28:50.623Z</time></trkpt><trkpt lat="43.1928351" lon="12.3098349"><ele>388.4285714285714</ele><time>2026-03-22T08:28:53.622Z</time></trkpt><trkpt lat="43.1928888" lon="12.3099316"><ele>388.8571428571429</ele><time>2026-03-22T08:28:56.623Z</time></trkpt><trkpt lat="43.1929296" lon="12.3100008"><ele>389.2857142857143</ele><time>2026-03-22T08:28:58.622Z</time></trkpt><trkpt lat="43.1929742" lon="12.3100782"><ele>389.71428571428567</ele><time>2026-03-22T08:29:00.623Z</time></trkpt><trkpt lat="43.1930208" lon="12.3101579"><ele>390.1428571428571</ele><time>2026-03-22T08:29:02.623Z</time></trkpt><trkpt lat="43.1930659" lon="12.3102357"><ele>390.57142857142856</ele><time>2026-03-22T08:29:04.623Z</time></trkpt><trkpt lat="43.1931111" lon="12.3103105"><ele>391.0</ele><time>2026-03-22T08:29:06.622Z</time></trkpt><trkpt lat="43.1931577" lon="12.3103784"><ele>392.00000000000006</ele><time>2026-03-22T08:29:08.623Z</time></trkpt><trkpt lat="43.1932069" lon="12.3104425"><ele>393.0</ele><time>2026-03-22T08:29:10.623Z</time></trkpt><trkpt lat="43.1932571" lon="12.3104985"><ele>394.0</ele><time>2026-03-22T08:29:12.623Z</time></trkpt><trkpt lat="43.1933104" lon="12.3105495"><ele>395.0</ele><time>2026-03-22T08:29:14.622Z</time></trkpt><trkpt lat="43.1933955" lon="12.3105914"><ele>396.00000000000006</ele><time>2026-03-22T08:29:17.622Z</time></trkpt><trkpt lat="43.1934833" lon="12.310595"><ele>397.0</ele><time>2026-03-22T08:29:20.622Z</time></trkpt><trkpt lat="43.193566" lon="12.3105524"><ele>397.00000000000006</ele><time>2026-03-22T08:29:23.622Z</time></trkpt><trkpt lat="43.193637" lon="12.3104821"><ele>397.0</ele><time>2026-03-22T08:29:26.623Z</time></trkpt><trkpt lat="43.1936828" lon="12.3104205"><ele>397.0</ele><time>2026-03-22T08:29:28.622Z</time></trkpt><trkpt lat="43.1937236" lon="12.3103542"><ele>397.0</ele><time>2026-03-22T08:29:30.623Z</time></trkpt><trkpt lat="43.1937665" lon="12.3102903"><ele>397.00000000000006</ele><time>2026-03-22T08:29:32.622Z</time></trkpt><trkpt lat="43.1938285" lon="12.3102023"><ele>397.0</ele><time>2026-03-22T08:29:35.623Z</time></trkpt><trkpt lat="43.1938846" lon="12.3101133"><ele>397.00000000000006</ele><time>2026-03-22T08:29:38.622Z</time></trkpt><trkpt lat="43.1939425" lon="12.3100249"><ele>397.0</ele><time>2026-03-22T08:29:41.623Z</time></trkpt><trkpt lat="43.1939992" lon="12.3099462"><ele>397.0</ele><time>2026-03-22T08:29:44.623Z</time></trkpt><trkpt lat="43.1940516" lon="12.3098793"><ele>397.0</ele><time>2026-03-22T08:29:47.622Z</time></trkpt><trkpt lat="43.1940951" lon="12.3098086"><ele>397.00000000000006</ele><time>2026-03-22T08:29:50.623Z</time></trkpt><trkpt lat="43.1941552" lon="12.3097208"><ele>397.0</ele><time>2026-03-22T08:29:53.622Z</time></trkpt><trkpt lat="43.194214" lon="12.3096353"><ele>398.50000000000006</ele><time>2026-03-22T08:29:56.622Z</time></trkpt><trkpt lat="43.1942752" lon="12.3095452"><ele>400.0</ele><time>2026-03-22T08:29:59.622Z</time></trkpt><trkpt lat="43.1943374" lon="12.3094615"><ele>401.5</ele><time>2026-03-22T08:30:02.622Z</time></trkpt><trkpt lat="43.1943938" lon="12.3093742"><ele>403.0</ele><time>2026-03-22T08:30:05.622Z</time></trkpt><trkpt lat="43.1944556" lon="12.3092836"><ele>404.50000000000006</ele><time>2026-03-22T08:30:08.622Z</time></trkpt><trkpt lat="43.1944995" lon="12.3092213"><ele>406.0</ele><time>2026-03-22T08:30:10.622Z</time></trkpt><trkpt lat="43.1945618" lon="12.3091292"><ele>406.00000000000006</ele><time>2026-03-22T08:30:13.623Z</time></trkpt><trkpt lat="43.1946254" lon="12.3090419"><ele>406.0</ele><time>2026-03-22T08:30:16.622Z</time></trkpt><trkpt lat="43.1946919" lon="12.308964"><ele>406.0</ele><time>2026-03-22T08:30:19.623Z</time></trkpt><trkpt lat="43.1947598" lon="12.3088883"><ele>406.0</ele><time>2026-03-22T08:30:22.623Z</time></trkpt><trkpt lat="43.1948268" lon="12.3088065"><ele>406.00000000000006</ele><time>2026-03-22T08:30:25.623Z</time></trkpt><trkpt lat="43.1948737" lon="12.3087444"><ele>406.0</ele><time>2026-03-22T08:30:27.623Z</time></trkpt><trkpt lat="43.1949198" lon="12.308672"><ele>406.85714285714283</ele><time>2026-03-22T08:30:29.622Z</time></trkpt><trkpt lat="43.1949659" lon="12.3085976"><ele>407.7142857142857</ele><time>2026-03-22T08:30:31.623Z</time></trkpt><trkpt lat="43.195005" lon="12.3085232"><ele>408.57142857142856</ele><time>2026-03-22T08:30:33.622Z</time></trkpt><trkpt lat="43.1950458" lon="12.3084531"><ele>409.42857142857144</ele><time>2026-03-22T08:30:35.622Z</time></trkpt><trkpt lat="43.1950856" lon="12.3083779"><ele>410.2857142857143</ele><time>2026-03-22T08:30:37.623Z</time></trkpt><trkpt lat="43.1951267" lon="12.3083029"><ele>411.1428571428571</ele><time>2026-03-22T08:30:39.622Z</time></trkpt><trkpt lat="43.1951672" lon="12.3082302"><ele>412.0</ele><time>2026-03-22T08:30:41.623Z</time></trkpt><trkpt lat="43.1952066" lon="12.3081592"><ele>411.99999999999994</ele><time>2026-03-22T08:30:43.622Z</time></trkpt><trkpt lat="43.1952486" lon="12.3080842"><ele>412.0</ele><time>2026-03-22T08:30:45.622Z</time></trkpt><trkpt lat="43.1952875" lon="12.3080092"><ele>412.0</ele><time>2026-03-22T08:30:47.622Z</time></trkpt><trkpt lat="43.1953238" lon="12.3079312"><ele>412.0</ele><time>2026-03-22T08:30:49.623Z</time></trkpt><trkpt lat="43.195362" lon="12.3078553"><ele>412.0</ele><time>2026-03-22T08:30:51.622Z</time></trkpt><trkpt lat="43.1953963" lon="12.3077806"><ele>411.99999999999994</ele><time>2026-03-22T08:30:53.623Z</time></trkpt><trkpt lat="43.1954426" lon="12.3076765"><ele>412.0</ele><time>2026-03-22T08:30:56.622Z</time></trkpt><trkpt lat="43.1954804" lon="12.3075685"><ele>412.1666666666667</ele><time>2026-03-22T08:30:59.623Z</time></trkpt><trkpt lat="43.1955131" lon="12.307455"><ele>412.33333333333337</ele><time>2026-03-22T08:31:02.622Z</time></trkpt><trkpt lat="43.1955399" lon="12.3073294"><ele>412.5</ele><time>2026-03-22T08:31:05.622Z</time></trkpt><trkpt lat="43.1955529" lon="12.3072443"><ele>412.66666666666663</ele><time>2026-03-22T08:31:07.622Z</time></trkpt><trkpt lat="43.1955671" lon="12.3071177"><ele>412.8333333333333</ele><time>2026-03-22T08:31:10.623Z</time></trkpt><trkpt lat="43.1955638" lon="12.30703"><ele>413.0</ele><time>2026-03-22T08:31:12.623Z</time></trkpt><trkpt lat="43.1955518" lon="12.3069351"><ele>413.79999999999995</ele><time>2026-03-22T08:31:14.622Z</time></trkpt><trkpt lat="43.1955389" lon="12.3068273"><ele>414.6</ele><time>2026-03-22T08:31:16.622Z</time></trkpt><trkpt lat="43.1955217" lon="12.3067097"><ele>415.4</ele><time>2026-03-22T08:31:18.623Z</time></trkpt><trkpt lat="43.1954901" lon="12.3065777"><ele>416.20000000000005</ele><time>2026-03-22T08:31:20.622Z</time></trkpt><trkpt lat="43.1954533" lon="12.306432"><ele>417.0</ele><time>2026-03-22T08:31:22.623Z</time></trkpt><trkpt lat="43.1954111" lon="12.3062809"><ele>417.0</ele><time>2026-03-22T08:31:24.623Z</time></trkpt><trkpt lat="43.1953888" lon="12.3061965"><ele>417.0</ele><time>2026-03-22T08:31:25.623Z</time></trkpt><trkpt lat="43.1953656" lon="12.3061054"><ele>417.0</ele><time>2026-03-22T08:31:26.622Z</time></trkpt><trkpt lat="43.1953428" lon="12.3060119"><ele>417.0</ele><time>2026-03-22T08:31:27.623Z</time></trkpt><trkpt lat="43.195321" lon="12.3059144"><ele>417.0</ele><time>2026-03-22T08:31:28.622Z</time></trkpt><trkpt lat="43.1952937" lon="12.3058138"><ele>417.0</ele><time>2026-03-22T08:31:29.623Z</time></trkpt><trkpt lat="43.1952644" lon="12.3057147"><ele>417.0</ele><time>2026-03-22T08:31:30.622Z</time></trkpt><trkpt lat="43.1952385" lon="12.3056148"><ele>416.6666666666667</ele><time>2026-03-22T08:31:31.622Z</time></trkpt><trkpt lat="43.195214" lon="12.3055142"><ele>416.33333333333337</ele><time>2026-03-22T08:31:32.623Z</time></trkpt><trkpt lat="43.1951866" lon="12.3054129"><ele>416.0</ele><time>2026-03-22T08:31:33.622Z</time></trkpt><trkpt lat="43.195156" lon="12.3053146"><ele>415.6666666666667</ele><time>2026-03-22T08:31:34.623Z</time></trkpt><trkpt lat="43.1951279" lon="12.3052172"><ele>415.33333333333337</ele><time>2026-03-22T08:31:35.622Z</time></trkpt><trkpt lat="43.1951025" lon="12.3051195"><ele>415.0</ele><time>2026-03-22T08:31:36.623Z</time></trkpt><trkpt lat="43.1950793" lon="12.305025"><ele>415.00000000000006</ele><time>2026-03-22T08:31:37.622Z</time></trkpt><trkpt lat="43.1950572" lon="12.3049312"><ele>415.0</ele><time>2026-03-22T08:31:38.623Z</time></trkpt><trkpt lat="43.1950397" lon="12.3048379"><ele>415.0</ele><time>2026-03-22T08:31:39.623Z</time></trkpt><trkpt lat="43.1950236" lon="12.3047528"><ele>415.0</ele><time>2026-03-22T08:31:40.623Z</time></trkpt><trkpt lat="43.1950098" lon="12.3046682"><ele>415.00000000000006</ele><time>2026-03-22T08:31:41.622Z</time></trkpt><trkpt lat="43.1949992" lon="12.304519"><ele>415.0</ele><time>2026-03-22T08:31:43.623Z</time></trkpt><trkpt lat="43.195006" lon="12.3043767"><ele>415.0</ele><time>2026-03-22T08:31:45.622Z</time></trkpt><trkpt lat="43.1950315" lon="12.3042426"><ele>415.0</ele><time>2026-03-22T08:31:47.623Z</time></trkpt><trkpt lat="43.1950721" lon="12.3041193"><ele>415.0</ele><time>2026-03-22T08:31:49.623Z</time></trkpt><trkpt lat="43.1951135" lon="12.3040033"><ele>415.0</ele><time>2026-03-22T08:31:51.622Z</time></trkpt><trkpt lat="43.1951553" lon="12.3038991"><ele>415.0</ele><time>2026-03-22T08:31:53.622Z</time></trkpt><trkpt lat="43.1952094" lon="12.3037515"><ele>415.4</ele><time>2026-03-22T08:31:55.622Z</time></trkpt><trkpt lat="43.1952697" lon="12.3036142"><ele>415.8</ele><time>2026-03-22T08:31:57.623Z</time></trkpt><trkpt lat="43.1953218" lon="12.3034866"><ele>416.20000000000005</ele><time>2026-03-22T08:31:59.623Z</time></trkpt><trkpt lat="43.1953719" lon="12.30333"><ele>416.6</ele><time>2026-03-22T08:32:01.623Z</time></trkpt><trkpt lat="43.1953903" lon="12.3032405"><ele>417.0</ele><time>2026-03-22T08:32:02.623Z</time></trkpt><trkpt lat="43.1953953" lon="12.3031394"><ele>415.8333333333333</ele><time>2026-03-22T08:32:03.622Z</time></trkpt><trkpt lat="43.1953917" lon="12.3030374"><ele>414.66666666666663</ele><time>2026-03-22T08:32:04.623Z</time></trkpt><trkpt lat="43.1953793" lon="12.3029308"><ele>413.5</ele><time>2026-03-22T08:32:05.623Z</time></trkpt><trkpt lat="43.1953662" lon="12.3028146"><ele>412.3333333333333</ele><time>2026-03-22T08:32:06.622Z</time></trkpt><trkpt lat="43.1953521" lon="12.3026941"><ele>411.16666666666663</ele><time>2026-03-22T08:32:07.623Z</time></trkpt><trkpt lat="43.1953595" lon="12.3025679"><ele>410.0</ele><time>2026-03-22T08:32:08.622Z</time></trkpt><trkpt lat="43.1953774" lon="12.3024416"><ele>410.0</ele><time>2026-03-22T08:32:09.623Z</time></trkpt><trkpt lat="43.1954039" lon="12.3023093"><ele>410.0</ele><time>2026-03-22T08:32:10.623Z</time></trkpt><trkpt lat="43.1954429" lon="12.3021766"><ele>410.0</ele><time>2026-03-22T08:32:11.622Z</time></trkpt><trkpt lat="43.1954855" lon="12.3020406"><ele>410.0</ele><time>2026-03-22T08:32:12.622Z</time></trkpt><trkpt lat="43.1955277" lon="12.3019006"><ele>410.0</ele><time>2026-03-22T08:32:13.623Z</time></trkpt><trkpt lat="43.1955724" lon="12.3017615"><ele>408.2</ele><time>2026-03-22T08:32:14.623Z</time></trkpt><trkpt lat="43.1956055" lon="12.3016177"><ele>406.4</ele><time>2026-03-22T08:32:15.622Z</time></trkpt><trkpt lat="43.1956281" lon="12.301468"><ele>404.6</ele><time>2026-03-22T08:32:16.622Z</time></trkpt><trkpt lat="43.1956352" lon="12.3013193"><ele>402.8</ele><time>2026-03-22T08:32:17.622Z</time></trkpt><trkpt lat="43.1956365" lon="12.3011709"><ele>401.0</ele><time>2026-03-22T08:32:18.623Z</time></trkpt><trkpt lat="43.1956396" lon="12.3010303"><ele>400.66666666666663</ele><time>2026-03-22T08:32:19.622Z</time></trkpt><trkpt lat="43.1956409" lon="12.3008961"><ele>400.3333333333333</ele><time>2026-03-22T08:32:20.623Z</time></trkpt><trkpt lat="43.1956412" lon="12.3007717"><ele>400.0</ele><time>2026-03-22T08:32:21.623Z</time></trkpt><trkpt lat="43.1956344" lon="12.300655"><ele>399.66666666666663</ele><time>2026-03-22T08:32:22.623Z</time></trkpt><trkpt lat="43.1956109" lon="12.3005394"><ele>399.3333333333333</ele><time>2026-03-22T08:32:23.623Z</time></trkpt><trkpt lat="43.1955877" lon="12.300428"><ele>399.0</ele><time>2026-03-22T08:32:24.622Z</time></trkpt><trkpt lat="43.1955454" lon="12.3003259"><ele>399.0</ele><time>2026-03-22T08:32:25.623Z</time></trkpt><trkpt lat="43.1955038" lon="12.3002291"><ele>399.0</ele><time>2026-03-22T08:32:26.623Z</time></trkpt><trkpt lat="43.1954487" lon="12.3001379"><ele>399.0</ele><time>2026-03-22T08:32:27.623Z</time></trkpt><trkpt lat="43.1953912" lon="12.3000497"><ele>399.0</ele><time>2026-03-22T08:32:28.623Z</time></trkpt><trkpt lat="43.1953317" lon="12.2999628"><ele>399.0</ele><time>2026-03-22T08:32:29.623Z</time></trkpt><trkpt lat="43.1952749" lon="12.2998818"><ele>399.0</ele><time>2026-03-22T08:32:30.622Z</time></trkpt><trkpt lat="43.1952202" lon="12.2997906"><ele>398.0</ele><time>2026-03-22T08:32:31.622Z</time></trkpt><trkpt lat="43.1951628" lon="12.2996927"><ele>397.0</ele><time>2026-03-22T08:32:32.623Z</time></trkpt><trkpt lat="43.1951075" lon="12.299601"><ele>396.0</ele><time>2026-03-22T08:32:33.622Z</time></trkpt><trkpt lat="43.1950535" lon="12.2995058"><ele>395.0</ele><time>2026-03-22T08:32:34.623Z</time></trkpt><trkpt lat="43.1949798" lon="12.2994241"><ele>394.0</ele><time>2026-03-22T08:32:35.622Z</time></trkpt><trkpt lat="43.194933" lon="12.2993306"><ele>393.0</ele><time>2026-03-22T08:32:36.623Z</time></trkpt><trkpt lat="43.194879" lon="12.2992486"><ele>392.8333333333333</ele><time>2026-03-22T08:32:37.622Z</time></trkpt><trkpt lat="43.1948268" lon="12.2991657"><ele>392.66666666666663</ele><time>2026-03-22T08:32:38.623Z</time></trkpt><trkpt lat="43.1947765" lon="12.2990832"><ele>392.5</ele><time>2026-03-22T08:32:39.623Z</time></trkpt><trkpt lat="43.1947263" lon="12.2990039"><ele>392.3333333333333</ele><time>2026-03-22T08:32:40.623Z</time></trkpt><trkpt lat="43.1946768" lon="12.2989259"><ele>392.16666666666663</ele><time>2026-03-22T08:32:41.622Z</time></trkpt><trkpt lat="43.194629" lon="12.2988513"><ele>392.0</ele><time>2026-03-22T08:32:42.622Z</time></trkpt><trkpt lat="43.1945848" lon="12.2987781"><ele>392.0</ele><time>2026-03-22T08:32:43.622Z</time></trkpt><trkpt lat="43.1945407" lon="12.2987095"><ele>392.0</ele><time>2026-03-22T08:32:44.623Z</time></trkpt><trkpt lat="43.1944828" lon="12.2985779"><ele>392.0</ele><time>2026-03-22T08:32:46.623Z</time></trkpt><trkpt lat="43.1944102" lon="12.298473"><ele>392.0</ele><time>2026-03-22T08:32:48.622Z</time></trkpt><trkpt lat="43.1943382" lon="12.2983491"><ele>392.0</ele><time>2026-03-22T08:32:50.623Z</time></trkpt><trkpt lat="43.1942894" lon="12.2982766"><ele>391.99999999999994</ele><time>2026-03-22T08:32:51.623Z</time></trkpt><trkpt lat="43.1942252" lon="12.298188"><ele>392.0</ele><time>2026-03-22T08:32:53.622Z</time></trkpt><trkpt lat="43.194139" lon="12.2980764"><ele>392.0</ele><time>2026-03-22T08:32:55.622Z</time></trkpt><trkpt lat="43.1940998" lon="12.2979844"><ele>392.0</ele><time>2026-03-22T08:32:57.622Z</time></trkpt><trkpt lat="43.1940561" lon="12.2979096"><ele>391.99999999999994</ele><time>2026-03-22T08:32:59.622Z</time></trkpt><trkpt lat="43.1940121" lon="12.2978391"><ele>392.0</ele><time>2026-03-22T08:33:01.623Z</time></trkpt><trkpt lat="43.1939514" lon="12.2977491"><ele>392.3333333333333</ele><time>2026-03-22T08:33:03.623Z</time></trkpt><trkpt lat="43.193902" lon="12.2976684"><ele>392.66666666666663</ele><time>2026-03-22T08:33:05.623Z</time></trkpt><trkpt lat="43.1938588" lon="12.2975902"><ele>393.0</ele><time>2026-03-22T08:33:06.622Z</time></trkpt><trkpt lat="43.193791" lon="12.2975089"><ele>393.33333333333337</ele><time>2026-03-22T08:33:08.623Z</time></trkpt><trkpt lat="43.1936995" lon="12.2974165"><ele>393.6666666666667</ele><time>2026-03-22T08:33:10.622Z</time></trkpt><trkpt lat="43.1936436" lon="12.2973575"><ele>394.0</ele><time>2026-03-22T08:33:11.623Z</time></trkpt><trkpt lat="43.1935817" lon="12.2973005"><ele>393.6666666666667</ele><time>2026-03-22T08:33:12.622Z</time></trkpt><trkpt lat="43.1935297" lon="12.2972438"><ele>393.33333333333337</ele><time>2026-03-22T08:33:13.623Z</time></trkpt><trkpt lat="43.1934653" lon="12.2971712"><ele>393.0</ele><time>2026-03-22T08:33:14.622Z</time></trkpt><trkpt lat="43.1934014" lon="12.2971133"><ele>392.66666666666663</ele><time>2026-03-22T08:33:15.622Z</time></trkpt><trkpt lat="43.1933406" lon="12.2970497"><ele>392.3333333333333</ele><time>2026-03-22T08:33:16.622Z</time></trkpt><trkpt lat="43.1932987" lon="12.29696"><ele>392.0</ele><time>2026-03-22T08:33:17.622Z</time></trkpt><trkpt lat="43.1932808" lon="12.2968532"><ele>392.0</ele><time>2026-03-22T08:33:18.623Z</time></trkpt><trkpt lat="43.1932962" lon="12.2967663"><ele>392.0</ele><time>2026-03-22T08:33:19.623Z</time></trkpt><trkpt lat="43.1933736" lon="12.2966463"><ele>392.0</ele><time>2026-03-22T08:33:21.622Z</time></trkpt><trkpt lat="43.1934783" lon="12.2965894"><ele>392.0</ele><time>2026-03-22T08:33:23.622Z</time></trkpt><trkpt lat="43.1936075" lon="12.2965897"><ele>392.0</ele><time>2026-03-22T08:33:25.623Z</time></trkpt><trkpt lat="43.1936782" lon="12.2965964"><ele>392.0</ele><time>2026-03-22T08:33:26.623Z</time></trkpt><trkpt lat="43.1937506" lon="12.2965873"><ele>392.0</ele><time>2026-03-22T08:33:27.622Z</time></trkpt><trkpt lat="43.1938213" lon="12.296589"><ele>392.0</ele><time>2026-03-22T08:33:28.623Z</time></trkpt><trkpt lat="43.1938929" lon="12.2965888"><ele>392.0</ele><time>2026-03-22T08:33:29.622Z</time></trkpt><trkpt lat="43.1939639" lon="12.2965607"><ele>392.0</ele><time>2026-03-22T08:33:30.622Z</time></trkpt><trkpt lat="43.1940319" lon="12.2965437"><ele>392.0</ele><time>2026-03-22T08:33:31.623Z</time></trkpt><trkpt lat="43.1941003" lon="12.2965072"><ele>392.0</ele><time>2026-03-22T08:33:32.622Z</time></trkpt><trkpt lat="43.1941693" lon="12.2964653"><ele>393.16666666666663</ele><time>2026-03-22T08:33:33.623Z</time></trkpt><trkpt lat="43.1942369" lon="12.2964015"><ele>394.3333333333333</ele><time>2026-03-22T08:33:34.623Z</time></trkpt><trkpt lat="43.1942982" lon="12.2963264"><ele>395.5</ele><time>2026-03-22T08:33:35.622Z</time></trkpt><trkpt lat="43.1943577" lon="12.2962485"><ele>396.66666666666663</ele><time>2026-03-22T08:33:36.623Z</time></trkpt><trkpt lat="43.1944235" lon="12.2961734"><ele>397.8333333333333</ele><time>2026-03-22T08:33:37.622Z</time></trkpt><trkpt lat="43.1944883" lon="12.2960968"><ele>399.0</ele><time>2026-03-22T08:33:38.623Z</time></trkpt><trkpt lat="43.1945565" lon="12.296015"><ele>399.0</ele><time>2026-03-22T08:33:39.622Z</time></trkpt><trkpt lat="43.1946252" lon="12.2959282"><ele>399.0</ele><time>2026-03-22T08:33:40.623Z</time></trkpt><trkpt lat="43.1946858" lon="12.2958327"><ele>399.0</ele><time>2026-03-22T08:33:41.623Z</time></trkpt><trkpt lat="43.1947493" lon="12.2957414"><ele>399.0</ele><time>2026-03-22T08:33:42.623Z</time></trkpt><trkpt lat="43.1948075" lon="12.2956445"><ele>399.0</ele><time>2026-03-22T08:33:43.623Z</time></trkpt><trkpt lat="43.1948615" lon="12.2955468"><ele>396.6666666666667</ele><time>2026-03-22T08:33:44.623Z</time></trkpt><trkpt lat="43.1949135" lon="12.2954593"><ele>394.33333333333337</ele><time>2026-03-22T08:33:45.622Z</time></trkpt><trkpt lat="43.1949643" lon="12.2953726"><ele>392.0</ele><time>2026-03-22T08:33:46.623Z</time></trkpt><trkpt lat="43.1950156" lon="12.2952881"><ele>389.6666666666667</ele><time>2026-03-22T08:33:47.623Z</time></trkpt><trkpt lat="43.1950726" lon="12.2952151"><ele>387.33333333333337</ele><time>2026-03-22T08:33:48.623Z</time></trkpt><trkpt lat="43.1951336" lon="12.2951474"><ele>385.0</ele><time>2026-03-22T08:33:49.623Z</time></trkpt><trkpt lat="43.1952102" lon="12.2951101"><ele>385.00000000000006</ele><time>2026-03-22T08:33:50.622Z</time></trkpt><trkpt lat="43.1952861" lon="12.2951059"><ele>385.0</ele><time>2026-03-22T08:33:51.622Z</time></trkpt><trkpt lat="43.1953658" lon="12.295135"><ele>385.0</ele><time>2026-03-22T08:33:52.623Z</time></trkpt><trkpt lat="43.1954349" lon="12.2951908"><ele>385.0</ele><time>2026-03-22T08:33:53.623Z</time></trkpt><trkpt lat="43.1955001" lon="12.2952605"><ele>385.00000000000006</ele><time>2026-03-22T08:33:54.623Z</time></trkpt><trkpt lat="43.1955591" lon="12.2953406"><ele>385.0</ele><time>2026-03-22T08:33:55.623Z</time></trkpt><trkpt lat="43.1956137" lon="12.2954229"><ele>384.00000000000006</ele><time>2026-03-22T08:33:56.622Z</time></trkpt><trkpt lat="43.1956731" lon="12.2954976"><ele>383.0</ele><time>2026-03-22T08:33:57.622Z</time></trkpt><trkpt lat="43.1957273" lon="12.2955734"><ele>382.0</ele><time>2026-03-22T08:33:58.622Z</time></trkpt><trkpt lat="43.1957748" lon="12.2956527"><ele>381.0</ele><time>2026-03-22T08:33:59.622Z</time></trkpt><trkpt lat="43.1958085" lon="12.2957348"><ele>380.0</ele><time>2026-03-22T08:34:00.623Z</time></trkpt><trkpt lat="43.1958582" lon="12.2958867"><ele>379.0</ele><time>2026-03-22T08:34:02.623Z</time></trkpt><trkpt lat="43.1958314" lon="12.2960247"><ele>379.0</ele><time>2026-03-22T08:34:04.623Z</time></trkpt><trkpt lat="43.1958327" lon="12.2961597"><ele>379.0</ele><time>2026-03-22T08:34:06.622Z</time></trkpt><trkpt lat="43.1958383" lon="12.2962902"><ele>379.0</ele><time>2026-03-22T08:34:08.623Z</time></trkpt><trkpt lat="43.1958271" lon="12.2964296"><ele>379.0</ele><time>2026-03-22T08:34:10.622Z</time></trkpt><trkpt lat="43.1958287" lon="12.2965525"><ele>379.0</ele><time>2026-03-22T08:34:12.623Z</time></trkpt><trkpt lat="43.1958275" lon="12.2966603"><ele>379.42857142857144</ele><time>2026-03-22T08:34:14.623Z</time></trkpt><trkpt lat="43.1958438" lon="12.2967557"><ele>379.8571428571429</ele><time>2026-03-22T08:34:16.622Z</time></trkpt><trkpt lat="43.195854" lon="12.296847"><ele>380.28571428571433</ele><time>2026-03-22T08:34:18.622Z</time></trkpt><trkpt lat="43.1958779" lon="12.2969288"><ele>380.7142857142857</ele><time>2026-03-22T08:34:20.622Z</time></trkpt><trkpt lat="43.1959251" lon="12.2969988"><ele>381.1428571428571</ele><time>2026-03-22T08:34:22.623Z</time></trkpt><trkpt lat="43.1959811" lon="12.2970584"><ele>381.5714285714286</ele><time>2026-03-22T08:34:24.623Z</time></trkpt><trkpt lat="43.196056" lon="12.2971184"><ele>382.0</ele><time>2026-03-22T08:34:27.623Z</time></trkpt><trkpt lat="43.1961384" lon="12.2971673"><ele>382.0</ele><time>2026-03-22T08:34:30.623Z</time></trkpt><trkpt lat="43.196197" lon="12.2972007"><ele>382.0</ele><time>2026-03-22T08:34:32.622Z</time></trkpt><trkpt lat="43.1962523" lon="12.2972425"><ele>382.0</ele><time>2026-03-22T08:34:34.622Z</time></trkpt><trkpt lat="43.1963116" lon="12.2972842"><ele>382.0</ele><time>2026-03-22T08:34:36.623Z</time></trkpt><trkpt lat="43.1963896" lon="12.2973415"><ele>382.0</ele><time>2026-03-22T08:34:39.622Z</time></trkpt><trkpt lat="43.1964703" lon="12.2973875"><ele>382.0</ele><time>2026-03-22T08:34:42.623Z</time></trkpt><trkpt lat="43.1965602" lon="12.2974091"><ele>383.5714285714286</ele><time>2026-03-22T08:34:45.622Z</time></trkpt><trkpt lat="43.1966258" lon="12.2973884"><ele>385.1428571428571</ele><time>2026-03-22T08:34:47.623Z</time></trkpt><trkpt lat="43.1966855" lon="12.2973573"><ele>386.7142857142857</ele><time>2026-03-22T08:34:49.623Z</time></trkpt><trkpt lat="43.1967392" lon="12.2972948"><ele>388.28571428571433</ele><time>2026-03-22T08:34:51.623Z</time></trkpt><trkpt lat="43.1967788" lon="12.297222"><ele>389.8571428571429</ele><time>2026-03-22T08:34:53.623Z</time></trkpt><trkpt lat="43.1968098" lon="12.2971423"><ele>391.42857142857144</ele><time>2026-03-22T08:34:55.623Z</time></trkpt><trkpt lat="43.196833" lon="12.2970518"><ele>393.0</ele><time>2026-03-22T08:34:57.622Z</time></trkpt><trkpt lat="43.1968491" lon="12.2969572"><ele>393.5</ele><time>2026-03-22T08:34:59.622Z</time></trkpt><trkpt lat="43.1968639" lon="12.2968693"><ele>394.0</ele><time>2026-03-22T08:35:01.622Z</time></trkpt><trkpt lat="43.1968768" lon="12.296784"><ele>394.5</ele><time>2026-03-22T08:35:03.623Z</time></trkpt><trkpt lat="43.1968957" lon="12.2966638"><ele>395.0</ele><time>2026-03-22T08:35:06.623Z</time></trkpt><trkpt lat="43.1969097" lon="12.2965786"><ele>395.5</ele><time>2026-03-22T08:35:08.622Z</time></trkpt><trkpt lat="43.1969246" lon="12.2964515"><ele>396.0</ele><time>2026-03-22T08:35:11.623Z</time></trkpt><trkpt lat="43.1969502" lon="12.2963273"><ele>396.0</ele><time>2026-03-22T08:35:14.622Z</time></trkpt><trkpt lat="43.1969682" lon="12.2962407"><ele>396.0</ele><time>2026-03-22T08:35:16.622Z</time></trkpt><trkpt lat="43.1969952" lon="12.2961209"><ele>396.0</ele><time>2026-03-22T08:35:19.622Z</time></trkpt><trkpt lat="43.1970347" lon="12.2960127"><ele>396.0</ele><time>2026-03-22T08:35:22.622Z</time></trkpt><trkpt lat="43.1970859" lon="12.2959088"><ele>396.0</ele><time>2026-03-22T08:35:25.622Z</time></trkpt><trkpt lat="43.1971564" lon="12.2958308"><ele>396.0</ele><time>2026-03-22T08:35:28.622Z</time></trkpt><trkpt lat="43.197228" lon="12.2957622"><ele>396.0</ele><time>2026-03-22T08:35:31.623Z</time></trkpt><trkpt lat="43.197299" lon="12.2956928"><ele>396.0</ele><time>2026-03-22T08:35:34.623Z</time></trkpt><trkpt lat="43.1973682" lon="12.2956192"><ele>396.0</ele><time>2026-03-22T08:35:37.623Z</time></trkpt><trkpt lat="43.1974413" lon="12.2955447"><ele>396.0</ele><time>2026-03-22T08:35:40.622Z</time></trkpt><trkpt lat="43.1975079" lon="12.2954746"><ele>396.0</ele><time>2026-03-22T08:35:43.623Z</time></trkpt><trkpt lat="43.1975709" lon="12.2954085"><ele>396.0</ele><time>2026-03-22T08:35:46.622Z</time></trkpt><trkpt lat="43.1976359" lon="12.2953378"><ele>397.8333333333333</ele><time>2026-03-22T08:35:49.623Z</time></trkpt><trkpt lat="43.1976933" lon="12.2952642"><ele>399.66666666666663</ele><time>2026-03-22T08:35:52.622Z</time></trkpt><trkpt lat="43.1977429" lon="12.2951868"><ele>401.5</ele><time>2026-03-22T08:35:55.623Z</time></trkpt><trkpt lat="43.197792" lon="12.2951081"><ele>403.3333333333333</ele><time>2026-03-22T08:35:58.623Z</time></trkpt><trkpt lat="43.1978433" lon="12.2950363"><ele>405.16666666666663</ele><time>2026-03-22T08:36:01.622Z</time></trkpt><trkpt lat="43.1978995" lon="12.294957"><ele>407.0</ele><time>2026-03-22T08:36:04.623Z</time></trkpt><trkpt lat="43.1979647" lon="12.2948867"><ele>406.99999999999994</ele><time>2026-03-22T08:36:07.623Z</time></trkpt><trkpt lat="43.198026" lon="12.2948191"><ele>407.0</ele><time>2026-03-22T08:36:10.622Z</time></trkpt><trkpt lat="43.1980868" lon="12.2947543"><ele>407.0</ele><time>2026-03-22T08:36:13.622Z</time></trkpt><trkpt lat="43.1981543" lon="12.294701"><ele>407.0</ele><time>2026-03-22T08:36:16.623Z</time></trkpt><trkpt lat="43.198225" lon="12.294659"><ele>406.99999999999994</ele><time>2026-03-22T08:36:19.622Z</time></trkpt><trkpt lat="43.1982958" lon="12.2946182"><ele>407.0</ele><time>2026-03-22T08:36:22.622Z</time></trkpt><trkpt lat="43.1983627" lon="12.2945845"><ele>407.8571428571429</ele><time>2026-03-22T08:36:25.622Z</time></trkpt><trkpt lat="43.1984305" lon="12.2945488"><ele>408.7142857142857</ele><time>2026-03-22T08:36:28.623Z</time></trkpt><trkpt lat="43.1984915" lon="12.2945095"><ele>409.57142857142856</ele><time>2026-03-22T08:36:31.622Z</time></trkpt><trkpt lat="43.1985551" lon="12.2944736"><ele>410.42857142857144</ele><time>2026-03-22T08:36:34.622Z</time></trkpt><trkpt lat="43.1986196" lon="12.2944378"><ele>411.2857142857143</ele><time>2026-03-22T08:36:37.622Z</time></trkpt><trkpt lat="43.1986796" lon="12.2943891"><ele>412.14285714285717</ele><time>2026-03-22T08:36:40.623Z</time></trkpt><trkpt lat="43.1987396" lon="12.2943387"><ele>413.0</ele><time>2026-03-22T08:36:43.623Z</time></trkpt><trkpt lat="43.1987985" lon="12.2942881"><ele>413.0</ele><time>2026-03-22T08:36:46.622Z</time></trkpt><trkpt lat="43.1988527" lon="12.294228"><ele>413.0</ele><time>2026-03-22T08:36:49.622Z</time></trkpt><trkpt lat="43.1989061" lon="12.29416"><ele>413.0</ele><time>2026-03-22T08:36:52.622Z</time></trkpt><trkpt lat="43.1989564" lon="12.2940882"><ele>413.0</ele><time>2026-03-22T08:36:55.623Z</time></trkpt><trkpt lat="43.199003" lon="12.2940094"><ele>413.0</ele><time>2026-03-22T08:36:58.623Z</time></trkpt><trkpt lat="43.1990548" lon="12.2939423"><ele>413.0</ele><time>2026-03-22T08:37:01.623Z</time></trkpt><trkpt lat="43.1991068" lon="12.2938836"><ele>413.0</ele><time>2026-03-22T08:37:04.623Z</time></trkpt><trkpt lat="43.1991603" lon="12.2938231"><ele>415.2857142857143</ele><time>2026-03-22T08:37:07.622Z</time></trkpt><trkpt lat="43.1992133" lon="12.2937583"><ele>417.57142857142856</ele><time>2026-03-22T08:37:10.623Z</time></trkpt><trkpt lat="43.1992693" lon="12.2936973"><ele>419.8571428571429</ele><time>2026-03-22T08:37:13.622Z</time></trkpt><trkpt lat="43.199323" lon="12.2936353"><ele>422.1428571428571</ele><time>2026-03-22T08:37:16.622Z</time></trkpt><trkpt lat="43.1993765" lon="12.2935711"><ele>424.42857142857144</ele><time>2026-03-22T08:37:19.623Z</time></trkpt><trkpt lat="43.1994299" lon="12.2935035"><ele>426.7142857142857</ele><time>2026-03-22T08:37:22.623Z</time></trkpt><trkpt lat="43.1994815" lon="12.2934334"><ele>429.0</ele><time>2026-03-22T08:37:25.623Z</time></trkpt><trkpt lat="43.1995381" lon="12.2933691"><ele>429.0</ele><time>2026-03-22T08:37:28.623Z</time></trkpt><trkpt lat="43.1996005" lon="12.293317"><ele>429.0</ele><time>2026-03-22T08:37:31.623Z</time></trkpt><trkpt lat="43.1996627" lon="12.2932698"><ele>429.0</ele><time>2026-03-22T08:37:34.623Z</time></trkpt><trkpt lat="43.1997318" lon="12.2932308"><ele>429.0</ele><time>2026-03-22T08:37:37.622Z</time></trkpt><trkpt lat="43.1998035" lon="12.2931907"><ele>429.0</ele><time>2026-03-22T08:37:40.623Z</time></trkpt><trkpt lat="43.1998759" lon="12.2931486"><ele>429.0</ele><time>2026-03-22T08:37:43.623Z</time></trkpt><trkpt lat="43.199948" lon="12.2930948"><ele>430.1666666666667</ele><time>2026-03-22T08:37:46.622Z</time></trkpt><trkpt lat="43.2000236" lon="12.2930308"><ele>431.33333333333337</ele><time>2026-03-22T08:37:49.622Z</time></trkpt><trkpt lat="43.2000942" lon="12.2929671"><ele>432.5</ele><time>2026-03-22T08:37:52.623Z</time></trkpt><trkpt lat="43.2001574" lon="12.292897"><ele>433.6666666666667</ele><time>2026-03-22T08:37:55.622Z</time></trkpt><trkpt lat="43.2002205" lon="12.2928235"><ele>434.83333333333337</ele><time>2026-03-22T08:37:58.623Z</time></trkpt><trkpt lat="43.2002774" lon="12.2927469"><ele>436.0</ele><time>2026-03-22T08:38:01.622Z</time></trkpt><trkpt lat="43.2003297" lon="12.2926655"><ele>436.0</ele><time>2026-03-22T08:38:04.623Z</time></trkpt><trkpt lat="43.2003829" lon="12.2925809"><ele>436.0</ele><time>2026-03-22T08:38:07.622Z</time></trkpt><trkpt lat="43.2004379" lon="12.2925037"><ele>436.0</ele><time>2026-03-22T08:38:10.623Z</time></trkpt><trkpt lat="43.200495" lon="12.2924185"><ele>436.0</ele><time>2026-03-22T08:38:13.622Z</time></trkpt></trkseg><trkseg><trkpt lat="43.2236686" lon="12.3255136"><ele>384.0</ele><time>2026-03-22T09:26:25.642Z</time></trkpt><trkpt lat="43.2235704" lon="12.325522"><ele>384.0</ele><time>2026-03-22T09:26:27.622Z</time></trkpt><trkpt lat="43.2234886" lon="12.3255292"><ele>384.0</ele><time>2026-03-22T09:26:30.622Z</time></trkpt><trkpt lat="43.2234345" lon="12.3255746"><ele>384.0</ele><time>2026-03-22T09:26:32.622Z</time></trkpt><trkpt lat="43.2233565" lon="12.3256279"><ele>384.0</ele><time>2026-03-22T09:26:35.622Z</time></trkpt><trkpt lat="43.2233185" lon="12.3257065"><ele>384.0</ele><time>2026-03-22T09:26:45.623Z</time></trkpt><trkpt lat="43.2233746" lon="12.3257677"><ele>383.3333333333333</ele><time>2026-03-22T09:26:50.623Z</time></trkpt><trkpt lat="43.2233368" lon="12.3256625"><ele>382.6666666666667</ele><time>2026-03-22T09:27:18.622Z</time></trkpt><trkpt lat="43.2232684" lon="12.325628"><ele>382.0</ele><time>2026-03-22T09:27:31.622Z</time></trkpt><trkpt lat="43.2232058" lon="12.3255646"><ele>381.33333333333337</ele><time>2026-03-22T09:27:35.623Z</time></trkpt><trkpt lat="43.223116" lon="12.3255645"><ele>380.6666666666667</ele><time>2026-03-22T09:27:38.622Z</time></trkpt><trkpt lat="43.2230486" lon="12.3255925"><ele>380.0</ele><time>2026-03-22T09:27:40.622Z</time></trkpt><trkpt lat="43.2229745" lon="12.325626"><ele>379.83333333333337</ele><time>2026-03-22T09:27:42.623Z</time></trkpt><trkpt lat="43.2228938" lon="12.3256645"><ele>379.6666666666667</ele><time>2026-03-22T09:27:44.623Z</time></trkpt><trkpt lat="43.2228128" lon="12.3257033"><ele>379.5</ele><time>2026-03-22T09:27:46.622Z</time></trkpt><trkpt lat="43.2227309" lon="12.3257535"><ele>379.3333333333333</ele><time>2026-03-22T09:27:48.622Z</time></trkpt><trkpt lat="43.2226541" lon="12.3258022"><ele>379.16666666666663</ele><time>2026-03-22T09:27:50.623Z</time></trkpt><trkpt lat="43.2225761" lon="12.3258463"><ele>379.0</ele><time>2026-03-22T09:27:52.623Z</time></trkpt><trkpt lat="43.2224995" lon="12.325893"><ele>379.0</ele><time>2026-03-22T09:27:54.623Z</time></trkpt><trkpt lat="43.2224291" lon="12.325942"><ele>379.0</ele><time>2026-03-22T09:27:56.622Z</time></trkpt><trkpt lat="43.2223609" lon="12.3259811"><ele>379.0</ele><time>2026-03-22T09:27:58.622Z</time></trkpt><trkpt lat="43.2222989" lon="12.3260293"><ele>379.0</ele><time>2026-03-22T09:28:00.623Z</time></trkpt><trkpt lat="43.2222347" lon="12.3260817"><ele>379.0</ele><time>2026-03-22T09:28:02.623Z</time></trkpt><trkpt lat="43.222171" lon="12.3261416"><ele>379.0</ele><time>2026-03-22T09:28:04.623Z</time></trkpt><trkpt lat="43.2221062" lon="12.3262027"><ele>379.16666666666663</ele><time>2026-03-22T09:28:06.622Z</time></trkpt><trkpt lat="43.2220442" lon="12.3262669"><ele>379.3333333333333</ele><time>2026-03-22T09:28:08.623Z</time></trkpt><trkpt lat="43.2219852" lon="12.3263354"><ele>379.5</ele><time>2026-03-22T09:28:10.622Z</time></trkpt><trkpt lat="43.2219314" lon="12.3264117"><ele>379.6666666666667</ele><time>2026-03-22T09:28:12.623Z</time></trkpt><trkpt lat="43.2218661" lon="12.3264993"><ele>379.83333333333337</ele><time>2026-03-22T09:28:14.623Z</time></trkpt><trkpt lat="43.2218043" lon="12.3265992"><ele>380.0</ele><time>2026-03-22T09:28:16.622Z</time></trkpt><trkpt lat="43.2217322" lon="12.3267105"><ele>379.8</ele><time>2026-03-22T09:28:18.623Z</time></trkpt><trkpt lat="43.221655" lon="12.3268127"><ele>379.6</ele><time>2026-03-22T09:28:20.622Z</time></trkpt><trkpt lat="43.221581" lon="12.3268983"><ele>379.4</ele><time>2026-03-22T09:28:22.622Z</time></trkpt><trkpt lat="43.2215154" lon="12.3269792"><ele>379.2</ele><time>2026-03-22T09:28:24.623Z</time></trkpt><trkpt lat="43.2214461" lon="12.3270487"><ele>379.0</ele><time>2026-03-22T09:28:26.622Z</time></trkpt><trkpt lat="43.2213893" lon="12.3271299"><ele>379.0</ele><time>2026-03-22T09:28:28.622Z</time></trkpt><trkpt lat="43.2213421" lon="12.3272113"><ele>379.0</ele><time>2026-03-22T09:28:30.623Z</time></trkpt><trkpt lat="43.2212964" lon="12.3272726"><ele>379.0</ele><time>2026-03-22T09:28:32.623Z</time></trkpt><trkpt lat="43.2212345" lon="12.327355"><ele>379.0</ele><time>2026-03-22T09:28:35.622Z</time></trkpt><trkpt lat="43.2211843" lon="12.3274411"><ele>379.0</ele><time>2026-03-22T09:28:38.623Z</time></trkpt><trkpt lat="43.2211323" lon="12.3275172"><ele>379.0</ele><time>2026-03-22T09:28:41.623Z</time></trkpt><trkpt lat="43.2210432" lon="12.3275188"><ele>380.14285714285717</ele><time>2026-03-22T09:28:44.623Z</time></trkpt><trkpt lat="43.2209785" lon="12.3274892"><ele>381.2857142857143</ele><time>2026-03-22T09:28:46.623Z</time></trkpt><trkpt lat="43.2209122" lon="12.3274586"><ele>382.42857142857144</ele><time>2026-03-22T09:28:48.622Z</time></trkpt><trkpt lat="43.2208478" lon="12.3274287"><ele>383.57142857142856</ele><time>2026-03-22T09:28:50.622Z</time></trkpt><trkpt lat="43.220786" lon="12.3273927"><ele>384.7142857142857</ele><time>2026-03-22T09:28:52.622Z</time></trkpt><trkpt lat="43.2207262" lon="12.3273603"><ele>385.8571428571429</ele><time>2026-03-22T09:28:54.623Z</time></trkpt><trkpt lat="43.2206674" lon="12.3273235"><ele>387.0</ele><time>2026-03-22T09:28:56.623Z</time></trkpt><trkpt lat="43.2205798" lon="12.3272808"><ele>386.3333333333333</ele><time>2026-03-22T09:28:59.623Z</time></trkpt><trkpt lat="43.2205224" lon="12.3272441"><ele>385.6666666666667</ele><time>2026-03-22T09:29:01.622Z</time></trkpt><trkpt lat="43.2204619" lon="12.3272078"><ele>385.0</ele><time>2026-03-22T09:29:03.623Z</time></trkpt><trkpt lat="43.2203787" lon="12.3271567"><ele>384.33333333333337</ele><time>2026-03-22T09:29:06.622Z</time></trkpt><trkpt lat="43.2202953" lon="12.3271116"><ele>383.6666666666667</ele><time>2026-03-22T09:29:09.622Z</time></trkpt><trkpt lat="43.2202058" lon="12.3270839"><ele>383.0</ele><time>2026-03-22T09:29:12.623Z</time></trkpt><trkpt lat="43.2201156" lon="12.3270679"><ele>383.0</ele><time>2026-03-22T09:29:15.623Z</time></trkpt><trkpt lat="43.220051" lon="12.3270585"><ele>383.0</ele><time>2026-03-22T09:29:17.623Z</time></trkpt><trkpt lat="43.2199871" lon="12.3270519"><ele>383.0</ele><time>2026-03-22T09:29:19.622Z</time></trkpt><trkpt lat="43.2198934" lon="12.3270412"><ele>383.0</ele><time>2026-03-22T09:29:22.622Z</time></trkpt><trkpt lat="43.2198295" lon="12.3270366"><ele>383.0</ele><time>2026-03-22T09:29:24.623Z</time></trkpt><trkpt lat="43.219735" lon="12.3270267"><ele>383.0</ele><time>2026-03-22T09:29:27.623Z</time></trkpt><trkpt lat="43.219671" lon="12.3270156"><ele>383.0</ele><time>2026-03-22T09:29:29.622Z</time></trkpt><trkpt lat="43.2196074" lon="12.3270107"><ele>383.33333333333337</ele><time>2026-03-22T09:29:31.622Z</time></trkpt><trkpt lat="43.2195141" lon="12.3269924"><ele>383.6666666666667</ele><time>2026-03-22T09:29:34.623Z</time></trkpt><trkpt lat="43.2194508" lon="12.3269881"><ele>384.0</ele><time>2026-03-22T09:29:36.622Z</time></trkpt><trkpt lat="43.2193862" lon="12.3269783"><ele>384.33333333333337</ele><time>2026-03-22T09:29:38.623Z</time></trkpt><trkpt lat="43.2192936" lon="12.3269653"><ele>384.6666666666667</ele><time>2026-03-22T09:29:41.622Z</time></trkpt><trkpt lat="43.2192295" lon="12.326962"><ele>385.0</ele><time>2026-03-22T09:29:43.622Z</time></trkpt><trkpt lat="43.2191358" lon="12.3269495"><ele>385.00000000000006</ele><time>2026-03-22T09:29:46.623Z</time></trkpt><trkpt lat="43.2190423" lon="12.3269438"><ele>385.0</ele><time>2026-03-22T09:29:49.622Z</time></trkpt><trkpt lat="43.2189502" lon="12.3269294"><ele>385.0</ele><time>2026-03-22T09:29:52.623Z</time></trkpt><trkpt lat="43.2188601" lon="12.3269058"><ele>385.0</ele><time>2026-03-22T09:29:55.623Z</time></trkpt><trkpt lat="43.2187746" lon="12.3268778"><ele>385.00000000000006</ele><time>2026-03-22T09:29:58.622Z</time></trkpt><trkpt lat="43.2186945" lon="12.3268454"><ele>385.0</ele><time>2026-03-22T09:30:01.622Z</time></trkpt><trkpt lat="43.2186182" lon="12.3268103"><ele>386.6666666666667</ele><time>2026-03-22T09:30:04.623Z</time></trkpt><trkpt lat="43.2185394" lon="12.3267646"><ele>388.33333333333337</ele><time>2026-03-22T09:30:07.623Z</time></trkpt><trkpt lat="43.2184625" lon="12.3267162"><ele>390.0</ele><time>2026-03-22T09:30:10.623Z</time></trkpt><trkpt lat="43.2183883" lon="12.3266683"><ele>391.66666666666663</ele><time>2026-03-22T09:30:13.623Z</time></trkpt><trkpt lat="43.2183153" lon="12.3266238"><ele>393.3333333333333</ele><time>2026-03-22T09:30:16.623Z</time></trkpt><trkpt lat="43.2182474" lon="12.3265733"><ele>395.0</ele><time>2026-03-22T09:30:19.623Z</time></trkpt><trkpt lat="43.2181753" lon="12.3265354"><ele>394.8333333333333</ele><time>2026-03-22T09:30:22.622Z</time></trkpt><trkpt lat="43.2181013" lon="12.3264962"><ele>394.66666666666663</ele><time>2026-03-22T09:30:25.622Z</time></trkpt><trkpt lat="43.2180311" lon="12.3264571"><ele>394.5</ele><time>2026-03-22T09:30:28.623Z</time></trkpt><trkpt lat="43.2179593" lon="12.3264204"><ele>394.33333333333337</ele><time>2026-03-22T09:30:31.623Z</time></trkpt><trkpt lat="43.2178859" lon="12.3263743"><ele>394.1666666666667</ele><time>2026-03-22T09:30:34.623Z</time></trkpt><trkpt lat="43.2178093" lon="12.3263396"><ele>394.0</ele><time>2026-03-22T09:30:37.623Z</time></trkpt><trkpt lat="43.2177341" lon="12.3263137"><ele>394.00000000000006</ele><time>2026-03-22T09:30:40.623Z</time></trkpt><trkpt lat="43.2176561" lon="12.3263105"><ele>394.0</ele><time>2026-03-22T09:30:43.623Z</time></trkpt><trkpt lat="43.2175816" lon="12.3262999"><ele>394.0</ele><time>2026-03-22T09:30:46.623Z</time></trkpt><trkpt lat="43.2175027" lon="12.3263005"><ele>394.0</ele><time>2026-03-22T09:30:49.623Z</time></trkpt><trkpt lat="43.2174237" lon="12.3262993"><ele>394.00000000000006</ele><time>2026-03-22T09:30:52.622Z</time></trkpt><trkpt lat="43.2173451" lon="12.3263212"><ele>394.0</ele><time>2026-03-22T09:30:55.622Z</time></trkpt><trkpt lat="43.217273" lon="12.3263465"><ele>394.83333333333337</ele><time>2026-03-22T09:30:58.623Z</time></trkpt><trkpt lat="43.2172014" lon="12.3263701"><ele>395.6666666666667</ele><time>2026-03-22T09:31:01.622Z</time></trkpt><trkpt lat="43.2171306" lon="12.3263864"><ele>396.5</ele><time>2026-03-22T09:31:04.622Z</time></trkpt><trkpt lat="43.2170593" lon="12.3263814"><ele>397.33333333333337</ele><time>2026-03-22T09:31:07.623Z</time></trkpt><trkpt lat="43.2169817" lon="12.3263431"><ele>398.1666666666667</ele><time>2026-03-22T09:31:10.623Z</time></trkpt><trkpt lat="43.2169012" lon="12.3263022"><ele>399.0</ele><time>2026-03-22T09:31:13.622Z</time></trkpt><trkpt lat="43.2168183" lon="12.3262543"><ele>399.0</ele><time>2026-03-22T09:31:16.623Z</time></trkpt><trkpt lat="43.216735" lon="12.3262057"><ele>399.0</ele><time>2026-03-22T09:31:19.622Z</time></trkpt><trkpt lat="43.216648" lon="12.3261631"><ele>399.0</ele><time>2026-03-22T09:31:22.622Z</time></trkpt><trkpt lat="43.2165589" lon="12.3261262"><ele>399.0</ele><time>2026-03-22T09:31:25.622Z</time></trkpt><trkpt lat="43.2164979" lon="12.3261046"><ele>399.0</ele><time>2026-03-22T09:31:27.622Z</time></trkpt><trkpt lat="43.2164338" lon="12.3260861"><ele>399.0</ele><time>2026-03-22T09:31:29.623Z</time></trkpt><trkpt lat="43.2163642" lon="12.3260749"><ele>400.1666666666667</ele><time>2026-03-22T09:31:31.623Z</time></trkpt><trkpt lat="43.2162911" lon="12.3260683"><ele>401.33333333333337</ele><time>2026-03-22T09:31:33.622Z</time></trkpt><trkpt lat="43.2162122" lon="12.3260652"><ele>402.5</ele><time>2026-03-22T09:31:35.622Z</time></trkpt><trkpt lat="43.2161341" lon="12.3260372"><ele>403.6666666666667</ele><time>2026-03-22T09:31:37.622Z</time></trkpt><trkpt lat="43.2160691" lon="12.325976"><ele>404.83333333333337</ele><time>2026-03-22T09:31:39.623Z</time></trkpt><trkpt lat="43.2160221" lon="12.3258945"><ele>406.0</ele><time>2026-03-22T09:31:41.623Z</time></trkpt><trkpt lat="43.2159812" lon="12.3258235"><ele>406.0</ele><time>2026-03-22T09:31:43.622Z</time></trkpt><trkpt lat="43.2159386" lon="12.3257579"><ele>406.0</ele><time>2026-03-22T09:31:45.623Z</time></trkpt><trkpt lat="43.2158819" lon="12.32571"><ele>406.0</ele><time>2026-03-22T09:31:47.622Z</time></trkpt><trkpt lat="43.2158232" lon="12.3256698"><ele>406.0</ele><time>2026-03-22T09:31:49.623Z</time></trkpt><trkpt lat="43.2157633" lon="12.32564"><ele>406.0</ele><time>2026-03-22T09:31:51.622Z</time></trkpt><trkpt lat="43.2156802" lon="12.3256054"><ele>406.0</ele><time>2026-03-22T09:31:54.623Z</time></trkpt><trkpt lat="43.2156005" lon="12.3255741"><ele>406.0</ele><time>2026-03-22T09:31:57.622Z</time></trkpt><trkpt lat="43.2155125" lon="12.3255417"><ele>406.6666666666667</ele><time>2026-03-22T09:32:00.623Z</time></trkpt><trkpt lat="43.2154282" lon="12.3255191"><ele>407.33333333333337</ele><time>2026-03-22T09:32:03.623Z</time></trkpt><trkpt lat="43.2153498" lon="12.3255175"><ele>408.0</ele><time>2026-03-22T09:32:06.623Z</time></trkpt><trkpt lat="43.2152799" lon="12.3255381"><ele>408.66666666666663</ele><time>2026-03-22T09:32:09.623Z</time></trkpt><trkpt lat="43.2152108" lon="12.3255814"><ele>409.3333333333333</ele><time>2026-03-22T09:32:12.623Z</time></trkpt><trkpt lat="43.2151508" lon="12.3256288"><ele>410.0</ele><time>2026-03-22T09:32:15.623Z</time></trkpt><trkpt lat="43.2150883" lon="12.3256842"><ele>410.0</ele><time>2026-03-22T09:32:18.623Z</time></trkpt><trkpt lat="43.2150288" lon="12.3257416"><ele>410.0</ele><time>2026-03-22T09:32:21.623Z</time></trkpt><trkpt lat="43.2149688" lon="12.3257992"><ele>410.0</ele><time>2026-03-22T09:32:24.622Z</time></trkpt><trkpt lat="43.2149167" lon="12.3258609"><ele>410.0</ele><time>2026-03-22T09:32:27.623Z</time></trkpt><trkpt lat="43.2148575" lon="12.32593"><ele>410.0</ele><time>2026-03-22T09:32:31.622Z</time></trkpt><trkpt lat="43.2148007" lon="12.3259886"><ele>410.0</ele><time>2026-03-22T09:32:35.623Z</time></trkpt><trkpt lat="43.2147666" lon="12.3260746"><ele>410.0</ele><time>2026-03-22T09:32:39.622Z</time></trkpt><trkpt lat="43.2147668" lon="12.3261846"><ele>409.7142857142857</ele><time>2026-03-22T09:32:44.622Z</time></trkpt><trkpt lat="43.2147821" lon="12.326274"><ele>409.4285714285714</ele><time>2026-03-22T09:32:48.622Z</time></trkpt><trkpt lat="43.2147922" lon="12.3263748"><ele>409.1428571428571</ele><time>2026-03-22T09:32:53.622Z</time></trkpt><trkpt lat="43.2148044" lon="12.3264619"><ele>408.8571428571429</ele><time>2026-03-22T09:32:57.622Z</time></trkpt><trkpt lat="43.2147989" lon="12.3265515"><ele>408.57142857142856</ele><time>2026-03-22T09:33:02.622Z</time></trkpt><trkpt lat="43.2147874" lon="12.3266412"><ele>408.2857142857143</ele><time>2026-03-22T09:33:05.623Z</time></trkpt><trkpt lat="43.2147502" lon="12.3267213"><ele>408.0</ele><time>2026-03-22T09:33:08.622Z</time></trkpt><trkpt lat="43.214693" lon="12.3267625"><ele>409.57142857142856</ele><time>2026-03-22T09:33:11.622Z</time></trkpt><trkpt lat="43.2146273" lon="12.3267862"><ele>411.14285714285717</ele><time>2026-03-22T09:33:14.623Z</time></trkpt><trkpt lat="43.2145637" lon="12.3268221"><ele>412.71428571428567</ele><time>2026-03-22T09:33:17.623Z</time></trkpt><trkpt lat="43.2144979" lon="12.3268581"><ele>414.2857142857143</ele><time>2026-03-22T09:33:20.622Z</time></trkpt><trkpt lat="43.2144317" lon="12.3268856"><ele>415.85714285714283</ele><time>2026-03-22T09:33:23.622Z</time></trkpt><trkpt lat="43.2143711" lon="12.3269147"><ele>417.4285714285714</ele><time>2026-03-22T09:33:26.622Z</time></trkpt><trkpt lat="43.2143092" lon="12.3269482"><ele>419.0</ele><time>2026-03-22T09:33:29.622Z</time></trkpt><trkpt lat="43.214248" lon="12.3269775"><ele>418.99999999999994</ele><time>2026-03-22T09:33:32.622Z</time></trkpt><trkpt lat="43.2141851" lon="12.3270045"><ele>419.0</ele><time>2026-03-22T09:33:35.623Z</time></trkpt><trkpt lat="43.2141224" lon="12.3270271"><ele>419.0</ele><time>2026-03-22T09:33:38.623Z</time></trkpt><trkpt lat="43.214056" lon="12.3270525"><ele>419.0</ele><time>2026-03-22T09:33:41.623Z</time></trkpt><trkpt lat="43.2139918" lon="12.3270785"><ele>419.0</ele><time>2026-03-22T09:33:44.623Z</time></trkpt><trkpt lat="43.2139143" lon="12.3270986"><ele>418.99999999999994</ele><time>2026-03-22T09:33:48.623Z</time></trkpt><trkpt lat="43.2138541" lon="12.3271243"><ele>419.0</ele><time>2026-03-22T09:33:51.623Z</time></trkpt><trkpt lat="43.2137906" lon="12.3271566"><ele>419.71428571428567</ele><time>2026-03-22T09:33:54.622Z</time></trkpt><trkpt lat="43.2137273" lon="12.3271951"><ele>420.42857142857144</ele><time>2026-03-22T09:33:57.622Z</time></trkpt><trkpt lat="43.2136664" lon="12.327218"><ele>421.1428571428571</ele><time>2026-03-22T09:34:00.622Z</time></trkpt><trkpt lat="43.2136064" lon="12.3272468"><ele>421.85714285714283</ele><time>2026-03-22T09:34:03.622Z</time></trkpt><trkpt lat="43.2135346" lon="12.327276"><ele>422.57142857142856</ele><time>2026-03-22T09:34:07.623Z</time></trkpt><trkpt lat="43.213457" lon="12.3273139"><ele>423.2857142857143</ele><time>2026-03-22T09:34:11.623Z</time></trkpt><trkpt lat="43.2133783" lon="12.3273332"><ele>424.0</ele><time>2026-03-22T09:34:15.623Z</time></trkpt><trkpt lat="43.2132968" lon="12.3273537"><ele>425.6666666666667</ele><time>2026-03-22T09:34:19.623Z</time></trkpt><trkpt lat="43.2132145" lon="12.3273784"><ele>427.33333333333337</ele><time>2026-03-22T09:34:23.622Z</time></trkpt><trkpt lat="43.2131358" lon="12.3274133"><ele>429.0</ele><time>2026-03-22T09:34:27.623Z</time></trkpt><trkpt lat="43.2130554" lon="12.3274263"><ele>430.66666666666663</ele><time>2026-03-22T09:34:31.623Z</time></trkpt><trkpt lat="43.2129791" lon="12.327448"><ele>432.3333333333333</ele><time>2026-03-22T09:34:35.623Z</time></trkpt><trkpt lat="43.2129063" lon="12.3274743"><ele>434.0</ele><time>2026-03-22T09:34:39.623Z</time></trkpt><trkpt lat="43.2128365" lon="12.3274993"><ele>434.57142857142856</ele><time>2026-03-22T09:34:43.623Z</time></trkpt><trkpt lat="43.2127655" lon="12.3275091"><ele>435.1428571428571</ele><time>2026-03-22T09:34:47.623Z</time></trkpt><trkpt lat="43.2126898" lon="12.327524"><ele>435.7142857142857</ele><time>2026-03-22T09:34:51.623Z</time></trkpt><trkpt lat="43.212615" lon="12.3275509"><ele>436.2857142857143</ele><time>2026-03-22T09:34:55.622Z</time></trkpt><trkpt lat="43.2125533" lon="12.3275703"><ele>436.85714285714283</ele><time>2026-03-22T09:34:58.622Z</time></trkpt><trkpt lat="43.2124863" lon="12.3275828"><ele>437.42857142857144</ele><time>2026-03-22T09:35:01.622Z</time></trkpt><trkpt lat="43.2124156" lon="12.3275997"><ele>438.0</ele><time>2026-03-22T09:35:04.622Z</time></trkpt><trkpt lat="43.2123459" lon="12.3276161"><ele>438.0</ele><time>2026-03-22T09:35:07.623Z</time></trkpt><trkpt lat="43.2122746" lon="12.3276309"><ele>438.0</ele><time>2026-03-22T09:35:10.622Z</time></trkpt><trkpt lat="43.2121963" lon="12.3276388"><ele>438.0</ele><time>2026-03-22T09:35:13.623Z</time></trkpt><trkpt lat="43.2121126" lon="12.3276529"><ele>438.0</ele><time>2026-03-22T09:35:16.623Z</time></trkpt><trkpt lat="43.2120242" lon="12.3276641"><ele>438.0</ele><time>2026-03-22T09:35:19.623Z</time></trkpt><trkpt lat="43.2119327" lon="12.3276801"><ele>438.0</ele><time>2026-03-22T09:35:22.622Z</time></trkpt><trkpt lat="43.2118431" lon="12.3276893"><ele>438.0</ele><time>2026-03-22T09:35:25.623Z</time></trkpt><trkpt lat="43.2117519" lon="12.3277067"><ele>438.0</ele><time>2026-03-22T09:35:28.623Z</time></trkpt><trkpt lat="43.2116727" lon="12.3277152"><ele>438.0</ele><time>2026-03-22T09:35:31.623Z</time></trkpt><trkpt lat="43.2115987" lon="12.3277253"><ele>438.0</ele><time>2026-03-22T09:35:34.623Z</time></trkpt><trkpt lat="43.2115242" lon="12.3277322"><ele>438.0</ele><time>2026-03-22T09:35:37.622Z</time></trkpt><trkpt lat="43.2114533" lon="12.3277416"><ele>438.0</ele><time>2026-03-22T09:35:40.622Z</time></trkpt><trkpt lat="43.2113786" lon="12.3277539"><ele>438.5714285714286</ele><time>2026-03-22T09:35:43.623Z</time></trkpt><trkpt lat="43.2113083" lon="12.3277663"><ele>439.1428571428571</ele><time>2026-03-22T09:35:46.622Z</time></trkpt><trkpt lat="43.2112389" lon="12.3277708"><ele>439.7142857142857</ele><time>2026-03-22T09:35:49.622Z</time></trkpt><trkpt lat="43.2111739" lon="12.3277749"><ele>440.28571428571433</ele><time>2026-03-22T09:35:52.623Z</time></trkpt><trkpt lat="43.2111101" lon="12.3277808"><ele>440.8571428571429</ele><time>2026-03-22T09:35:55.622Z</time></trkpt><trkpt lat="43.2110341" lon="12.3277987"><ele>441.42857142857144</ele><time>2026-03-22T09:35:59.622Z</time></trkpt><trkpt lat="43.2109734" lon="12.3278258"><ele>442.0</ele><time>2026-03-22T09:36:02.622Z</time></trkpt><trkpt lat="43.2108969" lon="12.3278487"><ele>442.00000000000006</ele><time>2026-03-22T09:36:06.623Z</time></trkpt><trkpt lat="43.2108329" lon="12.3278587"><ele>442.0</ele><time>2026-03-22T09:36:09.623Z</time></trkpt><trkpt lat="43.210768" lon="12.3278694"><ele>442.0</ele><time>2026-03-22T09:36:12.622Z</time></trkpt><trkpt lat="43.2107045" lon="12.327883"><ele>442.0</ele><time>2026-03-22T09:36:15.623Z</time></trkpt><trkpt lat="43.2106375" lon="12.3279131"><ele>442.0</ele><time>2026-03-22T09:36:18.623Z</time></trkpt><trkpt lat="43.2105677" lon="12.3279308"><ele>442.00000000000006</ele><time>2026-03-22T09:36:21.622Z</time></trkpt><trkpt lat="43.2104929" lon="12.327941"><ele>442.0</ele><time>2026-03-22T09:36:25.622Z</time></trkpt><trkpt lat="43.2104228" lon="12.3279652"><ele>442.7142857142857</ele><time>2026-03-22T09:36:29.623Z</time></trkpt><trkpt lat="43.2103448" lon="12.3279881"><ele>443.42857142857144</ele><time>2026-03-22T09:36:33.623Z</time></trkpt><trkpt lat="43.2102701" lon="12.3280151"><ele>444.1428571428571</ele><time>2026-03-22T09:36:37.622Z</time></trkpt><trkpt lat="43.2102001" lon="12.3280397"><ele>444.8571428571429</ele><time>2026-03-22T09:36:41.622Z</time></trkpt><trkpt lat="43.2101264" lon="12.3280622"><ele>445.57142857142856</ele><time>2026-03-22T09:36:45.623Z</time></trkpt><trkpt lat="43.210054" lon="12.328085"><ele>446.2857142857143</ele><time>2026-03-22T09:36:49.622Z</time></trkpt><trkpt lat="43.2099889" lon="12.3281192"><ele>447.0</ele><time>2026-03-22T09:36:53.622Z</time></trkpt><trkpt lat="43.2099152" lon="12.3281623"><ele>448.8333333333333</ele><time>2026-03-22T09:36:57.623Z</time></trkpt><trkpt lat="43.2098443" lon="12.3282259"><ele>450.66666666666663</ele><time>2026-03-22T09:37:01.623Z</time></trkpt><trkpt lat="43.2097835" lon="12.3282931"><ele>452.5</ele><time>2026-03-22T09:37:05.623Z</time></trkpt><trkpt lat="43.2097233" lon="12.3283528"><ele>454.3333333333333</ele><time>2026-03-22T09:37:09.623Z</time></trkpt><trkpt lat="43.2096598" lon="12.328419"><ele>456.16666666666663</ele><time>2026-03-22T09:37:13.623Z</time></trkpt><trkpt lat="43.2095976" lon="12.3284831"><ele>458.0</ele><time>2026-03-22T09:37:17.622Z</time></trkpt><trkpt lat="43.2095447" lon="12.3285332"><ele>457.99999999999994</ele><time>2026-03-22T09:37:20.623Z</time></trkpt><trkpt lat="43.2094885" lon="12.3285751"><ele>458.0</ele><time>2026-03-22T09:37:23.622Z</time></trkpt><trkpt lat="43.209417" lon="12.328627"><ele>458.0</ele><time>2026-03-22T09:37:27.623Z</time></trkpt><trkpt lat="43.2093398" lon="12.328669"><ele>458.0</ele><time>2026-03-22T09:37:31.623Z</time></trkpt><trkpt lat="43.2092638" lon="12.3287034"><ele>457.99999999999994</ele><time>2026-03-22T09:37:35.623Z</time></trkpt><trkpt lat="43.2091856" lon="12.3287347"><ele>458.0</ele><time>2026-03-22T09:37:39.622Z</time></trkpt><trkpt lat="43.2091192" lon="12.3287797"><ele>458.0</ele><time>2026-03-22T09:37:43.622Z</time></trkpt><trkpt lat="43.2090515" lon="12.3288182"><ele>458.0</ele><time>2026-03-22T09:37:47.622Z</time></trkpt><trkpt lat="43.2089763" lon="12.3288403"><ele>458.0</ele><time>2026-03-22T09:37:51.623Z</time></trkpt><trkpt lat="43.2089045" lon="12.3288672"><ele>458.0</ele><time>2026-03-22T09:37:55.623Z</time></trkpt><trkpt lat="43.2088278" lon="12.3288943"><ele>458.0</ele><time>2026-03-22T09:37:59.623Z</time></trkpt><trkpt lat="43.2087661" lon="12.3289269"><ele>458.0</ele><time>2026-03-22T09:38:02.623Z</time></trkpt><trkpt lat="43.2087062" lon="12.3289707"><ele>458.0</ele><time>2026-03-22T09:38:05.623Z</time></trkpt><trkpt lat="43.2086479" lon="12.329013"><ele>459.71428571428567</ele><time>2026-03-22T09:38:08.622Z</time></trkpt><trkpt lat="43.2085889" lon="12.3290602"><ele>461.42857142857144</ele><time>2026-03-22T09:38:11.623Z</time></trkpt><trkpt lat="43.2085302" lon="12.3291111"><ele>463.1428571428571</ele><time>2026-03-22T09:38:14.623Z</time></trkpt><trkpt lat="43.2084724" lon="12.3291558"><ele>464.85714285714283</ele><time>2026-03-22T09:38:17.622Z</time></trkpt><trkpt lat="43.208418" lon="12.3292047"><ele>466.57142857142856</ele><time>2026-03-22T09:38:20.622Z</time></trkpt><trkpt lat="43.2083513" lon="12.3292653"><ele>468.2857142857143</ele><time>2026-03-22T09:38:24.622Z</time></trkpt><trkpt lat="43.2082928" lon="12.3293141"><ele>470.0</ele><time>2026-03-22T09:38:27.622Z</time></trkpt><trkpt lat="43.2082201" lon="12.3293707"><ele>470.0</ele><time>2026-03-22T09:38:31.622Z</time></trkpt><trkpt lat="43.20816" lon="12.3294024"><ele>469.99999999999994</ele><time>2026-03-22T09:38:34.622Z</time></trkpt><trkpt lat="43.2080927" lon="12.3294346"><ele>470.0</ele><time>2026-03-22T09:38:37.622Z</time></trkpt><trkpt lat="43.2080277" lon="12.3294718"><ele>470.0</ele><time>2026-03-22T09:38:40.623Z</time></trkpt><trkpt lat="43.2079649" lon="12.3294968"><ele>469.99999999999994</ele><time>2026-03-22T09:38:43.622Z</time></trkpt><trkpt lat="43.2079006" lon="12.3295207"><ele>470.0</ele><time>2026-03-22T09:38:46.623Z</time></trkpt><trkpt lat="43.2078395" lon="12.3295526"><ele>470.0</ele><time>2026-03-22T09:38:49.622Z</time></trkpt><trkpt lat="43.2077745" lon="12.3295779"><ele>469.85714285714283</ele><time>2026-03-22T09:38:52.623Z</time></trkpt><trkpt lat="43.2077065" lon="12.3296013"><ele>469.71428571428567</ele><time>2026-03-22T09:38:55.622Z</time></trkpt><trkpt lat="43.2076361" lon="12.3296123"><ele>469.57142857142856</ele><time>2026-03-22T09:38:58.623Z</time></trkpt><trkpt lat="43.2075657" lon="12.3296238"><ele>469.42857142857144</ele><time>2026-03-22T09:39:01.622Z</time></trkpt><trkpt lat="43.2074956" lon="12.3296212"><ele>469.2857142857143</ele><time>2026-03-22T09:39:04.622Z</time></trkpt><trkpt lat="43.2074253" lon="12.3296191"><ele>469.1428571428571</ele><time>2026-03-22T09:39:07.623Z</time></trkpt><trkpt lat="43.2073521" lon="12.3296272"><ele>469.0</ele><time>2026-03-22T09:39:10.622Z</time></trkpt><trkpt lat="43.2072839" lon="12.3296498"><ele>468.8571428571429</ele><time>2026-03-22T09:39:13.623Z</time></trkpt><trkpt lat="43.2072184" lon="12.3296726"><ele>468.7142857142857</ele><time>2026-03-22T09:39:16.623Z</time></trkpt><trkpt lat="43.2071406" lon="12.3297143"><ele>468.57142857142856</ele><time>2026-03-22T09:39:20.622Z</time></trkpt><trkpt lat="43.2070817" lon="12.3297473"><ele>468.42857142857144</ele><time>2026-03-22T09:39:23.623Z</time></trkpt><trkpt lat="43.207027" lon="12.3297936"><ele>468.28571428571433</ele><time>2026-03-22T09:39:26.623Z</time></trkpt><trkpt lat="43.2069659" lon="12.3298366"><ele>468.14285714285717</ele><time>2026-03-22T09:39:29.621Z</time></trkpt><trkpt lat="43.2069092" lon="12.3298861"><ele>468.0</ele><time>2026-03-22T09:39:32.622Z</time></trkpt><trkpt lat="43.206851" lon="12.3299272"><ele>469.7142857142857</ele><time>2026-03-22T09:39:35.623Z</time></trkpt><trkpt lat="43.2067979" lon="12.3299796"><ele>471.42857142857144</ele><time>2026-03-22T09:39:38.622Z</time></trkpt><trkpt lat="43.2067462" lon="12.330032"><ele>473.14285714285717</ele><time>2026-03-22T09:39:41.623Z</time></trkpt><trkpt lat="43.2066936" lon="12.3300834"><ele>474.8571428571429</ele><time>2026-03-22T09:39:44.622Z</time></trkpt><trkpt lat="43.2066263" lon="12.3301492"><ele>476.57142857142856</ele><time>2026-03-22T09:39:48.623Z</time></trkpt><trkpt lat="43.2065628" lon="12.3302154"><ele>478.28571428571433</ele><time>2026-03-22T09:39:52.622Z</time></trkpt><trkpt lat="43.2064986" lon="12.3302838"><ele>480.0</ele><time>2026-03-22T09:39:56.623Z</time></trkpt><trkpt lat="43.2064336" lon="12.3303548"><ele>480.0</ele><time>2026-03-22T09:40:00.623Z</time></trkpt><trkpt lat="43.2063821" lon="12.3304066"><ele>480.0</ele><time>2026-03-22T09:40:03.623Z</time></trkpt><trkpt lat="43.2063139" lon="12.3304645"><ele>480.0</ele><time>2026-03-22T09:40:07.622Z</time></trkpt><trkpt lat="43.2062571" lon="12.330506"><ele>480.0</ele><time>2026-03-22T09:40:10.623Z</time></trkpt><trkpt lat="43.2061944" lon="12.3305497"><ele>480.0</ele><time>2026-03-22T09:40:13.622Z</time></trkpt><trkpt lat="43.2061231" lon="12.3306024"><ele>480.0</ele><time>2026-03-22T09:40:16.623Z</time></trkpt><trkpt lat="43.2060472" lon="12.3306565"><ele>480.0</ele><time>2026-03-22T09:40:19.623Z</time></trkpt><trkpt lat="43.2059626" lon="12.3306993"><ele>482.14285714285717</ele><time>2026-03-22T09:40:22.623Z</time></trkpt><trkpt lat="43.2058753" lon="12.3307406"><ele>484.2857142857142</ele><time>2026-03-22T09:40:25.622Z</time></trkpt><trkpt lat="43.2058106" lon="12.3307591"><ele>486.4285714285714</ele><time>2026-03-22T09:40:27.622Z</time></trkpt><trkpt lat="43.2057439" lon="12.3307683"><ele>488.57142857142856</ele><time>2026-03-22T09:40:29.623Z</time></trkpt><trkpt lat="43.2056784" lon="12.3307685"><ele>490.71428571428567</ele><time>2026-03-22T09:40:31.622Z</time></trkpt><trkpt lat="43.2056144" lon="12.3307564"><ele>492.8571428571428</ele><time>2026-03-22T09:40:33.622Z</time></trkpt><trkpt lat="43.2055269" lon="12.3307442"><ele>494.99999999999994</ele><time>2026-03-22T09:40:36.622Z</time></trkpt><trkpt lat="43.2054636" lon="12.3307309"><ele>494.99999999999994</ele><time>2026-03-22T09:40:38.623Z</time></trkpt><trkpt lat="43.2053907" lon="12.3307225"><ele>495.0</ele><time>2026-03-22T09:40:40.623Z</time></trkpt><trkpt lat="43.2053195" lon="12.3307183"><ele>494.99999999999994</ele><time>2026-03-22T09:40:42.622Z</time></trkpt><trkpt lat="43.2052526" lon="12.330712"><ele>494.99999999999994</ele><time>2026-03-22T09:40:44.622Z</time></trkpt><trkpt lat="43.2051853" lon="12.3306976"><ele>495.0</ele><time>2026-03-22T09:40:46.622Z</time></trkpt><trkpt lat="43.2051177" lon="12.3306867"><ele>494.99999999999994</ele><time>2026-03-22T09:40:48.622Z</time></trkpt><trkpt lat="43.2050553" lon="12.3306711"><ele>494.99999999999994</ele><time>2026-03-22T09:40:50.623Z</time></trkpt><trkpt lat="43.2049899" lon="12.3306626"><ele>494.99999999999994</ele><time>2026-03-22T09:40:52.623Z</time></trkpt><trkpt lat="43.204919" lon="12.3306575"><ele>495.0</ele><time>2026-03-22T09:40:54.623Z</time></trkpt><trkpt lat="43.204849" lon="12.3306588"><ele>494.99999999999994</ele><time>2026-03-22T09:40:56.623Z</time></trkpt><trkpt lat="43.2047827" lon="12.3306622"><ele>494.99999999999994</ele><time>2026-03-22T09:40:58.622Z</time></trkpt><trkpt lat="43.2047161" lon="12.3306693"><ele>495.0</ele><time>2026-03-22T09:41:00.622Z</time></trkpt><trkpt lat="43.2046479" lon="12.3306861"><ele>494.99999999999994</ele><time>2026-03-22T09:41:02.623Z</time></trkpt><trkpt lat="43.2045724" lon="12.3307083"><ele>494.99999999999994</ele><time>2026-03-22T09:41:04.623Z</time></trkpt><trkpt lat="43.2044875" lon="12.3307534"><ele>493.5</ele><time>2026-03-22T09:41:06.622Z</time></trkpt><trkpt lat="43.2043867" lon="12.3307933"><ele>492.0</ele><time>2026-03-22T09:41:08.623Z</time></trkpt><trkpt lat="43.2042771" lon="12.3308513"><ele>490.5</ele><time>2026-03-22T09:41:10.623Z</time></trkpt><trkpt lat="43.2042157" lon="12.3308873"><ele>489.0</ele><time>2026-03-22T09:41:11.623Z</time></trkpt><trkpt lat="43.2041532" lon="12.3309193"><ele>487.5</ele><time>2026-03-22T09:41:12.623Z</time></trkpt><trkpt lat="43.2040901" lon="12.3309571"><ele>486.0</ele><time>2026-03-22T09:41:13.623Z</time></trkpt><trkpt lat="43.2040302" lon="12.3309942"><ele>484.3333333333333</ele><time>2026-03-22T09:41:14.623Z</time></trkpt><trkpt lat="43.2039136" lon="12.3310548"><ele>482.66666666666663</ele><time>2026-03-22T09:41:16.622Z</time></trkpt><trkpt lat="43.2038537" lon="12.3310851"><ele>481.0</ele><time>2026-03-22T09:41:17.623Z</time></trkpt><trkpt lat="43.2037386" lon="12.3311581"><ele>479.3333333333333</ele><time>2026-03-22T09:41:19.622Z</time></trkpt><trkpt lat="43.2036805" lon="12.3311923"><ele>477.66666666666663</ele><time>2026-03-22T09:41:20.622Z</time></trkpt><trkpt lat="43.2036212" lon="12.3312285"><ele>476.0</ele><time>2026-03-22T09:41:21.623Z</time></trkpt><trkpt lat="43.2035582" lon="12.331264"><ele>476.0</ele><time>2026-03-22T09:41:22.623Z</time></trkpt><trkpt lat="43.2034952" lon="12.3312974"><ele>476.0</ele><time>2026-03-22T09:41:23.622Z</time></trkpt><trkpt lat="43.2034287" lon="12.3313279"><ele>476.0</ele><time>2026-03-22T09:41:24.623Z</time></trkpt><trkpt lat="43.2033604" lon="12.3313611"><ele>476.0</ele><time>2026-03-22T09:41:25.623Z</time></trkpt><trkpt lat="43.2032903" lon="12.3313843"><ele>476.0</ele><time>2026-03-22T09:41:26.622Z</time></trkpt><trkpt lat="43.2032192" lon="12.3314059"><ele>476.0</ele><time>2026-03-22T09:41:27.623Z</time></trkpt><trkpt lat="43.2031461" lon="12.3314161"><ele>476.0</ele><time>2026-03-22T09:41:28.622Z</time></trkpt><trkpt lat="43.2030727" lon="12.3314146"><ele>476.8333333333333</ele><time>2026-03-22T09:41:29.622Z</time></trkpt><trkpt lat="43.2029983" lon="12.3314146"><ele>477.66666666666663</ele><time>2026-03-22T09:41:30.623Z</time></trkpt><trkpt lat="43.2029202" lon="12.3314074"><ele>478.5</ele><time>2026-03-22T09:41:31.623Z</time></trkpt><trkpt lat="43.2028475" lon="12.3313906"><ele>479.33333333333337</ele><time>2026-03-22T09:41:32.623Z</time></trkpt><trkpt lat="43.202771" lon="12.3313748"><ele>480.1666666666667</ele><time>2026-03-22T09:41:33.623Z</time></trkpt><trkpt lat="43.2026936" lon="12.3313522"><ele>481.0</ele><time>2026-03-22T09:41:34.623Z</time></trkpt><trkpt lat="43.2026159" lon="12.3313311"><ele>479.6666666666667</ele><time>2026-03-22T09:41:35.622Z</time></trkpt><trkpt lat="43.2025413" lon="12.3313095"><ele>478.33333333333337</ele><time>2026-03-22T09:41:36.623Z</time></trkpt><trkpt lat="43.2024614" lon="12.331284"><ele>477.0</ele><time>2026-03-22T09:41:37.623Z</time></trkpt><trkpt lat="43.2023818" lon="12.331256"><ele>475.66666666666663</ele><time>2026-03-22T09:41:38.622Z</time></trkpt><trkpt lat="43.2023008" lon="12.3312246"><ele>474.3333333333333</ele><time>2026-03-22T09:41:39.622Z</time></trkpt><trkpt lat="43.2022302" lon="12.3311913"><ele>473.0</ele><time>2026-03-22T09:41:40.622Z</time></trkpt><trkpt lat="43.2021602" lon="12.331161"><ele>472.99999999999994</ele><time>2026-03-22T09:41:41.623Z</time></trkpt><trkpt lat="43.2020876" lon="12.3311271"><ele>473.0</ele><time>2026-03-22T09:41:42.623Z</time></trkpt><trkpt lat="43.202019" lon="12.3310888"><ele>473.0</ele><time>2026-03-22T09:41:43.623Z</time></trkpt><trkpt lat="43.2019552" lon="12.331049"><ele>473.0</ele><time>2026-03-22T09:41:44.622Z</time></trkpt><trkpt lat="43.2018602" lon="12.3309736"><ele>472.99999999999994</ele><time>2026-03-22T09:41:46.623Z</time></trkpt><trkpt lat="43.2017716" lon="12.3309477"><ele>473.0</ele><time>2026-03-22T09:41:48.622Z</time></trkpt><trkpt lat="43.2016777" lon="12.3309748"><ele>472.99999999999994</ele><time>2026-03-22T09:41:50.623Z</time></trkpt><trkpt lat="43.2016007" lon="12.3310292"><ele>473.0</ele><time>2026-03-22T09:41:52.623Z</time></trkpt><trkpt lat="43.2015449" lon="12.3311201"><ele>473.0</ele><time>2026-03-22T09:41:55.622Z</time></trkpt><trkpt lat="43.2014747" lon="12.3311978"><ele>473.0</ele><time>2026-03-22T09:41:58.623Z</time></trkpt><trkpt lat="43.2014287" lon="12.331259"><ele>472.99999999999994</ele><time>2026-03-22T09:42:00.623Z</time></trkpt><trkpt lat="43.2013574" lon="12.3313485"><ele>473.0</ele><time>2026-03-22T09:42:03.622Z</time></trkpt><trkpt lat="43.2013041" lon="12.3314123"><ele>472.57142857142856</ele><time>2026-03-22T09:42:05.622Z</time></trkpt><trkpt lat="43.2012473" lon="12.3314761"><ele>472.1428571428571</ele><time>2026-03-22T09:42:07.622Z</time></trkpt><trkpt lat="43.2011911" lon="12.3315415"><ele>471.71428571428567</ele><time>2026-03-22T09:42:09.622Z</time></trkpt><trkpt lat="43.2011358" lon="12.3316"><ele>471.2857142857143</ele><time>2026-03-22T09:42:11.622Z</time></trkpt><trkpt lat="43.2010856" lon="12.3316614"><ele>470.8571428571428</ele><time>2026-03-22T09:42:13.622Z</time></trkpt><trkpt lat="43.2010339" lon="12.3317189"><ele>470.4285714285714</ele><time>2026-03-22T09:42:15.623Z</time></trkpt><trkpt lat="43.2009814" lon="12.3317762"><ele>470.0</ele><time>2026-03-22T09:42:17.622Z</time></trkpt><trkpt lat="43.2009306" lon="12.3318337"><ele>469.99999999999994</ele><time>2026-03-22T09:42:19.622Z</time></trkpt><trkpt lat="43.2008807" lon="12.3318924"><ele>470.0</ele><time>2026-03-22T09:42:21.623Z</time></trkpt><trkpt lat="43.2008154" lon="12.3319729"><ele>470.0</ele><time>2026-03-22T09:42:24.622Z</time></trkpt><trkpt lat="43.2007608" lon="12.3320241"><ele>470.0</ele><time>2026-03-22T09:42:26.623Z</time></trkpt><trkpt lat="43.2006791" lon="12.3320864"><ele>469.99999999999994</ele><time>2026-03-22T09:42:29.623Z</time></trkpt><trkpt lat="43.2006079" lon="12.332093"><ele>470.0</ele><time>2026-03-22T09:42:31.623Z</time></trkpt><trkpt lat="43.2005371" lon="12.332081"><ele>469.6</ele><time>2026-03-22T09:42:33.622Z</time></trkpt><trkpt lat="43.2004606" lon="12.3321002"><ele>469.2</ele><time>2026-03-22T09:42:35.622Z</time></trkpt><trkpt lat="43.2003711" lon="12.332143"><ele>468.79999999999995</ele><time>2026-03-22T09:42:37.623Z</time></trkpt><trkpt lat="43.2002867" lon="12.3322366"><ele>468.4</ele><time>2026-03-22T09:42:39.623Z</time></trkpt><trkpt lat="43.2002223" lon="12.3323676"><ele>468.0</ele><time>2026-03-22T09:42:41.623Z</time></trkpt><trkpt lat="43.2001792" lon="12.33251"><ele>468.0</ele><time>2026-03-22T09:42:43.622Z</time></trkpt><trkpt lat="43.2001551" lon="12.3326332"><ele>468.0</ele><time>2026-03-22T09:42:45.622Z</time></trkpt><trkpt lat="43.2001422" lon="12.3327334"><ele>468.0</ele><time>2026-03-22T09:42:47.623Z</time></trkpt><trkpt lat="43.2001388" lon="12.3328486"><ele>468.0</ele><time>2026-03-22T09:42:50.622Z</time></trkpt><trkpt lat="43.2001274" lon="12.3329572"><ele>468.0</ele><time>2026-03-22T09:42:53.623Z</time></trkpt><trkpt lat="43.2001001" lon="12.3330636"><ele>468.0</ele><time>2026-03-22T09:42:56.622Z</time></trkpt><trkpt lat="43.2000632" lon="12.3331559"><ele>469.7142857142857</ele><time>2026-03-22T09:42:59.623Z</time></trkpt><trkpt lat="43.2000414" lon="12.3332372"><ele>471.42857142857144</ele><time>2026-03-22T09:43:02.623Z</time></trkpt><trkpt lat="43.2000123" lon="12.333315"><ele>473.14285714285717</ele><time>2026-03-22T09:43:05.623Z</time></trkpt><trkpt lat="43.1999968" lon="12.3334231"><ele>474.8571428571429</ele><time>2026-03-22T09:43:09.623Z</time></trkpt><trkpt lat="43.1999714" lon="12.3335246"><ele>476.57142857142856</ele><time>2026-03-22T09:43:13.623Z</time></trkpt><trkpt lat="43.199937" lon="12.3336224"><ele>478.28571428571433</ele><time>2026-03-22T09:43:17.622Z</time></trkpt><trkpt lat="43.1998965" lon="12.3337143"><ele>480.0</ele><time>2026-03-22T09:43:21.622Z</time></trkpt><trkpt lat="43.199852" lon="12.3338025"><ele>481.1666666666667</ele><time>2026-03-22T09:43:25.622Z</time></trkpt><trkpt lat="43.1997981" lon="12.3338919"><ele>482.33333333333337</ele><time>2026-03-22T09:43:29.622Z</time></trkpt><trkpt lat="43.1997621" lon="12.3339674"><ele>483.5</ele><time>2026-03-22T09:43:32.622Z</time></trkpt><trkpt lat="43.1997219" lon="12.3340724"><ele>484.6666666666667</ele><time>2026-03-22T09:43:36.623Z</time></trkpt><trkpt lat="43.1996591" lon="12.3341494"><ele>485.83333333333337</ele><time>2026-03-22T09:43:39.622Z</time></trkpt><trkpt lat="43.1996057" lon="12.3341959"><ele>487.0</ele><time>2026-03-22T09:43:41.623Z</time></trkpt><trkpt lat="43.1995343" lon="12.3342469"><ele>487.0</ele><time>2026-03-22T09:43:44.623Z</time></trkpt><trkpt lat="43.1994635" lon="12.3342822"><ele>487.0</ele><time>2026-03-22T09:43:47.622Z</time></trkpt><trkpt lat="43.1993988" lon="12.3342996"><ele>487.0</ele><time>2026-03-22T09:43:50.623Z</time></trkpt><trkpt lat="43.1993363" lon="12.3343114"><ele>487.0</ele><time>2026-03-22T09:43:53.622Z</time></trkpt><trkpt lat="43.1992662" lon="12.3343345"><ele>487.0</ele><time>2026-03-22T09:43:56.622Z</time></trkpt><trkpt lat="43.1992068" lon="12.3343652"><ele>487.0</ele><time>2026-03-22T09:43:59.622Z</time></trkpt><trkpt lat="43.1991528" lon="12.3344222"><ele>487.0</ele><time>2026-03-22T09:44:02.623Z</time></trkpt><trkpt lat="43.1991058" lon="12.3345093"><ele>487.0</ele><time>2026-03-22T09:44:06.623Z</time></trkpt><trkpt lat="43.1990697" lon="12.3345821"><ele>487.0</ele><time>2026-03-22T09:44:10.622Z</time></trkpt><trkpt lat="43.1990239" lon="12.3346585"><ele>487.0</ele><time>2026-03-22T09:44:14.622Z</time></trkpt><trkpt lat="43.1989763" lon="12.3347311"><ele>487.0</ele><time>2026-03-22T09:44:17.623Z</time></trkpt><trkpt lat="43.1989313" lon="12.3347971"><ele>487.0</ele><time>2026-03-22T09:44:20.623Z</time></trkpt><trkpt lat="43.1988868" lon="12.3348645"><ele>487.0</ele><time>2026-03-22T09:44:23.622Z</time></trkpt><trkpt lat="43.1988287" lon="12.3349387"><ele>487.0</ele><time>2026-03-22T09:44:28.623Z</time></trkpt><trkpt lat="43.1987707" lon="12.3349996"><ele>488.0</ele><time>2026-03-22T09:44:32.622Z</time></trkpt><trkpt lat="43.1987228" lon="12.3350705"><ele>489.0</ele><time>2026-03-22T09:44:35.622Z</time></trkpt><trkpt lat="43.1986822" lon="12.3351535"><ele>490.0</ele><time>2026-03-22T09:44:38.622Z</time></trkpt><trkpt lat="43.1986524" lon="12.3352482"><ele>491.0</ele><time>2026-03-22T09:44:41.623Z</time></trkpt><trkpt lat="43.1986332" lon="12.3353497"><ele>492.0</ele><time>2026-03-22T09:44:44.623Z</time></trkpt><trkpt lat="43.1986071" lon="12.3354386"><ele>493.0</ele><time>2026-03-22T09:44:48.623Z</time></trkpt><trkpt lat="43.1985583" lon="12.3355304"><ele>494.0</ele><time>2026-03-22T09:44:52.623Z</time></trkpt><trkpt lat="43.1985128" lon="12.3356073"><ele>495.14285714285717</ele><time>2026-03-22T09:44:55.622Z</time></trkpt><trkpt lat="43.1984488" lon="12.3356835"><ele>496.2857142857142</ele><time>2026-03-22T09:44:59.622Z</time></trkpt><trkpt lat="43.1983923" lon="12.3357295"><ele>497.4285714285714</ele><time>2026-03-22T09:45:02.623Z</time></trkpt><trkpt lat="43.1983361" lon="12.3357697"><ele>498.57142857142856</ele><time>2026-03-22T09:45:05.622Z</time></trkpt><trkpt lat="43.1982791" lon="12.3358169"><ele>499.71428571428567</ele><time>2026-03-22T09:45:08.623Z</time></trkpt><trkpt lat="43.1982126" lon="12.3358629"><ele>500.8571428571428</ele><time>2026-03-22T09:45:11.623Z</time></trkpt><trkpt lat="43.1981485" lon="12.3359093"><ele>501.99999999999994</ele><time>2026-03-22T09:45:14.623Z</time></trkpt><trkpt lat="43.1980819" lon="12.3359559"><ele>501.99999999999994</ele><time>2026-03-22T09:45:17.622Z</time></trkpt><trkpt lat="43.1980072" lon="12.3359962"><ele>502.0</ele><time>2026-03-22T09:45:20.623Z</time></trkpt><trkpt lat="43.1979397" lon="12.3360211"><ele>501.99999999999994</ele><time>2026-03-22T09:45:22.623Z</time></trkpt><trkpt lat="43.1978693" lon="12.3360438"><ele>501.99999999999994</ele><time>2026-03-22T09:45:24.622Z</time></trkpt><trkpt lat="43.1978053" lon="12.3360769"><ele>502.0</ele><time>2026-03-22T09:45:26.622Z</time></trkpt><trkpt lat="43.1977447" lon="12.3361046"><ele>501.99999999999994</ele><time>2026-03-22T09:45:28.623Z</time></trkpt><trkpt lat="43.1976639" lon="12.3361477"><ele>501.99999999999994</ele><time>2026-03-22T09:45:31.622Z</time></trkpt><trkpt lat="43.1975931" lon="12.3361773"><ele>501.99999999999994</ele><time>2026-03-22T09:45:34.622Z</time></trkpt><trkpt lat="43.1975335" lon="12.3362081"><ele>502.0</ele><time>2026-03-22T09:45:37.623Z</time></trkpt><trkpt lat="43.197473" lon="12.3362439"><ele>501.99999999999994</ele><time>2026-03-22T09:45:40.622Z</time></trkpt><trkpt lat="43.1974119" lon="12.3362906"><ele>501.99999999999994</ele><time>2026-03-22T09:45:43.623Z</time></trkpt><trkpt lat="43.1973483" lon="12.3363501"><ele>502.0</ele><time>2026-03-22T09:45:47.622Z</time></trkpt><trkpt lat="43.1972791" lon="12.336387"><ele>501.99999999999994</ele><time>2026-03-22T09:45:50.622Z</time></trkpt><trkpt lat="43.197201" lon="12.3364193"><ele>501.99999999999994</ele><time>2026-03-22T09:45:52.622Z</time></trkpt><trkpt lat="43.1971266" lon="12.3364632"><ele>502.6666666666667</ele><time>2026-03-22T09:45:54.623Z</time></trkpt><trkpt lat="43.1970492" lon="12.3365181"><ele>503.33333333333337</ele><time>2026-03-22T09:45:56.623Z</time></trkpt><trkpt lat="43.1969789" lon="12.3365818"><ele>504.0</ele><time>2026-03-22T09:45:58.623Z</time></trkpt><trkpt lat="43.1969174" lon="12.3366373"><ele>504.66666666666663</ele><time>2026-03-22T09:46:00.623Z</time></trkpt><trkpt lat="43.1968684" lon="12.3367111"><ele>505.3333333333333</ele><time>2026-03-22T09:46:02.622Z</time></trkpt><trkpt lat="43.1968308" lon="12.3367956"><ele>506.0</ele><time>2026-03-22T09:46:04.622Z</time></trkpt><trkpt lat="43.1967819" lon="12.336905"><ele>505.99999999999994</ele><time>2026-03-22T09:46:07.622Z</time></trkpt><trkpt lat="43.1967231" lon="12.3369891"><ele>506.0</ele><time>2026-03-22T09:46:09.623Z</time></trkpt><trkpt lat="43.1966656" lon="12.3370816"><ele>506.0</ele><time>2026-03-22T09:46:11.622Z</time></trkpt><trkpt lat="43.1966182" lon="12.337146"><ele>506.0</ele><time>2026-03-22T09:46:12.622Z</time></trkpt><trkpt lat="43.1965722" lon="12.3372069"><ele>505.99999999999994</ele><time>2026-03-22T09:46:13.622Z</time></trkpt><trkpt lat="43.1965197" lon="12.3372857"><ele>506.0</ele><time>2026-03-22T09:46:14.623Z</time></trkpt><trkpt lat="43.196478" lon="12.3373679"><ele>504.66666666666663</ele><time>2026-03-22T09:46:15.623Z</time></trkpt><trkpt lat="43.196431" lon="12.337431"><ele>503.3333333333333</ele><time>2026-03-22T09:46:16.623Z</time></trkpt><trkpt lat="43.1963499" lon="12.3375691"><ele>502.0</ele><time>2026-03-22T09:46:18.622Z</time></trkpt><trkpt lat="43.1962986" lon="12.3376385"><ele>500.66666666666663</ele><time>2026-03-22T09:46:19.622Z</time></trkpt><trkpt lat="43.1962453" lon="12.3377081"><ele>499.3333333333333</ele><time>2026-03-22T09:46:20.623Z</time></trkpt><trkpt lat="43.1961906" lon="12.3377748"><ele>498.0</ele><time>2026-03-22T09:46:21.623Z</time></trkpt><trkpt lat="43.1961292" lon="12.3378387"><ele>498.0</ele><time>2026-03-22T09:46:22.623Z</time></trkpt><trkpt lat="43.1960699" lon="12.3378948"><ele>497.99999999999994</ele><time>2026-03-22T09:46:23.623Z</time></trkpt><trkpt lat="43.1960103" lon="12.3379556"><ele>498.0</ele><time>2026-03-22T09:46:24.623Z</time></trkpt><trkpt lat="43.195952" lon="12.3380208"><ele>498.0</ele><time>2026-03-22T09:46:25.623Z</time></trkpt><trkpt lat="43.1958815" lon="12.3380626"><ele>497.99999999999994</ele><time>2026-03-22T09:46:26.623Z</time></trkpt><trkpt lat="43.1958282" lon="12.3381229"><ele>498.0</ele><time>2026-03-22T09:46:27.623Z</time></trkpt><trkpt lat="43.1957756" lon="12.3381738"><ele>498.0</ele><time>2026-03-22T09:46:28.622Z</time></trkpt><trkpt lat="43.1957213" lon="12.3382211"><ele>499.0</ele><time>2026-03-22T09:46:29.622Z</time></trkpt><trkpt lat="43.1956456" lon="12.3383329"><ele>499.99999999999994</ele><time>2026-03-22T09:46:31.623Z</time></trkpt><trkpt lat="43.1955731" lon="12.3384199"><ele>500.99999999999994</ele><time>2026-03-22T09:46:33.623Z</time></trkpt><trkpt lat="43.1954984" lon="12.3384974"><ele>502.0</ele><time>2026-03-22T09:46:35.622Z</time></trkpt><trkpt lat="43.195437" lon="12.338557"><ele>503.0</ele><time>2026-03-22T09:46:37.622Z</time></trkpt><trkpt lat="43.1953731" lon="12.338606"><ele>502.99999999999994</ele><time>2026-03-22T09:46:39.623Z</time></trkpt><trkpt lat="43.195312" lon="12.3386616"><ele>503.0</ele><time>2026-03-22T09:46:41.623Z</time></trkpt><trkpt lat="43.1952449" lon="12.3387048"><ele>503.0</ele><time>2026-03-22T09:46:43.622Z</time></trkpt><trkpt lat="43.1951824" lon="12.3387418"><ele>503.0</ele><time>2026-03-22T09:46:45.623Z</time></trkpt><trkpt lat="43.1951031" lon="12.3388007"><ele>502.99999999999994</ele><time>2026-03-22T09:46:48.622Z</time></trkpt><trkpt lat="43.1950284" lon="12.3388333"><ele>503.0</ele><time>2026-03-22T09:46:51.622Z</time></trkpt><trkpt lat="43.1949535" lon="12.3388829"><ele>503.99999999999994</ele><time>2026-03-22T09:46:55.623Z</time></trkpt><trkpt lat="43.1949059" lon="12.3389554"><ele>505.0</ele><time>2026-03-22T09:46:58.622Z</time></trkpt><trkpt lat="43.1948489" lon="12.3390378"><ele>506.0</ele><time>2026-03-22T09:47:01.622Z</time></trkpt><trkpt lat="43.1947806" lon="12.3391028"><ele>507.0</ele><time>2026-03-22T09:47:04.622Z</time></trkpt><trkpt lat="43.1947087" lon="12.3391536"><ele>507.99999999999994</ele><time>2026-03-22T09:47:07.623Z</time></trkpt><trkpt lat="43.1946294" lon="12.3392056"><ele>509.0</ele><time>2026-03-22T09:47:10.623Z</time></trkpt><trkpt lat="43.1945647" lon="12.3392466"><ele>508.99999999999994</ele><time>2026-03-22T09:47:12.622Z</time></trkpt><trkpt lat="43.1944826" lon="12.3393027"><ele>509.0</ele><time>2026-03-22T09:47:14.623Z</time></trkpt><trkpt lat="43.1943817" lon="12.3393734"><ele>509.0</ele><time>2026-03-22T09:47:16.623Z</time></trkpt><trkpt lat="43.1943169" lon="12.3394259"><ele>509.0</ele><time>2026-03-22T09:47:17.623Z</time></trkpt><trkpt lat="43.1942493" lon="12.3394774"><ele>508.99999999999994</ele><time>2026-03-22T09:47:18.622Z</time></trkpt><trkpt lat="43.1941835" lon="12.3395326"><ele>509.0</ele><time>2026-03-22T09:47:19.622Z</time></trkpt><trkpt lat="43.1941174" lon="12.3395834"><ele>508.99999999999994</ele><time>2026-03-22T09:47:20.622Z</time></trkpt><trkpt lat="43.1940522" lon="12.3396346"><ele>509.0</ele><time>2026-03-22T09:47:21.623Z</time></trkpt><trkpt lat="43.1939927" lon="12.3396826"><ele>509.0</ele><time>2026-03-22T09:47:22.622Z</time></trkpt><trkpt lat="43.1939282" lon="12.3397243"><ele>509.0</ele><time>2026-03-22T09:47:23.622Z</time></trkpt><trkpt lat="43.1938619" lon="12.3397648"><ele>508.99999999999994</ele><time>2026-03-22T09:47:24.622Z</time></trkpt><trkpt lat="43.1937978" lon="12.3398001"><ele>509.0</ele><time>2026-03-22T09:47:25.622Z</time></trkpt><trkpt lat="43.1936974" lon="12.3398678"><ele>509.66666666666663</ele><time>2026-03-22T09:47:27.622Z</time></trkpt><trkpt lat="43.1936372" lon="12.3399415"><ele>510.3333333333333</ele><time>2026-03-22T09:47:29.622Z</time></trkpt><trkpt lat="43.1935771" lon="12.3400103"><ele>511.0</ele><time>2026-03-22T09:47:32.623Z</time></trkpt><trkpt lat="43.1935287" lon="12.3400762"><ele>511.66666666666663</ele><time>2026-03-22T09:47:34.622Z</time></trkpt><trkpt lat="43.1934831" lon="12.340154"><ele>512.3333333333334</ele><time>2026-03-22T09:47:37.623Z</time></trkpt><trkpt lat="43.193424" lon="12.3402235"><ele>513.0</ele><time>2026-03-22T09:47:40.623Z</time></trkpt><trkpt lat="43.193373" lon="12.3402955"><ele>513.0</ele><time>2026-03-22T09:47:43.623Z</time></trkpt><trkpt lat="43.1933129" lon="12.3403485"><ele>513.0</ele><time>2026-03-22T09:47:46.623Z</time></trkpt><trkpt lat="43.193255" lon="12.3404085"><ele>513.0</ele><time>2026-03-22T09:47:49.622Z</time></trkpt><trkpt lat="43.1931837" lon="12.3404495"><ele>513.0</ele><time>2026-03-22T09:47:52.622Z</time></trkpt><trkpt lat="43.1931059" lon="12.3404741"><ele>513.0</ele><time>2026-03-22T09:47:55.623Z</time></trkpt><trkpt lat="43.1930292" lon="12.3405117"><ele>513.0</ele><time>2026-03-22T09:47:58.623Z</time></trkpt><trkpt lat="43.1929534" lon="12.3405443"><ele>514.7142857142858</ele><time>2026-03-22T09:48:01.622Z</time></trkpt><trkpt lat="43.1928815" lon="12.3405722"><ele>516.4285714285714</ele><time>2026-03-22T09:48:04.622Z</time></trkpt><trkpt lat="43.1928063" lon="12.3406"><ele>518.1428571428571</ele><time>2026-03-22T09:48:08.623Z</time></trkpt><trkpt lat="43.1927359" lon="12.3406426"><ele>519.8571428571429</ele><time>2026-03-22T09:48:12.622Z</time></trkpt><trkpt lat="43.192673" lon="12.3406935"><ele>521.5714285714286</ele><time>2026-03-22T09:48:16.623Z</time></trkpt><trkpt lat="43.1926204" lon="12.3407532"><ele>523.2857142857143</ele><time>2026-03-22T09:48:20.623Z</time></trkpt><trkpt lat="43.1925612" lon="12.3408135"><ele>525.0</ele><time>2026-03-22T09:48:24.622Z</time></trkpt><trkpt lat="43.1925034" lon="12.3408756"><ele>525.0</ele><time>2026-03-22T09:48:28.623Z</time></trkpt><trkpt lat="43.1924391" lon="12.3409295"><ele>525.0</ele><time>2026-03-22T09:48:32.622Z</time></trkpt><trkpt lat="43.1923781" lon="12.3409946"><ele>525.0</ele><time>2026-03-22T09:48:36.623Z</time></trkpt><trkpt lat="43.1923098" lon="12.3410389"><ele>525.0</ele><time>2026-03-22T09:48:40.622Z</time></trkpt><trkpt lat="43.1922461" lon="12.3410811"><ele>525.0</ele><time>2026-03-22T09:48:44.623Z</time></trkpt><trkpt lat="43.1921797" lon="12.3411295"><ele>525.0</ele><time>2026-03-22T09:48:48.623Z</time></trkpt><trkpt lat="43.1921082" lon="12.3411658"><ele>524.5714285714286</ele><time>2026-03-22T09:48:52.622Z</time></trkpt><trkpt lat="43.1920435" lon="12.341217"><ele>524.1428571428571</ele><time>2026-03-22T09:48:56.622Z</time></trkpt><trkpt lat="43.1919801" lon="12.3412677"><ele>523.7142857142858</ele><time>2026-03-22T09:49:00.623Z</time></trkpt><trkpt lat="43.1919243" lon="12.341313"><ele>523.2857142857142</ele><time>2026-03-22T09:49:04.622Z</time></trkpt><trkpt lat="43.1918578" lon="12.3413646"><ele>522.8571428571429</ele><time>2026-03-22T09:49:08.623Z</time></trkpt><trkpt lat="43.1917903" lon="12.3414081"><ele>522.4285714285714</ele><time>2026-03-22T09:49:12.622Z</time></trkpt><trkpt lat="43.1917242" lon="12.3414518"><ele>522.0</ele><time>2026-03-22T09:49:16.622Z</time></trkpt><trkpt lat="43.1916563" lon="12.3414944"><ele>524.1428571428571</ele><time>2026-03-22T09:49:20.622Z</time></trkpt><trkpt lat="43.191586" lon="12.3415238"><ele>526.2857142857142</ele><time>2026-03-22T09:49:24.622Z</time></trkpt><trkpt lat="43.1915245" lon="12.3415723"><ele>528.4285714285713</ele><time>2026-03-22T09:49:28.622Z</time></trkpt><trkpt lat="43.1914588" lon="12.3416167"><ele>530.5714285714286</ele><time>2026-03-22T09:49:32.622Z</time></trkpt><trkpt lat="43.1913944" lon="12.3416593"><ele>532.7142857142857</ele><time>2026-03-22T09:49:36.623Z</time></trkpt><trkpt lat="43.1913285" lon="12.3416958"><ele>534.8571428571428</ele><time>2026-03-22T09:49:40.623Z</time></trkpt><trkpt lat="43.1912603" lon="12.3417361"><ele>537.0</ele><time>2026-03-22T09:49:44.623Z</time></trkpt><trkpt lat="43.191199" lon="12.341781"><ele>536.9999999999999</ele><time>2026-03-22T09:49:48.623Z</time></trkpt><trkpt lat="43.1911501" lon="12.3418467"><ele>537.0</ele><time>2026-03-22T09:49:52.623Z</time></trkpt><trkpt lat="43.1911" lon="12.3419086"><ele>537.0</ele><time>2026-03-22T09:49:56.622Z</time></trkpt><trkpt lat="43.1910559" lon="12.3419968"><ele>537.0</ele><time>2026-03-22T09:50:00.622Z</time></trkpt><trkpt lat="43.1910085" lon="12.3420623"><ele>537.0</ele><time>2026-03-22T09:50:04.622Z</time></trkpt><trkpt lat="43.190964" lon="12.3421491"><ele>536.9999999999999</ele><time>2026-03-22T09:50:08.623Z</time></trkpt><trkpt lat="43.1909226" lon="12.3422145"><ele>537.0</ele><time>2026-03-22T09:50:11.622Z</time></trkpt><trkpt lat="43.1908681" lon="12.3422882"><ele>538.9999999999999</ele><time>2026-03-22T09:50:15.623Z</time></trkpt><trkpt lat="43.1908103" lon="12.3423351"><ele>541.0</ele><time>2026-03-22T09:50:18.623Z</time></trkpt><trkpt lat="43.190745" lon="12.3423792"><ele>543.0</ele><time>2026-03-22T09:50:21.622Z</time></trkpt><trkpt lat="43.1906807" lon="12.342423"><ele>545.0</ele><time>2026-03-22T09:50:24.623Z</time></trkpt><trkpt lat="43.1906161" lon="12.3424679"><ele>547.0</ele><time>2026-03-22T09:50:27.623Z</time></trkpt><trkpt lat="43.1905511" lon="12.3425019"><ele>548.9999999999999</ele><time>2026-03-22T09:50:30.623Z</time></trkpt><trkpt lat="43.1904903" lon="12.342543"><ele>551.0</ele><time>2026-03-22T09:50:33.623Z</time></trkpt><trkpt lat="43.1904267" lon="12.3425876"><ele>550.9999999999999</ele><time>2026-03-22T09:50:36.623Z</time></trkpt><trkpt lat="43.1903578" lon="12.3426413"><ele>551.0</ele><time>2026-03-22T09:50:39.623Z</time></trkpt><trkpt lat="43.1902787" lon="12.3426996"><ele>551.0</ele><time>2026-03-22T09:50:42.623Z</time></trkpt><trkpt lat="43.1902206" lon="12.3427349"><ele>551.0</ele><time>2026-03-22T09:50:44.622Z</time></trkpt><trkpt lat="43.1901582" lon="12.3427653"><ele>551.0</ele><time>2026-03-22T09:50:46.622Z</time></trkpt><trkpt lat="43.190088" lon="12.3427766"><ele>550.9999999999999</ele><time>2026-03-22T09:50:49.623Z</time></trkpt><trkpt lat="43.1900144" lon="12.3427695"><ele>551.0</ele><time>2026-03-22T09:50:52.623Z</time></trkpt><trkpt lat="43.1899484" lon="12.342738"><ele>551.0</ele><time>2026-03-22T09:50:55.622Z</time></trkpt><trkpt lat="43.1898717" lon="12.34269"><ele>551.0</ele><time>2026-03-22T09:50:57.622Z</time></trkpt><trkpt lat="43.1898033" lon="12.3426477"><ele>551.0</ele><time>2026-03-22T09:50:59.623Z</time></trkpt><trkpt lat="43.1897451" lon="12.3426045"><ele>551.0</ele><time>2026-03-22T09:51:01.622Z</time></trkpt><trkpt lat="43.1896678" lon="12.3425567"><ele>551.0</ele><time>2026-03-22T09:51:04.622Z</time></trkpt><trkpt lat="43.1895944" lon="12.342537"><ele>551.0</ele><time>2026-03-22T09:51:07.623Z</time></trkpt><trkpt lat="43.1895276" lon="12.342529"><ele>552.0</ele><time>2026-03-22T09:51:10.622Z</time></trkpt><trkpt lat="43.1894591" lon="12.342535"><ele>553.0</ele><time>2026-03-22T09:51:13.622Z</time></trkpt><trkpt lat="43.1893786" lon="12.3425542"><ele>554.0</ele><time>2026-03-22T09:51:17.623Z</time></trkpt><trkpt lat="43.189309" lon="12.342593"><ele>555.0</ele><time>2026-03-22T09:53:02.623Z</time></trkpt><trkpt lat="43.1892353" lon="12.34263"><ele>556.0</ele><time>2026-03-22T09:53:06.622Z</time></trkpt><trkpt lat="43.1891801" lon="12.3426778"><ele>557.0</ele><time>2026-03-22T09:53:09.623Z</time></trkpt><trkpt lat="43.1891076" lon="12.3427313"><ele>557.0</ele><time>2026-03-22T09:53:13.623Z</time></trkpt><trkpt lat="43.1890375" lon="12.3427754"><ele>557.0</ele><time>2026-03-22T09:53:17.623Z</time></trkpt><trkpt lat="43.1889702" lon="12.3428209"><ele>557.0</ele><time>2026-03-22T09:53:21.623Z</time></trkpt><trkpt lat="43.188895" lon="12.342862"><ele>557.0</ele><time>2026-03-22T09:53:25.622Z</time></trkpt><trkpt lat="43.1888221" lon="12.3429054"><ele>557.0</ele><time>2026-03-22T09:53:29.622Z</time></trkpt><trkpt lat="43.1887595" lon="12.3429593"><ele>557.0</ele><time>2026-03-22T09:53:33.622Z</time></trkpt><trkpt lat="43.1886982" lon="12.3430192"><ele>558.0</ele><time>2026-03-22T09:53:37.623Z</time></trkpt><trkpt lat="43.1886422" lon="12.3430843"><ele>559.0</ele><time>2026-03-22T09:53:41.622Z</time></trkpt><trkpt lat="43.1885857" lon="12.343156"><ele>560.0</ele><time>2026-03-22T09:53:45.622Z</time></trkpt><trkpt lat="43.1885403" lon="12.3432305"><ele>561.0</ele><time>2026-03-22T09:53:49.623Z</time></trkpt><trkpt lat="43.1884762" lon="12.3433"><ele>562.0</ele><time>2026-03-22T09:53:53.623Z</time></trkpt><trkpt lat="43.1884793" lon="12.3433974"><ele>563.0</ele><time>2026-03-22T09:53:57.623Z</time></trkpt><trkpt lat="43.1884809" lon="12.343489"><ele>564.0</ele><time>2026-03-22T09:54:01.622Z</time></trkpt><trkpt lat="43.1884943" lon="12.3435857"><ele>564.0</ele><time>2026-03-22T09:54:06.623Z</time></trkpt><trkpt lat="43.1884984" lon="12.3436938"><ele>564.0</ele><time>2026-03-22T09:54:11.623Z</time></trkpt><trkpt lat="43.1885045" lon="12.3437799"><ele>564.0</ele><time>2026-03-22T09:54:15.622Z</time></trkpt><trkpt lat="43.1885055" lon="12.3438739"><ele>564.0</ele><time>2026-03-22T09:54:19.622Z</time></trkpt><trkpt lat="43.188516" lon="12.3439624"><ele>564.0</ele><time>2026-03-22T09:54:23.622Z</time></trkpt><trkpt lat="43.1885233" lon="12.3440676"><ele>564.0</ele><time>2026-03-22T09:54:28.623Z</time></trkpt><trkpt lat="43.1885316" lon="12.3441538"><ele>564.0</ele><time>2026-03-22T09:54:32.623Z</time></trkpt><trkpt lat="43.1885505" lon="12.3442451"><ele>565.4285714285714</ele><time>2026-03-22T09:54:36.622Z</time></trkpt><trkpt lat="43.1886198" lon="12.3442718"><ele>566.8571428571429</ele><time>2026-03-22T09:54:40.622Z</time></trkpt><trkpt lat="43.1886961" lon="12.3442477"><ele>568.2857142857142</ele><time>2026-03-22T09:54:45.623Z</time></trkpt><trkpt lat="43.1887698" lon="12.344226"><ele>569.7142857142858</ele><time>2026-03-22T09:54:50.623Z</time></trkpt><trkpt lat="43.1888387" lon="12.3442326"><ele>571.1428571428571</ele><time>2026-03-22T09:54:54.623Z</time></trkpt><trkpt lat="43.1889096" lon="12.3442531"><ele>572.5714285714286</ele><time>2026-03-22T09:54:58.622Z</time></trkpt><trkpt lat="43.1889738" lon="12.3442823"><ele>574.0</ele><time>2026-03-22T09:55:02.623Z</time></trkpt><trkpt lat="43.1890406" lon="12.3442945"><ele>575.8571428571429</ele><time>2026-03-22T09:55:06.622Z</time></trkpt><trkpt lat="43.1891051" lon="12.3443178"><ele>577.7142857142858</ele><time>2026-03-22T09:55:10.622Z</time></trkpt><trkpt lat="43.1891716" lon="12.3443196"><ele>579.5714285714286</ele><time>2026-03-22T09:55:14.623Z</time></trkpt><trkpt lat="43.1892424" lon="12.3443372"><ele>581.4285714285714</ele><time>2026-03-22T09:55:18.622Z</time></trkpt><trkpt lat="43.1893122" lon="12.3443686"><ele>583.2857142857143</ele><time>2026-03-22T09:55:22.623Z</time></trkpt><trkpt lat="43.1893821" lon="12.344376"><ele>585.1428571428571</ele><time>2026-03-22T09:55:26.623Z</time></trkpt><trkpt lat="43.1894554" lon="12.344381"><ele>587.0</ele><time>2026-03-22T09:55:30.623Z</time></trkpt><trkpt lat="43.1895273" lon="12.344383"><ele>587.0</ele><time>2026-03-22T09:55:34.623Z</time></trkpt><trkpt lat="43.1896009" lon="12.344382"><ele>587.0</ele><time>2026-03-22T09:55:38.623Z</time></trkpt><trkpt lat="43.1896729" lon="12.3444026"><ele>587.0</ele><time>2026-03-22T09:55:42.623Z</time></trkpt><trkpt lat="43.1897295" lon="12.3444667"><ele>587.0</ele><time>2026-03-22T09:55:45.622Z</time></trkpt><trkpt lat="43.1897672" lon="12.3445578"><ele>587.0</ele><time>2026-03-22T09:55:49.622Z</time></trkpt><trkpt lat="43.189739" lon="12.3446634"><ele>587.0</ele><time>2026-03-22T09:55:52.623Z</time></trkpt><trkpt lat="43.1896815" lon="12.3447139"><ele>587.0</ele><time>2026-03-22T09:55:55.622Z</time></trkpt><trkpt lat="43.1896282" lon="12.344764"><ele>589.0</ele><time>2026-03-22T09:55:58.622Z</time></trkpt><trkpt lat="43.1895677" lon="12.3448325"><ele>591.0</ele><time>2026-03-22T09:56:03.623Z</time></trkpt><trkpt lat="43.1894947" lon="12.344886"><ele>593.0</ele><time>2026-03-22T09:56:07.622Z</time></trkpt><trkpt lat="43.1894345" lon="12.3449526"><ele>595.0</ele><time>2026-03-22T09:56:11.623Z</time></trkpt><trkpt lat="43.1893946" lon="12.345021"><ele>597.0</ele><time>2026-03-22T09:56:14.622Z</time></trkpt><trkpt lat="43.1893575" lon="12.3450924"><ele>599.0</ele><time>2026-03-22T09:56:17.623Z</time></trkpt><trkpt lat="43.1893074" lon="12.3451804"><ele>601.0</ele><time>2026-03-22T09:56:21.623Z</time></trkpt><trkpt lat="43.1892598" lon="12.3452628"><ele>601.0</ele><time>2026-03-22T09:56:25.623Z</time></trkpt><trkpt lat="43.1892127" lon="12.3453497"><ele>601.0</ele><time>2026-03-22T09:56:29.622Z</time></trkpt><trkpt lat="43.1891445" lon="12.3453803"><ele>601.0</ele><time>2026-03-22T09:56:49.623Z</time></trkpt><trkpt lat="43.1890866" lon="12.3454294"><ele>601.0</ele><time>2026-03-22T09:56:53.623Z</time></trkpt><trkpt lat="43.1890359" lon="12.3454974"><ele>601.0</ele><time>2026-03-22T09:56:57.623Z</time></trkpt><trkpt lat="43.1890006" lon="12.3455712"><ele>601.0</ele><time>2026-03-22T09:57:00.622Z</time></trkpt><trkpt lat="43.1889579" lon="12.3456376"><ele>601.0</ele><time>2026-03-22T09:57:04.622Z</time></trkpt><trkpt lat="43.1889025" lon="12.3457148"><ele>601.2857142857142</ele><time>2026-03-22T09:57:08.622Z</time></trkpt><trkpt lat="43.1888433" lon="12.3457674"><ele>601.5714285714287</ele><time>2026-03-22T09:57:12.623Z</time></trkpt><trkpt lat="43.1887895" lon="12.3458416"><ele>601.8571428571429</ele><time>2026-03-22T09:57:17.622Z</time></trkpt><trkpt lat="43.1887352" lon="12.3459133"><ele>602.1428571428571</ele><time>2026-03-22T09:57:21.622Z</time></trkpt><trkpt lat="43.1886894" lon="12.3459742"><ele>602.4285714285713</ele><time>2026-03-22T09:57:24.622Z</time></trkpt><trkpt lat="43.1886435" lon="12.3460542"><ele>602.7142857142858</ele><time>2026-03-22T09:57:29.622Z</time></trkpt><trkpt lat="43.1886077" lon="12.3461317"><ele>603.0</ele><time>2026-03-22T09:57:33.623Z</time></trkpt><trkpt lat="43.1885709" lon="12.3462193"><ele>603.0</ele><time>2026-03-22T09:57:37.622Z</time></trkpt><trkpt lat="43.1885297" lon="12.3463033"><ele>603.0</ele><time>2026-03-22T09:57:42.622Z</time></trkpt><trkpt lat="43.1884975" lon="12.3463806"><ele>603.0</ele><time>2026-03-22T09:57:46.623Z</time></trkpt><trkpt lat="43.1884683" lon="12.3464834"><ele>603.0</ele><time>2026-03-22T09:57:51.623Z</time></trkpt><trkpt lat="43.1884433" lon="12.3465658"><ele>603.0</ele><time>2026-03-22T09:57:54.622Z</time></trkpt><trkpt lat="43.188406" lon="12.3466671"><ele>603.0</ele><time>2026-03-22T09:57:58.623Z</time></trkpt><trkpt lat="43.1883847" lon="12.346771"><ele>603.0</ele><time>2026-03-22T09:58:03.623Z</time></trkpt><trkpt lat="43.1883535" lon="12.3468618"><ele>606.8571428571429</ele><time>2026-03-22T09:58:08.622Z</time></trkpt><trkpt lat="43.1883347" lon="12.3469723"><ele>610.7142857142857</ele><time>2026-03-22T09:58:12.622Z</time></trkpt><trkpt lat="43.188322" lon="12.3470611"><ele>614.5714285714286</ele><time>2026-03-22T09:58:14.622Z</time></trkpt><trkpt lat="43.1883018" lon="12.3471581"><ele>618.4285714285714</ele><time>2026-03-22T09:58:19.623Z</time></trkpt><trkpt lat="43.188278" lon="12.3472476"><ele>622.2857142857142</ele><time>2026-03-22T09:58:27.623Z</time></trkpt><trkpt lat="43.1882696" lon="12.3473519"><ele>626.1428571428571</ele><time>2026-03-22T09:58:31.623Z</time></trkpt><trkpt lat="43.1882519" lon="12.3474554"><ele>630.0</ele><time>2026-03-22T09:58:35.623Z</time></trkpt><trkpt lat="43.1882263" lon="12.3475399"><ele>629.4285714285714</ele><time>2026-03-22T09:58:39.623Z</time></trkpt><trkpt lat="43.1881982" lon="12.3476226"><ele>628.8571428571429</ele><time>2026-03-22T09:58:43.623Z</time></trkpt><trkpt lat="43.1881871" lon="12.347721"><ele>628.2857142857142</ele><time>2026-03-22T09:58:47.622Z</time></trkpt><trkpt lat="43.1881692" lon="12.3478093"><ele>627.7142857142858</ele><time>2026-03-22T09:58:51.623Z</time></trkpt><trkpt lat="43.1881396" lon="12.3479041"><ele>627.1428571428571</ele><time>2026-03-22T09:58:55.623Z</time></trkpt><trkpt lat="43.1881133" lon="12.3479996"><ele>626.5714285714286</ele><time>2026-03-22T09:58:59.623Z</time></trkpt><trkpt lat="43.1880959" lon="12.3481024"><ele>626.0</ele><time>2026-03-22T09:59:04.622Z</time></trkpt><trkpt lat="43.1880621" lon="12.3481818"><ele>628.1428571428571</ele><time>2026-03-22T09:59:07.623Z</time></trkpt><trkpt lat="43.1880369" lon="12.3482761"><ele>630.2857142857143</ele><time>2026-03-22T09:59:11.622Z</time></trkpt><trkpt lat="43.1880083" lon="12.3483747"><ele>632.4285714285714</ele><time>2026-03-22T09:59:16.623Z</time></trkpt><trkpt lat="43.1879773" lon="12.348468"><ele>634.5714285714286</ele><time>2026-03-22T09:59:20.622Z</time></trkpt><trkpt lat="43.1879426" lon="12.3485415"><ele>636.7142857142857</ele><time>2026-03-22T09:59:23.623Z</time></trkpt><trkpt lat="43.1879011" lon="12.348632"><ele>638.8571428571429</ele><time>2026-03-22T09:59:27.622Z</time></trkpt><trkpt lat="43.187864" lon="12.3487035"><ele>641.0</ele><time>2026-03-22T09:59:31.622Z</time></trkpt><trkpt lat="43.1878533" lon="12.3487932"><ele>643.1428571428571</ele><time>2026-03-22T09:59:35.623Z</time></trkpt><trkpt lat="43.187843" lon="12.3488881"><ele>645.2857142857142</ele><time>2026-03-22T09:59:39.623Z</time></trkpt><trkpt lat="43.1878189" lon="12.3489833"><ele>647.4285714285713</ele><time>2026-03-22T09:59:43.623Z</time></trkpt><trkpt lat="43.18781" lon="12.3490914"><ele>649.5714285714286</ele><time>2026-03-22T09:59:47.622Z</time></trkpt><trkpt lat="43.1878001" lon="12.3491881"><ele>651.7142857142857</ele><time>2026-03-22T09:59:51.622Z</time></trkpt><trkpt lat="43.1877882" lon="12.3492782"><ele>653.8571428571428</ele><time>2026-03-22T09:59:54.622Z</time></trkpt><trkpt lat="43.1877565" lon="12.3493846"><ele>656.0</ele><time>2026-03-22T09:59:57.622Z</time></trkpt><trkpt lat="43.1877336" lon="12.3494842"><ele>655.9999999999999</ele><time>2026-03-22T10:00:03.623Z</time></trkpt><trkpt lat="43.1877228" lon="12.3495852"><ele>656.0</ele><time>2026-03-22T10:00:07.623Z</time></trkpt><trkpt lat="43.1877096" lon="12.3496843"><ele>656.0</ele><time>2026-03-22T10:00:11.623Z</time></trkpt><trkpt lat="43.1876905" lon="12.3497807"><ele>656.0</ele><time>2026-03-22T10:00:15.622Z</time></trkpt><trkpt lat="43.1876713" lon="12.3498806"><ele>656.0</ele><time>2026-03-22T10:00:19.622Z</time></trkpt><trkpt lat="43.187638" lon="12.3499806"><ele>655.9999999999999</ele><time>2026-03-22T10:00:23.623Z</time></trkpt><trkpt lat="43.1876052" lon="12.3500618"><ele>656.0</ele><time>2026-03-22T10:00:26.622Z</time></trkpt><trkpt lat="43.1875705" lon="12.3501359"><ele>656.7142857142857</ele><time>2026-03-22T10:00:29.622Z</time></trkpt><trkpt lat="43.1875374" lon="12.350215"><ele>657.4285714285714</ele><time>2026-03-22T10:00:32.622Z</time></trkpt><trkpt lat="43.1875062" lon="12.3503217"><ele>658.1428571428571</ele><time>2026-03-22T10:00:36.622Z</time></trkpt><trkpt lat="43.1874826" lon="12.350415"><ele>658.8571428571429</ele><time>2026-03-22T10:00:40.622Z</time></trkpt><trkpt lat="43.1874574" lon="12.3505001"><ele>659.5714285714286</ele><time>2026-03-22T10:03:10.622Z</time></trkpt><trkpt lat="43.1874031" lon="12.3505794"><ele>660.2857142857142</ele><time>2026-03-22T10:03:16.623Z</time></trkpt><trkpt lat="43.1873669" lon="12.3506624"><ele>661.0</ele><time>2026-03-22T10:03:20.623Z</time></trkpt><trkpt lat="43.1873147" lon="12.3507379"><ele>661.0</ele><time>2026-03-22T10:03:23.623Z</time></trkpt><trkpt lat="43.1872483" lon="12.3508283"><ele>661.0</ele><time>2026-03-22T10:03:26.623Z</time></trkpt><trkpt lat="43.1871904" lon="12.3509238"><ele>661.0</ele><time>2026-03-22T10:03:28.622Z</time></trkpt><trkpt lat="43.187146" lon="12.3510208"><ele>661.0</ele><time>2026-03-22T10:03:30.623Z</time></trkpt><trkpt lat="43.1871061" lon="12.3511267"><ele>661.0</ele><time>2026-03-22T10:03:32.623Z</time></trkpt><trkpt lat="43.1870753" lon="12.3512201"><ele>661.0</ele><time>2026-03-22T10:03:34.623Z</time></trkpt><trkpt lat="43.1870506" lon="12.3513037"><ele>663.0</ele><time>2026-03-22T10:03:36.623Z</time></trkpt><trkpt lat="43.1870415" lon="12.3513934"><ele>665.0</ele><time>2026-03-22T10:03:38.623Z</time></trkpt><trkpt lat="43.1870378" lon="12.3515046"><ele>667.0</ele><time>2026-03-22T10:03:40.623Z</time></trkpt><trkpt lat="43.1870157" lon="12.3516099"><ele>669.0</ele><time>2026-03-22T10:03:42.622Z</time></trkpt><trkpt lat="43.1869757" lon="12.3516845"><ele>671.0</ele><time>2026-03-22T10:03:44.623Z</time></trkpt><trkpt lat="43.186945" lon="12.351768"><ele>673.0</ele><time>2026-03-22T10:03:46.622Z</time></trkpt><trkpt lat="43.1868984" lon="12.3518464"><ele>675.0</ele><time>2026-03-22T10:03:48.622Z</time></trkpt><trkpt lat="43.18685" lon="12.3519386"><ele>675.0</ele><time>2026-03-22T10:03:50.622Z</time></trkpt><trkpt lat="43.1867976" lon="12.3520344"><ele>675.0</ele><time>2026-03-22T10:03:52.622Z</time></trkpt><trkpt lat="43.1866923" lon="12.3521843"><ele>675.0</ele><time>2026-03-22T10:03:54.623Z</time></trkpt><trkpt lat="43.1866457" lon="12.3522628"><ele>675.0</ele><time>2026-03-22T10:03:55.623Z</time></trkpt><trkpt lat="43.1866194" lon="12.3523413"><ele>675.0</ele><time>2026-03-22T10:03:56.623Z</time></trkpt><trkpt lat="43.1865847" lon="12.3524202"><ele>675.0</ele><time>2026-03-22T10:03:57.623Z</time></trkpt><trkpt lat="43.1865089" lon="12.3525517"><ele>677.2</ele><time>2026-03-22T10:03:59.623Z</time></trkpt><trkpt lat="43.1865161" lon="12.3526402"><ele>679.4</ele><time>2026-03-22T10:04:00.622Z</time></trkpt><trkpt lat="43.1864923" lon="12.3528125"><ele>681.5999999999999</ele><time>2026-03-22T10:04:02.622Z</time></trkpt><trkpt lat="43.186487" lon="12.3529408"><ele>683.8</ele><time>2026-03-22T10:04:04.623Z</time></trkpt><trkpt lat="43.186486" lon="12.3530641"><ele>686.0</ele><time>2026-03-22T10:04:06.623Z</time></trkpt><trkpt lat="43.1865071" lon="12.353211"><ele>686.1999999999999</ele><time>2026-03-22T10:04:08.623Z</time></trkpt><trkpt lat="43.1865471" lon="12.353364"><ele>686.4</ele><time>2026-03-22T10:04:10.622Z</time></trkpt><trkpt lat="43.1865699" lon="12.3534842"><ele>686.6</ele><time>2026-03-22T10:04:12.622Z</time></trkpt><trkpt lat="43.1866074" lon="12.3536148"><ele>686.8</ele><time>2026-03-22T10:04:14.623Z</time></trkpt><trkpt lat="43.186659" lon="12.3537243"><ele>687.0</ele><time>2026-03-22T10:04:16.622Z</time></trkpt><trkpt lat="43.1866897" lon="12.3539157"><ele>685.3333333333334</ele><time>2026-03-22T10:04:18.622Z</time></trkpt><trkpt lat="43.1867347" lon="12.3540039"><ele>683.6666666666666</ele><time>2026-03-22T10:04:20.623Z</time></trkpt><trkpt lat="43.1867879" lon="12.3540849"><ele>682.0</ele><time>2026-03-22T10:04:22.622Z</time></trkpt><trkpt lat="43.186834" lon="12.3541547"><ele>680.3333333333333</ele><time>2026-03-22T10:04:24.623Z</time></trkpt><trkpt lat="43.1868912" lon="12.3542632"><ele>678.6666666666666</ele><time>2026-03-22T10:04:26.623Z</time></trkpt><trkpt lat="43.1869338" lon="12.3544105"><ele>677.0</ele><time>2026-03-22T10:04:28.623Z</time></trkpt><trkpt lat="43.1869714" lon="12.3545757"><ele>677.0</ele><time>2026-03-22T10:04:30.623Z</time></trkpt><trkpt lat="43.1869785" lon="12.3546812"><ele>677.0</ele><time>2026-03-22T10:04:31.623Z</time></trkpt><trkpt lat="43.1870428" lon="12.3547774"><ele>677.0</ele><time>2026-03-22T10:04:34.623Z</time></trkpt><trkpt lat="43.1870982" lon="12.3548291"><ele>677.0</ele><time>2026-03-22T10:04:36.622Z</time></trkpt><trkpt lat="43.1871613" lon="12.3548871"><ele>677.0</ele><time>2026-03-22T10:04:39.622Z</time></trkpt><trkpt lat="43.1872213" lon="12.3549644"><ele>677.0</ele><time>2026-03-22T10:04:43.623Z</time></trkpt><trkpt lat="43.1872948" lon="12.3549882"><ele>678.3333333333333</ele><time>2026-03-22T10:04:48.622Z</time></trkpt><trkpt lat="43.1874432" lon="12.3549923"><ele>679.6666666666666</ele><time>2026-03-22T10:04:55.623Z</time></trkpt><trkpt lat="43.1875172" lon="12.3550039"><ele>681.0</ele><time>2026-03-22T10:04:58.623Z</time></trkpt><trkpt lat="43.1875948" lon="12.3550247"><ele>682.3333333333334</ele><time>2026-03-22T10:05:02.622Z</time></trkpt><trkpt lat="43.1876619" lon="12.3550505"><ele>683.6666666666667</ele><time>2026-03-22T10:05:06.622Z</time></trkpt><trkpt lat="43.1877327" lon="12.3550784"><ele>685.0</ele><time>2026-03-22T10:05:10.623Z</time></trkpt><trkpt lat="43.1878092" lon="12.3550885"><ele>685.0</ele><time>2026-03-22T10:05:14.623Z</time></trkpt><trkpt lat="43.1878755" lon="12.3551026"><ele>685.0</ele><time>2026-03-22T10:05:18.622Z</time></trkpt><trkpt lat="43.1879455" lon="12.3551208"><ele>685.0</ele><time>2026-03-22T10:05:22.623Z</time></trkpt><trkpt lat="43.1880077" lon="12.355142"><ele>685.0</ele><time>2026-03-22T10:05:26.622Z</time></trkpt><trkpt lat="43.1880834" lon="12.3551634"><ele>685.0</ele><time>2026-03-22T10:05:31.623Z</time></trkpt><trkpt lat="43.1881506" lon="12.3551808"><ele>685.0</ele><time>2026-03-22T10:05:35.622Z</time></trkpt><trkpt lat="43.1882134" lon="12.3552113"><ele>685.0</ele><time>2026-03-22T10:05:41.623Z</time></trkpt><trkpt lat="43.1882813" lon="12.3552386"><ele>688.2857142857142</ele><time>2026-03-22T10:05:45.622Z</time></trkpt><trkpt lat="43.1883593" lon="12.3552601"><ele>691.5714285714287</ele><time>2026-03-22T10:05:50.623Z</time></trkpt><trkpt lat="43.1884176" lon="12.3552944"><ele>694.8571428571429</ele><time>2026-03-22T10:05:53.623Z</time></trkpt><trkpt lat="43.1884887" lon="12.3553078"><ele>698.1428571428571</ele><time>2026-03-22T10:05:57.623Z</time></trkpt><trkpt lat="43.1885614" lon="12.3553381"><ele>701.4285714285713</ele><time>2026-03-22T10:06:02.622Z</time></trkpt><trkpt lat="43.188621" lon="12.3553706"><ele>704.7142857142858</ele><time>2026-03-22T10:06:06.623Z</time></trkpt><trkpt lat="43.1886861" lon="12.3554043"><ele>708.0</ele><time>2026-03-22T10:06:10.623Z</time></trkpt><trkpt lat="43.1887618" lon="12.3554321"><ele>708.0</ele><time>2026-03-22T10:06:14.623Z</time></trkpt><trkpt lat="43.1888318" lon="12.3554698"><ele>708.0</ele><time>2026-03-22T10:06:18.623Z</time></trkpt><trkpt lat="43.1889064" lon="12.3554824"><ele>708.0</ele><time>2026-03-22T10:06:22.622Z</time></trkpt><trkpt lat="43.1889681" lon="12.3555232"><ele>708.0</ele><time>2026-03-22T10:06:26.622Z</time></trkpt><trkpt lat="43.189043" lon="12.3555222"><ele>708.0</ele><time>2026-03-22T10:06:30.623Z</time></trkpt><trkpt lat="43.1891141" lon="12.3555409"><ele>708.0</ele><time>2026-03-22T10:06:34.622Z</time></trkpt><trkpt lat="43.1891774" lon="12.3555859"><ele>708.0</ele><time>2026-03-22T10:06:38.623Z</time></trkpt><trkpt lat="43.1892422" lon="12.3556147"><ele>705.1428571428572</ele><time>2026-03-22T10:06:42.622Z</time></trkpt><trkpt lat="43.1892995" lon="12.3556568"><ele>702.2857142857142</ele><time>2026-03-22T10:06:46.622Z</time></trkpt><trkpt lat="43.1893665" lon="12.3556846"><ele>699.4285714285714</ele><time>2026-03-22T10:06:51.623Z</time></trkpt><trkpt lat="43.1894326" lon="12.3556825"><ele>696.5714285714287</ele><time>2026-03-22T10:06:56.623Z</time></trkpt><trkpt lat="43.1895098" lon="12.3556989"><ele>693.7142857142858</ele><time>2026-03-22T10:07:01.623Z</time></trkpt><trkpt lat="43.1895755" lon="12.3557268"><ele>690.8571428571429</ele><time>2026-03-22T10:07:06.623Z</time></trkpt><trkpt lat="43.1896459" lon="12.3557603"><ele>688.0</ele><time>2026-03-22T10:07:11.623Z</time></trkpt><trkpt lat="43.1897077" lon="12.3557879"><ele>688.0000000000001</ele><time>2026-03-22T10:07:15.623Z</time></trkpt><trkpt lat="43.1897688" lon="12.3558168"><ele>688.0</ele><time>2026-03-22T10:07:19.623Z</time></trkpt><trkpt lat="43.1898392" lon="12.3558631"><ele>688.0</ele><time>2026-03-22T10:07:24.623Z</time></trkpt><trkpt lat="43.1899047" lon="12.3558786"><ele>688.0</ele><time>2026-03-22T10:07:28.622Z</time></trkpt><trkpt lat="43.1899691" lon="12.3558857"><ele>688.0</ele><time>2026-03-22T10:07:32.623Z</time></trkpt><trkpt lat="43.1900329" lon="12.3558831"><ele>688.0000000000001</ele><time>2026-03-22T10:07:36.622Z</time></trkpt><trkpt lat="43.1901016" lon="12.3558954"><ele>688.0</ele><time>2026-03-22T10:07:40.623Z</time></trkpt><trkpt lat="43.1901689" lon="12.3559177"><ele>691.4285714285714</ele><time>2026-03-22T10:07:44.622Z</time></trkpt><trkpt lat="43.1902392" lon="12.3559158"><ele>694.8571428571429</ele><time>2026-03-22T10:07:48.623Z</time></trkpt><trkpt lat="43.1903003" lon="12.3558939"><ele>698.2857142857142</ele><time>2026-03-22T10:07:52.623Z</time></trkpt><trkpt lat="43.1903621" lon="12.3558745"><ele>701.7142857142858</ele><time>2026-03-22T10:07:55.623Z</time></trkpt><trkpt lat="43.190433" lon="12.3558609"><ele>705.1428571428571</ele><time>2026-03-22T10:07:59.623Z</time></trkpt><trkpt lat="43.1905088" lon="12.3558528"><ele>708.5714285714286</ele><time>2026-03-22T10:08:03.623Z</time></trkpt><trkpt lat="43.1905849" lon="12.3558549"><ele>712.0</ele><time>2026-03-22T10:08:08.622Z</time></trkpt><trkpt lat="43.1906621" lon="12.3558675"><ele>714.6666666666667</ele><time>2026-03-22T10:08:12.622Z</time></trkpt><trkpt lat="43.1907401" lon="12.3558904"><ele>717.3333333333334</ele><time>2026-03-22T10:08:16.623Z</time></trkpt><trkpt lat="43.1908025" lon="12.3559337"><ele>720.0</ele><time>2026-03-22T10:08:20.622Z</time></trkpt><trkpt lat="43.1908688" lon="12.3559873"><ele>722.6666666666666</ele><time>2026-03-22T10:08:24.622Z</time></trkpt><trkpt lat="43.1909462" lon="12.3560146"><ele>725.3333333333333</ele><time>2026-03-22T10:08:28.623Z</time></trkpt><trkpt lat="43.1910149" lon="12.3560304"><ele>728.0</ele><time>2026-03-22T10:08:32.623Z</time></trkpt><trkpt lat="43.1910857" lon="12.3560602"><ele>728.0</ele><time>2026-03-22T10:08:37.623Z</time></trkpt><trkpt lat="43.1911485" lon="12.3560756"><ele>728.0</ele><time>2026-03-22T10:08:42.622Z</time></trkpt><trkpt lat="43.1912136" lon="12.3561036"><ele>728.0</ele><time>2026-03-22T10:08:46.622Z</time></trkpt><trkpt lat="43.191281" lon="12.3561303"><ele>728.0</ele><time>2026-03-22T10:08:50.623Z</time></trkpt><trkpt lat="43.1913573" lon="12.3561541"><ele>728.0</ele><time>2026-03-22T10:08:54.622Z</time></trkpt><trkpt lat="43.1914232" lon="12.3561942"><ele>728.0</ele><time>2026-03-22T10:08:58.623Z</time></trkpt><trkpt lat="43.1914894" lon="12.3562071"><ele>728.0</ele><time>2026-03-22T10:09:03.623Z</time></trkpt><trkpt lat="43.1915579" lon="12.3562328"><ele>729.6666666666666</ele><time>2026-03-22T10:09:07.622Z</time></trkpt><trkpt lat="43.1916446" lon="12.3562502"><ele>731.3333333333333</ele><time>2026-03-22T10:09:10.622Z</time></trkpt><trkpt lat="43.1917175" lon="12.3562802"><ele>733.0</ele><time>2026-03-22T10:09:13.623Z</time></trkpt><trkpt lat="43.1917676" lon="12.3563505"><ele>734.6666666666666</ele><time>2026-03-22T10:09:16.623Z</time></trkpt><trkpt lat="43.19177" lon="12.3564411"><ele>736.3333333333334</ele><time>2026-03-22T10:09:22.623Z</time></trkpt><trkpt lat="43.1916943" lon="12.3564935"><ele>738.0</ele><time>2026-03-22T10:09:25.623Z</time></trkpt><trkpt lat="43.191645" lon="12.3565574"><ele>738.0</ele><time>2026-03-22T10:09:28.623Z</time></trkpt><trkpt lat="43.191588" lon="12.3566304"><ele>738.0</ele><time>2026-03-22T10:09:33.623Z</time></trkpt><trkpt lat="43.1915171" lon="12.3566701"><ele>738.0</ele><time>2026-03-22T10:09:36.622Z</time></trkpt><trkpt lat="43.1914634" lon="12.3567222"><ele>738.0</ele><time>2026-03-22T10:09:39.623Z</time></trkpt><trkpt lat="43.1913907" lon="12.356785"><ele>738.0</ele><time>2026-03-22T10:09:43.623Z</time></trkpt><trkpt lat="43.1913359" lon="12.3568326"><ele>738.0</ele><time>2026-03-22T10:09:46.623Z</time></trkpt><trkpt lat="43.191277" lon="12.3568899"><ele>738.0</ele><time>2026-03-22T10:09:49.622Z</time></trkpt><trkpt lat="43.1912232" lon="12.3569471"><ele>738.3333333333334</ele><time>2026-03-22T10:09:52.622Z</time></trkpt><trkpt lat="43.1911577" lon="12.357"><ele>738.6666666666666</ele><time>2026-03-22T10:09:56.622Z</time></trkpt><trkpt lat="43.1910866" lon="12.3570433"><ele>739.0</ele><time>2026-03-22T10:10:00.622Z</time></trkpt><trkpt lat="43.1910204" lon="12.3571001"><ele>739.3333333333333</ele><time>2026-03-22T10:10:04.623Z</time></trkpt><trkpt lat="43.1909615" lon="12.3571738"><ele>739.6666666666666</ele><time>2026-03-22T10:10:08.623Z</time></trkpt><trkpt lat="43.1909075" lon="12.3572493"><ele>740.0</ele><time>2026-03-22T10:10:12.623Z</time></trkpt><trkpt lat="43.190853" lon="12.357318"><ele>739.9999999999999</ele><time>2026-03-22T10:10:15.622Z</time></trkpt><trkpt lat="43.1908062" lon="12.3573825"><ele>740.0</ele><time>2026-03-22T10:10:18.623Z</time></trkpt><trkpt lat="43.1907588" lon="12.3574453"><ele>740.0</ele><time>2026-03-22T10:10:21.622Z</time></trkpt><trkpt lat="43.1906939" lon="12.3575184"><ele>740.0</ele><time>2026-03-22T10:10:25.622Z</time></trkpt><trkpt lat="43.1906359" lon="12.3575936"><ele>740.0</ele><time>2026-03-22T10:10:29.622Z</time></trkpt><trkpt lat="43.1905769" lon="12.3576635"><ele>739.9999999999999</ele><time>2026-03-22T10:10:33.622Z</time></trkpt><trkpt lat="43.1905313" lon="12.3577303"><ele>740.0</ele><time>2026-03-22T10:10:37.622Z</time></trkpt><trkpt lat="43.1904793" lon="12.3577898"><ele>739.7142857142857</ele><time>2026-03-22T10:10:40.622Z</time></trkpt><trkpt lat="43.1904241" lon="12.3578405"><ele>739.4285714285714</ele><time>2026-03-22T10:10:43.623Z</time></trkpt><trkpt lat="43.1903617" lon="12.3579195"><ele>739.1428571428571</ele><time>2026-03-22T10:10:47.622Z</time></trkpt><trkpt lat="43.1902993" lon="12.3579952"><ele>738.8571428571429</ele><time>2026-03-22T10:10:51.623Z</time></trkpt><trkpt lat="43.1902497" lon="12.3580486"><ele>738.5714285714286</ele><time>2026-03-22T10:10:54.623Z</time></trkpt><trkpt lat="43.1901948" lon="12.3581056"><ele>738.2857142857142</ele><time>2026-03-22T10:10:57.623Z</time></trkpt><trkpt lat="43.1901386" lon="12.3581652"><ele>738.0</ele><time>2026-03-22T10:11:00.622Z</time></trkpt><trkpt lat="43.190086" lon="12.3582326"><ele>738.0</ele><time>2026-03-22T10:11:03.622Z</time></trkpt><trkpt lat="43.190045" lon="12.3582999"><ele>738.0</ele><time>2026-03-22T10:11:06.622Z</time></trkpt><trkpt lat="43.1900027" lon="12.3583732"><ele>738.0</ele><time>2026-03-22T10:11:09.622Z</time></trkpt><trkpt lat="43.1899557" lon="12.3584379"><ele>738.0</ele><time>2026-03-22T10:11:12.623Z</time></trkpt><trkpt lat="43.1899115" lon="12.3585028"><ele>738.0</ele><time>2026-03-22T10:11:15.622Z</time></trkpt><trkpt lat="43.1898702" lon="12.3585818"><ele>738.0</ele><time>2026-03-22T10:11:18.623Z</time></trkpt><trkpt lat="43.1898413" lon="12.3586649"><ele>738.0</ele><time>2026-03-22T10:11:21.622Z</time></trkpt><trkpt lat="43.1898364" lon="12.3587571"><ele>738.0</ele><time>2026-03-22T10:11:25.622Z</time></trkpt><trkpt lat="43.1898472" lon="12.3588448"><ele>738.0</ele><time>2026-03-22T10:11:28.622Z</time></trkpt><trkpt lat="43.1898544" lon="12.3589439"><ele>738.0</ele><time>2026-03-22T10:11:31.622Z</time></trkpt><trkpt lat="43.1898558" lon="12.3590432"><ele>738.0</ele><time>2026-03-22T10:11:35.623Z</time></trkpt><trkpt lat="43.1898685" lon="12.3591415"><ele>738.0</ele><time>2026-03-22T10:11:38.622Z</time></trkpt><trkpt lat="43.1898749" lon="12.3592474"><ele>738.0</ele><time>2026-03-22T10:11:42.623Z</time></trkpt><trkpt lat="43.1898674" lon="12.3593487"><ele>738.0</ele><time>2026-03-22T10:11:45.623Z</time></trkpt><trkpt lat="43.1898361" lon="12.3594241"><ele>737.6666666666666</ele><time>2026-03-22T10:11:48.623Z</time></trkpt><trkpt lat="43.1897899" lon="12.3595132"><ele>737.3333333333334</ele><time>2026-03-22T10:11:52.623Z</time></trkpt><trkpt lat="43.189753" lon="12.3596005"><ele>737.0</ele><time>2026-03-22T10:11:55.623Z</time></trkpt><trkpt lat="43.1897163" lon="12.3596839"><ele>736.6666666666667</ele><time>2026-03-22T10:11:57.622Z</time></trkpt><trkpt lat="43.1896755" lon="12.3597637"><ele>736.3333333333334</ele><time>2026-03-22T10:11:59.623Z</time></trkpt><trkpt lat="43.1896095" lon="12.3598402"><ele>736.0</ele><time>2026-03-22T10:12:02.622Z</time></trkpt><trkpt lat="43.189554" lon="12.3599247"><ele>736.0</ele><time>2026-03-22T10:12:05.622Z</time></trkpt><trkpt lat="43.1895158" lon="12.3600135"><ele>736.0</ele><time>2026-03-22T10:12:08.622Z</time></trkpt><trkpt lat="43.1894679" lon="12.3600946"><ele>736.0</ele><time>2026-03-22T10:12:11.622Z</time></trkpt><trkpt lat="43.1894476" lon="12.3601774"><ele>736.0</ele><time>2026-03-22T10:12:14.622Z</time></trkpt><trkpt lat="43.1893827" lon="12.3602444"><ele>736.0</ele><time>2026-03-22T10:12:17.623Z</time></trkpt><trkpt lat="43.1893303" lon="12.3603156"><ele>736.0</ele><time>2026-03-22T10:12:20.623Z</time></trkpt><trkpt lat="43.1892946" lon="12.3603901"><ele>736.0</ele><time>2026-03-22T10:12:23.623Z</time></trkpt><trkpt lat="43.1892595" lon="12.3604626"><ele>736.0</ele><time>2026-03-22T10:12:26.623Z</time></trkpt><trkpt lat="43.1892113" lon="12.3605324"><ele>736.0</ele><time>2026-03-22T10:12:29.623Z</time></trkpt><trkpt lat="43.189162" lon="12.3606263"><ele>736.0</ele><time>2026-03-22T10:12:32.622Z</time></trkpt><trkpt lat="43.1891234" lon="12.3606962"><ele>736.0</ele><time>2026-03-22T10:12:35.622Z</time></trkpt><trkpt lat="43.1890812" lon="12.3607878"><ele>736.0</ele><time>2026-03-22T10:12:40.622Z</time></trkpt><trkpt lat="43.1890468" lon="12.3608616"><ele>736.0</ele><time>2026-03-22T10:12:43.622Z</time></trkpt><trkpt lat="43.1889997" lon="12.3609607"><ele>736.0</ele><time>2026-03-22T10:12:47.623Z</time></trkpt><trkpt lat="43.188949" lon="12.3610327"><ele>734.5714285714286</ele><time>2026-03-22T10:12:50.622Z</time></trkpt><trkpt lat="43.188907" lon="12.3611043"><ele>733.1428571428571</ele><time>2026-03-22T10:12:53.623Z</time></trkpt><trkpt lat="43.1888689" lon="12.3611762"><ele>731.7142857142857</ele><time>2026-03-22T10:12:56.622Z</time></trkpt><trkpt lat="43.1888252" lon="12.3612615"><ele>730.2857142857142</ele><time>2026-03-22T10:13:00.622Z</time></trkpt><trkpt lat="43.1887861" lon="12.3613421"><ele>728.8571428571429</ele><time>2026-03-22T10:13:03.622Z</time></trkpt><trkpt lat="43.188744" lon="12.3614259"><ele>727.4285714285713</ele><time>2026-03-22T10:13:06.622Z</time></trkpt><trkpt lat="43.1887006" lon="12.3615062"><ele>726.0</ele><time>2026-03-22T10:13:09.622Z</time></trkpt><trkpt lat="43.1886538" lon="12.3615839"><ele>729.2857142857142</ele><time>2026-03-22T10:13:12.623Z</time></trkpt><trkpt lat="43.1885988" lon="12.3616593"><ele>732.5714285714286</ele><time>2026-03-22T10:13:15.623Z</time></trkpt><trkpt lat="43.1885525" lon="12.3617487"><ele>735.8571428571429</ele><time>2026-03-22T10:13:18.623Z</time></trkpt><trkpt lat="43.1885142" lon="12.3618199"><ele>739.1428571428571</ele><time>2026-03-22T10:13:21.622Z</time></trkpt><trkpt lat="43.1884578" lon="12.3618886"><ele>742.4285714285714</ele><time>2026-03-22T10:13:26.623Z</time></trkpt><trkpt lat="43.1884544" lon="12.3619761"><ele>745.7142857142857</ele><time>2026-03-22T10:17:23.622Z</time></trkpt><trkpt lat="43.1884095" lon="12.3620551"><ele>749.0</ele><time>2026-03-22T10:17:28.623Z</time></trkpt><trkpt lat="43.1883291" lon="12.3621279"><ele>752.0</ele><time>2026-03-22T10:17:31.623Z</time></trkpt><trkpt lat="43.1882434" lon="12.362259"><ele>755.0</ele><time>2026-03-22T10:17:33.623Z</time></trkpt><trkpt lat="43.188202" lon="12.3623869"><ele>758.0</ele><time>2026-03-22T10:17:35.622Z</time></trkpt><trkpt lat="43.1881731" lon="12.3625249"><ele>761.0</ele><time>2026-03-22T10:17:37.622Z</time></trkpt><trkpt lat="43.1881476" lon="12.362647"><ele>764.0</ele><time>2026-03-22T10:17:39.622Z</time></trkpt><trkpt lat="43.1881212" lon="12.3627563"><ele>756.2</ele><time>2026-03-22T10:17:41.622Z</time></trkpt><trkpt lat="43.1880953" lon="12.3628708"><ele>748.4000000000001</ele><time>2026-03-22T10:17:49.623Z</time></trkpt><trkpt lat="43.1880705" lon="12.3629879"><ele>740.6</ele><time>2026-03-22T10:17:51.622Z</time></trkpt><trkpt lat="43.1880409" lon="12.3631142"><ele>732.8</ele><time>2026-03-22T10:17:53.623Z</time></trkpt><trkpt lat="43.1880066" lon="12.3632452"><ele>725.0</ele><time>2026-03-22T10:17:55.622Z</time></trkpt><trkpt lat="43.18796" lon="12.3633922"><ele>725.0</ele><time>2026-03-22T10:17:57.623Z</time></trkpt><trkpt lat="43.1879104" lon="12.3635259"><ele>725.0</ele><time>2026-03-22T10:17:59.623Z</time></trkpt><trkpt lat="43.1878814" lon="12.3636324"><ele>725.0</ele><time>2026-03-22T10:18:01.622Z</time></trkpt><trkpt lat="43.1878491" lon="12.3637759"><ele>725.0</ele><time>2026-03-22T10:18:03.622Z</time></trkpt><trkpt lat="43.187836" lon="12.3638924"><ele>725.0</ele><time>2026-03-22T10:18:05.622Z</time></trkpt><trkpt lat="43.1878054" lon="12.3640419"><ele>725.4</ele><time>2026-03-22T10:18:07.623Z</time></trkpt><trkpt lat="43.187782" lon="12.3641907"><ele>725.8</ele><time>2026-03-22T10:18:09.622Z</time></trkpt><trkpt lat="43.1877616" lon="12.3643201"><ele>726.2</ele><time>2026-03-22T10:18:11.623Z</time></trkpt><trkpt lat="43.1877731" lon="12.3644307"><ele>726.6</ele><time>2026-03-22T10:18:13.623Z</time></trkpt><trkpt lat="43.1877747" lon="12.3645719"><ele>727.0</ele><time>2026-03-22T10:18:15.623Z</time></trkpt><trkpt lat="43.1877628" lon="12.3647257"><ele>726.0</ele><time>2026-03-22T10:18:17.622Z</time></trkpt><trkpt lat="43.1877717" lon="12.3648703"><ele>725.0</ele><time>2026-03-22T10:18:19.623Z</time></trkpt><trkpt lat="43.1877707" lon="12.3650345"><ele>724.0</ele><time>2026-03-22T10:18:21.622Z</time></trkpt><trkpt lat="43.1877792" lon="12.3651218"><ele>723.0</ele><time>2026-03-22T10:18:22.623Z</time></trkpt><trkpt lat="43.1877944" lon="12.3652109"><ele>722.0</ele><time>2026-03-22T10:18:23.623Z</time></trkpt><trkpt lat="43.187846" lon="12.3653353"><ele>722.0</ele><time>2026-03-22T10:18:25.622Z</time></trkpt><trkpt lat="43.1878334" lon="12.365446"><ele>722.0</ele><time>2026-03-22T10:18:26.623Z</time></trkpt><trkpt lat="43.187836" lon="12.3655427"><ele>722.0</ele><time>2026-03-22T10:18:27.622Z</time></trkpt><trkpt lat="43.1878267" lon="12.3656417"><ele>722.0</ele><time>2026-03-22T10:18:28.623Z</time></trkpt><trkpt lat="43.1878232" lon="12.3657639"><ele>722.0</ele><time>2026-03-22T10:18:30.622Z</time></trkpt><trkpt lat="43.1878029" lon="12.3658669"><ele>722.0</ele><time>2026-03-22T10:18:32.622Z</time></trkpt><trkpt lat="43.1877689" lon="12.3659531"><ele>722.0</ele><time>2026-03-22T10:18:34.623Z</time></trkpt><trkpt lat="43.1876982" lon="12.3659439"><ele>722.0</ele><time>2026-03-22T10:18:44.623Z</time></trkpt><trkpt lat="43.1876572" lon="12.365859"><ele>722.0</ele><time>2026-03-22T10:18:47.623Z</time></trkpt><trkpt lat="43.1875959" lon="12.3657544"><ele>722.0</ele><time>2026-03-22T10:18:50.623Z</time></trkpt><trkpt lat="43.1875531" lon="12.3656562"><ele>722.0</ele><time>2026-03-22T10:18:52.623Z</time></trkpt><trkpt lat="43.1875398" lon="12.3655665"><ele>722.0</ele><time>2026-03-22T10:18:53.622Z</time></trkpt><trkpt lat="43.1875073" lon="12.3654502"><ele>722.0</ele><time>2026-03-22T10:18:54.623Z</time></trkpt><trkpt lat="43.1874501" lon="12.3653448"><ele>722.0</ele><time>2026-03-22T10:18:55.622Z</time></trkpt><trkpt lat="43.1874233" lon="12.3652165"><ele>722.0</ele><time>2026-03-22T10:18:57.623Z</time></trkpt><trkpt lat="43.1874086" lon="12.3651268"><ele>722.0</ele><time>2026-03-22T10:18:59.623Z</time></trkpt><trkpt lat="43.1873723" lon="12.3650345"><ele>722.0</ele><time>2026-03-22T10:19:03.623Z</time></trkpt><trkpt lat="43.1873354" lon="12.3649639"><ele>722.0</ele><time>2026-03-22T10:19:09.623Z</time></trkpt><trkpt lat="43.1872918" lon="12.3648907"><ele>716.5</ele><time>2026-03-22T10:19:12.622Z</time></trkpt><trkpt lat="43.1872334" lon="12.3647978"><ele>711.0</ele><time>2026-03-22T10:19:15.622Z</time></trkpt><trkpt lat="43.1871675" lon="12.3647064"><ele>705.5</ele><time>2026-03-22T10:19:18.622Z</time></trkpt><trkpt lat="43.1871177" lon="12.3646236"><ele>700.0</ele><time>2026-03-22T10:19:21.623Z</time></trkpt><trkpt lat="43.1870673" lon="12.3645689"><ele>694.5</ele><time>2026-03-22T10:19:24.622Z</time></trkpt><trkpt lat="43.1870218" lon="12.3644977"><ele>689.0</ele><time>2026-03-22T10:19:27.623Z</time></trkpt><trkpt lat="43.1869603" lon="12.3643984"><ele>689.0</ele><time>2026-03-22T10:19:30.622Z</time></trkpt><trkpt lat="43.1869055" lon="12.3643117"><ele>689.0</ele><time>2026-03-22T10:19:33.622Z</time></trkpt><trkpt lat="43.1868698" lon="12.3642119"><ele>689.0</ele><time>2026-03-22T10:19:36.622Z</time></trkpt><trkpt lat="43.1868269" lon="12.3641128"><ele>689.0</ele><time>2026-03-22T10:19:39.623Z</time></trkpt><trkpt lat="43.1867934" lon="12.3640381"><ele>689.0</ele><time>2026-03-22T10:19:41.623Z</time></trkpt><trkpt lat="43.1867578" lon="12.363942"><ele>689.0</ele><time>2026-03-22T10:19:44.622Z</time></trkpt><trkpt lat="43.1867177" lon="12.3638643"><ele>688.8571428571429</ele><time>2026-03-22T10:19:46.623Z</time></trkpt><trkpt lat="43.1866708" lon="12.3637855"><ele>688.7142857142858</ele><time>2026-03-22T10:19:48.623Z</time></trkpt><trkpt lat="43.1866583" lon="12.3636883"><ele>688.5714285714287</ele><time>2026-03-22T10:19:51.623Z</time></trkpt><trkpt lat="43.1866345" lon="12.3635999"><ele>688.4285714285714</ele><time>2026-03-22T10:19:54.623Z</time></trkpt><trkpt lat="43.1865979" lon="12.3635283"><ele>688.2857142857143</ele><time>2026-03-22T10:20:08.623Z</time></trkpt><trkpt lat="43.1865749" lon="12.3634403"><ele>688.1428571428572</ele><time>2026-03-22T10:20:12.623Z</time></trkpt><trkpt lat="43.1865515" lon="12.3633568"><ele>688.0</ele><time>2026-03-22T10:20:15.623Z</time></trkpt><trkpt lat="43.1864863" lon="12.3633383"><ele>682.3333333333334</ele><time>2026-03-22T10:20:21.623Z</time></trkpt><trkpt lat="43.186423" lon="12.3634054"><ele>676.6666666666667</ele><time>2026-03-22T10:20:28.623Z</time></trkpt><trkpt lat="43.1863783" lon="12.3634892"><ele>671.0</ele><time>2026-03-22T10:20:31.623Z</time></trkpt><trkpt lat="43.1863481" lon="12.3636012"><ele>665.3333333333334</ele><time>2026-03-22T10:20:34.622Z</time></trkpt><trkpt lat="43.1863053" lon="12.3636991"><ele>659.6666666666666</ele><time>2026-03-22T10:20:37.623Z</time></trkpt><trkpt lat="43.1862678" lon="12.3637815"><ele>654.0</ele><time>2026-03-22T10:20:40.622Z</time></trkpt><trkpt lat="43.1862421" lon="12.363887"><ele>654.0</ele><time>2026-03-22T10:20:43.622Z</time></trkpt><trkpt lat="43.1862117" lon="12.3640151"><ele>654.0</ele><time>2026-03-22T10:20:46.623Z</time></trkpt><trkpt lat="43.1861813" lon="12.3641037"><ele>654.0</ele><time>2026-03-22T10:20:48.622Z</time></trkpt><trkpt lat="43.1861557" lon="12.3642164"><ele>654.0</ele><time>2026-03-22T10:20:51.622Z</time></trkpt><trkpt lat="43.1861322" lon="12.3643151"><ele>654.0</ele><time>2026-03-22T10:20:53.622Z</time></trkpt><trkpt lat="43.1861081" lon="12.3644204"><ele>654.0</ele><time>2026-03-22T10:20:55.623Z</time></trkpt><trkpt lat="43.1860937" lon="12.3645123"><ele>654.0</ele><time>2026-03-22T10:20:58.623Z</time></trkpt><trkpt lat="43.1860493" lon="12.3646244"><ele>654.0</ele><time>2026-03-22T10:21:01.623Z</time></trkpt><trkpt lat="43.186014" lon="12.3647165"><ele>654.0</ele><time>2026-03-22T10:21:04.623Z</time></trkpt><trkpt lat="43.1859826" lon="12.3648004"><ele>654.0</ele><time>2026-03-22T10:21:07.622Z</time></trkpt><trkpt lat="43.1859568" lon="12.364904"><ele>654.0</ele><time>2026-03-22T10:21:10.623Z</time></trkpt><trkpt lat="43.1859384" lon="12.3649891"><ele>654.0</ele><time>2026-03-22T10:21:12.623Z</time></trkpt><trkpt lat="43.1859007" lon="12.3650856"><ele>653.6666666666666</ele><time>2026-03-22T10:21:14.622Z</time></trkpt><trkpt lat="43.1858707" lon="12.3651679"><ele>653.3333333333334</ele><time>2026-03-22T10:21:16.622Z</time></trkpt><trkpt lat="43.1858011" lon="12.3652343"><ele>653.0</ele><time>2026-03-22T10:21:19.622Z</time></trkpt><trkpt lat="43.1857354" lon="12.3652755"><ele>652.6666666666667</ele><time>2026-03-22T10:21:21.622Z</time></trkpt><trkpt lat="43.1856744" lon="12.3652973"><ele>652.3333333333334</ele><time>2026-03-22T10:21:23.623Z</time></trkpt><trkpt lat="43.1855973" lon="12.3653209"><ele>652.0</ele><time>2026-03-22T10:21:26.623Z</time></trkpt><trkpt lat="43.1855115" lon="12.3653229"><ele>647.4</ele><time>2026-03-22T10:21:28.623Z</time></trkpt><trkpt lat="43.1854004" lon="12.3653274"><ele>642.8000000000001</ele><time>2026-03-22T10:21:30.623Z</time></trkpt><trkpt lat="43.1852867" lon="12.3653394"><ele>638.2</ele><time>2026-03-22T10:21:32.622Z</time></trkpt><trkpt lat="43.1851701" lon="12.3653569"><ele>633.6</ele><time>2026-03-22T10:21:34.622Z</time></trkpt><trkpt lat="43.1851058" lon="12.3653636"><ele>629.0</ele><time>2026-03-22T10:21:35.622Z</time></trkpt><trkpt lat="43.185033" lon="12.3653699"><ele>629.0</ele><time>2026-03-22T10:21:36.623Z</time></trkpt><trkpt lat="43.1849574" lon="12.3653632"><ele>629.0</ele><time>2026-03-22T10:21:37.622Z</time></trkpt><trkpt lat="43.1848822" lon="12.3653642"><ele>629.0</ele><time>2026-03-22T10:21:38.623Z</time></trkpt><trkpt lat="43.1848062" lon="12.3653669"><ele>629.0</ele><time>2026-03-22T10:21:39.623Z</time></trkpt><trkpt lat="43.1847293" lon="12.3653677"><ele>629.0</ele><time>2026-03-22T10:21:40.623Z</time></trkpt><trkpt lat="43.1846558" lon="12.3653687"><ele>629.0</ele><time>2026-03-22T10:21:41.623Z</time></trkpt><trkpt lat="43.1845839" lon="12.3653739"><ele>629.0</ele><time>2026-03-22T10:21:42.622Z</time></trkpt><trkpt lat="43.1845155" lon="12.3653852"><ele>628.5</ele><time>2026-03-22T10:21:43.623Z</time></trkpt><trkpt lat="43.1844479" lon="12.3653886"><ele>628.0</ele><time>2026-03-22T10:21:44.622Z</time></trkpt><trkpt lat="43.18438" lon="12.3653892"><ele>627.5</ele><time>2026-03-22T10:21:45.623Z</time></trkpt><trkpt lat="43.1842731" lon="12.3654059"><ele>627.0</ele><time>2026-03-22T10:21:47.623Z</time></trkpt><trkpt lat="43.1842187" lon="12.3654745"><ele>626.5</ele><time>2026-03-22T10:21:50.622Z</time></trkpt><trkpt lat="43.1842148" lon="12.3655851"><ele>626.0</ele><time>2026-03-22T10:22:02.623Z</time></trkpt><trkpt lat="43.1841931" lon="12.3656894"><ele>626.0</ele><time>2026-03-22T10:22:05.623Z</time></trkpt><trkpt lat="43.1841725" lon="12.3657796"><ele>626.0</ele><time>2026-03-22T10:22:07.623Z</time></trkpt><trkpt lat="43.1841529" lon="12.365887"><ele>626.0</ele><time>2026-03-22T10:22:09.622Z</time></trkpt><trkpt lat="43.1841151" lon="12.3660117"><ele>626.0</ele><time>2026-03-22T10:22:11.622Z</time></trkpt><trkpt lat="43.1841052" lon="12.3661596"><ele>626.0</ele><time>2026-03-22T10:22:13.623Z</time></trkpt><trkpt lat="43.1841014" lon="12.3663373"><ele>624.7142857142857</ele><time>2026-03-22T10:22:15.622Z</time></trkpt><trkpt lat="43.1841071" lon="12.3664346"><ele>623.4285714285714</ele><time>2026-03-22T10:22:16.623Z</time></trkpt><trkpt lat="43.184107" lon="12.3665338"><ele>622.1428571428571</ele><time>2026-03-22T10:22:17.623Z</time></trkpt><trkpt lat="43.1841096" lon="12.3666361"><ele>620.8571428571429</ele><time>2026-03-22T10:22:18.623Z</time></trkpt><trkpt lat="43.1841172" lon="12.3667341"><ele>619.5714285714286</ele><time>2026-03-22T10:22:19.622Z</time></trkpt><trkpt lat="43.1841209" lon="12.3668333"><ele>618.2857142857143</ele><time>2026-03-22T10:22:20.622Z</time></trkpt><trkpt lat="43.1841225" lon="12.3669284"><ele>617.0</ele><time>2026-03-22T10:22:21.622Z</time></trkpt><trkpt lat="43.1841248" lon="12.3670215"><ele>617.0</ele><time>2026-03-22T10:22:22.623Z</time></trkpt><trkpt lat="43.1841251" lon="12.3671117"><ele>617.0</ele><time>2026-03-22T10:22:23.623Z</time></trkpt><trkpt lat="43.1841021" lon="12.3672768"><ele>617.0</ele><time>2026-03-22T10:22:25.623Z</time></trkpt><trkpt lat="43.1840648" lon="12.3674197"><ele>617.0</ele><time>2026-03-22T10:22:27.623Z</time></trkpt><trkpt lat="43.1840375" lon="12.3675211"><ele>617.0</ele><time>2026-03-22T10:22:29.622Z</time></trkpt><trkpt lat="43.1840885" lon="12.3675723"><ele>617.0</ele><time>2026-03-22T10:22:31.623Z</time></trkpt><trkpt lat="43.1841305" lon="12.367676"><ele>616.8333333333333</ele><time>2026-03-22T10:22:34.622Z</time></trkpt><trkpt lat="43.1841539" lon="12.3677565"><ele>616.6666666666666</ele><time>2026-03-22T10:22:36.623Z</time></trkpt><trkpt lat="43.1841859" lon="12.3678403"><ele>616.5</ele><time>2026-03-22T10:22:38.622Z</time></trkpt><trkpt lat="43.1842095" lon="12.3679387"><ele>616.3333333333334</ele><time>2026-03-22T10:22:40.623Z</time></trkpt><trkpt lat="43.1842188" lon="12.3680376"><ele>616.1666666666667</ele><time>2026-03-22T10:22:42.623Z</time></trkpt><trkpt lat="43.1842311" lon="12.3681798"><ele>616.0</ele><time>2026-03-22T10:22:45.622Z</time></trkpt><trkpt lat="43.1842256" lon="12.3682827"><ele>616.3333333333334</ele><time>2026-03-22T10:22:47.623Z</time></trkpt><trkpt lat="43.1842223" lon="12.3683823"><ele>616.6666666666667</ele><time>2026-03-22T10:22:49.623Z</time></trkpt><trkpt lat="43.1842305" lon="12.3685022"><ele>617.0</ele><time>2026-03-22T10:22:51.623Z</time></trkpt><trkpt lat="43.1842498" lon="12.3686134"><ele>617.3333333333334</ele><time>2026-03-22T10:22:53.623Z</time></trkpt><trkpt lat="43.1842877" lon="12.3687009"><ele>617.6666666666666</ele><time>2026-03-22T10:22:55.623Z</time></trkpt><trkpt lat="43.1843297" lon="12.3687916"><ele>618.0</ele><time>2026-03-22T10:22:57.622Z</time></trkpt><trkpt lat="43.1843786" lon="12.3689147"><ele>618.8</ele><time>2026-03-22T10:23:00.623Z</time></trkpt><trkpt lat="43.1844105" lon="12.369014"><ele>619.5999999999999</ele><time>2026-03-22T10:23:02.622Z</time></trkpt><trkpt lat="43.1844438" lon="12.3691492"><ele>620.4000000000001</ele><time>2026-03-22T10:23:04.622Z</time></trkpt><trkpt lat="43.1844914" lon="12.3692942"><ele>621.2</ele><time>2026-03-22T10:23:06.622Z</time></trkpt><trkpt lat="43.1845081" lon="12.3694395"><ele>622.0</ele><time>2026-03-22T10:23:08.623Z</time></trkpt><trkpt lat="43.1845227" lon="12.3695904"><ele>622.0</ele><time>2026-03-22T10:23:10.623Z</time></trkpt><trkpt lat="43.1845389" lon="12.3696846"><ele>622.0</ele><time>2026-03-22T10:23:11.623Z</time></trkpt><trkpt lat="43.1845667" lon="12.369769"><ele>622.0</ele><time>2026-03-22T10:23:12.623Z</time></trkpt><trkpt lat="43.1845996" lon="12.3698427"><ele>622.0</ele><time>2026-03-22T10:23:13.623Z</time></trkpt><trkpt lat="43.1846436" lon="12.3699865"><ele>622.0</ele><time>2026-03-22T10:23:15.623Z</time></trkpt><trkpt lat="43.1847079" lon="12.3700892"><ele>622.0</ele><time>2026-03-22T10:23:17.623Z</time></trkpt><trkpt lat="43.1847137" lon="12.3702005"><ele>622.4285714285714</ele><time>2026-03-22T10:23:19.622Z</time></trkpt><trkpt lat="43.1847267" lon="12.3702884"><ele>622.8571428571429</ele><time>2026-03-22T10:23:21.623Z</time></trkpt><trkpt lat="43.1847912" lon="12.3702736"><ele>623.2857142857143</ele><time>2026-03-22T10:23:26.622Z</time></trkpt><trkpt lat="43.1848119" lon="12.370177"><ele>623.7142857142858</ele><time>2026-03-22T10:23:28.623Z</time></trkpt><trkpt lat="43.1848238" lon="12.3700817"><ele>624.1428571428571</ele><time>2026-03-22T10:23:30.622Z</time></trkpt><trkpt lat="43.1848419" lon="12.3699899"><ele>624.5714285714287</ele><time>2026-03-22T10:23:31.623Z</time></trkpt><trkpt lat="43.1848523" lon="12.3698532"><ele>625.0</ele><time>2026-03-22T10:23:33.622Z</time></trkpt><trkpt lat="43.1848867" lon="12.3697002"><ele>622.8571428571429</ele><time>2026-03-22T10:23:35.622Z</time></trkpt><trkpt lat="43.1849151" lon="12.3696201"><ele>620.7142857142858</ele><time>2026-03-22T10:23:36.623Z</time></trkpt><trkpt lat="43.184954" lon="12.3695394"><ele>618.5714285714287</ele><time>2026-03-22T10:23:38.622Z</time></trkpt><trkpt lat="43.1849916" lon="12.3694381"><ele>616.4285714285714</ele><time>2026-03-22T10:23:40.623Z</time></trkpt><trkpt lat="43.1850675" lon="12.3694486"><ele>614.2857142857142</ele><time>2026-03-22T10:23:43.622Z</time></trkpt><trkpt lat="43.1851202" lon="12.369512"><ele>612.1428571428572</ele><time>2026-03-22T10:23:45.623Z</time></trkpt><trkpt lat="43.1851799" lon="12.3695561"><ele>610.0</ele><time>2026-03-22T10:23:47.622Z</time></trkpt><trkpt lat="43.1852394" lon="12.3696317"><ele>609.3333333333334</ele><time>2026-03-22T10:23:49.623Z</time></trkpt><trkpt lat="43.1852711" lon="12.3697262"><ele>608.6666666666667</ele><time>2026-03-22T10:23:51.622Z</time></trkpt><trkpt lat="43.1852928" lon="12.3698435"><ele>608.0</ele><time>2026-03-22T10:23:53.622Z</time></trkpt><trkpt lat="43.1852957" lon="12.3699593"><ele>607.3333333333334</ele><time>2026-03-22T10:23:55.623Z</time></trkpt><trkpt lat="43.1853236" lon="12.3700488"><ele>606.6666666666666</ele><time>2026-03-22T10:23:57.622Z</time></trkpt><trkpt lat="43.1853568" lon="12.3701674"><ele>606.0</ele><time>2026-03-22T10:24:00.622Z</time></trkpt><trkpt lat="43.185391" lon="12.3702501"><ele>606.0</ele><time>2026-03-22T10:24:02.623Z</time></trkpt><trkpt lat="43.1854399" lon="12.3703479"><ele>606.0</ele><time>2026-03-22T10:24:05.623Z</time></trkpt><trkpt lat="43.1854854" lon="12.3704856"><ele>606.0</ele><time>2026-03-22T10:24:08.622Z</time></trkpt><trkpt lat="43.1855204" lon="12.3705935"><ele>606.0</ele><time>2026-03-22T10:24:09.623Z</time></trkpt><trkpt lat="43.1855462" lon="12.3707314"><ele>606.0</ele><time>2026-03-22T10:24:11.623Z</time></trkpt><trkpt lat="43.1855753" lon="12.3708389"><ele>605.3333333333334</ele><time>2026-03-22T10:24:13.623Z</time></trkpt><trkpt lat="43.185594" lon="12.3709238"><ele>604.6666666666666</ele><time>2026-03-22T10:24:15.622Z</time></trkpt><trkpt lat="43.1856128" lon="12.3710124"><ele>604.0</ele><time>2026-03-22T10:24:17.623Z</time></trkpt><trkpt lat="43.185626" lon="12.3711275"><ele>603.3333333333333</ele><time>2026-03-22T10:24:19.622Z</time></trkpt><trkpt lat="43.1856233" lon="12.3712446"><ele>602.6666666666666</ele><time>2026-03-22T10:24:21.622Z</time></trkpt><trkpt lat="43.1856188" lon="12.3713658"><ele>602.0</ele><time>2026-03-22T10:24:23.622Z</time></trkpt><trkpt lat="43.1856291" lon="12.3714812"><ele>601.0</ele><time>2026-03-22T10:24:25.623Z</time></trkpt><trkpt lat="43.1856384" lon="12.3716057"><ele>600.0</ele><time>2026-03-22T10:24:27.622Z</time></trkpt><trkpt lat="43.1856542" lon="12.3717246"><ele>599.0</ele><time>2026-03-22T10:24:29.622Z</time></trkpt><trkpt lat="43.1856668" lon="12.3718457"><ele>598.0</ele><time>2026-03-22T10:24:31.622Z</time></trkpt><trkpt lat="43.1856552" lon="12.3719786"><ele>597.0</ele><time>2026-03-22T10:24:33.623Z</time></trkpt><trkpt lat="43.1856119" lon="12.3721369"><ele>596.6666666666666</ele><time>2026-03-22T10:24:35.623Z</time></trkpt><trkpt lat="43.1856049" lon="12.3722843"><ele>596.3333333333334</ele><time>2026-03-22T10:24:37.622Z</time></trkpt><trkpt lat="43.1856141" lon="12.3724083"><ele>596.0</ele><time>2026-03-22T10:24:39.622Z</time></trkpt><trkpt lat="43.1856787" lon="12.3724969"><ele>595.6666666666667</ele><time>2026-03-22T10:24:42.622Z</time></trkpt><trkpt lat="43.185733" lon="12.3725755"><ele>595.3333333333334</ele><time>2026-03-22T10:24:47.622Z</time></trkpt><trkpt lat="43.1857809" lon="12.3726463"><ele>595.0</ele><time>2026-03-22T10:24:50.623Z</time></trkpt><trkpt lat="43.185837" lon="12.3727325"><ele>591.6</ele><time>2026-03-22T10:24:53.623Z</time></trkpt><trkpt lat="43.1858667" lon="12.3728355"><ele>588.2</ele><time>2026-03-22T10:24:55.622Z</time></trkpt><trkpt lat="43.1859271" lon="12.372958"><ele>584.8</ele><time>2026-03-22T10:24:57.622Z</time></trkpt><trkpt lat="43.1859315" lon="12.3730615"><ele>581.4</ele><time>2026-03-22T10:24:59.622Z</time></trkpt><trkpt lat="43.1859826" lon="12.3731797"><ele>578.0</ele><time>2026-03-22T10:25:01.622Z</time></trkpt><trkpt lat="43.1859967" lon="12.3733049"><ele>578.0</ele><time>2026-03-22T10:25:03.623Z</time></trkpt><trkpt lat="43.1860562" lon="12.3734227"><ele>578.0</ele><time>2026-03-22T10:25:05.623Z</time></trkpt><trkpt lat="43.1860945" lon="12.373524"><ele>578.0</ele><time>2026-03-22T10:25:07.622Z</time></trkpt><trkpt lat="43.186128" lon="12.3736413"><ele>578.0</ele><time>2026-03-22T10:25:09.622Z</time></trkpt><trkpt lat="43.1861707" lon="12.3737641"><ele>578.0</ele><time>2026-03-22T10:25:11.622Z</time></trkpt><trkpt lat="43.186218" lon="12.3738939"><ele>579.1999999999999</ele><time>2026-03-22T10:25:13.622Z</time></trkpt><trkpt lat="43.1862722" lon="12.3740045"><ele>580.4</ele><time>2026-03-22T10:25:15.623Z</time></trkpt><trkpt lat="43.1863111" lon="12.3740871"><ele>581.5999999999999</ele><time>2026-03-22T10:25:16.623Z</time></trkpt><trkpt lat="43.1863473" lon="12.3742162"><ele>582.8</ele><time>2026-03-22T10:25:18.623Z</time></trkpt><trkpt lat="43.1864163" lon="12.3743549"><ele>584.0</ele><time>2026-03-22T10:25:20.622Z</time></trkpt><trkpt lat="43.1864574" lon="12.3744814"><ele>584.0</ele><time>2026-03-22T10:25:22.623Z</time></trkpt><trkpt lat="43.1865013" lon="12.3745985"><ele>584.0</ele><time>2026-03-22T10:25:24.622Z</time></trkpt><trkpt lat="43.1865482" lon="12.3747005"><ele>584.0</ele><time>2026-03-22T10:25:26.623Z</time></trkpt><trkpt lat="43.1866007" lon="12.3747949"><ele>584.0</ele><time>2026-03-22T10:25:28.622Z</time></trkpt><trkpt lat="43.1866347" lon="12.3749093"><ele>584.0</ele><time>2026-03-22T10:25:30.622Z</time></trkpt><trkpt lat="43.1866585" lon="12.3750378"><ele>578.2</ele><time>2026-03-22T10:25:32.623Z</time></trkpt><trkpt lat="43.1866466" lon="12.3751682"><ele>572.4</ele><time>2026-03-22T10:25:34.623Z</time></trkpt><trkpt lat="43.1866567" lon="12.3753173"><ele>566.6</ele><time>2026-03-22T10:25:36.623Z</time></trkpt><trkpt lat="43.1866703" lon="12.3754571"><ele>560.8</ele><time>2026-03-22T10:25:38.622Z</time></trkpt><trkpt lat="43.1866726" lon="12.3755854"><ele>555.0</ele><time>2026-03-22T10:25:40.622Z</time></trkpt><trkpt lat="43.1866987" lon="12.3757296"><ele>554.8</ele><time>2026-03-22T10:25:42.623Z</time></trkpt><trkpt lat="43.1867578" lon="12.3758782"><ele>554.6</ele><time>2026-03-22T10:25:44.623Z</time></trkpt><trkpt lat="43.1868011" lon="12.3760341"><ele>554.4</ele><time>2026-03-22T10:25:46.622Z</time></trkpt><trkpt lat="43.1868113" lon="12.3761256"><ele>554.2</ele><time>2026-03-22T10:25:47.623Z</time></trkpt><trkpt lat="43.1868375" lon="12.3762675"><ele>554.0</ele><time>2026-03-22T10:25:49.623Z</time></trkpt><trkpt lat="43.1868944" lon="12.3764362"><ele>554.3333333333333</ele><time>2026-03-22T10:25:51.623Z</time></trkpt><trkpt lat="43.186912" lon="12.3765224"><ele>554.6666666666666</ele><time>2026-03-22T10:25:52.622Z</time></trkpt><trkpt lat="43.1869239" lon="12.3766091"><ele>555.0</ele><time>2026-03-22T10:25:53.622Z</time></trkpt><trkpt lat="43.1869454" lon="12.3767121"><ele>555.3333333333334</ele><time>2026-03-22T10:25:54.622Z</time></trkpt><trkpt lat="43.1869611" lon="12.3768028"><ele>555.6666666666667</ele><time>2026-03-22T10:25:55.622Z</time></trkpt><trkpt lat="43.1870103" lon="12.3769367"><ele>556.0</ele><time>2026-03-22T10:25:57.622Z</time></trkpt><trkpt lat="43.1870487" lon="12.3770384"><ele>556.0</ele><time>2026-03-22T10:25:59.623Z</time></trkpt><trkpt lat="43.1870852" lon="12.3771624"><ele>556.0</ele><time>2026-03-22T10:26:01.623Z</time></trkpt><trkpt lat="43.1870714" lon="12.3772943"><ele>556.0</ele><time>2026-03-22T10:26:03.623Z</time></trkpt><trkpt lat="43.1870792" lon="12.3774027"><ele>556.0</ele><time>2026-03-22T10:26:05.623Z</time></trkpt><trkpt lat="43.1871106" lon="12.3775262"><ele>556.0</ele><time>2026-03-22T10:26:08.623Z</time></trkpt><trkpt lat="43.1871116" lon="12.3776194"><ele>556.0</ele><time>2026-03-22T10:26:10.623Z</time></trkpt><trkpt lat="43.1871131" lon="12.3777079"><ele>555.6666666666667</ele><time>2026-03-22T10:26:12.623Z</time></trkpt><trkpt lat="43.1871234" lon="12.3777994"><ele>555.3333333333334</ele><time>2026-03-22T10:26:14.622Z</time></trkpt><trkpt lat="43.1871387" lon="12.3778958"><ele>555.0</ele><time>2026-03-22T10:26:16.622Z</time></trkpt><trkpt lat="43.1871297" lon="12.3780218"><ele>554.6666666666666</ele><time>2026-03-22T10:26:19.622Z</time></trkpt><trkpt lat="43.1870961" lon="12.3781182"><ele>554.3333333333333</ele><time>2026-03-22T10:26:21.623Z</time></trkpt><trkpt lat="43.1870744" lon="12.3782167"><ele>554.0</ele><time>2026-03-22T10:26:23.623Z</time></trkpt><trkpt lat="43.1870641" lon="12.3783178"><ele>551.8333333333333</ele><time>2026-03-22T10:26:26.623Z</time></trkpt><trkpt lat="43.187018" lon="12.3783895"><ele>549.6666666666666</ele><time>2026-03-22T10:26:46.622Z</time></trkpt><trkpt lat="43.1869846" lon="12.3784672"><ele>547.5</ele><time>2026-03-22T10:26:49.622Z</time></trkpt><trkpt lat="43.1869425" lon="12.3785509"><ele>545.3333333333334</ele><time>2026-03-22T10:26:51.623Z</time></trkpt><trkpt lat="43.1868911" lon="12.378636"><ele>543.1666666666667</ele><time>2026-03-22T10:26:52.622Z</time></trkpt><trkpt lat="43.1868475" lon="12.3786993"><ele>541.0</ele><time>2026-03-22T10:26:53.623Z</time></trkpt><trkpt lat="43.1867626" lon="12.3788001"><ele>539.6</ele><time>2026-03-22T10:26:55.622Z</time></trkpt><trkpt lat="43.1866674" lon="12.3788938"><ele>538.2</ele><time>2026-03-22T10:26:57.623Z</time></trkpt><trkpt lat="43.1866158" lon="12.3789442"><ele>536.8</ele><time>2026-03-22T10:26:58.623Z</time></trkpt><trkpt lat="43.1865161" lon="12.3790242"><ele>535.4</ele><time>2026-03-22T10:27:00.622Z</time></trkpt><trkpt lat="43.1864271" lon="12.379081"><ele>534.0</ele><time>2026-03-22T10:27:02.623Z</time></trkpt><trkpt lat="43.1863327" lon="12.3791558"><ele>534.0</ele><time>2026-03-22T10:27:04.623Z</time></trkpt><trkpt lat="43.1862281" lon="12.3792361"><ele>534.0</ele><time>2026-03-22T10:27:06.623Z</time></trkpt><trkpt lat="43.1861695" lon="12.3792737"><ele>534.0</ele><time>2026-03-22T10:27:07.623Z</time></trkpt><trkpt lat="43.1861095" lon="12.3793253"><ele>534.0</ele><time>2026-03-22T10:27:08.623Z</time></trkpt><trkpt lat="43.1860459" lon="12.3793632"><ele>534.0</ele><time>2026-03-22T10:27:09.622Z</time></trkpt><trkpt lat="43.1859738" lon="12.3794036"><ele>534.0</ele><time>2026-03-22T10:27:10.622Z</time></trkpt><trkpt lat="43.1859047" lon="12.3794372"><ele>534.0000000000001</ele><time>2026-03-22T10:27:11.623Z</time></trkpt><trkpt lat="43.1858349" lon="12.3794652"><ele>534.0</ele><time>2026-03-22T10:27:12.623Z</time></trkpt><trkpt lat="43.185763" lon="12.3794901"><ele>534.0</ele><time>2026-03-22T10:27:13.622Z</time></trkpt><trkpt lat="43.1856912" lon="12.3795105"><ele>534.0</ele><time>2026-03-22T10:27:14.622Z</time></trkpt><trkpt lat="43.1856199" lon="12.3795355"><ele>534.0</ele><time>2026-03-22T10:27:15.623Z</time></trkpt><trkpt lat="43.1855484" lon="12.3795593"><ele>534.0000000000001</ele><time>2026-03-22T10:27:16.623Z</time></trkpt><trkpt lat="43.1854731" lon="12.3795882"><ele>534.0</ele><time>2026-03-22T10:27:17.622Z</time></trkpt><trkpt lat="43.1853973" lon="12.3796148"><ele>533.0</ele><time>2026-03-22T10:27:18.622Z</time></trkpt><trkpt lat="43.1853154" lon="12.3796403"><ele>532.0</ele><time>2026-03-22T10:27:19.622Z</time></trkpt><trkpt lat="43.1852316" lon="12.3796609"><ele>531.0</ele><time>2026-03-22T10:27:20.622Z</time></trkpt><trkpt lat="43.1851471" lon="12.3796752"><ele>530.0</ele><time>2026-03-22T10:27:21.623Z</time></trkpt><trkpt lat="43.1850645" lon="12.379678"><ele>529.0</ele><time>2026-03-22T10:27:22.623Z</time></trkpt><trkpt lat="43.1849798" lon="12.3796687"><ele>528.0</ele><time>2026-03-22T10:27:23.623Z</time></trkpt><trkpt lat="43.1848947" lon="12.3796345"><ele>522.0</ele><time>2026-03-22T10:27:24.623Z</time></trkpt><trkpt lat="43.1848118" lon="12.3795734"><ele>516.0</ele><time>2026-03-22T10:27:25.622Z</time></trkpt><trkpt lat="43.1847456" lon="12.3794835"><ele>509.99999999999994</ele><time>2026-03-22T10:27:26.622Z</time></trkpt><trkpt lat="43.1846888" lon="12.37938"><ele>504.0</ele><time>2026-03-22T10:27:27.623Z</time></trkpt><trkpt lat="43.1846352" lon="12.3792723"><ele>498.0</ele><time>2026-03-22T10:27:28.622Z</time></trkpt><trkpt lat="43.1845859" lon="12.3791671"><ele>498.0</ele><time>2026-03-22T10:27:29.622Z</time></trkpt><trkpt lat="43.1845387" lon="12.3790619"><ele>497.99999999999994</ele><time>2026-03-22T10:27:30.623Z</time></trkpt><trkpt lat="43.184489" lon="12.3789478"><ele>497.99999999999994</ele><time>2026-03-22T10:27:31.623Z</time></trkpt><trkpt lat="43.1844378" lon="12.3788351"><ele>498.0</ele><time>2026-03-22T10:27:32.623Z</time></trkpt><trkpt lat="43.1843886" lon="12.3787222"><ele>498.0</ele><time>2026-03-22T10:27:33.623Z</time></trkpt><trkpt lat="43.1843399" lon="12.3786062"><ele>500.2</ele><time>2026-03-22T10:27:34.623Z</time></trkpt><trkpt lat="43.1842884" lon="12.3784933"><ele>502.4</ele><time>2026-03-22T10:27:35.622Z</time></trkpt><trkpt lat="43.184236" lon="12.3783811"><ele>504.59999999999997</ele><time>2026-03-22T10:27:36.623Z</time></trkpt><trkpt lat="43.184185" lon="12.3782714"><ele>506.79999999999995</ele><time>2026-03-22T10:27:37.622Z</time></trkpt><trkpt lat="43.184132" lon="12.3781565"><ele>509.0</ele><time>2026-03-22T10:27:38.623Z</time></trkpt><trkpt lat="43.1840843" lon="12.3780426"><ele>510.49999999999994</ele><time>2026-03-22T10:27:39.622Z</time></trkpt><trkpt lat="43.1840347" lon="12.377925"><ele>512.0</ele><time>2026-03-22T10:27:40.622Z</time></trkpt><trkpt lat="43.1839824" lon="12.3778022"><ele>513.5</ele><time>2026-03-22T10:27:41.622Z</time></trkpt><trkpt lat="43.1839388" lon="12.3776889"><ele>515.0</ele><time>2026-03-22T10:27:42.623Z</time></trkpt><trkpt lat="43.1839035" lon="12.3775901"><ele>516.5</ele><time>2026-03-22T10:27:43.623Z</time></trkpt><trkpt lat="43.1838668" lon="12.3775048"><ele>518.0</ele><time>2026-03-22T10:27:44.623Z</time></trkpt><trkpt lat="43.1838321" lon="12.3774261"><ele>515.0</ele><time>2026-03-22T10:27:45.622Z</time></trkpt><trkpt lat="43.1837779" lon="12.3772867"><ele>511.99999999999994</ele><time>2026-03-22T10:27:47.622Z</time></trkpt><trkpt lat="43.183683" lon="12.3772543"><ele>508.99999999999994</ele><time>2026-03-22T10:27:49.622Z</time></trkpt><trkpt lat="43.1835987" lon="12.3772268"><ele>506.0</ele><time>2026-03-22T10:27:51.623Z</time></trkpt><trkpt lat="43.1835225" lon="12.3771467"><ele>503.0</ele><time>2026-03-22T10:27:53.623Z</time></trkpt><trkpt lat="43.1834526" lon="12.377068"><ele>502.99999999999994</ele><time>2026-03-22T10:27:55.623Z</time></trkpt><trkpt lat="43.1833745" lon="12.3770283"><ele>503.0</ele><time>2026-03-22T10:27:57.622Z</time></trkpt><trkpt lat="43.1833031" lon="12.3769517"><ele>503.0</ele><time>2026-03-22T10:27:59.622Z</time></trkpt><trkpt lat="43.1832395" lon="12.3768686"><ele>503.0</ele><time>2026-03-22T10:28:01.623Z</time></trkpt><trkpt lat="43.1831891" lon="12.3767825"><ele>502.99999999999994</ele><time>2026-03-22T10:28:03.623Z</time></trkpt><trkpt lat="43.1831193" lon="12.3766913"><ele>503.0</ele><time>2026-03-22T10:28:05.623Z</time></trkpt><trkpt lat="43.1830537" lon="12.3765736"><ele>500.75</ele><time>2026-03-22T10:28:07.622Z</time></trkpt><trkpt lat="43.1829775" lon="12.3764622"><ele>498.5</ele><time>2026-03-22T10:28:09.623Z</time></trkpt><trkpt lat="43.1829125" lon="12.3763401"><ele>496.25</ele><time>2026-03-22T10:28:11.623Z</time></trkpt><trkpt lat="43.1828353" lon="12.376213"><ele>494.0</ele><time>2026-03-22T10:28:13.622Z</time></trkpt><trkpt lat="43.182759" lon="12.376076"><ele>493.66666666666663</ele><time>2026-03-22T10:28:15.622Z</time></trkpt><trkpt lat="43.1827167" lon="12.3760066"><ele>493.3333333333333</ele><time>2026-03-22T10:28:16.623Z</time></trkpt><trkpt lat="43.1826832" lon="12.3759275"><ele>493.0</ele><time>2026-03-22T10:28:17.622Z</time></trkpt><trkpt lat="43.1826476" lon="12.3758528"><ele>492.66666666666663</ele><time>2026-03-22T10:28:18.622Z</time></trkpt><trkpt lat="43.1825856" lon="12.3757056"><ele>492.3333333333333</ele><time>2026-03-22T10:28:20.623Z</time></trkpt><trkpt lat="43.1825173" lon="12.3755693"><ele>492.0</ele><time>2026-03-22T10:28:22.623Z</time></trkpt><trkpt lat="43.1824298" lon="12.3754446"><ele>492.8571428571429</ele><time>2026-03-22T10:28:24.623Z</time></trkpt><trkpt lat="43.1823788" lon="12.3753808"><ele>493.7142857142857</ele><time>2026-03-22T10:28:25.622Z</time></trkpt><trkpt lat="43.1823207" lon="12.3753283"><ele>494.57142857142856</ele><time>2026-03-22T10:28:26.622Z</time></trkpt><trkpt lat="43.182258" lon="12.3753036"><ele>495.42857142857144</ele><time>2026-03-22T10:28:27.623Z</time></trkpt><trkpt lat="43.1821428" lon="12.375282"><ele>496.2857142857142</ele><time>2026-03-22T10:28:29.622Z</time></trkpt><trkpt lat="43.182084" lon="12.3752428"><ele>497.1428571428571</ele><time>2026-03-22T10:28:31.623Z</time></trkpt><trkpt lat="43.1821283" lon="12.3751807"><ele>498.0</ele><time>2026-03-22T10:28:38.623Z</time></trkpt><trkpt lat="43.1821528" lon="12.3750956"><ele>495.8333333333333</ele><time>2026-03-22T10:28:42.623Z</time></trkpt><trkpt lat="43.1821565" lon="12.3750024"><ele>493.66666666666663</ele><time>2026-03-22T10:28:45.623Z</time></trkpt><trkpt lat="43.1821569" lon="12.3749085"><ele>491.5</ele><time>2026-03-22T10:28:47.622Z</time></trkpt><trkpt lat="43.182134" lon="12.3748259"><ele>489.3333333333333</ele><time>2026-03-22T10:28:49.622Z</time></trkpt><trkpt lat="43.182084" lon="12.3747287"><ele>487.16666666666663</ele><time>2026-03-22T10:28:52.623Z</time></trkpt><trkpt lat="43.182039" lon="12.3746348"><ele>485.0</ele><time>2026-03-22T10:28:55.622Z</time></trkpt><trkpt lat="43.1819896" lon="12.3745277"><ele>485.00000000000006</ele><time>2026-03-22T10:28:58.622Z</time></trkpt><trkpt lat="43.1819504" lon="12.374457"><ele>485.0</ele><time>2026-03-22T10:29:00.623Z</time></trkpt><trkpt lat="43.1819034" lon="12.3743919"><ele>485.00000000000006</ele><time>2026-03-22T10:29:02.622Z</time></trkpt><trkpt lat="43.1818597" lon="12.374321"><ele>485.00000000000006</ele><time>2026-03-22T10:29:04.623Z</time></trkpt><trkpt lat="43.1818159" lon="12.3742443"><ele>485.0</ele><time>2026-03-22T10:29:06.622Z</time></trkpt><trkpt lat="43.1817714" lon="12.3741654"><ele>485.00000000000006</ele><time>2026-03-22T10:29:08.623Z</time></trkpt><trkpt lat="43.1817294" lon="12.374084"><ele>485.00000000000006</ele><time>2026-03-22T10:29:10.623Z</time></trkpt><trkpt lat="43.1816804" lon="12.3739982"><ele>484.99999999999994</ele><time>2026-03-22T10:29:12.622Z</time></trkpt><trkpt lat="43.1816276" lon="12.373907"><ele>485.0</ele><time>2026-03-22T10:29:14.622Z</time></trkpt><trkpt lat="43.1815799" lon="12.3738194"><ele>485.0</ele><time>2026-03-22T10:29:16.622Z</time></trkpt><trkpt lat="43.1815301" lon="12.3737243"><ele>485.0</ele><time>2026-03-22T10:29:18.623Z</time></trkpt><trkpt lat="43.1814847" lon="12.3736292"><ele>484.99999999999994</ele><time>2026-03-22T10:29:20.623Z</time></trkpt><trkpt lat="43.1814437" lon="12.3735198"><ele>485.0</ele><time>2026-03-22T10:29:22.622Z</time></trkpt><trkpt lat="43.1814039" lon="12.3734142"><ele>484.99999999999994</ele><time>2026-03-22T10:29:24.622Z</time></trkpt><trkpt lat="43.1813705" lon="12.373305"><ele>485.0</ele><time>2026-03-22T10:29:26.623Z</time></trkpt><trkpt lat="43.1813415" lon="12.3731899"><ele>485.0</ele><time>2026-03-22T10:29:28.623Z</time></trkpt><trkpt lat="43.1813053" lon="12.3730815"><ele>485.0</ele><time>2026-03-22T10:29:30.623Z</time></trkpt><trkpt lat="43.1812701" lon="12.3729733"><ele>484.99999999999994</ele><time>2026-03-22T10:29:32.623Z</time></trkpt><trkpt lat="43.1812342" lon="12.3728705"><ele>485.0</ele><time>2026-03-22T10:29:34.622Z</time></trkpt><trkpt lat="43.1812017" lon="12.3727711"><ele>484.99999999999994</ele><time>2026-03-22T10:29:36.623Z</time></trkpt><trkpt lat="43.1811713" lon="12.3726732"><ele>485.0</ele><time>2026-03-22T10:29:38.623Z</time></trkpt><trkpt lat="43.1811263" lon="12.3725947"><ele>485.0</ele><time>2026-03-22T10:29:40.623Z</time></trkpt><trkpt lat="43.1810726" lon="12.3725232"><ele>485.0</ele><time>2026-03-22T10:29:42.622Z</time></trkpt><trkpt lat="43.1810239" lon="12.3724548"><ele>484.99999999999994</ele><time>2026-03-22T10:29:44.623Z</time></trkpt><trkpt lat="43.1809468" lon="12.3723891"><ele>485.0</ele><time>2026-03-22T10:29:47.623Z</time></trkpt><trkpt lat="43.1808761" lon="12.3723311"><ele>485.00000000000006</ele><time>2026-03-22T10:29:50.623Z</time></trkpt><trkpt lat="43.18083" lon="12.3722705"><ele>485.0</ele><time>2026-03-22T10:29:52.623Z</time></trkpt><trkpt lat="43.1807764" lon="12.3721999"><ele>485.00000000000006</ele><time>2026-03-22T10:29:54.623Z</time></trkpt><trkpt lat="43.1807218" lon="12.3721272"><ele>485.00000000000006</ele><time>2026-03-22T10:29:56.622Z</time></trkpt><trkpt lat="43.1806704" lon="12.3720536"><ele>485.0</ele><time>2026-03-22T10:29:58.622Z</time></trkpt><trkpt lat="43.1806246" lon="12.3719771"><ele>485.00000000000006</ele><time>2026-03-22T10:30:00.622Z</time></trkpt><trkpt lat="43.1805847" lon="12.3718885"><ele>485.00000000000006</ele><time>2026-03-22T10:30:02.623Z</time></trkpt><trkpt lat="43.1805486" lon="12.3717779"><ele>482.6</ele><time>2026-03-22T10:30:04.622Z</time></trkpt><trkpt lat="43.1805061" lon="12.3716567"><ele>480.2</ele><time>2026-03-22T10:30:06.622Z</time></trkpt><trkpt lat="43.1804725" lon="12.3715251"><ele>477.79999999999995</ele><time>2026-03-22T10:30:08.623Z</time></trkpt><trkpt lat="43.1804433" lon="12.3713894"><ele>475.4</ele><time>2026-03-22T10:30:10.622Z</time></trkpt><trkpt lat="43.1804223" lon="12.3712302"><ele>473.0</ele><time>2026-03-22T10:30:12.623Z</time></trkpt><trkpt lat="43.1804222" lon="12.3711433"><ele>473.0</ele><time>2026-03-22T10:30:13.622Z</time></trkpt><trkpt lat="43.180411" lon="12.3710582"><ele>472.99999999999994</ele><time>2026-03-22T10:30:14.623Z</time></trkpt><trkpt lat="43.1804039" lon="12.3709699"><ele>472.99999999999994</ele><time>2026-03-22T10:30:15.622Z</time></trkpt><trkpt lat="43.1803929" lon="12.3707914"><ele>473.0</ele><time>2026-03-22T10:30:17.622Z</time></trkpt><trkpt lat="43.1803709" lon="12.3706329"><ele>473.0</ele><time>2026-03-22T10:30:19.622Z</time></trkpt><trkpt lat="43.1803587" lon="12.3704885"><ele>473.59999999999997</ele><time>2026-03-22T10:30:21.622Z</time></trkpt><trkpt lat="43.180345" lon="12.3703511"><ele>474.19999999999993</ele><time>2026-03-22T10:30:23.623Z</time></trkpt><trkpt lat="43.1803312" lon="12.3702555"><ele>474.8</ele><time>2026-03-22T10:30:25.622Z</time></trkpt><trkpt lat="43.1803052" lon="12.3701382"><ele>475.4</ele><time>2026-03-22T10:30:27.623Z</time></trkpt><trkpt lat="43.180277" lon="12.3700052"><ele>476.0</ele><time>2026-03-22T10:30:29.623Z</time></trkpt><trkpt lat="43.1802471" lon="12.3698431"><ele>476.0</ele><time>2026-03-22T10:30:31.623Z</time></trkpt><trkpt lat="43.1802376" lon="12.3697526"><ele>476.0</ele><time>2026-03-22T10:30:32.623Z</time></trkpt><trkpt lat="43.1802255" lon="12.3696666"><ele>476.0</ele><time>2026-03-22T10:30:33.622Z</time></trkpt><trkpt lat="43.1802139" lon="12.3695786"><ele>476.0</ele><time>2026-03-22T10:30:34.622Z</time></trkpt><trkpt lat="43.180195" lon="12.3694934"><ele>476.0</ele><time>2026-03-22T10:30:35.622Z</time></trkpt><trkpt lat="43.1801776" lon="12.3694014"><ele>476.0</ele><time>2026-03-22T10:30:36.623Z</time></trkpt><trkpt lat="43.180162" lon="12.3693128"><ele>476.0</ele><time>2026-03-22T10:30:37.622Z</time></trkpt><trkpt lat="43.1801464" lon="12.3692256"><ele>477.5</ele><time>2026-03-22T10:30:38.622Z</time></trkpt><trkpt lat="43.1801047" lon="12.369059"><ele>479.0</ele><time>2026-03-22T10:30:40.623Z</time></trkpt><trkpt lat="43.1800511" lon="12.3689139"><ele>480.5</ele><time>2026-03-22T10:30:42.623Z</time></trkpt><trkpt lat="43.179976" lon="12.3688114"><ele>482.0</ele><time>2026-03-22T10:30:44.623Z</time></trkpt><trkpt lat="43.1798794" lon="12.3687513"><ele>480.8571428571429</ele><time>2026-03-22T10:30:46.623Z</time></trkpt><trkpt lat="43.1797933" lon="12.368725"><ele>479.7142857142858</ele><time>2026-03-22T10:30:48.623Z</time></trkpt><trkpt lat="43.1797222" lon="12.3686994"><ele>478.57142857142856</ele><time>2026-03-22T10:30:50.623Z</time></trkpt><trkpt lat="43.1796709" lon="12.3686402"><ele>477.42857142857144</ele><time>2026-03-22T10:30:52.623Z</time></trkpt><trkpt lat="43.1796342" lon="12.3685577"><ele>476.2857142857143</ele><time>2026-03-22T10:30:54.622Z</time></trkpt><trkpt lat="43.1795911" lon="12.3684783"><ele>475.1428571428571</ele><time>2026-03-22T10:30:56.623Z</time></trkpt><trkpt lat="43.1795502" lon="12.3684005"><ele>473.99999999999994</ele><time>2026-03-22T10:30:58.623Z</time></trkpt><trkpt lat="43.1795089" lon="12.3683235"><ele>473.99999999999994</ele><time>2026-03-22T10:31:00.623Z</time></trkpt><trkpt lat="43.1794688" lon="12.3682415"><ele>474.0</ele><time>2026-03-22T10:31:02.622Z</time></trkpt><trkpt lat="43.1794298" lon="12.3681615"><ele>473.99999999999994</ele><time>2026-03-22T10:31:04.623Z</time></trkpt><trkpt lat="43.1793874" lon="12.3680856"><ele>473.99999999999994</ele><time>2026-03-22T10:31:06.622Z</time></trkpt><trkpt lat="43.1793463" lon="12.3680071"><ele>474.0</ele><time>2026-03-22T10:31:08.623Z</time></trkpt><trkpt lat="43.1793161" lon="12.3679244"><ele>473.99999999999994</ele><time>2026-03-22T10:31:10.622Z</time></trkpt><trkpt lat="43.1792942" lon="12.3678418"><ele>473.99999999999994</ele><time>2026-03-22T10:31:12.623Z</time></trkpt><trkpt lat="43.1792684" lon="12.3677458"><ele>474.4</ele><time>2026-03-22T10:31:14.623Z</time></trkpt><trkpt lat="43.1792489" lon="12.367634"><ele>474.79999999999995</ele><time>2026-03-22T10:31:16.622Z</time></trkpt><trkpt lat="43.1792379" lon="12.36751"><ele>475.20000000000005</ele><time>2026-03-22T10:31:18.622Z</time></trkpt><trkpt lat="43.179246" lon="12.3673633"><ele>475.6</ele><time>2026-03-22T10:31:20.623Z</time></trkpt><trkpt lat="43.1792489" lon="12.3672742"><ele>476.0</ele><time>2026-03-22T10:31:21.622Z</time></trkpt><trkpt lat="43.1792384" lon="12.3670891"><ele>475.99999999999994</ele><time>2026-03-22T10:31:23.623Z</time></trkpt><trkpt lat="43.1792254" lon="12.3669828"><ele>476.0</ele><time>2026-03-22T10:31:24.622Z</time></trkpt><trkpt lat="43.1792049" lon="12.3668812"><ele>476.0</ele><time>2026-03-22T10:31:25.623Z</time></trkpt><trkpt lat="43.1791801" lon="12.3667742"><ele>476.0</ele><time>2026-03-22T10:31:26.623Z</time></trkpt><trkpt lat="43.17915" lon="12.3666677"><ele>475.99999999999994</ele><time>2026-03-22T10:31:27.622Z</time></trkpt><trkpt lat="43.1791228" lon="12.3665743"><ele>476.0</ele><time>2026-03-22T10:31:28.622Z</time></trkpt><trkpt lat="43.179095" lon="12.3664796"><ele>475.99999999999994</ele><time>2026-03-22T10:31:29.623Z</time></trkpt><trkpt lat="43.1790662" lon="12.3663935"><ele>476.0</ele><time>2026-03-22T10:31:30.622Z</time></trkpt><trkpt lat="43.1790373" lon="12.3663099"><ele>476.0</ele><time>2026-03-22T10:31:31.622Z</time></trkpt><trkpt lat="43.1789918" lon="12.3661756"><ele>476.0</ele><time>2026-03-22T10:31:33.623Z</time></trkpt><trkpt lat="43.178965" lon="12.3660351"><ele>475.99999999999994</ele><time>2026-03-22T10:31:35.623Z</time></trkpt><trkpt lat="43.1789418" lon="12.365918"><ele>476.0</ele><time>2026-03-22T10:31:37.623Z</time></trkpt><trkpt lat="43.1789081" lon="12.3657853"><ele>474.8</ele><time>2026-03-22T10:31:39.623Z</time></trkpt><trkpt lat="43.1788731" lon="12.3656446"><ele>473.6</ele><time>2026-03-22T10:31:41.622Z</time></trkpt><trkpt lat="43.1788351" lon="12.3655133"><ele>472.4</ele><time>2026-03-22T10:31:43.622Z</time></trkpt><trkpt lat="43.1788063" lon="12.3653902"><ele>471.2</ele><time>2026-03-22T10:31:45.623Z</time></trkpt><trkpt lat="43.1787827" lon="12.3652562"><ele>470.0</ele><time>2026-03-22T10:31:47.622Z</time></trkpt><trkpt lat="43.1787813" lon="12.3651151"><ele>469.6</ele><time>2026-03-22T10:31:49.622Z</time></trkpt><trkpt lat="43.178791" lon="12.364975"><ele>469.2</ele><time>2026-03-22T10:31:51.623Z</time></trkpt><trkpt lat="43.1788009" lon="12.3648387"><ele>468.79999999999995</ele><time>2026-03-22T10:31:53.622Z</time></trkpt><trkpt lat="43.1788158" lon="12.3647081"><ele>468.4</ele><time>2026-03-22T10:31:55.622Z</time></trkpt><trkpt lat="43.1788301" lon="12.3645828"><ele>468.0</ele><time>2026-03-22T10:31:57.623Z</time></trkpt><trkpt lat="43.1788296" lon="12.3644547"><ele>467.3333333333333</ele><time>2026-03-22T10:31:59.622Z</time></trkpt><trkpt lat="43.1788382" lon="12.3643294"><ele>466.66666666666663</ele><time>2026-03-22T10:32:01.623Z</time></trkpt><trkpt lat="43.1788311" lon="12.3642173"><ele>466.0</ele><time>2026-03-22T10:32:03.623Z</time></trkpt><trkpt lat="43.1788222" lon="12.364106"><ele>465.3333333333333</ele><time>2026-03-22T10:32:05.622Z</time></trkpt><trkpt lat="43.1788152" lon="12.3639989"><ele>464.66666666666663</ele><time>2026-03-22T10:32:07.621Z</time></trkpt><trkpt lat="43.1788078" lon="12.3638809"><ele>464.0</ele><time>2026-03-22T10:32:09.623Z</time></trkpt><trkpt lat="43.1788182" lon="12.3637552"><ele>462.79999999999995</ele><time>2026-03-22T10:32:11.622Z</time></trkpt><trkpt lat="43.1788389" lon="12.3636223"><ele>461.59999999999997</ele><time>2026-03-22T10:32:13.623Z</time></trkpt><trkpt lat="43.1788664" lon="12.3634899"><ele>460.4</ele><time>2026-03-22T10:32:15.622Z</time></trkpt><trkpt lat="43.1788981" lon="12.3633653"><ele>459.2</ele><time>2026-03-22T10:32:17.622Z</time></trkpt><trkpt lat="43.1789321" lon="12.3632347"><ele>458.0</ele><time>2026-03-22T10:32:19.623Z</time></trkpt><trkpt lat="43.1789739" lon="12.363095"><ele>456.8333333333333</ele><time>2026-03-22T10:32:21.623Z</time></trkpt><trkpt lat="43.1790162" lon="12.3629476"><ele>455.66666666666663</ele><time>2026-03-22T10:32:23.623Z</time></trkpt><trkpt lat="43.179038" lon="12.3628633"><ele>454.5</ele><time>2026-03-22T10:32:24.623Z</time></trkpt><trkpt lat="43.1790569" lon="12.362779"><ele>453.33333333333337</ele><time>2026-03-22T10:32:25.622Z</time></trkpt><trkpt lat="43.1790756" lon="12.3626884"><ele>452.1666666666667</ele><time>2026-03-22T10:32:26.622Z</time></trkpt><trkpt lat="43.1790947" lon="12.3625933"><ele>451.0</ele><time>2026-03-22T10:32:27.623Z</time></trkpt><trkpt lat="43.1791184" lon="12.3624929"><ele>453.50000000000006</ele><time>2026-03-22T10:32:28.623Z</time></trkpt><trkpt lat="43.1791364" lon="12.362393"><ele>456.0</ele><time>2026-03-22T10:32:29.622Z</time></trkpt><trkpt lat="43.1791542" lon="12.3622809"><ele>458.5</ele><time>2026-03-22T10:32:30.622Z</time></trkpt><trkpt lat="43.1791784" lon="12.3621627"><ele>461.0</ele><time>2026-03-22T10:32:31.622Z</time></trkpt><trkpt lat="43.1792033" lon="12.3620462"><ele>463.50000000000006</ele><time>2026-03-22T10:32:32.623Z</time></trkpt><trkpt lat="43.1792355" lon="12.36193"><ele>466.0</ele><time>2026-03-22T10:32:33.623Z</time></trkpt><trkpt lat="43.1792635" lon="12.3618102"><ele>466.00000000000006</ele><time>2026-03-22T10:32:34.623Z</time></trkpt><trkpt lat="43.1792914" lon="12.3616965"><ele>466.0</ele><time>2026-03-22T10:32:35.623Z</time></trkpt><trkpt lat="43.17932" lon="12.361588"><ele>466.0</ele><time>2026-03-22T10:32:36.623Z</time></trkpt><trkpt lat="43.1793426" lon="12.3614855"><ele>466.0</ele><time>2026-03-22T10:32:37.623Z</time></trkpt><trkpt lat="43.1793639" lon="12.361389"><ele>466.00000000000006</ele><time>2026-03-22T10:32:38.622Z</time></trkpt><trkpt lat="43.1793827" lon="12.3613031"><ele>466.0</ele><time>2026-03-22T10:32:39.622Z</time></trkpt><trkpt lat="43.17941" lon="12.3611451"><ele>466.20000000000005</ele><time>2026-03-22T10:32:41.623Z</time></trkpt><trkpt lat="43.1794314" lon="12.3610077"><ele>466.40000000000003</ele><time>2026-03-22T10:32:43.623Z</time></trkpt><trkpt lat="43.1794558" lon="12.3608784"><ele>466.6</ele><time>2026-03-22T10:32:45.623Z</time></trkpt><trkpt lat="43.1794856" lon="12.3607609"><ele>466.8</ele><time>2026-03-22T10:32:47.622Z</time></trkpt><trkpt lat="43.179519" lon="12.3606736"><ele>467.0</ele><time>2026-03-22T10:32:49.623Z</time></trkpt><trkpt lat="43.179559" lon="12.3605625"><ele>466.3333333333333</ele><time>2026-03-22T10:32:52.622Z</time></trkpt><trkpt lat="43.1795907" lon="12.3604856"><ele>465.66666666666663</ele><time>2026-03-22T10:32:54.622Z</time></trkpt><trkpt lat="43.1796382" lon="12.3604207"><ele>465.0</ele><time>2026-03-22T10:32:56.622Z</time></trkpt><trkpt lat="43.1796856" lon="12.3603307"><ele>464.33333333333337</ele><time>2026-03-22T10:32:59.623Z</time></trkpt><trkpt lat="43.1797419" lon="12.3602308"><ele>463.6666666666667</ele><time>2026-03-22T10:33:02.623Z</time></trkpt><trkpt lat="43.1797908" lon="12.3601606"><ele>463.0</ele><time>2026-03-22T10:33:04.622Z</time></trkpt><trkpt lat="43.179843" lon="12.3600786"><ele>463.83333333333337</ele><time>2026-03-22T10:33:06.622Z</time></trkpt><trkpt lat="43.1798919" lon="12.3600134"><ele>464.6666666666667</ele><time>2026-03-22T10:33:08.623Z</time></trkpt><trkpt lat="43.1799384" lon="12.3599497"><ele>465.5</ele><time>2026-03-22T10:33:10.623Z</time></trkpt><trkpt lat="43.1799953" lon="12.3598616"><ele>466.33333333333337</ele><time>2026-03-22T10:33:13.623Z</time></trkpt><trkpt lat="43.1800501" lon="12.359765"><ele>467.1666666666667</ele><time>2026-03-22T10:33:16.623Z</time></trkpt><trkpt lat="43.1801041" lon="12.3596893"><ele>468.0</ele><time>2026-03-22T10:33:19.622Z</time></trkpt><trkpt lat="43.1801571" lon="12.3596228"><ele>468.0</ele><time>2026-03-22T10:33:22.623Z</time></trkpt><trkpt lat="43.1802091" lon="12.359561"><ele>468.00000000000006</ele><time>2026-03-22T10:33:25.622Z</time></trkpt><trkpt lat="43.1802613" lon="12.3594921"><ele>468.0</ele><time>2026-03-22T10:33:28.622Z</time></trkpt><trkpt lat="43.1803314" lon="12.359426"><ele>468.0</ele><time>2026-03-22T10:33:31.623Z</time></trkpt><trkpt lat="43.1803719" lon="12.3593553"><ele>468.00000000000006</ele><time>2026-03-22T10:33:33.623Z</time></trkpt><trkpt lat="43.1804241" lon="12.3592926"><ele>468.0</ele><time>2026-03-22T10:33:35.623Z</time></trkpt><trkpt lat="43.1804725" lon="12.3592359"><ele>468.0</ele><time>2026-03-22T10:33:37.623Z</time></trkpt><trkpt lat="43.1805452" lon="12.3591632"><ele>468.0</ele><time>2026-03-22T10:33:40.622Z</time></trkpt><trkpt lat="43.1806048" lon="12.3590986"><ele>468.00000000000006</ele><time>2026-03-22T10:33:42.622Z</time></trkpt><trkpt lat="43.180656" lon="12.3590359"><ele>468.0</ele><time>2026-03-22T10:33:44.622Z</time></trkpt><trkpt lat="43.180705" lon="12.3589615"><ele>468.0</ele><time>2026-03-22T10:33:46.622Z</time></trkpt><trkpt lat="43.1807502" lon="12.3588879"><ele>468.00000000000006</ele><time>2026-03-22T10:33:48.622Z</time></trkpt><trkpt lat="43.1807968" lon="12.3588184"><ele>468.0</ele><time>2026-03-22T10:33:50.623Z</time></trkpt><trkpt lat="43.1808426" lon="12.3587447"><ele>468.0</ele><time>2026-03-22T10:33:52.622Z</time></trkpt><trkpt lat="43.1808911" lon="12.3586695"><ele>468.6666666666667</ele><time>2026-03-22T10:33:54.622Z</time></trkpt><trkpt lat="43.1809403" lon="12.3585995"><ele>469.33333333333337</ele><time>2026-03-22T10:33:56.623Z</time></trkpt><trkpt lat="43.1809829" lon="12.3585281"><ele>470.0</ele><time>2026-03-22T10:33:58.622Z</time></trkpt><trkpt lat="43.1810246" lon="12.3584537"><ele>470.6666666666667</ele><time>2026-03-22T10:34:00.622Z</time></trkpt><trkpt lat="43.1810838" lon="12.3583575"><ele>471.33333333333337</ele><time>2026-03-22T10:34:03.623Z</time></trkpt><trkpt lat="43.1811492" lon="12.3583014"><ele>472.0</ele><time>2026-03-22T10:34:06.622Z</time></trkpt><trkpt lat="43.1812339" lon="12.3582925"><ele>472.0</ele><time>2026-03-22T10:34:09.623Z</time></trkpt><trkpt lat="43.1813065" lon="12.3583314"><ele>472.0</ele><time>2026-03-22T10:34:13.623Z</time></trkpt><trkpt lat="43.1813828" lon="12.3583767"><ele>472.0</ele><time>2026-03-22T10:34:17.622Z</time></trkpt><trkpt lat="43.1814549" lon="12.3583918"><ele>472.0</ele><time>2026-03-22T10:34:21.623Z</time></trkpt><trkpt lat="43.1815216" lon="12.3583822"><ele>472.0</ele><time>2026-03-22T10:34:25.622Z</time></trkpt><trkpt lat="43.1815839" lon="12.3583267"><ele>472.0</ele><time>2026-03-22T10:34:30.623Z</time></trkpt><trkpt lat="43.1816428" lon="12.3582884"><ele>472.0</ele><time>2026-03-22T10:34:34.622Z</time></trkpt><trkpt lat="43.1817102" lon="12.3582437"><ele>473.6666666666667</ele><time>2026-03-22T10:34:38.623Z</time></trkpt><trkpt lat="43.1817785" lon="12.3581996"><ele>475.33333333333337</ele><time>2026-03-22T10:34:42.623Z</time></trkpt><trkpt lat="43.1818086" lon="12.3580975"><ele>477.0</ele><time>2026-03-22T10:37:18.623Z</time></trkpt><trkpt lat="43.1818356" lon="12.3580048"><ele>478.66666666666663</ele><time>2026-03-22T10:37:22.623Z</time></trkpt><trkpt lat="43.181866" lon="12.3579216"><ele>480.3333333333333</ele><time>2026-03-22T10:37:25.622Z</time></trkpt><trkpt lat="43.1818967" lon="12.3578286"><ele>482.0</ele><time>2026-03-22T10:37:28.623Z</time></trkpt><trkpt lat="43.1819299" lon="12.3577145"><ele>482.0</ele><time>2026-03-22T10:37:31.622Z</time></trkpt><trkpt lat="43.1819553" lon="12.3576282"><ele>482.00000000000006</ele><time>2026-03-22T10:37:33.622Z</time></trkpt><trkpt lat="43.1819833" lon="12.3575413"><ele>482.0</ele><time>2026-03-22T10:37:35.622Z</time></trkpt><trkpt lat="43.1820126" lon="12.3574546"><ele>482.0</ele><time>2026-03-22T10:37:37.623Z</time></trkpt><trkpt lat="43.182038" lon="12.3573662"><ele>482.00000000000006</ele><time>2026-03-22T10:37:39.622Z</time></trkpt><trkpt lat="43.182062" lon="12.3572819"><ele>482.0</ele><time>2026-03-22T10:37:41.623Z</time></trkpt><trkpt lat="43.1820862" lon="12.357194"><ele>482.0</ele><time>2026-03-22T10:37:43.622Z</time></trkpt><trkpt lat="43.1821081" lon="12.3571037"><ele>481.66666666666663</ele><time>2026-03-22T10:37:45.623Z</time></trkpt><trkpt lat="43.1821351" lon="12.357014"><ele>481.3333333333333</ele><time>2026-03-22T10:37:47.623Z</time></trkpt><trkpt lat="43.1821691" lon="12.3569193"><ele>481.0</ele><time>2026-03-22T10:37:49.622Z</time></trkpt><trkpt lat="43.1822028" lon="12.3568159"><ele>480.66666666666663</ele><time>2026-03-22T10:37:51.622Z</time></trkpt><trkpt lat="43.1822395" lon="12.3567138"><ele>480.3333333333333</ele><time>2026-03-22T10:37:53.622Z</time></trkpt><trkpt lat="43.182288" lon="12.3566292"><ele>480.0</ele><time>2026-03-22T10:37:55.623Z</time></trkpt><trkpt lat="43.1823401" lon="12.356565"><ele>482.6666666666667</ele><time>2026-03-22T10:37:57.623Z</time></trkpt><trkpt lat="43.1824024" lon="12.356473"><ele>485.33333333333337</ele><time>2026-03-22T10:38:00.622Z</time></trkpt><trkpt lat="43.1824261" lon="12.3563837"><ele>488.0</ele><time>2026-03-22T10:38:02.623Z</time></trkpt><trkpt lat="43.1824497" lon="12.3563029"><ele>490.6666666666667</ele><time>2026-03-22T10:38:04.622Z</time></trkpt><trkpt lat="43.1824907" lon="12.3561987"><ele>493.33333333333337</ele><time>2026-03-22T10:38:07.623Z</time></trkpt><trkpt lat="43.1825352" lon="12.3561028"><ele>496.0</ele><time>2026-03-22T10:38:10.623Z</time></trkpt><trkpt lat="43.1825623" lon="12.3560069"><ele>496.14285714285717</ele><time>2026-03-22T10:38:13.622Z</time></trkpt><trkpt lat="43.1825897" lon="12.3559141"><ele>496.28571428571433</ele><time>2026-03-22T10:38:16.623Z</time></trkpt><trkpt lat="43.182627" lon="12.3558254"><ele>496.42857142857144</ele><time>2026-03-22T10:38:19.622Z</time></trkpt><trkpt lat="43.1826678" lon="12.3557371"><ele>496.57142857142856</ele><time>2026-03-22T10:38:22.622Z</time></trkpt><trkpt lat="43.1827119" lon="12.3556501"><ele>496.7142857142857</ele><time>2026-03-22T10:38:25.623Z</time></trkpt><trkpt lat="43.182752" lon="12.3555652"><ele>496.8571428571429</ele><time>2026-03-22T10:38:28.622Z</time></trkpt><trkpt lat="43.1827892" lon="12.3554795"><ele>497.0</ele><time>2026-03-22T10:38:31.623Z</time></trkpt><trkpt lat="43.1828228" lon="12.3553905"><ele>496.66666666666663</ele><time>2026-03-22T10:38:34.623Z</time></trkpt><trkpt lat="43.1828558" lon="12.3552942"><ele>496.3333333333333</ele><time>2026-03-22T10:38:37.622Z</time></trkpt><trkpt lat="43.1828891" lon="12.3551944"><ele>496.0</ele><time>2026-03-22T10:38:40.622Z</time></trkpt><trkpt lat="43.1829252" lon="12.3550866"><ele>495.66666666666663</ele><time>2026-03-22T10:38:43.622Z</time></trkpt><trkpt lat="43.1829561" lon="12.3549888"><ele>495.3333333333333</ele><time>2026-03-22T10:38:46.623Z</time></trkpt><trkpt lat="43.1829805" lon="12.3549066"><ele>495.0</ele><time>2026-03-22T10:38:48.622Z</time></trkpt><trkpt lat="43.1830265" lon="12.3548022"><ele>495.0</ele><time>2026-03-22T10:38:50.623Z</time></trkpt><trkpt lat="43.1830614" lon="12.3547222"><ele>495.0</ele><time>2026-03-22T10:38:52.623Z</time></trkpt><trkpt lat="43.1830875" lon="12.3546316"><ele>495.0</ele><time>2026-03-22T10:38:55.623Z</time></trkpt><trkpt lat="43.183124" lon="12.3545292"><ele>495.0</ele><time>2026-03-22T10:38:59.623Z</time></trkpt><trkpt lat="43.1831483" lon="12.3544318"><ele>495.0</ele><time>2026-03-22T10:39:02.623Z</time></trkpt><trkpt lat="43.1831723" lon="12.3543163"><ele>495.0</ele><time>2026-03-22T10:39:06.623Z</time></trkpt><trkpt lat="43.1831883" lon="12.3542262"><ele>493.6666666666667</ele><time>2026-03-22T10:39:09.622Z</time></trkpt><trkpt lat="43.1832007" lon="12.3541319"><ele>492.33333333333337</ele><time>2026-03-22T10:39:12.622Z</time></trkpt><trkpt lat="43.1831958" lon="12.3540182"><ele>491.0</ele><time>2026-03-22T10:39:15.623Z</time></trkpt><trkpt lat="43.1831819" lon="12.3539275"><ele>489.6666666666667</ele><time>2026-03-22T10:39:17.622Z</time></trkpt><trkpt lat="43.1831619" lon="12.3538224"><ele>488.33333333333337</ele><time>2026-03-22T10:39:19.623Z</time></trkpt><trkpt lat="43.1831469" lon="12.3536903"><ele>487.0</ele><time>2026-03-22T10:39:21.622Z</time></trkpt><trkpt lat="43.1831204" lon="12.3535572"><ele>487.00000000000006</ele><time>2026-03-22T10:39:23.623Z</time></trkpt><trkpt lat="43.1830968" lon="12.3534158"><ele>487.0</ele><time>2026-03-22T10:39:25.623Z</time></trkpt><trkpt lat="43.1830904" lon="12.3532767"><ele>487.0</ele><time>2026-03-22T10:39:27.622Z</time></trkpt><trkpt lat="43.1831012" lon="12.3531406"><ele>487.0</ele><time>2026-03-22T10:39:29.622Z</time></trkpt><trkpt lat="43.1830876" lon="12.3530489"><ele>487.00000000000006</ele><time>2026-03-22T10:39:31.623Z</time></trkpt><trkpt lat="43.1830684" lon="12.3529573"><ele>487.0</ele><time>2026-03-22T10:39:33.623Z</time></trkpt><trkpt lat="43.1830236" lon="12.3528786"><ele>487.28571428571433</ele><time>2026-03-22T10:39:35.622Z</time></trkpt><trkpt lat="43.1829871" lon="12.3528035"><ele>487.57142857142856</ele><time>2026-03-22T10:39:40.622Z</time></trkpt><trkpt lat="43.1829809" lon="12.3527134"><ele>487.8571428571429</ele><time>2026-03-22T10:40:06.622Z</time></trkpt><trkpt lat="43.1830352" lon="12.3526666"><ele>488.14285714285717</ele><time>2026-03-22T10:40:21.623Z</time></trkpt><trkpt lat="43.1830172" lon="12.352572"><ele>488.42857142857144</ele><time>2026-03-22T10:40:26.623Z</time></trkpt><trkpt lat="43.1830366" lon="12.3524759"><ele>488.7142857142857</ele><time>2026-03-22T10:40:29.622Z</time></trkpt><trkpt lat="43.1830416" lon="12.3523741"><ele>489.0</ele><time>2026-03-22T10:40:32.623Z</time></trkpt><trkpt lat="43.1830044" lon="12.3522806"><ele>489.0</ele><time>2026-03-22T10:40:34.623Z</time></trkpt><trkpt lat="43.1830068" lon="12.3521697"><ele>489.00000000000006</ele><time>2026-03-22T10:40:37.623Z</time></trkpt><trkpt lat="43.1830383" lon="12.3520941"><ele>489.0</ele><time>2026-03-22T10:40:39.623Z</time></trkpt><trkpt lat="43.1830502" lon="12.3519834"><ele>489.0</ele><time>2026-03-22T10:40:41.623Z</time></trkpt><trkpt lat="43.1830582" lon="12.3518837"><ele>489.00000000000006</ele><time>2026-03-22T10:40:43.622Z</time></trkpt><trkpt lat="43.1830641" lon="12.3517908"><ele>489.0</ele><time>2026-03-22T10:40:45.623Z</time></trkpt><trkpt lat="43.1830678" lon="12.3516973"><ele>489.0</ele><time>2026-03-22T10:40:47.623Z</time></trkpt><trkpt lat="43.183067" lon="12.3516047"><ele>489.0</ele><time>2026-03-22T10:40:49.622Z</time></trkpt><trkpt lat="43.1830679" lon="12.3515118"><ele>489.00000000000006</ele><time>2026-03-22T10:40:51.623Z</time></trkpt><trkpt lat="43.183083" lon="12.3514271"><ele>489.0</ele><time>2026-03-22T10:40:53.623Z</time></trkpt><trkpt lat="43.1831258" lon="12.3513263"><ele>489.0</ele><time>2026-03-22T10:40:56.623Z</time></trkpt><trkpt lat="43.1831649" lon="12.3512516"><ele>489.00000000000006</ele><time>2026-03-22T10:40:59.622Z</time></trkpt><trkpt lat="43.1832039" lon="12.3511747"><ele>489.0</ele><time>2026-03-22T10:41:02.622Z</time></trkpt><trkpt lat="43.1832455" lon="12.3511018"><ele>489.0</ele><time>2026-03-22T10:41:05.623Z</time></trkpt><trkpt lat="43.1832999" lon="12.3510244"><ele>493.0</ele><time>2026-03-22T10:41:09.623Z</time></trkpt><trkpt lat="43.1833548" lon="12.3509588"><ele>497.0</ele><time>2026-03-22T10:41:13.623Z</time></trkpt><trkpt lat="43.1834043" lon="12.3508851"><ele>501.0</ele><time>2026-03-22T10:41:17.623Z</time></trkpt><trkpt lat="43.1834469" lon="12.3507993"><ele>505.0</ele><time>2026-03-22T10:41:21.623Z</time></trkpt><trkpt lat="43.1834626" lon="12.3506916"><ele>509.0</ele><time>2026-03-22T10:41:25.623Z</time></trkpt><trkpt lat="43.1834847" lon="12.350592"><ele>513.0</ele><time>2026-03-22T10:41:29.623Z</time></trkpt><trkpt lat="43.183517" lon="12.350499"><ele>513.2857142857143</ele><time>2026-03-22T10:41:33.622Z</time></trkpt><trkpt lat="43.1835627" lon="12.3504247"><ele>513.5714285714286</ele><time>2026-03-22T10:41:37.623Z</time></trkpt><trkpt lat="43.1835937" lon="12.3503263"><ele>513.8571428571429</ele><time>2026-03-22T10:41:41.623Z</time></trkpt><trkpt lat="43.1836427" lon="12.3502566"><ele>514.1428571428571</ele><time>2026-03-22T10:41:45.623Z</time></trkpt><trkpt lat="43.1836931" lon="12.3501781"><ele>514.4285714285714</ele><time>2026-03-22T10:41:49.623Z</time></trkpt><trkpt lat="43.1836839" lon="12.3500773"><ele>514.7142857142858</ele><time>2026-03-22T10:41:52.623Z</time></trkpt><trkpt lat="43.183683" lon="12.3499869"><ele>515.0</ele><time>2026-03-22T10:41:54.623Z</time></trkpt><trkpt lat="43.1837053" lon="12.349873"><ele>515.0</ele><time>2026-03-22T10:41:57.622Z</time></trkpt><trkpt lat="43.183762" lon="12.3497892"><ele>515.0</ele><time>2026-03-22T10:42:01.623Z</time></trkpt><trkpt lat="43.1838232" lon="12.349766"><ele>515.0</ele><time>2026-03-22T10:42:04.622Z</time></trkpt><trkpt lat="43.1838947" lon="12.3497548"><ele>515.0</ele><time>2026-03-22T10:42:08.622Z</time></trkpt><trkpt lat="43.1839685" lon="12.3497054"><ele>515.0</ele><time>2026-03-22T10:42:12.622Z</time></trkpt><trkpt lat="43.1840264" lon="12.3496587"><ele>515.0</ele><time>2026-03-22T10:42:15.623Z</time></trkpt><trkpt lat="43.1840787" lon="12.3495997"><ele>515.0</ele><time>2026-03-22T10:42:19.623Z</time></trkpt><trkpt lat="43.1841082" lon="12.3495216"><ele>516.7142857142858</ele><time>2026-03-22T10:42:24.622Z</time></trkpt><trkpt lat="43.1841704" lon="12.3494563"><ele>518.4285714285714</ele><time>2026-03-22T10:42:35.622Z</time></trkpt><trkpt lat="43.1842358" lon="12.3493942"><ele>520.1428571428571</ele><time>2026-03-22T10:42:39.622Z</time></trkpt><trkpt lat="43.1842874" lon="12.3493355"><ele>521.8571428571429</ele><time>2026-03-22T10:42:42.622Z</time></trkpt><trkpt lat="43.184324" lon="12.3492638"><ele>523.5714285714286</ele><time>2026-03-22T10:42:45.622Z</time></trkpt><trkpt lat="43.1843567" lon="12.3491802"><ele>525.2857142857143</ele><time>2026-03-22T10:42:48.623Z</time></trkpt><trkpt lat="43.1843443" lon="12.349071"><ele>527.0</ele><time>2026-03-22T10:42:51.623Z</time></trkpt><trkpt lat="43.1842978" lon="12.349008"><ele>527.0000000000001</ele><time>2026-03-22T10:42:53.622Z</time></trkpt><trkpt lat="43.1842322" lon="12.3489688"><ele>527.0</ele><time>2026-03-22T10:42:56.622Z</time></trkpt><trkpt lat="43.1841586" lon="12.3489182"><ele>527.0</ele><time>2026-03-22T10:43:00.622Z</time></trkpt><trkpt lat="43.1841026" lon="12.3488763"><ele>527.0</ele><time>2026-03-22T10:43:03.622Z</time></trkpt><trkpt lat="43.1840422" lon="12.3488294"><ele>527.0</ele><time>2026-03-22T10:43:06.623Z</time></trkpt><trkpt lat="43.1839737" lon="12.3488007"><ele>527.0000000000001</ele><time>2026-03-22T10:43:09.623Z</time></trkpt><trkpt lat="43.18391" lon="12.3488051"><ele>527.0</ele><time>2026-03-22T10:43:12.623Z</time></trkpt><trkpt lat="43.1838473" lon="12.3488293"><ele>526.5714285714287</ele><time>2026-03-22T10:43:15.623Z</time></trkpt><trkpt lat="43.1837803" lon="12.3488796"><ele>526.1428571428571</ele><time>2026-03-22T10:43:19.623Z</time></trkpt><trkpt lat="43.1837068" lon="12.3489058"><ele>525.7142857142858</ele><time>2026-03-22T10:43:23.623Z</time></trkpt><trkpt lat="43.1836349" lon="12.3489008"><ele>525.2857142857143</ele><time>2026-03-22T10:43:27.622Z</time></trkpt><trkpt lat="43.1835727" lon="12.3488497"><ele>524.8571428571429</ele><time>2026-03-22T10:43:31.622Z</time></trkpt><trkpt lat="43.1835122" lon="12.3488167"><ele>524.4285714285714</ele><time>2026-03-22T10:43:35.623Z</time></trkpt><trkpt lat="43.1834337" lon="12.3487999"><ele>524.0</ele><time>2026-03-22T10:43:40.623Z</time></trkpt><trkpt lat="43.1833624" lon="12.3488102"><ele>525.1428571428571</ele><time>2026-03-22T10:43:44.622Z</time></trkpt><trkpt lat="43.1832917" lon="12.3488067"><ele>526.2857142857143</ele><time>2026-03-22T10:43:48.622Z</time></trkpt><trkpt lat="43.1832144" lon="12.3487904"><ele>527.4285714285714</ele><time>2026-03-22T10:43:52.623Z</time></trkpt><trkpt lat="43.1831596" lon="12.3487307"><ele>528.5714285714286</ele><time>2026-03-22T10:43:55.622Z</time></trkpt><trkpt lat="43.1831059" lon="12.348654"><ele>529.7142857142858</ele><time>2026-03-22T10:43:58.622Z</time></trkpt><trkpt lat="43.1830479" lon="12.3485994"><ele>530.8571428571429</ele><time>2026-03-22T10:44:01.623Z</time></trkpt><trkpt lat="43.1829924" lon="12.3485266"><ele>532.0</ele><time>2026-03-22T10:44:04.622Z</time></trkpt><trkpt lat="43.182943" lon="12.3484612"><ele>532.0</ele><time>2026-03-22T10:44:07.622Z</time></trkpt><trkpt lat="43.1828964" lon="12.3483679"><ele>532.0</ele><time>2026-03-22T10:44:10.622Z</time></trkpt><trkpt lat="43.182865" lon="12.3482459"><ele>532.0</ele><time>2026-03-22T10:44:13.622Z</time></trkpt><trkpt lat="43.1828402" lon="12.3481406"><ele>532.0</ele><time>2026-03-22T10:44:16.623Z</time></trkpt><trkpt lat="43.1828115" lon="12.3480288"><ele>532.0</ele><time>2026-03-22T10:44:19.623Z</time></trkpt><trkpt lat="43.1827703" lon="12.3479107"><ele>532.0</ele><time>2026-03-22T10:44:22.623Z</time></trkpt><trkpt lat="43.1827341" lon="12.3478255"><ele>531.5</ele><time>2026-03-22T10:44:24.623Z</time></trkpt><trkpt lat="43.1826924" lon="12.3477512"><ele>531.0</ele><time>2026-03-22T10:44:26.623Z</time></trkpt><trkpt lat="43.1826451" lon="12.3476902"><ele>530.5</ele><time>2026-03-22T10:44:28.623Z</time></trkpt><trkpt lat="43.1825683" lon="12.3476159"><ele>530.0</ele><time>2026-03-22T10:44:31.623Z</time></trkpt><trkpt lat="43.1824935" lon="12.3475455"><ele>529.5</ele><time>2026-03-22T10:44:34.622Z</time></trkpt><trkpt lat="43.1824149" lon="12.3474765"><ele>529.0</ele><time>2026-03-22T10:44:37.623Z</time></trkpt><trkpt lat="43.1823398" lon="12.3474174"><ele>529.0</ele><time>2026-03-22T10:44:40.623Z</time></trkpt><trkpt lat="43.1822641" lon="12.3473536"><ele>529.0</ele><time>2026-03-22T10:44:43.622Z</time></trkpt><trkpt lat="43.1822118" lon="12.3473016"><ele>529.0</ele><time>2026-03-22T10:44:45.622Z</time></trkpt><trkpt lat="43.182156" lon="12.3472523"><ele>529.0</ele><time>2026-03-22T10:44:47.623Z</time></trkpt><trkpt lat="43.1820975" lon="12.3472038"><ele>529.0</ele><time>2026-03-22T10:44:49.623Z</time></trkpt><trkpt lat="43.1820399" lon="12.3471446"><ele>529.0</ele><time>2026-03-22T10:44:51.623Z</time></trkpt><trkpt lat="43.1819869" lon="12.3470898"><ele>529.0</ele><time>2026-03-22T10:44:53.622Z</time></trkpt><trkpt lat="43.1819524" lon="12.3470168"><ele>529.7142857142858</ele><time>2026-03-22T10:44:55.623Z</time></trkpt><trkpt lat="43.181932" lon="12.3469216"><ele>530.4285714285714</ele><time>2026-03-22T10:44:57.623Z</time></trkpt><trkpt lat="43.181917" lon="12.3468225"><ele>531.1428571428571</ele><time>2026-03-22T10:44:59.622Z</time></trkpt><trkpt lat="43.1819005" lon="12.3467233"><ele>531.8571428571429</ele><time>2026-03-22T10:45:01.622Z</time></trkpt><trkpt lat="43.1818856" lon="12.3466304"><ele>532.5714285714286</ele><time>2026-03-22T10:45:03.623Z</time></trkpt><trkpt lat="43.1818728" lon="12.3465394"><ele>533.2857142857143</ele><time>2026-03-22T10:45:05.623Z</time></trkpt><trkpt lat="43.1818634" lon="12.3464514"><ele>534.0</ele><time>2026-03-22T10:45:07.623Z</time></trkpt><trkpt lat="43.1818475" lon="12.34633"><ele>534.0</ele><time>2026-03-22T10:45:10.623Z</time></trkpt><trkpt lat="43.181831" lon="12.3462116"><ele>534.0</ele><time>2026-03-22T10:45:13.623Z</time></trkpt><trkpt lat="43.1818129" lon="12.3460977"><ele>534.0</ele><time>2026-03-22T10:45:16.622Z</time></trkpt><trkpt lat="43.1817873" lon="12.3460177"><ele>534.0</ele><time>2026-03-22T10:45:19.623Z</time></trkpt><trkpt lat="43.1817357" lon="12.3459425"><ele>534.0</ele><time>2026-03-22T10:45:23.622Z</time></trkpt><trkpt lat="43.1816466" lon="12.3459327"><ele>534.0</ele><time>2026-03-22T10:45:26.623Z</time></trkpt><trkpt lat="43.1815765" lon="12.3459754"><ele>533.6666666666666</ele><time>2026-03-22T10:45:28.622Z</time></trkpt><trkpt lat="43.1815004" lon="12.3460107"><ele>533.3333333333334</ele><time>2026-03-22T10:45:30.623Z</time></trkpt><trkpt lat="43.1814226" lon="12.3460595"><ele>533.0</ele><time>2026-03-22T10:45:32.623Z</time></trkpt><trkpt lat="43.1813425" lon="12.3460963"><ele>532.6666666666667</ele><time>2026-03-22T10:45:34.622Z</time></trkpt><trkpt lat="43.181259" lon="12.3461239"><ele>532.3333333333334</ele><time>2026-03-22T10:45:36.623Z</time></trkpt><trkpt lat="43.1811746" lon="12.3461531"><ele>532.0</ele><time>2026-03-22T10:45:38.623Z</time></trkpt><trkpt lat="43.1810875" lon="12.3461811"><ele>532.0</ele><time>2026-03-22T10:45:40.622Z</time></trkpt><trkpt lat="43.1810045" lon="12.346222"><ele>532.0</ele><time>2026-03-22T10:45:42.622Z</time></trkpt><trkpt lat="43.1809289" lon="12.3462555"><ele>532.0</ele><time>2026-03-22T10:45:44.623Z</time></trkpt><trkpt lat="43.1808476" lon="12.3462859"><ele>532.0</ele><time>2026-03-22T10:45:46.623Z</time></trkpt><trkpt lat="43.1807669" lon="12.3463142"><ele>532.0</ele><time>2026-03-22T10:45:48.622Z</time></trkpt><trkpt lat="43.1806877" lon="12.3463532"><ele>532.0</ele><time>2026-03-22T10:45:50.622Z</time></trkpt><trkpt lat="43.180611" lon="12.3463934"><ele>531.8333333333334</ele><time>2026-03-22T10:45:52.622Z</time></trkpt><trkpt lat="43.1805317" lon="12.346424"><ele>531.6666666666667</ele><time>2026-03-22T10:45:54.623Z</time></trkpt><trkpt lat="43.1804564" lon="12.3464617"><ele>531.5</ele><time>2026-03-22T10:45:56.623Z</time></trkpt><trkpt lat="43.1803827" lon="12.3465103"><ele>531.3333333333334</ele><time>2026-03-22T10:45:58.623Z</time></trkpt><trkpt lat="43.1803104" lon="12.3465597"><ele>531.1666666666666</ele><time>2026-03-22T10:46:00.623Z</time></trkpt><trkpt lat="43.1802295" lon="12.3466051"><ele>531.0</ele><time>2026-03-22T10:46:02.623Z</time></trkpt><trkpt lat="43.1801509" lon="12.3466517"><ele>531.0</ele><time>2026-03-22T10:46:04.623Z</time></trkpt><trkpt lat="43.1800745" lon="12.3466814"><ele>531.0</ele><time>2026-03-22T10:46:06.622Z</time></trkpt><trkpt lat="43.1799982" lon="12.3467226"><ele>531.0</ele><time>2026-03-22T10:46:08.623Z</time></trkpt><trkpt lat="43.17992" lon="12.3467661"><ele>531.0</ele><time>2026-03-22T10:46:10.623Z</time></trkpt><trkpt lat="43.179849" lon="12.3467957"><ele>531.0</ele><time>2026-03-22T10:46:12.623Z</time></trkpt><trkpt lat="43.1797708" lon="12.3468228"><ele>531.0</ele><time>2026-03-22T10:46:14.622Z</time></trkpt><trkpt lat="43.1796993" lon="12.346848"><ele>530.5714285714286</ele><time>2026-03-22T10:46:16.623Z</time></trkpt><trkpt lat="43.1796269" lon="12.3468743"><ele>530.1428571428572</ele><time>2026-03-22T10:46:18.623Z</time></trkpt><trkpt lat="43.1795548" lon="12.3468931"><ele>529.7142857142858</ele><time>2026-03-22T10:46:20.623Z</time></trkpt><trkpt lat="43.1794756" lon="12.3469007"><ele>529.2857142857143</ele><time>2026-03-22T10:46:22.623Z</time></trkpt><trkpt lat="43.1794172" lon="12.3469764"><ele>528.8571428571429</ele><time>2026-03-22T10:46:25.623Z</time></trkpt><trkpt lat="43.1794642" lon="12.3470378"><ele>528.4285714285714</ele><time>2026-03-22T10:46:28.623Z</time></trkpt><trkpt lat="43.1795069" lon="12.3471058"><ele>528.0</ele><time>2026-03-22T10:46:31.623Z</time></trkpt><trkpt lat="43.1795593" lon="12.3471769"><ele>529.1666666666666</ele><time>2026-03-22T10:46:34.622Z</time></trkpt><trkpt lat="43.1796239" lon="12.3472565"><ele>530.3333333333334</ele><time>2026-03-22T10:46:37.622Z</time></trkpt><trkpt lat="43.179683" lon="12.3473324"><ele>531.5</ele><time>2026-03-22T10:46:40.622Z</time></trkpt><trkpt lat="43.1797455" lon="12.3474073"><ele>532.6666666666667</ele><time>2026-03-22T10:46:43.623Z</time></trkpt><trkpt lat="43.179793" lon="12.3474949"><ele>533.8333333333334</ele><time>2026-03-22T10:46:46.623Z</time></trkpt><trkpt lat="43.1798553" lon="12.347572"><ele>535.0</ele><time>2026-03-22T10:46:49.622Z</time></trkpt><trkpt lat="43.1799161" lon="12.3476656"><ele>535.1666666666667</ele><time>2026-03-22T10:46:52.623Z</time></trkpt><trkpt lat="43.1799856" lon="12.3477419"><ele>535.3333333333334</ele><time>2026-03-22T10:46:55.623Z</time></trkpt><trkpt lat="43.1800517" lon="12.3478261"><ele>535.5</ele><time>2026-03-22T10:46:58.623Z</time></trkpt><trkpt lat="43.1801176" lon="12.3479074"><ele>535.6666666666666</ele><time>2026-03-22T10:47:01.622Z</time></trkpt><trkpt lat="43.180164" lon="12.3479693"><ele>535.8333333333333</ele><time>2026-03-22T10:47:03.623Z</time></trkpt><trkpt lat="43.1802072" lon="12.3480515"><ele>536.0</ele><time>2026-03-22T10:47:05.622Z</time></trkpt><trkpt lat="43.1802444" lon="12.3481336"><ele>536.8333333333333</ele><time>2026-03-22T10:47:07.623Z</time></trkpt><trkpt lat="43.1802938" lon="12.348236"><ele>537.6666666666666</ele><time>2026-03-22T10:47:10.622Z</time></trkpt><trkpt lat="43.1803373" lon="12.3483197"><ele>538.5</ele><time>2026-03-22T10:47:13.623Z</time></trkpt><trkpt lat="43.1803808" lon="12.3484245"><ele>539.3333333333334</ele><time>2026-03-22T10:47:16.623Z</time></trkpt><trkpt lat="43.1803983" lon="12.3485285"><ele>540.1666666666667</ele><time>2026-03-22T10:47:18.622Z</time></trkpt><trkpt lat="43.1804128" lon="12.3486539"><ele>541.0</ele><time>2026-03-22T10:47:20.622Z</time></trkpt><trkpt lat="43.1804226" lon="12.3487891"><ele>540.2</ele><time>2026-03-22T10:47:22.622Z</time></trkpt><trkpt lat="43.1804281" lon="12.3489342"><ele>539.4000000000001</ele><time>2026-03-22T10:47:24.622Z</time></trkpt><trkpt lat="43.1804303" lon="12.3490817"><ele>538.6</ele><time>2026-03-22T10:47:26.623Z</time></trkpt><trkpt lat="43.1804277" lon="12.3492189"><ele>537.8000000000001</ele><time>2026-03-22T10:47:28.623Z</time></trkpt><trkpt lat="43.180412" lon="12.3493535"><ele>537.0</ele><time>2026-03-22T10:47:30.623Z</time></trkpt><trkpt lat="43.1803901" lon="12.3494941"><ele>537.0</ele><time>2026-03-22T10:47:32.623Z</time></trkpt><trkpt lat="43.1803785" lon="12.3496397"><ele>537.0</ele><time>2026-03-22T10:47:34.623Z</time></trkpt><trkpt lat="43.1803791" lon="12.3497904"><ele>537.0</ele><time>2026-03-22T10:47:36.622Z</time></trkpt><trkpt lat="43.1803891" lon="12.3499409"><ele>537.0</ele><time>2026-03-22T10:47:38.623Z</time></trkpt><trkpt lat="43.1803933" lon="12.350029"><ele>537.0</ele><time>2026-03-22T10:47:39.623Z</time></trkpt><trkpt lat="43.1803998" lon="12.3501157"><ele>536.1428571428571</ele><time>2026-03-22T10:47:40.623Z</time></trkpt><trkpt lat="43.1804061" lon="12.3502072"><ele>535.2857142857142</ele><time>2026-03-22T10:47:41.623Z</time></trkpt><trkpt lat="43.1804106" lon="12.3503038"><ele>534.4285714285714</ele><time>2026-03-22T10:47:42.622Z</time></trkpt><trkpt lat="43.1804171" lon="12.3503967"><ele>533.5714285714286</ele><time>2026-03-22T10:47:43.622Z</time></trkpt><trkpt lat="43.1804219" lon="12.350497"><ele>532.7142857142858</ele><time>2026-03-22T10:47:44.622Z</time></trkpt><trkpt lat="43.1804296" lon="12.3505986"><ele>531.8571428571429</ele><time>2026-03-22T10:47:45.622Z</time></trkpt><trkpt lat="43.1804354" lon="12.3506994"><ele>531.0</ele><time>2026-03-22T10:47:46.623Z</time></trkpt><trkpt lat="43.1804437" lon="12.3508062"><ele>529.3333333333334</ele><time>2026-03-22T10:47:47.623Z</time></trkpt><trkpt lat="43.1804571" lon="12.3509125"><ele>527.6666666666666</ele><time>2026-03-22T10:47:48.622Z</time></trkpt><trkpt lat="43.1804649" lon="12.3510097"><ele>526.0</ele><time>2026-03-22T10:47:49.623Z</time></trkpt><trkpt lat="43.1804717" lon="12.3511038"><ele>524.3333333333333</ele><time>2026-03-22T10:47:50.622Z</time></trkpt><trkpt lat="43.1804803" lon="12.3511968"><ele>522.6666666666666</ele><time>2026-03-22T10:47:51.622Z</time></trkpt><trkpt lat="43.1805137" lon="12.3513507"><ele>521.0</ele><time>2026-03-22T10:47:53.623Z</time></trkpt><trkpt lat="43.1805507" lon="12.35149"><ele>518.2</ele><time>2026-03-22T10:47:55.623Z</time></trkpt><trkpt lat="43.1805459" lon="12.3516389"><ele>515.4000000000001</ele><time>2026-03-22T10:47:57.623Z</time></trkpt><trkpt lat="43.1805122" lon="12.3517831"><ele>512.6</ele><time>2026-03-22T10:47:59.623Z</time></trkpt><trkpt lat="43.1804835" lon="12.3519324"><ele>509.8</ele><time>2026-03-22T10:48:01.623Z</time></trkpt><trkpt lat="43.1804533" lon="12.3520813"><ele>507.0</ele><time>2026-03-22T10:48:03.623Z</time></trkpt><trkpt lat="43.1804055" lon="12.3522007"><ele>505.40000000000003</ele><time>2026-03-22T10:48:05.623Z</time></trkpt><trkpt lat="43.1804092" lon="12.3523208"><ele>503.80000000000007</ele><time>2026-03-22T10:48:07.623Z</time></trkpt><trkpt lat="43.1804623" lon="12.3524006"><ele>502.2</ele><time>2026-03-22T10:48:09.622Z</time></trkpt><trkpt lat="43.180492" lon="12.3525207"><ele>500.6</ele><time>2026-03-22T10:48:11.622Z</time></trkpt><trkpt lat="43.1804285" lon="12.352627"><ele>499.0</ele><time>2026-03-22T10:48:13.623Z</time></trkpt><trkpt lat="43.1803226" lon="12.3526787"><ele>499.00000000000006</ele><time>2026-03-22T10:48:15.622Z</time></trkpt><trkpt lat="43.1801987" lon="12.3526968"><ele>499.0</ele><time>2026-03-22T10:48:17.623Z</time></trkpt><trkpt lat="43.1801281" lon="12.3526826"><ele>499.0</ele><time>2026-03-22T10:48:18.623Z</time></trkpt><trkpt lat="43.1800611" lon="12.3526557"><ele>499.0</ele><time>2026-03-22T10:48:19.622Z</time></trkpt><trkpt lat="43.1799923" lon="12.3526214"><ele>499.00000000000006</ele><time>2026-03-22T10:48:20.623Z</time></trkpt><trkpt lat="43.1799168" lon="12.3525883"><ele>499.0</ele><time>2026-03-22T10:48:21.623Z</time></trkpt><trkpt lat="43.1798434" lon="12.3525622"><ele>498.7142857142858</ele><time>2026-03-22T10:48:22.622Z</time></trkpt><trkpt lat="43.1797623" lon="12.3525854"><ele>498.42857142857144</ele><time>2026-03-22T10:48:23.622Z</time></trkpt><trkpt lat="43.1796835" lon="12.3525816"><ele>498.14285714285717</ele><time>2026-03-22T10:48:24.623Z</time></trkpt><trkpt lat="43.1796123" lon="12.352587"><ele>497.8571428571429</ele><time>2026-03-22T10:48:25.623Z</time></trkpt><trkpt lat="43.1795395" lon="12.3525885"><ele>497.57142857142856</ele><time>2026-03-22T10:48:26.623Z</time></trkpt><trkpt lat="43.1794707" lon="12.3526025"><ele>497.2857142857143</ele><time>2026-03-22T10:48:27.623Z</time></trkpt><trkpt lat="43.1794074" lon="12.3526226"><ele>497.0</ele><time>2026-03-22T10:48:28.623Z</time></trkpt><trkpt lat="43.1793414" lon="12.352646"><ele>497.0</ele><time>2026-03-22T10:48:29.623Z</time></trkpt><trkpt lat="43.1792779" lon="12.3526782"><ele>497.0</ele><time>2026-03-22T10:48:30.623Z</time></trkpt><trkpt lat="43.1792107" lon="12.3527125"><ele>497.0</ele><time>2026-03-22T10:48:31.623Z</time></trkpt><trkpt lat="43.1791427" lon="12.3527467"><ele>497.0</ele><time>2026-03-22T10:48:32.622Z</time></trkpt><trkpt lat="43.1790769" lon="12.3527884"><ele>497.0</ele><time>2026-03-22T10:48:33.622Z</time></trkpt><trkpt lat="43.1790124" lon="12.3528242"><ele>497.0</ele><time>2026-03-22T10:48:34.623Z</time></trkpt><trkpt lat="43.1789514" lon="12.35285"><ele>497.0</ele><time>2026-03-22T10:48:35.623Z</time></trkpt><trkpt lat="43.1788907" lon="12.3528792"><ele>495.20000000000005</ele><time>2026-03-22T10:48:36.622Z</time></trkpt><trkpt lat="43.1788303" lon="12.3529078"><ele>493.40000000000003</ele><time>2026-03-22T10:48:37.623Z</time></trkpt><trkpt lat="43.1787214" lon="12.3529554"><ele>491.59999999999997</ele><time>2026-03-22T10:48:39.622Z</time></trkpt><trkpt lat="43.1786225" lon="12.3529983"><ele>489.79999999999995</ele><time>2026-03-22T10:48:41.623Z</time></trkpt><trkpt lat="43.1785303" lon="12.3530431"><ele>488.0</ele><time>2026-03-22T10:48:43.622Z</time></trkpt><trkpt lat="43.1784427" lon="12.3530886"><ele>486.2</ele><time>2026-03-22T10:48:45.623Z</time></trkpt><trkpt lat="43.1783555" lon="12.3531273"><ele>484.4</ele><time>2026-03-22T10:48:47.623Z</time></trkpt><trkpt lat="43.1782561" lon="12.3531628"><ele>482.59999999999997</ele><time>2026-03-22T10:48:49.622Z</time></trkpt><trkpt lat="43.1781429" lon="12.3531951"><ele>480.79999999999995</ele><time>2026-03-22T10:48:51.623Z</time></trkpt><trkpt lat="43.1780175" lon="12.3532213"><ele>479.0</ele><time>2026-03-22T10:48:53.623Z</time></trkpt><trkpt lat="43.1779549" lon="12.3532346"><ele>479.0</ele><time>2026-03-22T10:48:54.623Z</time></trkpt><trkpt lat="43.1778433" lon="12.3532306"><ele>479.0</ele><time>2026-03-22T10:48:56.622Z</time></trkpt><trkpt lat="43.1777643" lon="12.3531601"><ele>479.0</ele><time>2026-03-22T10:48:58.623Z</time></trkpt><trkpt lat="43.1777045" lon="12.3530305"><ele>479.0</ele><time>2026-03-22T10:49:00.622Z</time></trkpt><trkpt lat="43.1776283" lon="12.352914"><ele>479.0</ele><time>2026-03-22T10:49:02.623Z</time></trkpt><trkpt lat="43.1775138" lon="12.3528753"><ele>478.99999999999994</ele><time>2026-03-22T10:49:04.622Z</time></trkpt><trkpt lat="43.1774119" lon="12.3529006"><ele>479.0</ele><time>2026-03-22T10:49:06.622Z</time></trkpt><trkpt lat="43.1773173" lon="12.353001"><ele>479.0</ele><time>2026-03-22T10:49:08.622Z</time></trkpt><trkpt lat="43.1772652" lon="12.3530573"><ele>479.0</ele><time>2026-03-22T10:49:09.623Z</time></trkpt><trkpt lat="43.1772062" lon="12.3531118"><ele>478.99999999999994</ele><time>2026-03-22T10:49:10.623Z</time></trkpt><trkpt lat="43.1771324" lon="12.3531473"><ele>479.0</ele><time>2026-03-22T10:49:11.622Z</time></trkpt><trkpt lat="43.1770527" lon="12.3531682"><ele>475.4</ele><time>2026-03-22T10:49:12.622Z</time></trkpt><trkpt lat="43.1769577" lon="12.353171"><ele>471.79999999999995</ele><time>2026-03-22T10:49:13.623Z</time></trkpt><trkpt lat="43.1768623" lon="12.3531606"><ele>468.20000000000005</ele><time>2026-03-22T10:49:14.622Z</time></trkpt><trkpt lat="43.1767595" lon="12.3531359"><ele>464.6</ele><time>2026-03-22T10:49:15.622Z</time></trkpt><trkpt lat="43.1766547" lon="12.353093"><ele>461.0</ele><time>2026-03-22T10:49:16.623Z</time></trkpt><trkpt lat="43.176558" lon="12.3530459"><ele>461.49999999999994</ele><time>2026-03-22T10:49:17.622Z</time></trkpt><trkpt lat="43.1764689" lon="12.3530029"><ele>462.0</ele><time>2026-03-22T10:49:18.623Z</time></trkpt><trkpt lat="43.1763796" lon="12.3529723"><ele>462.5</ele><time>2026-03-22T10:49:19.623Z</time></trkpt><trkpt lat="43.1762907" lon="12.3529529"><ele>463.0</ele><time>2026-03-22T10:49:20.622Z</time></trkpt><trkpt lat="43.1762109" lon="12.3529767"><ele>463.49999999999994</ele><time>2026-03-22T10:49:21.623Z</time></trkpt><trkpt lat="43.1761324" lon="12.3529915"><ele>464.0</ele><time>2026-03-22T10:49:22.623Z</time></trkpt><trkpt lat="43.1760601" lon="12.3530488"><ele>462.49999999999994</ele><time>2026-03-22T10:49:23.622Z</time></trkpt><trkpt lat="43.17599" lon="12.3530933"><ele>461.0</ele><time>2026-03-22T10:49:24.623Z</time></trkpt><trkpt lat="43.1759196" lon="12.3531466"><ele>459.5</ele><time>2026-03-22T10:49:25.622Z</time></trkpt><trkpt lat="43.1758481" lon="12.3531964"><ele>458.0</ele><time>2026-03-22T10:49:26.623Z</time></trkpt><trkpt lat="43.1757857" lon="12.3532544"><ele>456.49999999999994</ele><time>2026-03-22T10:49:27.623Z</time></trkpt><trkpt lat="43.1757234" lon="12.3533116"><ele>455.0</ele><time>2026-03-22T10:49:28.623Z</time></trkpt><trkpt lat="43.1756595" lon="12.3533618"><ele>455.0</ele><time>2026-03-22T10:49:29.622Z</time></trkpt><trkpt lat="43.1755983" lon="12.3534117"><ele>455.0</ele><time>2026-03-22T10:49:30.622Z</time></trkpt><trkpt lat="43.1755341" lon="12.3534575"><ele>455.0</ele><time>2026-03-22T10:49:31.623Z</time></trkpt><trkpt lat="43.1754719" lon="12.3535014"><ele>455.0</ele><time>2026-03-22T10:49:32.622Z</time></trkpt><trkpt lat="43.1754144" lon="12.3535562"><ele>455.0</ele><time>2026-03-22T10:49:33.622Z</time></trkpt><trkpt lat="43.1753524" lon="12.353595"><ele>455.0</ele><time>2026-03-22T10:49:34.623Z</time></trkpt><trkpt lat="43.1752908" lon="12.3536358"><ele>455.0</ele><time>2026-03-22T10:49:35.623Z</time></trkpt><trkpt lat="43.1752335" lon="12.3536813"><ele>455.0</ele><time>2026-03-22T10:49:36.623Z</time></trkpt><trkpt lat="43.1751739" lon="12.3537236"><ele>455.0</ele><time>2026-03-22T10:49:37.623Z</time></trkpt><trkpt lat="43.1751134" lon="12.3537672"><ele>455.0</ele><time>2026-03-22T10:49:38.623Z</time></trkpt><trkpt lat="43.1750522" lon="12.3538158"><ele>455.0</ele><time>2026-03-22T10:49:39.623Z</time></trkpt><trkpt lat="43.1749943" lon="12.3538663"><ele>455.0</ele><time>2026-03-22T10:49:40.622Z</time></trkpt><trkpt lat="43.1749342" lon="12.3539132"><ele>455.0</ele><time>2026-03-22T10:49:41.622Z</time></trkpt><trkpt lat="43.174876" lon="12.3539533"><ele>455.0</ele><time>2026-03-22T10:49:42.623Z</time></trkpt><trkpt lat="43.1748181" lon="12.3539962"><ele>455.8333333333333</ele><time>2026-03-22T10:49:43.622Z</time></trkpt><trkpt lat="43.1747589" lon="12.3540444"><ele>456.66666666666663</ele><time>2026-03-22T10:49:44.622Z</time></trkpt><trkpt lat="43.1747003" lon="12.3540945"><ele>457.5</ele><time>2026-03-22T10:49:45.623Z</time></trkpt><trkpt lat="43.1746453" lon="12.354147"><ele>458.33333333333337</ele><time>2026-03-22T10:49:46.623Z</time></trkpt><trkpt lat="43.1745909" lon="12.3541958"><ele>459.1666666666667</ele><time>2026-03-22T10:49:47.622Z</time></trkpt><trkpt lat="43.1744863" lon="12.3542825"><ele>460.0</ele><time>2026-03-22T10:49:49.623Z</time></trkpt><trkpt lat="43.1743885" lon="12.3543656"><ele>460.00000000000006</ele><time>2026-03-22T10:49:51.623Z</time></trkpt><trkpt lat="43.1742996" lon="12.3544315"><ele>460.0</ele><time>2026-03-22T10:49:53.622Z</time></trkpt><trkpt lat="43.1742245" lon="12.3544904"><ele>460.0</ele><time>2026-03-22T10:49:55.622Z</time></trkpt><trkpt lat="43.1741599" lon="12.3545303"><ele>460.0</ele><time>2026-03-22T10:49:57.622Z</time></trkpt><trkpt lat="43.1740946" lon="12.3545563"><ele>460.00000000000006</ele><time>2026-03-22T10:49:59.622Z</time></trkpt><trkpt lat="43.1740096" lon="12.3545934"><ele>460.0</ele><time>2026-03-22T10:50:02.623Z</time></trkpt><trkpt lat="43.1739214" lon="12.3546139"><ele>459.00000000000006</ele><time>2026-03-22T10:50:05.623Z</time></trkpt><trkpt lat="43.1738464" lon="12.3546108"><ele>458.0</ele><time>2026-03-22T10:50:08.622Z</time></trkpt><trkpt lat="43.1737601" lon="12.3546592"><ele>457.0</ele><time>2026-03-22T10:50:11.623Z</time></trkpt><trkpt lat="43.1736712" lon="12.3546934"><ele>456.0</ele><time>2026-03-22T10:50:14.623Z</time></trkpt><trkpt lat="43.1735799" lon="12.3547256"><ele>455.00000000000006</ele><time>2026-03-22T10:50:17.622Z</time></trkpt><trkpt lat="43.1734981" lon="12.3547141"><ele>454.0</ele><time>2026-03-22T10:50:20.623Z</time></trkpt><trkpt lat="43.1734255" lon="12.3547615"><ele>454.00000000000006</ele><time>2026-03-22T10:50:24.623Z</time></trkpt><trkpt lat="43.1733635" lon="12.3547884"><ele>454.0</ele><time>2026-03-22T10:50:26.623Z</time></trkpt><trkpt lat="43.173274" lon="12.3548177"><ele>454.0</ele><time>2026-03-22T10:50:29.623Z</time></trkpt><trkpt lat="43.1731863" lon="12.3548419"><ele>454.0</ele><time>2026-03-22T10:50:32.622Z</time></trkpt><trkpt lat="43.1730977" lon="12.3548618"><ele>454.00000000000006</ele><time>2026-03-22T10:50:35.623Z</time></trkpt><trkpt lat="43.173009" lon="12.3548793"><ele>454.0</ele><time>2026-03-22T10:50:38.622Z</time></trkpt><trkpt lat="43.1729207" lon="12.3548902"><ele>455.8571428571429</ele><time>2026-03-22T10:50:41.622Z</time></trkpt><trkpt lat="43.1728331" lon="12.3548808"><ele>457.7142857142858</ele><time>2026-03-22T10:50:44.622Z</time></trkpt><trkpt lat="43.1727581" lon="12.3548745"><ele>459.57142857142856</ele><time>2026-03-22T10:50:47.622Z</time></trkpt><trkpt lat="43.1726904" lon="12.3548516"><ele>461.42857142857144</ele><time>2026-03-22T10:50:50.623Z</time></trkpt><trkpt lat="43.1726287" lon="12.3548212"><ele>463.2857142857143</ele><time>2026-03-22T10:50:53.622Z</time></trkpt><trkpt lat="43.1725687" lon="12.3547947"><ele>465.1428571428571</ele><time>2026-03-22T10:50:56.622Z</time></trkpt><trkpt lat="43.1724935" lon="12.3547575"><ele>466.99999999999994</ele><time>2026-03-22T10:51:00.622Z</time></trkpt><trkpt lat="43.1724215" lon="12.3547173"><ele>467.5714285714285</ele><time>2026-03-22T10:51:04.623Z</time></trkpt><trkpt lat="43.1723593" lon="12.3546821"><ele>468.1428571428571</ele><time>2026-03-22T10:51:08.623Z</time></trkpt><trkpt lat="43.1722992" lon="12.3546402"><ele>468.7142857142857</ele><time>2026-03-22T10:51:12.622Z</time></trkpt><trkpt lat="43.1722357" lon="12.3546137"><ele>469.2857142857143</ele><time>2026-03-22T10:51:16.622Z</time></trkpt><trkpt lat="43.1721747" lon="12.3545607"><ele>469.8571428571429</ele><time>2026-03-22T10:51:21.622Z</time></trkpt><trkpt lat="43.1721071" lon="12.3545084"><ele>470.4285714285715</ele><time>2026-03-22T10:51:26.622Z</time></trkpt><trkpt lat="43.1720546" lon="12.3544574"><ele>471.00000000000006</ele><time>2026-03-22T10:51:30.623Z</time></trkpt><trkpt lat="43.1719938" lon="12.3543923"><ele>471.4285714285715</ele><time>2026-03-22T10:51:35.622Z</time></trkpt><trkpt lat="43.1719338" lon="12.3543265"><ele>471.8571428571429</ele><time>2026-03-22T10:51:40.623Z</time></trkpt><trkpt lat="43.1718868" lon="12.3542681"><ele>472.2857142857143</ele><time>2026-03-22T10:51:44.623Z</time></trkpt><trkpt lat="43.1718388" lon="12.3541933"><ele>472.7142857142857</ele><time>2026-03-22T10:51:49.622Z</time></trkpt><trkpt lat="43.171835" lon="12.3540988"><ele>473.1428571428571</ele><time>2026-03-22T10:51:54.622Z</time></trkpt><trkpt lat="43.1718974" lon="12.3540332"><ele>473.5714285714285</ele><time>2026-03-22T10:51:59.622Z</time></trkpt><trkpt lat="43.1719721" lon="12.3539815"><ele>473.99999999999994</ele><time>2026-03-22T10:52:03.622Z</time></trkpt><trkpt lat="43.1720296" lon="12.353941"><ele>473.99999999999994</ele><time>2026-03-22T10:52:06.623Z</time></trkpt><trkpt lat="43.172082" lon="12.3538872"><ele>474.0</ele><time>2026-03-22T10:52:09.623Z</time></trkpt><trkpt lat="43.1721242" lon="12.3538201"><ele>473.99999999999994</ele><time>2026-03-22T10:52:12.622Z</time></trkpt><trkpt lat="43.1721713" lon="12.3537274"><ele>473.99999999999994</ele><time>2026-03-22T10:52:16.622Z</time></trkpt><trkpt lat="43.1722247" lon="12.3536433"><ele>474.0</ele><time>2026-03-22T10:52:20.623Z</time></trkpt><trkpt lat="43.1722839" lon="12.3535747"><ele>473.99999999999994</ele><time>2026-03-22T10:52:24.622Z</time></trkpt><trkpt lat="43.1723469" lon="12.3535217"><ele>473.99999999999994</ele><time>2026-03-22T10:52:28.622Z</time></trkpt><trkpt lat="43.1724098" lon="12.3534684"><ele>474.8571428571428</ele><time>2026-03-22T10:52:32.623Z</time></trkpt><trkpt lat="43.1724739" lon="12.3534211"><ele>475.71428571428567</ele><time>2026-03-22T10:52:36.623Z</time></trkpt><trkpt lat="43.1725396" lon="12.3533799"><ele>476.57142857142856</ele><time>2026-03-22T10:52:40.623Z</time></trkpt><trkpt lat="43.1726007" lon="12.3533244"><ele>477.4285714285714</ele><time>2026-03-22T10:52:44.622Z</time></trkpt><trkpt lat="43.1726546" lon="12.3532598"><ele>478.2857142857142</ele><time>2026-03-22T10:52:48.623Z</time></trkpt><trkpt lat="43.1727063" lon="12.3531975"><ele>479.14285714285717</ele><time>2026-03-22T10:52:52.623Z</time></trkpt><trkpt lat="43.1727527" lon="12.3531194"><ele>480.0</ele><time>2026-03-22T10:52:56.622Z</time></trkpt><trkpt lat="43.172785" lon="12.3530318"><ele>480.5</ele><time>2026-03-22T10:53:00.623Z</time></trkpt><trkpt lat="43.1728094" lon="12.3529362"><ele>481.0</ele><time>2026-03-22T10:53:04.622Z</time></trkpt><trkpt lat="43.1728392" lon="12.3528347"><ele>481.5</ele><time>2026-03-22T10:53:08.622Z</time></trkpt><trkpt lat="43.1728692" lon="12.3527511"><ele>482.0</ele><time>2026-03-22T10:53:11.622Z</time></trkpt><trkpt lat="43.1729166" lon="12.3526888"><ele>482.5</ele><time>2026-03-22T10:53:14.623Z</time></trkpt><trkpt lat="43.1729775" lon="12.3526237"><ele>483.0</ele><time>2026-03-22T10:53:17.622Z</time></trkpt><trkpt lat="43.173039" lon="12.352525"><ele>483.0</ele><time>2026-03-22T10:53:20.622Z</time></trkpt><trkpt lat="43.1730845" lon="12.3524442"><ele>483.0</ele><time>2026-03-22T10:53:22.623Z</time></trkpt><trkpt lat="43.1731258" lon="12.3523285"><ele>483.0</ele><time>2026-03-22T10:53:24.622Z</time></trkpt><trkpt lat="43.1731906" lon="12.3522023"><ele>483.0</ele><time>2026-03-22T10:53:26.622Z</time></trkpt><trkpt lat="43.1732328" lon="12.3521277"><ele>483.0</ele><time>2026-03-22T10:53:27.622Z</time></trkpt><trkpt lat="43.1732757" lon="12.3520551"><ele>483.0</ele><time>2026-03-22T10:53:28.622Z</time></trkpt><trkpt lat="43.1733179" lon="12.3519841"><ele>482.3333333333333</ele><time>2026-03-22T10:53:29.622Z</time></trkpt><trkpt lat="43.1733531" lon="12.3519014"><ele>481.66666666666663</ele><time>2026-03-22T10:53:30.623Z</time></trkpt><trkpt lat="43.1733844" lon="12.3518178"><ele>481.0</ele><time>2026-03-22T10:53:31.623Z</time></trkpt><trkpt lat="43.1734182" lon="12.351731"><ele>480.3333333333333</ele><time>2026-03-22T10:53:32.623Z</time></trkpt><trkpt lat="43.1734504" lon="12.3516488"><ele>479.66666666666663</ele><time>2026-03-22T10:53:33.622Z</time></trkpt><trkpt lat="43.1734894" lon="12.3515808"><ele>479.0</ele><time>2026-03-22T10:53:34.622Z</time></trkpt><trkpt lat="43.1735767" lon="12.3514769"><ele>479.0</ele><time>2026-03-22T10:53:36.623Z</time></trkpt><trkpt lat="43.173692" lon="12.3514577"><ele>479.0</ele><time>2026-03-22T10:53:38.623Z</time></trkpt><trkpt lat="43.1738158" lon="12.3514514"><ele>479.0</ele><time>2026-03-22T10:53:40.622Z</time></trkpt><trkpt lat="43.1739284" lon="12.3514091"><ele>479.0</ele><time>2026-03-22T10:53:42.622Z</time></trkpt><trkpt lat="43.1740237" lon="12.3513269"><ele>479.16666666666663</ele><time>2026-03-22T10:53:44.622Z</time></trkpt><trkpt lat="43.1741063" lon="12.3512427"><ele>479.3333333333333</ele><time>2026-03-22T10:53:46.623Z</time></trkpt><trkpt lat="43.1741604" lon="12.351148"><ele>479.5</ele><time>2026-03-22T10:53:48.622Z</time></trkpt><trkpt lat="43.174162" lon="12.3510614"><ele>479.66666666666663</ele><time>2026-03-22T10:53:50.623Z</time></trkpt><trkpt lat="43.1741123" lon="12.3509736"><ele>479.8333333333333</ele><time>2026-03-22T10:53:53.622Z</time></trkpt><trkpt lat="43.1740496" lon="12.3508961"><ele>480.0</ele><time>2026-03-22T10:53:56.622Z</time></trkpt><trkpt lat="43.1739752" lon="12.3508286"><ele>480.28571428571433</ele><time>2026-03-22T10:53:59.622Z</time></trkpt><trkpt lat="43.1739124" lon="12.3507569"><ele>480.57142857142856</ele><time>2026-03-22T10:54:02.623Z</time></trkpt><trkpt lat="43.1738624" lon="12.3506765"><ele>480.8571428571429</ele><time>2026-03-22T10:54:05.623Z</time></trkpt><trkpt lat="43.1738235" lon="12.350594"><ele>481.14285714285717</ele><time>2026-03-22T10:54:08.622Z</time></trkpt><trkpt lat="43.1738163" lon="12.3505008"><ele>481.42857142857144</ele><time>2026-03-22T10:54:11.622Z</time></trkpt><trkpt lat="43.1738462" lon="12.3504248"><ele>481.7142857142857</ele><time>2026-03-22T10:54:14.623Z</time></trkpt><trkpt lat="43.1739131" lon="12.3504065"><ele>482.0</ele><time>2026-03-22T10:54:17.622Z</time></trkpt><trkpt lat="43.1740011" lon="12.3503986"><ele>482.8333333333333</ele><time>2026-03-22T10:54:20.623Z</time></trkpt><trkpt lat="43.1740889" lon="12.3503943"><ele>483.66666666666663</ele><time>2026-03-22T10:54:23.622Z</time></trkpt><trkpt lat="43.174174" lon="12.3503936"><ele>484.5</ele><time>2026-03-22T10:54:26.622Z</time></trkpt><trkpt lat="43.1742625" lon="12.3503906"><ele>485.33333333333337</ele><time>2026-03-22T10:54:29.622Z</time></trkpt><trkpt lat="43.1743529" lon="12.3503867"><ele>486.1666666666667</ele><time>2026-03-22T10:54:32.622Z</time></trkpt><trkpt lat="43.1744414" lon="12.3503884"><ele>487.0</ele><time>2026-03-22T10:54:35.623Z</time></trkpt><trkpt lat="43.17453" lon="12.350388"><ele>487.00000000000006</ele><time>2026-03-22T10:54:38.623Z</time></trkpt><trkpt lat="43.1746188" lon="12.3503896"><ele>487.0</ele><time>2026-03-22T10:54:41.622Z</time></trkpt><trkpt lat="43.1746989" lon="12.3503914"><ele>487.0</ele><time>2026-03-22T10:54:44.622Z</time></trkpt><trkpt lat="43.1747786" lon="12.350389"><ele>487.0</ele><time>2026-03-22T10:54:47.622Z</time></trkpt><trkpt lat="43.1748613" lon="12.3503897"><ele>487.00000000000006</ele><time>2026-03-22T10:54:50.623Z</time></trkpt><trkpt lat="43.1749416" lon="12.3503928"><ele>487.0</ele><time>2026-03-22T10:54:53.623Z</time></trkpt><trkpt lat="43.1750206" lon="12.3504116"><ele>488.1666666666667</ele><time>2026-03-22T10:54:56.622Z</time></trkpt><trkpt lat="43.1751047" lon="12.350414"><ele>489.33333333333337</ele><time>2026-03-22T10:54:59.623Z</time></trkpt><trkpt lat="43.1751879" lon="12.3504161"><ele>490.5</ele><time>2026-03-22T10:55:02.623Z</time></trkpt><trkpt lat="43.1752556" lon="12.350417"><ele>491.66666666666663</ele><time>2026-03-22T10:55:05.622Z</time></trkpt><trkpt lat="43.1753314" lon="12.3503767"><ele>492.8333333333333</ele><time>2026-03-22T10:55:10.623Z</time></trkpt><trkpt lat="43.175368" lon="12.3502888"><ele>494.0</ele><time>2026-03-22T10:55:14.623Z</time></trkpt><trkpt lat="43.1753592" lon="12.3501973"><ele>493.99999999999994</ele><time>2026-03-22T10:55:18.623Z</time></trkpt><trkpt lat="43.1753214" lon="12.3501047"><ele>494.0</ele><time>2026-03-22T10:55:22.623Z</time></trkpt><trkpt lat="43.1752785" lon="12.3500061"><ele>494.0</ele><time>2026-03-22T10:55:26.623Z</time></trkpt><trkpt lat="43.17525" lon="12.349918"><ele>494.0</ele><time>2026-03-22T10:55:29.623Z</time></trkpt><trkpt lat="43.1752295" lon="12.3498281"><ele>493.99999999999994</ele><time>2026-03-22T10:55:32.622Z</time></trkpt><trkpt lat="43.1752102" lon="12.3497321"><ele>494.0</ele><time>2026-03-22T10:55:35.623Z</time></trkpt><trkpt lat="43.1751795" lon="12.3496248"><ele>493.8571428571429</ele><time>2026-03-22T10:55:38.623Z</time></trkpt><trkpt lat="43.1751301" lon="12.3495453"><ele>493.71428571428567</ele><time>2026-03-22T10:55:42.623Z</time></trkpt><trkpt lat="43.1751145" lon="12.3494498"><ele>493.57142857142856</ele><time>2026-03-22T10:57:58.622Z</time></trkpt><trkpt lat="43.1750962" lon="12.3493516"><ele>493.42857142857144</ele><time>2026-03-22T10:58:01.623Z</time></trkpt><trkpt lat="43.1750717" lon="12.349265"><ele>493.28571428571433</ele><time>2026-03-22T10:58:03.622Z</time></trkpt><trkpt lat="43.175045" lon="12.3491794"><ele>493.1428571428571</ele><time>2026-03-22T10:58:05.623Z</time></trkpt><trkpt lat="43.1750007" lon="12.3490723"><ele>493.0</ele><time>2026-03-22T10:58:07.623Z</time></trkpt><trkpt lat="43.1749404" lon="12.3489547"><ele>492.4</ele><time>2026-03-22T10:58:09.623Z</time></trkpt><trkpt lat="43.1748649" lon="12.34884"><ele>491.79999999999995</ele><time>2026-03-22T10:58:11.623Z</time></trkpt><trkpt lat="43.1747786" lon="12.3487215"><ele>491.2</ele><time>2026-03-22T10:58:13.623Z</time></trkpt><trkpt lat="43.174738" lon="12.3486494"><ele>490.6</ele><time>2026-03-22T10:58:14.622Z</time></trkpt><trkpt lat="43.1746941" lon="12.3484831"><ele>490.0</ele><time>2026-03-22T10:58:16.622Z</time></trkpt><trkpt lat="43.1746897" lon="12.3483834"><ele>488.8</ele><time>2026-03-22T10:58:17.623Z</time></trkpt><trkpt lat="43.1746764" lon="12.3482791"><ele>487.6</ele><time>2026-03-22T10:58:18.623Z</time></trkpt><trkpt lat="43.1746378" lon="12.3481087"><ele>486.4</ele><time>2026-03-22T10:58:20.622Z</time></trkpt><trkpt lat="43.1746213" lon="12.3480147"><ele>485.2</ele><time>2026-03-22T10:58:21.622Z</time></trkpt><trkpt lat="43.1745987" lon="12.3478541"><ele>484.0</ele><time>2026-03-22T10:58:23.623Z</time></trkpt><trkpt lat="43.1745437" lon="12.3477318"><ele>484.0</ele><time>2026-03-22T10:58:25.623Z</time></trkpt><trkpt lat="43.1744481" lon="12.3476806"><ele>484.0</ele><time>2026-03-22T10:58:27.623Z</time></trkpt><trkpt lat="43.1743408" lon="12.3476731"><ele>484.0</ele><time>2026-03-22T10:58:29.622Z</time></trkpt><trkpt lat="43.174245" lon="12.347661"><ele>484.0</ele><time>2026-03-22T10:58:31.623Z</time></trkpt><trkpt lat="43.1741868" lon="12.3475894"><ele>484.0</ele><time>2026-03-22T10:58:33.623Z</time></trkpt><trkpt lat="43.174189" lon="12.3474989"><ele>484.0</ele><time>2026-03-22T10:58:35.623Z</time></trkpt><trkpt lat="43.1742259" lon="12.3474211"><ele>483.99999999999994</ele><time>2026-03-22T10:58:37.622Z</time></trkpt><trkpt lat="43.1742628" lon="12.3473456"><ele>484.0</ele><time>2026-03-22T10:58:39.622Z</time></trkpt><trkpt lat="43.1742934" lon="12.3472575"><ele>484.0</ele><time>2026-03-22T10:58:41.623Z</time></trkpt><trkpt lat="43.174335" lon="12.3471691"><ele>483.99999999999994</ele><time>2026-03-22T10:58:43.623Z</time></trkpt><trkpt lat="43.1743921" lon="12.3470818"><ele>484.0</ele><time>2026-03-22T10:58:45.623Z</time></trkpt><trkpt lat="43.174452" lon="12.3470119"><ele>484.0</ele><time>2026-03-22T10:58:47.623Z</time></trkpt><trkpt lat="43.1745148" lon="12.3469377"><ele>483.1666666666667</ele><time>2026-03-22T10:58:49.623Z</time></trkpt><trkpt lat="43.1745748" lon="12.3468625"><ele>482.33333333333337</ele><time>2026-03-22T10:58:51.623Z</time></trkpt><trkpt lat="43.1746179" lon="12.3467877"><ele>481.5</ele><time>2026-03-22T10:58:53.622Z</time></trkpt><trkpt lat="43.1746453" lon="12.3466872"><ele>480.66666666666663</ele><time>2026-03-22T10:58:55.622Z</time></trkpt><trkpt lat="43.1746233" lon="12.3465376"><ele>479.8333333333333</ele><time>2026-03-22T10:58:57.622Z</time></trkpt><trkpt lat="43.1746134" lon="12.3463901"><ele>479.0</ele><time>2026-03-22T10:58:59.622Z</time></trkpt><trkpt lat="43.1746134" lon="12.3463016"><ele>478.16666666666663</ele><time>2026-03-22T10:59:00.623Z</time></trkpt><trkpt lat="43.1746127" lon="12.3461254"><ele>477.3333333333333</ele><time>2026-03-22T10:59:02.622Z</time></trkpt><trkpt lat="43.174616" lon="12.3460301"><ele>476.5</ele><time>2026-03-22T10:59:03.623Z</time></trkpt><trkpt lat="43.1746237" lon="12.3459298"><ele>475.66666666666663</ele><time>2026-03-22T10:59:04.623Z</time></trkpt><trkpt lat="43.1746324" lon="12.3458341"><ele>474.8333333333333</ele><time>2026-03-22T10:59:05.622Z</time></trkpt><trkpt lat="43.1746482" lon="12.3457296"><ele>474.0</ele><time>2026-03-22T10:59:06.622Z</time></trkpt><trkpt lat="43.1746577" lon="12.3456275"><ele>472.6666666666667</ele><time>2026-03-22T10:59:07.622Z</time></trkpt><trkpt lat="43.1746638" lon="12.3455219"><ele>471.33333333333337</ele><time>2026-03-22T10:59:08.623Z</time></trkpt><trkpt lat="43.174671" lon="12.3454302"><ele>470.0</ele><time>2026-03-22T10:59:09.623Z</time></trkpt><trkpt lat="43.1746868" lon="12.3452729"><ele>468.6666666666667</ele><time>2026-03-22T10:59:11.622Z</time></trkpt><trkpt lat="43.174704" lon="12.3451511"><ele>467.33333333333337</ele><time>2026-03-22T10:59:13.623Z</time></trkpt><trkpt lat="43.1746717" lon="12.3450632"><ele>466.0</ele><time>2026-03-22T10:59:15.623Z</time></trkpt><trkpt lat="43.1745766" lon="12.3450277"><ele>466.0</ele><time>2026-03-22T10:59:17.623Z</time></trkpt><trkpt lat="43.1744133" lon="12.3450461"><ele>466.0</ele><time>2026-03-22T10:59:19.622Z</time></trkpt><trkpt lat="43.1743445" lon="12.345061"><ele>466.0</ele><time>2026-03-22T10:59:20.622Z</time></trkpt><trkpt lat="43.1742742" lon="12.3450758"><ele>466.0</ele><time>2026-03-22T10:59:21.622Z</time></trkpt><trkpt lat="43.1742092" lon="12.3451015"><ele>466.0</ele><time>2026-03-22T10:59:22.623Z</time></trkpt><trkpt lat="43.1740999" lon="12.3451196"><ele>463.4</ele><time>2026-03-22T10:59:24.622Z</time></trkpt><trkpt lat="43.1739779" lon="12.3449914"><ele>460.8</ele><time>2026-03-22T10:59:26.623Z</time></trkpt><trkpt lat="43.1739359" lon="12.3449099"><ele>458.19999999999993</ele><time>2026-03-22T10:59:27.622Z</time></trkpt><trkpt lat="43.1738775" lon="12.3448544"><ele>455.59999999999997</ele><time>2026-03-22T10:59:28.622Z</time></trkpt><trkpt lat="43.1738082" lon="12.3447935"><ele>453.0</ele><time>2026-03-22T10:59:29.622Z</time></trkpt><trkpt lat="43.1737414" lon="12.3447329"><ele>452.2857142857142</ele><time>2026-03-22T10:59:30.622Z</time></trkpt><trkpt lat="43.1736726" lon="12.3446993"><ele>451.57142857142856</ele><time>2026-03-22T10:59:31.622Z</time></trkpt><trkpt lat="43.1736107" lon="12.3446567"><ele>450.85714285714283</ele><time>2026-03-22T10:59:32.623Z</time></trkpt><trkpt lat="43.1735352" lon="12.3446459"><ele>450.1428571428571</ele><time>2026-03-22T10:59:34.623Z</time></trkpt><trkpt lat="43.1735476" lon="12.3445494"><ele>449.42857142857144</ele><time>2026-03-22T10:59:38.622Z</time></trkpt><trkpt lat="43.1736074" lon="12.344521"><ele>448.7142857142857</ele><time>2026-03-22T10:59:40.623Z</time></trkpt><trkpt lat="43.1736701" lon="12.3444774"><ele>448.0</ele><time>2026-03-22T10:59:42.622Z</time></trkpt><trkpt lat="43.1737274" lon="12.3443939"><ele>448.00000000000006</ele><time>2026-03-22T10:59:44.622Z</time></trkpt><trkpt lat="43.1737932" lon="12.3442789"><ele>448.0</ele><time>2026-03-22T10:59:46.622Z</time></trkpt><trkpt lat="43.1738324" lon="12.3442104"><ele>448.0</ele><time>2026-03-22T10:59:47.623Z</time></trkpt><trkpt lat="43.1738768" lon="12.3441305"><ele>448.0</ele><time>2026-03-22T10:59:48.623Z</time></trkpt><trkpt lat="43.1739237" lon="12.3440483"><ele>448.00000000000006</ele><time>2026-03-22T10:59:49.622Z</time></trkpt><trkpt lat="43.1739681" lon="12.3439609"><ele>448.0</ele><time>2026-03-22T10:59:50.622Z</time></trkpt><trkpt lat="43.1740089" lon="12.3438675"><ele>446.00000000000006</ele><time>2026-03-22T10:59:51.623Z</time></trkpt><trkpt lat="43.1740382" lon="12.3437745"><ele>444.0</ele><time>2026-03-22T10:59:52.622Z</time></trkpt><trkpt lat="43.1740689" lon="12.3436778"><ele>442.0</ele><time>2026-03-22T10:59:53.622Z</time></trkpt><trkpt lat="43.1741015" lon="12.3435833"><ele>440.0</ele><time>2026-03-22T10:59:54.623Z</time></trkpt><trkpt lat="43.1741396" lon="12.3435018"><ele>438.00000000000006</ele><time>2026-03-22T10:59:55.622Z</time></trkpt><trkpt lat="43.174192" lon="12.3434456"><ele>436.0</ele><time>2026-03-22T10:59:56.623Z</time></trkpt><trkpt lat="43.174312" lon="12.3434287"><ele>436.0</ele><time>2026-03-22T10:59:58.622Z</time></trkpt><trkpt lat="43.1744186" lon="12.3434837"><ele>436.0</ele><time>2026-03-22T11:00:00.623Z</time></trkpt><trkpt lat="43.1745135" lon="12.3435498"><ele>436.0</ele><time>2026-03-22T11:00:02.623Z</time></trkpt><trkpt lat="43.1746157" lon="12.3435781"><ele>436.0</ele><time>2026-03-22T11:00:04.623Z</time></trkpt><trkpt lat="43.1747224" lon="12.343539"><ele>436.0</ele><time>2026-03-22T11:00:06.623Z</time></trkpt><trkpt lat="43.1747783" lon="12.3434992"><ele>436.00000000000006</ele><time>2026-03-22T11:00:07.623Z</time></trkpt><trkpt lat="43.1748374" lon="12.343457"><ele>436.0</ele><time>2026-03-22T11:00:08.622Z</time></trkpt><trkpt lat="43.1748989" lon="12.3434182"><ele>436.0</ele><time>2026-03-22T11:00:09.623Z</time></trkpt><trkpt lat="43.1749654" lon="12.3433905"><ele>436.0</ele><time>2026-03-22T11:00:10.623Z</time></trkpt><trkpt lat="43.1750297" lon="12.3433653"><ele>436.00000000000006</ele><time>2026-03-22T11:00:11.622Z</time></trkpt><trkpt lat="43.1751394" lon="12.3433065"><ele>436.0</ele><time>2026-03-22T11:00:13.622Z</time></trkpt><trkpt lat="43.1751746" lon="12.3431881"><ele>436.6</ele><time>2026-03-22T11:00:15.623Z</time></trkpt><trkpt lat="43.1751735" lon="12.3430745"><ele>437.20000000000005</ele><time>2026-03-22T11:00:17.622Z</time></trkpt><trkpt lat="43.1751785" lon="12.342945"><ele>437.79999999999995</ele><time>2026-03-22T11:00:19.622Z</time></trkpt><trkpt lat="43.1751885" lon="12.3428228"><ele>438.4</ele><time>2026-03-22T11:00:21.623Z</time></trkpt><trkpt lat="43.1751833" lon="12.3427003"><ele>439.0</ele><time>2026-03-22T11:00:23.623Z</time></trkpt><trkpt lat="43.1751932" lon="12.3425672"><ele>439.0</ele><time>2026-03-22T11:00:25.623Z</time></trkpt><trkpt lat="43.1752045" lon="12.3424422"><ele>439.0</ele><time>2026-03-22T11:00:27.623Z</time></trkpt><trkpt lat="43.1752149" lon="12.3423256"><ele>439.0</ele><time>2026-03-22T11:00:29.623Z</time></trkpt><trkpt lat="43.1752463" lon="12.3422045"><ele>439.0</ele><time>2026-03-22T11:00:31.623Z</time></trkpt><trkpt lat="43.1753009" lon="12.3420828"><ele>439.0</ele><time>2026-03-22T11:00:33.622Z</time></trkpt><trkpt lat="43.1753643" lon="12.3419515"><ele>439.2857142857143</ele><time>2026-03-22T11:00:35.623Z</time></trkpt><trkpt lat="43.1754269" lon="12.3418275"><ele>439.57142857142856</ele><time>2026-03-22T11:00:37.623Z</time></trkpt><trkpt lat="43.1754769" lon="12.3417608"><ele>439.8571428571429</ele><time>2026-03-22T11:00:38.623Z</time></trkpt><trkpt lat="43.1755264" lon="12.3416954"><ele>440.1428571428571</ele><time>2026-03-22T11:00:39.623Z</time></trkpt><trkpt lat="43.1755681" lon="12.3416287"><ele>440.42857142857144</ele><time>2026-03-22T11:00:40.622Z</time></trkpt><trkpt lat="43.1756172" lon="12.3415616"><ele>440.7142857142857</ele><time>2026-03-22T11:00:41.623Z</time></trkpt><trkpt lat="43.1756571" lon="12.3414897"><ele>441.0</ele><time>2026-03-22T11:00:42.623Z</time></trkpt><trkpt lat="43.175696" lon="12.3414134"><ele>439.7142857142857</ele><time>2026-03-22T11:00:43.622Z</time></trkpt><trkpt lat="43.1757424" lon="12.3413441"><ele>438.42857142857144</ele><time>2026-03-22T11:00:44.623Z</time></trkpt><trkpt lat="43.175785" lon="12.3412706"><ele>437.1428571428571</ele><time>2026-03-22T11:00:45.623Z</time></trkpt><trkpt lat="43.175829" lon="12.3411941"><ele>435.8571428571429</ele><time>2026-03-22T11:00:46.622Z</time></trkpt><trkpt lat="43.1758636" lon="12.3411076"><ele>434.57142857142856</ele><time>2026-03-22T11:00:47.622Z</time></trkpt><trkpt lat="43.1759087" lon="12.3410354"><ele>433.2857142857143</ele><time>2026-03-22T11:00:48.623Z</time></trkpt><trkpt lat="43.1759573" lon="12.3409478"><ele>432.0</ele><time>2026-03-22T11:00:49.622Z</time></trkpt><trkpt lat="43.1760353" lon="12.3408113"><ele>432.0</ele><time>2026-03-22T11:00:51.623Z</time></trkpt><trkpt lat="43.1760823" lon="12.3407261"><ele>432.0</ele><time>2026-03-22T11:00:52.623Z</time></trkpt><trkpt lat="43.1761495" lon="12.3406139"><ele>432.0</ele><time>2026-03-22T11:00:54.623Z</time></trkpt><trkpt lat="43.1762074" lon="12.3405202"><ele>432.0</ele><time>2026-03-22T11:00:56.622Z</time></trkpt><trkpt lat="43.1762532" lon="12.3404392"><ele>432.0</ele><time>2026-03-22T11:00:58.623Z</time></trkpt><trkpt lat="43.1762605" lon="12.3403172"><ele>432.0</ele><time>2026-03-22T11:01:01.622Z</time></trkpt><trkpt lat="43.1762612" lon="12.3402255"><ele>429.8333333333333</ele><time>2026-03-22T11:01:04.623Z</time></trkpt><trkpt lat="43.1762551" lon="12.3401262"><ele>427.66666666666663</ele><time>2026-03-22T11:01:07.623Z</time></trkpt><trkpt lat="43.1762488" lon="12.3400304"><ele>425.5</ele><time>2026-03-22T11:01:09.622Z</time></trkpt><trkpt lat="43.1762235" lon="12.3399454"><ele>423.3333333333333</ele><time>2026-03-22T11:01:11.623Z</time></trkpt><trkpt lat="43.176175" lon="12.3398639"><ele>421.16666666666663</ele><time>2026-03-22T11:01:13.622Z</time></trkpt><trkpt lat="43.1761038" lon="12.3397651"><ele>419.0</ele><time>2026-03-22T11:01:15.623Z</time></trkpt><trkpt lat="43.1760304" lon="12.3396409"><ele>416.8333333333333</ele><time>2026-03-22T11:01:17.622Z</time></trkpt><trkpt lat="43.1759385" lon="12.3395087"><ele>414.66666666666663</ele><time>2026-03-22T11:01:19.623Z</time></trkpt><trkpt lat="43.1758735" lon="12.339417"><ele>412.5</ele><time>2026-03-22T11:01:20.623Z</time></trkpt><trkpt lat="43.175825" lon="12.3393445"><ele>410.33333333333337</ele><time>2026-03-22T11:01:21.622Z</time></trkpt><trkpt lat="43.1757736" lon="12.3392773"><ele>408.1666666666667</ele><time>2026-03-22T11:01:22.623Z</time></trkpt><trkpt lat="43.1757211" lon="12.3392119"><ele>406.0</ele><time>2026-03-22T11:01:23.622Z</time></trkpt><trkpt lat="43.1756664" lon="12.3391578"><ele>404.6666666666667</ele><time>2026-03-22T11:01:24.622Z</time></trkpt><trkpt lat="43.1755585" lon="12.3390996"><ele>403.33333333333337</ele><time>2026-03-22T11:01:26.623Z</time></trkpt><trkpt lat="43.1754961" lon="12.3390826"><ele>402.0</ele><time>2026-03-22T11:01:27.623Z</time></trkpt><trkpt lat="43.1753988" lon="12.339091"><ele>400.66666666666663</ele><time>2026-03-22T11:01:29.623Z</time></trkpt><trkpt lat="43.175303" lon="12.3390331"><ele>399.3333333333333</ele><time>2026-03-22T11:01:31.623Z</time></trkpt><trkpt lat="43.1752622" lon="12.3389649"><ele>398.0</ele><time>2026-03-22T11:01:32.622Z</time></trkpt><trkpt lat="43.175209" lon="12.3388895"><ele>397.0</ele><time>2026-03-22T11:01:33.623Z</time></trkpt><trkpt lat="43.1751497" lon="12.3388051"><ele>396.0</ele><time>2026-03-22T11:01:34.623Z</time></trkpt><trkpt lat="43.1750885" lon="12.3387143"><ele>395.0</ele><time>2026-03-22T11:01:35.623Z</time></trkpt><trkpt lat="43.175024" lon="12.3386197"><ele>394.0</ele><time>2026-03-22T11:01:36.622Z</time></trkpt><trkpt lat="43.1749584" lon="12.3385296"><ele>393.0</ele><time>2026-03-22T11:01:37.622Z</time></trkpt><trkpt lat="43.1748914" lon="12.3384386"><ele>391.0</ele><time>2026-03-22T11:01:38.622Z</time></trkpt><trkpt lat="43.174827" lon="12.3383482"><ele>389.0</ele><time>2026-03-22T11:01:39.623Z</time></trkpt><trkpt lat="43.1747617" lon="12.3382528"><ele>387.0</ele><time>2026-03-22T11:01:40.622Z</time></trkpt><trkpt lat="43.1746959" lon="12.3381567"><ele>385.0</ele><time>2026-03-22T11:01:41.623Z</time></trkpt><trkpt lat="43.1746291" lon="12.3380631"><ele>383.0</ele><time>2026-03-22T11:01:42.622Z</time></trkpt><trkpt lat="43.1745699" lon="12.3379765"><ele>383.0</ele><time>2026-03-22T11:01:43.622Z</time></trkpt><trkpt lat="43.1745158" lon="12.3379009"><ele>383.0</ele><time>2026-03-22T11:01:44.623Z</time></trkpt><trkpt lat="43.1744256" lon="12.3377951"><ele>383.0</ele><time>2026-03-22T11:01:46.622Z</time></trkpt><trkpt lat="43.174318" lon="12.3377057"><ele>383.0</ele><time>2026-03-22T11:01:48.623Z</time></trkpt><trkpt lat="43.1742689" lon="12.3376346"><ele>383.0</ele><time>2026-03-22T11:01:49.622Z</time></trkpt><trkpt lat="43.1742233" lon="12.3375479"><ele>383.0</ele><time>2026-03-22T11:01:50.623Z</time></trkpt><trkpt lat="43.1741769" lon="12.3374623"><ele>383.0</ele><time>2026-03-22T11:01:51.622Z</time></trkpt><trkpt lat="43.1741144" lon="12.3373798"><ele>383.0</ele><time>2026-03-22T11:01:52.623Z</time></trkpt><trkpt lat="43.1740558" lon="12.3373166"><ele>383.0</ele><time>2026-03-22T11:01:53.622Z</time></trkpt><trkpt lat="43.1740014" lon="12.3372623"><ele>383.0</ele><time>2026-03-22T11:01:54.622Z</time></trkpt><trkpt lat="43.1739013" lon="12.3371785"><ele>383.0</ele><time>2026-03-22T11:01:56.622Z</time></trkpt><trkpt lat="43.1738172" lon="12.3371443"><ele>381.2</ele><time>2026-03-22T11:01:58.623Z</time></trkpt><trkpt lat="43.1738347" lon="12.3372526"><ele>379.4</ele><time>2026-03-22T11:02:16.622Z</time></trkpt><trkpt lat="43.1739048" lon="12.3373906"><ele>377.59999999999997</ele><time>2026-03-22T11:02:18.623Z</time></trkpt><trkpt lat="43.173926" lon="12.3374845"><ele>375.79999999999995</ele><time>2026-03-22T11:02:19.622Z</time></trkpt><trkpt lat="43.1739419" lon="12.3375804"><ele>374.0</ele><time>2026-03-22T11:02:20.622Z</time></trkpt><trkpt lat="43.1738958" lon="12.3377622"><ele>374.0</ele><time>2026-03-22T11:02:22.623Z</time></trkpt><trkpt lat="43.1738625" lon="12.3379179"><ele>374.0</ele><time>2026-03-22T11:02:24.622Z</time></trkpt><trkpt lat="43.1737658" lon="12.3379348"><ele>374.0</ele><time>2026-03-22T11:02:26.623Z</time></trkpt><trkpt lat="43.1736865" lon="12.3378886"><ele>374.0</ele><time>2026-03-22T11:02:28.623Z</time></trkpt><trkpt lat="43.1736139" lon="12.3378102"><ele>374.0</ele><time>2026-03-22T11:02:30.622Z</time></trkpt><trkpt lat="43.1735096" lon="12.3378229"><ele>374.0</ele><time>2026-03-22T11:02:32.622Z</time></trkpt><trkpt lat="43.1734175" lon="12.3378256"><ele>374.0</ele><time>2026-03-22T11:02:34.623Z</time></trkpt><trkpt lat="43.173344" lon="12.3378257"><ele>374.0</ele><time>2026-03-22T11:02:36.622Z</time></trkpt><trkpt lat="43.1732677" lon="12.33783"><ele>374.0</ele><time>2026-03-22T11:02:38.623Z</time></trkpt><trkpt lat="43.1731985" lon="12.3378258"><ele>374.0</ele><time>2026-03-22T11:02:40.623Z</time></trkpt><trkpt lat="43.1731019" lon="12.3378066"><ele>374.0</ele><time>2026-03-22T11:02:43.623Z</time></trkpt><trkpt lat="43.1730323" lon="12.3377707"><ele>373.33333333333337</ele><time>2026-03-22T11:02:45.622Z</time></trkpt><trkpt lat="43.1729462" lon="12.3377305"><ele>372.6666666666667</ele><time>2026-03-22T11:02:47.623Z</time></trkpt><trkpt lat="43.1728594" lon="12.3376956"><ele>372.0</ele><time>2026-03-22T11:02:49.622Z</time></trkpt><trkpt lat="43.1727728" lon="12.3376743"><ele>371.3333333333333</ele><time>2026-03-22T11:02:51.623Z</time></trkpt><trkpt lat="43.1726922" lon="12.3376484"><ele>370.66666666666663</ele><time>2026-03-22T11:02:53.622Z</time></trkpt><trkpt lat="43.1726088" lon="12.3376392"><ele>370.0</ele><time>2026-03-22T11:02:55.623Z</time></trkpt><trkpt lat="43.1725237" lon="12.3376234"><ele>370.0</ele><time>2026-03-22T11:02:57.622Z</time></trkpt><trkpt lat="43.1724436" lon="12.3376038"><ele>370.0</ele><time>2026-03-22T11:02:59.622Z</time></trkpt><trkpt lat="43.1723759" lon="12.3375826"><ele>370.0</ele><time>2026-03-22T11:03:01.623Z</time></trkpt><trkpt lat="43.1722919" lon="12.3375422"><ele>370.0</ele><time>2026-03-22T11:03:03.623Z</time></trkpt><trkpt lat="43.1721983" lon="12.3374716"><ele>370.0</ele><time>2026-03-22T11:03:05.623Z</time></trkpt><trkpt lat="43.1721321" lon="12.3374304"><ele>370.0</ele><time>2026-03-22T11:03:07.623Z</time></trkpt><trkpt lat="43.1720804" lon="12.3373792"><ele>370.4</ele><time>2026-03-22T11:03:09.623Z</time></trkpt><trkpt lat="43.1720175" lon="12.3373427"><ele>370.8</ele><time>2026-03-22T11:03:11.622Z</time></trkpt><trkpt lat="43.1719106" lon="12.3372658"><ele>371.20000000000005</ele><time>2026-03-22T11:03:13.623Z</time></trkpt><trkpt lat="43.1718022" lon="12.3371695"><ele>371.6</ele><time>2026-03-22T11:03:15.622Z</time></trkpt><trkpt lat="43.1717407" lon="12.3371045"><ele>372.0</ele><time>2026-03-22T11:03:16.623Z</time></trkpt><trkpt lat="43.1716392" lon="12.3371064"><ele>368.6</ele><time>2026-03-22T11:03:18.622Z</time></trkpt><trkpt lat="43.1715293" lon="12.3371313"><ele>365.20000000000005</ele><time>2026-03-22T11:03:20.623Z</time></trkpt><trkpt lat="43.1714169" lon="12.3371275"><ele>361.8</ele><time>2026-03-22T11:03:22.623Z</time></trkpt><trkpt lat="43.1713118" lon="12.33712"><ele>358.4</ele><time>2026-03-22T11:03:24.623Z</time></trkpt><trkpt lat="43.1712116" lon="12.3371434"><ele>355.0</ele><time>2026-03-22T11:03:26.623Z</time></trkpt><trkpt lat="43.1711214" lon="12.337074"><ele>355.0</ele><time>2026-03-22T11:03:28.623Z</time></trkpt><trkpt lat="43.1710345" lon="12.3369755"><ele>355.0</ele><time>2026-03-22T11:03:30.622Z</time></trkpt><trkpt lat="43.1710092" lon="12.3368834"><ele>355.0</ele><time>2026-03-22T11:03:32.623Z</time></trkpt><trkpt lat="43.170971" lon="12.3367708"><ele>355.0</ele><time>2026-03-22T11:03:34.622Z</time></trkpt><trkpt lat="43.1709598" lon="12.3366753"><ele>355.0</ele><time>2026-03-22T11:03:36.623Z</time></trkpt><trkpt lat="43.170887" lon="12.3366656"><ele>355.0</ele><time>2026-03-22T11:03:39.622Z</time></trkpt><trkpt lat="43.1708227" lon="12.3366855"><ele>355.0</ele><time>2026-03-22T11:03:42.623Z</time></trkpt><trkpt lat="43.1707402" lon="12.336681"><ele>355.0</ele><time>2026-03-22T11:03:45.622Z</time></trkpt><trkpt lat="43.1706509" lon="12.3366742"><ele>355.0</ele><time>2026-03-22T11:03:48.623Z</time></trkpt><trkpt lat="43.1705879" lon="12.3366694"><ele>355.0</ele><time>2026-03-22T11:03:50.622Z</time></trkpt><trkpt lat="43.1704971" lon="12.3366602"><ele>355.0</ele><time>2026-03-22T11:03:53.622Z</time></trkpt><trkpt lat="43.1704018" lon="12.3366499"><ele>355.0</ele><time>2026-03-22T11:03:56.622Z</time></trkpt><trkpt lat="43.1703322" lon="12.3366402"><ele>355.1428571428571</ele><time>2026-03-22T11:03:58.623Z</time></trkpt><trkpt lat="43.1702674" lon="12.3366278"><ele>355.2857142857143</ele><time>2026-03-22T11:04:00.623Z</time></trkpt><trkpt lat="43.1701718" lon="12.3366077"><ele>355.42857142857144</ele><time>2026-03-22T11:04:03.623Z</time></trkpt><trkpt lat="43.1701026" lon="12.336599"><ele>355.57142857142856</ele><time>2026-03-22T11:04:05.623Z</time></trkpt><trkpt lat="43.1700339" lon="12.3365934"><ele>355.7142857142857</ele><time>2026-03-22T11:04:07.623Z</time></trkpt><trkpt lat="43.1699641" lon="12.33657"><ele>355.85714285714283</ele><time>2026-03-22T11:04:09.623Z</time></trkpt><trkpt lat="43.1699082" lon="12.3365128"><ele>356.0</ele><time>2026-03-22T11:04:11.623Z</time></trkpt><trkpt lat="43.1698578" lon="12.3364549"><ele>355.99999999999994</ele><time>2026-03-22T11:04:13.623Z</time></trkpt><trkpt lat="43.1698" lon="12.3364152"><ele>356.0</ele><time>2026-03-22T11:04:15.622Z</time></trkpt><trkpt lat="43.1697377" lon="12.3363989"><ele>356.0</ele><time>2026-03-22T11:04:17.623Z</time></trkpt><trkpt lat="43.1696585" lon="12.3363851"><ele>356.0</ele><time>2026-03-22T11:04:20.622Z</time></trkpt><trkpt lat="43.1695908" lon="12.3363806"><ele>356.0</ele><time>2026-03-22T11:04:22.622Z</time></trkpt><trkpt lat="43.1695222" lon="12.3363969"><ele>355.99999999999994</ele><time>2026-03-22T11:04:24.622Z</time></trkpt><trkpt lat="43.1694572" lon="12.3364241"><ele>356.0</ele><time>2026-03-22T11:04:26.623Z</time></trkpt><trkpt lat="43.1693874" lon="12.336461"><ele>356.0</ele><time>2026-03-22T11:04:28.622Z</time></trkpt><trkpt lat="43.1693067" lon="12.3365027"><ele>356.0</ele><time>2026-03-22T11:04:30.623Z</time></trkpt><trkpt lat="43.1692203" lon="12.3365498"><ele>356.0</ele><time>2026-03-22T11:04:32.623Z</time></trkpt><trkpt lat="43.1691296" lon="12.3366025"><ele>356.0</ele><time>2026-03-22T11:04:34.623Z</time></trkpt><trkpt lat="43.1690311" lon="12.3366466"><ele>356.0</ele><time>2026-03-22T11:04:36.623Z</time></trkpt><trkpt lat="43.1689497" lon="12.3366501"><ele>356.1666666666667</ele><time>2026-03-22T11:04:38.622Z</time></trkpt><trkpt lat="43.1688526" lon="12.336646"><ele>356.33333333333337</ele><time>2026-03-22T11:04:40.623Z</time></trkpt><trkpt lat="43.168767" lon="12.3366227"><ele>356.5</ele><time>2026-03-22T11:04:42.623Z</time></trkpt><trkpt lat="43.1687025" lon="12.3366071"><ele>356.6666666666667</ele><time>2026-03-22T11:04:44.622Z</time></trkpt><trkpt lat="43.1686119" lon="12.3365832"><ele>356.8333333333333</ele><time>2026-03-22T11:04:47.622Z</time></trkpt><trkpt lat="43.1685396" lon="12.3365663"><ele>357.0</ele><time>2026-03-22T11:04:49.623Z</time></trkpt><trkpt lat="43.1684523" lon="12.3365419"><ele>357.0</ele><time>2026-03-22T11:04:52.623Z</time></trkpt><trkpt lat="43.1683797" lon="12.3365264"><ele>357.0</ele><time>2026-03-22T11:04:54.623Z</time></trkpt><trkpt lat="43.1683113" lon="12.3365275"><ele>357.0</ele><time>2026-03-22T11:04:56.622Z</time></trkpt><trkpt lat="43.168242" lon="12.3365348"><ele>357.0</ele><time>2026-03-22T11:04:58.622Z</time></trkpt><trkpt lat="43.1681683" lon="12.3365388"><ele>357.0</ele><time>2026-03-22T11:05:00.622Z</time></trkpt><trkpt lat="43.1680821" lon="12.336534"><ele>357.0</ele><time>2026-03-22T11:05:02.623Z</time></trkpt><trkpt lat="43.1679919" lon="12.3365477"><ele>356.3333333333333</ele><time>2026-03-22T11:05:04.623Z</time></trkpt><trkpt lat="43.167905" lon="12.3365425"><ele>355.6666666666667</ele><time>2026-03-22T11:05:06.622Z</time></trkpt><trkpt lat="43.1678197" lon="12.3365475"><ele>355.0</ele><time>2026-03-22T11:05:08.622Z</time></trkpt><trkpt lat="43.1677393" lon="12.3365511"><ele>354.33333333333337</ele><time>2026-03-22T11:05:10.623Z</time></trkpt><trkpt lat="43.1676518" lon="12.3365605"><ele>353.6666666666667</ele><time>2026-03-22T11:05:12.623Z</time></trkpt><trkpt lat="43.1675436" lon="12.3365635"><ele>353.0</ele><time>2026-03-22T11:05:14.623Z</time></trkpt><trkpt lat="43.1674271" lon="12.3365718"><ele>353.0</ele><time>2026-03-22T11:05:16.623Z</time></trkpt><trkpt lat="43.1673633" lon="12.3365837"><ele>353.0</ele><time>2026-03-22T11:05:17.623Z</time></trkpt><trkpt lat="43.167256" lon="12.3366134"><ele>353.0</ele><time>2026-03-22T11:05:19.623Z</time></trkpt><trkpt lat="43.167144" lon="12.3366455"><ele>353.0</ele><time>2026-03-22T11:05:21.623Z</time></trkpt><trkpt lat="43.1670385" lon="12.3366763"><ele>353.0</ele><time>2026-03-22T11:05:23.623Z</time></trkpt><trkpt lat="43.1669385" lon="12.3367128"><ele>351.83333333333337</ele><time>2026-03-22T11:05:25.623Z</time></trkpt><trkpt lat="43.1668487" lon="12.3367558"><ele>350.6666666666667</ele><time>2026-03-22T11:05:27.622Z</time></trkpt><trkpt lat="43.1667632" lon="12.3367986"><ele>349.5</ele><time>2026-03-22T11:05:29.622Z</time></trkpt><trkpt lat="43.1666874" lon="12.3368326"><ele>348.3333333333333</ele><time>2026-03-22T11:05:31.623Z</time></trkpt><trkpt lat="43.1666172" lon="12.3368592"><ele>347.16666666666663</ele><time>2026-03-22T11:05:33.622Z</time></trkpt><trkpt lat="43.1665508" lon="12.3368884"><ele>346.0</ele><time>2026-03-22T11:05:35.622Z</time></trkpt><trkpt lat="43.1664946" lon="12.3369299"><ele>345.16666666666663</ele><time>2026-03-22T11:05:37.623Z</time></trkpt><trkpt lat="43.1664466" lon="12.3370186"><ele>344.3333333333333</ele><time>2026-03-22T11:05:40.623Z</time></trkpt><trkpt lat="43.1664053" lon="12.3371027"><ele>343.5</ele><time>2026-03-22T11:05:43.623Z</time></trkpt><trkpt lat="43.1663072" lon="12.3370945"><ele>342.6666666666667</ele><time>2026-03-22T11:05:46.623Z</time></trkpt><trkpt lat="43.1662247" lon="12.3370742"><ele>341.83333333333337</ele><time>2026-03-22T11:05:48.623Z</time></trkpt><trkpt lat="43.1661362" lon="12.3370299"><ele>341.0</ele><time>2026-03-22T11:05:50.623Z</time></trkpt><trkpt lat="43.1660494" lon="12.3369865"><ele>341.0</ele><time>2026-03-22T11:05:52.623Z</time></trkpt><trkpt lat="43.1659745" lon="12.3369361"><ele>341.0</ele><time>2026-03-22T11:05:54.622Z</time></trkpt><trkpt lat="43.1659295" lon="12.3368559"><ele>341.0</ele><time>2026-03-22T11:05:56.623Z</time></trkpt><trkpt lat="43.1659282" lon="12.336736"><ele>341.0</ele><time>2026-03-22T11:05:58.622Z</time></trkpt><trkpt lat="43.1659369" lon="12.336607"><ele>341.0</ele><time>2026-03-22T11:06:00.623Z</time></trkpt><trkpt lat="43.1659406" lon="12.3364598"><ele>341.0</ele><time>2026-03-22T11:06:02.622Z</time></trkpt><trkpt lat="43.1659411" lon="12.3363043"><ele>339.5</ele><time>2026-03-22T11:06:04.623Z</time></trkpt><trkpt lat="43.1659386" lon="12.3361371"><ele>338.0</ele><time>2026-03-22T11:06:06.623Z</time></trkpt><trkpt lat="43.1659385" lon="12.3360496"><ele>336.5</ele><time>2026-03-22T11:06:07.622Z</time></trkpt><trkpt lat="43.1659355" lon="12.335953"><ele>335.0</ele><time>2026-03-22T11:06:08.623Z</time></trkpt><trkpt lat="43.165933" lon="12.3358495"><ele>333.5</ele><time>2026-03-22T11:06:09.622Z</time></trkpt><trkpt lat="43.1659272" lon="12.3357371"><ele>332.0</ele><time>2026-03-22T11:06:10.622Z</time></trkpt><trkpt lat="43.1659232" lon="12.33562"><ele>331.33333333333337</ele><time>2026-03-22T11:06:11.623Z</time></trkpt><trkpt lat="43.1659172" lon="12.3355025"><ele>330.6666666666667</ele><time>2026-03-22T11:06:12.623Z</time></trkpt><trkpt lat="43.1659117" lon="12.3353809"><ele>330.0</ele><time>2026-03-22T11:06:13.623Z</time></trkpt><trkpt lat="43.1659059" lon="12.3352595"><ele>329.3333333333333</ele><time>2026-03-22T11:06:14.623Z</time></trkpt><trkpt lat="43.1659" lon="12.3351409"><ele>328.66666666666663</ele><time>2026-03-22T11:06:15.623Z</time></trkpt><trkpt lat="43.1658967" lon="12.3350324"><ele>328.0</ele><time>2026-03-22T11:06:16.622Z</time></trkpt><trkpt lat="43.1658926" lon="12.3349287"><ele>328.0</ele><time>2026-03-22T11:06:17.622Z</time></trkpt><trkpt lat="43.1658881" lon="12.3348373"><ele>328.0</ele><time>2026-03-22T11:06:18.623Z</time></trkpt><trkpt lat="43.1658902" lon="12.3346772"><ele>328.0</ele><time>2026-03-22T11:06:20.623Z</time></trkpt><trkpt lat="43.165885" lon="12.3345425"><ele>328.0</ele><time>2026-03-22T11:06:22.622Z</time></trkpt><trkpt lat="43.1658826" lon="12.3344129"><ele>328.0</ele><time>2026-03-22T11:06:24.622Z</time></trkpt><trkpt lat="43.1658938" lon="12.3343208"><ele>328.0</ele><time>2026-03-22T11:06:26.623Z</time></trkpt><trkpt lat="43.1659618" lon="12.3342536"><ele>326.99999999999994</ele><time>2026-03-22T11:06:30.623Z</time></trkpt><trkpt lat="43.1660275" lon="12.33426"><ele>326.0</ele><time>2026-03-22T11:06:33.623Z</time></trkpt><trkpt lat="43.1660975" lon="12.3342513"><ele>325.0</ele><time>2026-03-22T11:06:36.623Z</time></trkpt><trkpt lat="43.1661799" lon="12.3342444"><ele>324.0</ele><time>2026-03-22T11:06:39.622Z</time></trkpt><trkpt lat="43.1662586" lon="12.3342546"><ele>323.0</ele><time>2026-03-22T11:06:43.623Z</time></trkpt><trkpt lat="43.1663439" lon="12.3342622"><ele>321.99999999999994</ele><time>2026-03-22T11:06:46.623Z</time></trkpt><trkpt lat="43.1664088" lon="12.3342514"><ele>321.0</ele><time>2026-03-22T11:06:48.622Z</time></trkpt><trkpt lat="43.166477" lon="12.3342253"><ele>320.2</ele><time>2026-03-22T11:06:50.622Z</time></trkpt><trkpt lat="43.1665444" lon="12.3341674"><ele>319.40000000000003</ele><time>2026-03-22T11:06:52.622Z</time></trkpt><trkpt lat="43.1666289" lon="12.3341699"><ele>318.6</ele><time>2026-03-22T11:06:54.623Z</time></trkpt><trkpt lat="43.166722" lon="12.3341757"><ele>317.8</ele><time>2026-03-22T11:06:56.622Z</time></trkpt><trkpt lat="43.1668143" lon="12.3341183"><ele>317.0</ele><time>2026-03-22T11:06:58.623Z</time></trkpt><trkpt lat="43.1669027" lon="12.3340012"><ele>314.0</ele><time>2026-03-22T11:07:00.623Z</time></trkpt><trkpt lat="43.1669855" lon="12.3338725"><ele>311.0</ele><time>2026-03-22T11:07:02.623Z</time></trkpt><trkpt lat="43.1670294" lon="12.3338064"><ele>308.0</ele><time>2026-03-22T11:07:03.623Z</time></trkpt><trkpt lat="43.1671116" lon="12.3336921"><ele>305.0</ele><time>2026-03-22T11:07:05.623Z</time></trkpt><trkpt lat="43.1671797" lon="12.3335765"><ele>302.0</ele><time>2026-03-22T11:07:07.622Z</time></trkpt><trkpt lat="43.1672143" lon="12.3334219"><ele>302.0</ele><time>2026-03-22T11:07:09.622Z</time></trkpt><trkpt lat="43.1672336" lon="12.3332508"><ele>302.0</ele><time>2026-03-22T11:07:11.623Z</time></trkpt><trkpt lat="43.1672639" lon="12.3330763"><ele>302.0</ele><time>2026-03-22T11:07:13.623Z</time></trkpt><trkpt lat="43.1672818" lon="12.3329764"><ele>302.0</ele><time>2026-03-22T11:07:14.623Z</time></trkpt><trkpt lat="43.1673064" lon="12.332866"><ele>302.0</ele><time>2026-03-22T11:07:15.622Z</time></trkpt><trkpt lat="43.1673325" lon="12.3327431"><ele>300.2</ele><time>2026-03-22T11:07:16.623Z</time></trkpt><trkpt lat="43.1673643" lon="12.3326181"><ele>298.4</ele><time>2026-03-22T11:07:17.623Z</time></trkpt><trkpt lat="43.1673879" lon="12.3324812"><ele>296.6</ele><time>2026-03-22T11:07:18.623Z</time></trkpt><trkpt lat="43.1674073" lon="12.3323372"><ele>294.8</ele><time>2026-03-22T11:07:19.623Z</time></trkpt><trkpt lat="43.1674202" lon="12.3321936"><ele>293.0</ele><time>2026-03-22T11:07:20.622Z</time></trkpt><trkpt lat="43.1674332" lon="12.332052"><ele>292.2</ele><time>2026-03-22T11:07:21.623Z</time></trkpt><trkpt lat="43.1674482" lon="12.3319122"><ele>291.4</ele><time>2026-03-22T11:07:22.623Z</time></trkpt><trkpt lat="43.1674634" lon="12.3317727"><ele>290.59999999999997</ele><time>2026-03-22T11:07:23.623Z</time></trkpt><trkpt lat="43.1674734" lon="12.331641"><ele>289.8</ele><time>2026-03-22T11:07:24.622Z</time></trkpt><trkpt lat="43.1674878" lon="12.3315117"><ele>289.0</ele><time>2026-03-22T11:07:25.623Z</time></trkpt><trkpt lat="43.1675068" lon="12.3313879"><ele>289.0</ele><time>2026-03-22T11:07:26.623Z</time></trkpt><trkpt lat="43.167526" lon="12.3312722"><ele>289.0</ele><time>2026-03-22T11:07:27.623Z</time></trkpt><trkpt lat="43.1675486" lon="12.3311675"><ele>289.0</ele><time>2026-03-22T11:07:28.623Z</time></trkpt><trkpt lat="43.1675805" lon="12.3310756"><ele>289.0</ele><time>2026-03-22T11:07:29.622Z</time></trkpt><trkpt lat="43.1676173" lon="12.3310005"><ele>289.0</ele><time>2026-03-22T11:07:30.623Z</time></trkpt><trkpt lat="43.1676803" lon="12.3308769"><ele>289.0</ele><time>2026-03-22T11:07:32.623Z</time></trkpt><trkpt lat="43.1677337" lon="12.330762"><ele>289.0</ele><time>2026-03-22T11:07:34.623Z</time></trkpt><trkpt lat="43.1677694" lon="12.330636"><ele>289.0</ele><time>2026-03-22T11:07:36.623Z</time></trkpt><trkpt lat="43.1677987" lon="12.3304934"><ele>289.0</ele><time>2026-03-22T11:07:38.623Z</time></trkpt><trkpt lat="43.1678277" lon="12.330327"><ele>289.0</ele><time>2026-03-22T11:07:40.622Z</time></trkpt><trkpt lat="43.1678386" lon="12.3302343"><ele>289.0</ele><time>2026-03-22T11:07:41.622Z</time></trkpt><trkpt lat="43.1678524" lon="12.3301362"><ele>288.8333333333333</ele><time>2026-03-22T11:07:42.622Z</time></trkpt><trkpt lat="43.1678685" lon="12.330034"><ele>288.66666666666663</ele><time>2026-03-22T11:07:43.623Z</time></trkpt><trkpt lat="43.1678863" lon="12.3299317"><ele>288.5</ele><time>2026-03-22T11:07:44.622Z</time></trkpt><trkpt lat="43.1679035" lon="12.3298337"><ele>288.3333333333333</ele><time>2026-03-22T11:07:45.623Z</time></trkpt><trkpt lat="43.1679253" lon="12.3297407"><ele>288.1666666666667</ele><time>2026-03-22T11:07:46.622Z</time></trkpt><trkpt lat="43.167945" lon="12.3296542"><ele>288.0</ele><time>2026-03-22T11:07:47.622Z</time></trkpt><trkpt lat="43.1679619" lon="12.3295021"><ele>287.6666666666667</ele><time>2026-03-22T11:07:49.623Z</time></trkpt><trkpt lat="43.1679589" lon="12.3293723"><ele>287.3333333333333</ele><time>2026-03-22T11:07:51.623Z</time></trkpt><trkpt lat="43.1679929" lon="12.3292905"><ele>287.0</ele><time>2026-03-22T11:07:53.622Z</time></trkpt><trkpt lat="43.1680633" lon="12.3292639"><ele>286.66666666666663</ele><time>2026-03-22T11:07:55.622Z</time></trkpt><trkpt lat="43.1681392" lon="12.3292281"><ele>286.3333333333333</ele><time>2026-03-22T11:07:57.623Z</time></trkpt><trkpt lat="43.1681734" lon="12.3291137"><ele>286.0</ele><time>2026-03-22T11:07:59.623Z</time></trkpt><trkpt lat="43.1682209" lon="12.328982"><ele>285.2</ele><time>2026-03-22T11:08:01.622Z</time></trkpt><trkpt lat="43.168259" lon="12.3288452"><ele>284.40000000000003</ele><time>2026-03-22T11:08:03.622Z</time></trkpt><trkpt lat="43.1682685" lon="12.328703"><ele>283.6</ele><time>2026-03-22T11:08:05.622Z</time></trkpt><trkpt lat="43.1682211" lon="12.3285807"><ele>282.8</ele><time>2026-03-22T11:08:07.622Z</time></trkpt><trkpt lat="43.1681567" lon="12.3284891"><ele>282.0</ele><time>2026-03-22T11:08:09.622Z</time></trkpt><trkpt lat="43.1681292" lon="12.3283548"><ele>282.0</ele><time>2026-03-22T11:08:11.623Z</time></trkpt><trkpt lat="43.1681586" lon="12.3281992"><ele>282.0</ele><time>2026-03-22T11:08:13.623Z</time></trkpt><trkpt lat="43.168173" lon="12.3281067"><ele>282.0</ele><time>2026-03-22T11:08:14.623Z</time></trkpt><trkpt lat="43.1681893" lon="12.3280134"><ele>282.0</ele><time>2026-03-22T11:08:15.622Z</time></trkpt><trkpt lat="43.1682072" lon="12.3279155"><ele>282.0</ele><time>2026-03-22T11:08:16.623Z</time></trkpt><trkpt lat="43.1682231" lon="12.3278146"><ele>282.0</ele><time>2026-03-22T11:08:17.623Z</time></trkpt><trkpt lat="43.1682368" lon="12.3277101"><ele>281.0</ele><time>2026-03-22T11:08:18.622Z</time></trkpt><trkpt lat="43.1682529" lon="12.3276037"><ele>280.0</ele><time>2026-03-22T11:08:19.623Z</time></trkpt><trkpt lat="43.1682688" lon="12.3274968"><ele>279.0</ele><time>2026-03-22T11:08:20.622Z</time></trkpt><trkpt lat="43.168287" lon="12.3273882"><ele>278.0</ele><time>2026-03-22T11:08:21.623Z</time></trkpt><trkpt lat="43.1683016" lon="12.3272783"><ele>277.0</ele><time>2026-03-22T11:08:22.622Z</time></trkpt><trkpt lat="43.1683182" lon="12.3271687"><ele>276.0</ele><time>2026-03-22T11:08:23.623Z</time></trkpt><trkpt lat="43.1683373" lon="12.3270595"><ele>275.57142857142856</ele><time>2026-03-22T11:08:24.622Z</time></trkpt><trkpt lat="43.1683521" lon="12.3269542"><ele>275.14285714285717</ele><time>2026-03-22T11:08:25.622Z</time></trkpt><trkpt lat="43.1683677" lon="12.3268516"><ele>274.7142857142857</ele><time>2026-03-22T11:08:26.622Z</time></trkpt><trkpt lat="43.1683858" lon="12.3267504"><ele>274.2857142857143</ele><time>2026-03-22T11:08:27.622Z</time></trkpt><trkpt lat="43.1684014" lon="12.3266534"><ele>273.8571428571429</ele><time>2026-03-22T11:08:28.623Z</time></trkpt><trkpt lat="43.1684152" lon="12.3265546"><ele>273.42857142857144</ele><time>2026-03-22T11:08:29.623Z</time></trkpt><trkpt lat="43.1684154" lon="12.3264571"><ele>273.0</ele><time>2026-03-22T11:08:30.623Z</time></trkpt><trkpt lat="43.1683995" lon="12.326361"><ele>272.5</ele><time>2026-03-22T11:08:31.622Z</time></trkpt><trkpt lat="43.1683744" lon="12.3262697"><ele>272.0</ele><time>2026-03-22T11:08:32.623Z</time></trkpt><trkpt lat="43.1683511" lon="12.326182"><ele>271.5</ele><time>2026-03-22T11:08:33.622Z</time></trkpt><trkpt lat="43.1683533" lon="12.3260413"><ele>271.0</ele><time>2026-03-22T11:08:35.623Z</time></trkpt><trkpt lat="43.1684129" lon="12.3259422"><ele>270.5</ele><time>2026-03-22T11:08:37.622Z</time></trkpt><trkpt lat="43.168491" lon="12.3258649"><ele>270.0</ele><time>2026-03-22T11:08:39.623Z</time></trkpt><trkpt lat="43.1685769" lon="12.3258035"><ele>270.0</ele><time>2026-03-22T11:08:41.622Z</time></trkpt><trkpt lat="43.1686617" lon="12.3257526"><ele>270.0</ele><time>2026-03-22T11:08:43.623Z</time></trkpt><trkpt lat="43.1687467" lon="12.3257048"><ele>270.0</ele><time>2026-03-22T11:08:45.623Z</time></trkpt><trkpt lat="43.1688261" lon="12.3256566"><ele>270.0</ele><time>2026-03-22T11:08:47.623Z</time></trkpt><trkpt lat="43.1689046" lon="12.3256024"><ele>270.0</ele><time>2026-03-22T11:08:49.622Z</time></trkpt><trkpt lat="43.1689822" lon="12.3255611"><ele>270.0</ele><time>2026-03-22T11:08:51.622Z</time></trkpt><trkpt lat="43.1690618" lon="12.3255196"><ele>270.0</ele><time>2026-03-22T11:08:53.623Z</time></trkpt><trkpt lat="43.1691395" lon="12.3254772"><ele>270.0</ele><time>2026-03-22T11:08:55.622Z</time></trkpt><trkpt lat="43.1692178" lon="12.3254408"><ele>270.0</ele><time>2026-03-22T11:08:57.623Z</time></trkpt><trkpt lat="43.1692965" lon="12.3254104"><ele>270.0</ele><time>2026-03-22T11:08:59.623Z</time></trkpt><trkpt lat="43.1693768" lon="12.3253866"><ele>270.0</ele><time>2026-03-22T11:09:01.623Z</time></trkpt><trkpt lat="43.1694602" lon="12.3253635"><ele>270.0</ele><time>2026-03-22T11:09:03.622Z</time></trkpt><trkpt lat="43.1695428" lon="12.3253413"><ele>270.0</ele><time>2026-03-22T11:09:05.622Z</time></trkpt><trkpt lat="43.169623" lon="12.3253149"><ele>270.0</ele><time>2026-03-22T11:09:07.622Z</time></trkpt><trkpt lat="43.1697037" lon="12.3252911"><ele>270.0</ele><time>2026-03-22T11:09:09.622Z</time></trkpt><trkpt lat="43.1697862" lon="12.3252664"><ele>270.0</ele><time>2026-03-22T11:09:11.622Z</time></trkpt><trkpt lat="43.1698667" lon="12.3252444"><ele>270.0</ele><time>2026-03-22T11:09:13.622Z</time></trkpt><trkpt lat="43.1699471" lon="12.3252254"><ele>270.0</ele><time>2026-03-22T11:09:15.622Z</time></trkpt><trkpt lat="43.1700261" lon="12.3251971"><ele>270.5</ele><time>2026-03-22T11:09:17.622Z</time></trkpt><trkpt lat="43.170111" lon="12.3251558"><ele>271.0</ele><time>2026-03-22T11:09:19.622Z</time></trkpt><trkpt lat="43.1701918" lon="12.3251105"><ele>271.5</ele><time>2026-03-22T11:09:21.622Z</time></trkpt><trkpt lat="43.1702716" lon="12.3250673"><ele>272.0</ele><time>2026-03-22T11:09:23.623Z</time></trkpt><trkpt lat="43.1703532" lon="12.3250409"><ele>272.5</ele><time>2026-03-22T11:09:25.622Z</time></trkpt><trkpt lat="43.1704262" lon="12.3250138"><ele>273.0</ele><time>2026-03-22T11:09:27.622Z</time></trkpt><trkpt lat="43.1705056" lon="12.324983"><ele>273.0</ele><time>2026-03-22T11:09:29.623Z</time></trkpt><trkpt lat="43.1705846" lon="12.3249721"><ele>273.0</ele><time>2026-03-22T11:09:31.623Z</time></trkpt><trkpt lat="43.1706549" lon="12.3249661"><ele>273.0</ele><time>2026-03-22T11:09:33.623Z</time></trkpt><trkpt lat="43.1707233" lon="12.3249671"><ele>273.0</ele><time>2026-03-22T11:09:35.622Z</time></trkpt><trkpt lat="43.1708078" lon="12.3249637"><ele>273.0</ele><time>2026-03-22T11:09:38.623Z</time></trkpt><trkpt lat="43.1708889" lon="12.3249419"><ele>273.0</ele><time>2026-03-22T11:09:41.622Z</time></trkpt><trkpt lat="43.1709685" lon="12.3249008"><ele>273.2</ele><time>2026-03-22T11:09:43.622Z</time></trkpt><trkpt lat="43.1710637" lon="12.3248453"><ele>273.4</ele><time>2026-03-22T11:09:45.623Z</time></trkpt><trkpt lat="43.1711673" lon="12.3247907"><ele>273.59999999999997</ele><time>2026-03-22T11:09:47.623Z</time></trkpt><trkpt lat="43.1712743" lon="12.3247309"><ele>273.8</ele><time>2026-03-22T11:09:49.623Z</time></trkpt><trkpt lat="43.1713774" lon="12.3246699"><ele>274.0</ele><time>2026-03-22T11:09:51.623Z</time></trkpt><trkpt lat="43.1714761" lon="12.3246104"><ele>273.2</ele><time>2026-03-22T11:09:53.622Z</time></trkpt><trkpt lat="43.1715772" lon="12.3245523"><ele>272.4</ele><time>2026-03-22T11:09:55.623Z</time></trkpt><trkpt lat="43.1716672" lon="12.3244944"><ele>271.6</ele><time>2026-03-22T11:09:57.623Z</time></trkpt><trkpt lat="43.1717533" lon="12.3244412"><ele>270.8</ele><time>2026-03-22T11:09:59.622Z</time></trkpt><trkpt lat="43.1718538" lon="12.3243934"><ele>270.0</ele><time>2026-03-22T11:10:01.622Z</time></trkpt><trkpt lat="43.1719551" lon="12.3243484"><ele>270.0</ele><time>2026-03-22T11:10:03.622Z</time></trkpt><trkpt lat="43.1720581" lon="12.3243208"><ele>270.0</ele><time>2026-03-22T11:10:05.622Z</time></trkpt><trkpt lat="43.1721622" lon="12.3242956"><ele>270.0</ele><time>2026-03-22T11:10:07.623Z</time></trkpt><trkpt lat="43.1722571" lon="12.3242791"><ele>270.0</ele><time>2026-03-22T11:10:09.623Z</time></trkpt><trkpt lat="43.1723493" lon="12.3242742"><ele>270.0</ele><time>2026-03-22T11:10:11.623Z</time></trkpt><trkpt lat="43.1724405" lon="12.324266"><ele>270.5</ele><time>2026-03-22T11:10:13.623Z</time></trkpt><trkpt lat="43.1725273" lon="12.3242653"><ele>271.0</ele><time>2026-03-22T11:10:15.622Z</time></trkpt><trkpt lat="43.1726119" lon="12.3242712"><ele>271.5</ele><time>2026-03-22T11:10:17.622Z</time></trkpt><trkpt lat="43.1726966" lon="12.3242809"><ele>272.0</ele><time>2026-03-22T11:10:19.622Z</time></trkpt><trkpt lat="43.1727796" lon="12.3242936"><ele>272.5</ele><time>2026-03-22T11:10:21.623Z</time></trkpt><trkpt lat="43.1728595" lon="12.3243117"><ele>273.0</ele><time>2026-03-22T11:10:23.622Z</time></trkpt><trkpt lat="43.1729404" lon="12.3243281"><ele>273.0</ele><time>2026-03-22T11:10:25.622Z</time></trkpt><trkpt lat="43.173019" lon="12.3243509"><ele>273.0</ele><time>2026-03-22T11:10:27.623Z</time></trkpt><trkpt lat="43.1730964" lon="12.3243739"><ele>273.0</ele><time>2026-03-22T11:10:29.622Z</time></trkpt><trkpt lat="43.1731709" lon="12.3244043"><ele>273.0</ele><time>2026-03-22T11:10:31.622Z</time></trkpt><trkpt lat="43.1732445" lon="12.3244272"><ele>273.0</ele><time>2026-03-22T11:10:33.623Z</time></trkpt><trkpt lat="43.173317" lon="12.3244488"><ele>273.0</ele><time>2026-03-22T11:10:35.623Z</time></trkpt><trkpt lat="43.17339" lon="12.3244755"><ele>273.6666666666667</ele><time>2026-03-22T11:10:37.622Z</time></trkpt><trkpt lat="43.1734642" lon="12.324501"><ele>274.3333333333333</ele><time>2026-03-22T11:10:39.622Z</time></trkpt><trkpt lat="43.1735336" lon="12.3245063"><ele>275.0</ele><time>2026-03-22T11:10:41.623Z</time></trkpt><trkpt lat="43.1735876" lon="12.3244535"><ele>275.66666666666663</ele><time>2026-03-22T11:10:43.623Z</time></trkpt><trkpt lat="43.1736078" lon="12.3243465"><ele>276.3333333333333</ele><time>2026-03-22T11:10:45.623Z</time></trkpt><trkpt lat="43.173603" lon="12.3242304"><ele>277.0</ele><time>2026-03-22T11:10:47.623Z</time></trkpt><trkpt lat="43.1735864" lon="12.3241045"><ele>277.0</ele><time>2026-03-22T11:10:49.622Z</time></trkpt><trkpt lat="43.1735672" lon="12.3239686"><ele>277.0</ele><time>2026-03-22T11:10:51.623Z</time></trkpt><trkpt lat="43.1735501" lon="12.3238236"><ele>277.0</ele><time>2026-03-22T11:10:53.622Z</time></trkpt><trkpt lat="43.1735204" lon="12.3236765"><ele>277.0</ele><time>2026-03-22T11:10:55.623Z</time></trkpt><trkpt lat="43.1734824" lon="12.3235306"><ele>277.0</ele><time>2026-03-22T11:10:57.623Z</time></trkpt><trkpt lat="43.1734513" lon="12.3233788"><ele>276.5</ele><time>2026-03-22T11:10:59.622Z</time></trkpt><trkpt lat="43.1734099" lon="12.3232292"><ele>276.0</ele><time>2026-03-22T11:11:01.623Z</time></trkpt><trkpt lat="43.1733716" lon="12.3230792"><ele>275.5</ele><time>2026-03-22T11:11:03.623Z</time></trkpt><trkpt lat="43.1733321" lon="12.3229356"><ele>275.0</ele><time>2026-03-22T11:11:05.622Z</time></trkpt><trkpt lat="43.1732955" lon="12.3227924"><ele>274.0</ele><time>2026-03-22T11:11:07.623Z</time></trkpt><trkpt lat="43.1732615" lon="12.3226462"><ele>273.0</ele><time>2026-03-22T11:11:09.622Z</time></trkpt><trkpt lat="43.1732244" lon="12.3224995"><ele>272.0</ele><time>2026-03-22T11:11:11.622Z</time></trkpt><trkpt lat="43.1731879" lon="12.3223531"><ele>271.0</ele><time>2026-03-22T11:11:13.622Z</time></trkpt><trkpt lat="43.1731457" lon="12.3222053"><ele>270.66666666666663</ele><time>2026-03-22T11:11:15.623Z</time></trkpt><trkpt lat="43.1731061" lon="12.3220487"><ele>270.3333333333333</ele><time>2026-03-22T11:11:17.622Z</time></trkpt><trkpt lat="43.1730913" lon="12.3219647"><ele>270.0</ele><time>2026-03-22T11:11:18.622Z</time></trkpt><trkpt lat="43.1730556" lon="12.3218029"><ele>269.6666666666667</ele><time>2026-03-22T11:11:20.623Z</time></trkpt><trkpt lat="43.1730328" lon="12.3217182"><ele>269.33333333333337</ele><time>2026-03-22T11:11:21.622Z</time></trkpt><trkpt lat="43.1730052" lon="12.3216339"><ele>269.0</ele><time>2026-03-22T11:11:22.623Z</time></trkpt><trkpt lat="43.1729857" lon="12.3215449"><ele>269.0</ele><time>2026-03-22T11:11:23.622Z</time></trkpt><trkpt lat="43.1729605" lon="12.3214564"><ele>269.0</ele><time>2026-03-22T11:11:24.622Z</time></trkpt><trkpt lat="43.1729366" lon="12.3213687"><ele>269.0</ele><time>2026-03-22T11:11:25.623Z</time></trkpt><trkpt lat="43.1729144" lon="12.3212768"><ele>269.0</ele><time>2026-03-22T11:11:26.623Z</time></trkpt><trkpt lat="43.1728933" lon="12.3211886"><ele>269.0</ele><time>2026-03-22T11:11:27.623Z</time></trkpt><trkpt lat="43.1728727" lon="12.3210958"><ele>269.0</ele><time>2026-03-22T11:11:28.623Z</time></trkpt><trkpt lat="43.1728507" lon="12.3210057"><ele>269.0</ele><time>2026-03-22T11:11:29.623Z</time></trkpt><trkpt lat="43.1728307" lon="12.3209166"><ele>268.4</ele><time>2026-03-22T11:11:30.623Z</time></trkpt><trkpt lat="43.1728141" lon="12.3208287"><ele>267.79999999999995</ele><time>2026-03-22T11:11:31.623Z</time></trkpt><trkpt lat="43.172803" lon="12.320743"><ele>267.20000000000005</ele><time>2026-03-22T11:11:32.623Z</time></trkpt><trkpt lat="43.1728006" lon="12.3205735"><ele>266.6</ele><time>2026-03-22T11:11:34.622Z</time></trkpt><trkpt lat="43.1728187" lon="12.3204106"><ele>266.0</ele><time>2026-03-22T11:11:36.623Z</time></trkpt><trkpt lat="43.1728395" lon="12.3202484"><ele>266.0</ele><time>2026-03-22T11:11:38.623Z</time></trkpt><trkpt lat="43.17287" lon="12.3200855"><ele>266.0</ele><time>2026-03-22T11:11:40.622Z</time></trkpt><trkpt lat="43.1728971" lon="12.3199222"><ele>266.0</ele><time>2026-03-22T11:11:42.622Z</time></trkpt><trkpt lat="43.1729208" lon="12.3197604"><ele>266.0</ele><time>2026-03-22T11:11:44.622Z</time></trkpt><trkpt lat="43.1729432" lon="12.3196008"><ele>266.0</ele><time>2026-03-22T11:11:46.622Z</time></trkpt><trkpt lat="43.1729552" lon="12.3194429"><ele>266.0</ele><time>2026-03-22T11:11:48.623Z</time></trkpt><trkpt lat="43.1729508" lon="12.3192838"><ele>266.0</ele><time>2026-03-22T11:11:50.622Z</time></trkpt><trkpt lat="43.1729386" lon="12.3191216"><ele>266.0</ele><time>2026-03-22T11:11:52.622Z</time></trkpt><trkpt lat="43.1728946" lon="12.318974"><ele>266.0</ele><time>2026-03-22T11:11:54.623Z</time></trkpt><trkpt lat="43.1728206" lon="12.3188447"><ele>266.0</ele><time>2026-03-22T11:11:56.622Z</time></trkpt><trkpt lat="43.1727423" lon="12.3187355"><ele>266.0</ele><time>2026-03-22T11:11:58.622Z</time></trkpt><trkpt lat="43.1726668" lon="12.3186298"><ele>266.0</ele><time>2026-03-22T11:12:00.623Z</time></trkpt><trkpt lat="43.1725927" lon="12.3185403"><ele>266.0</ele><time>2026-03-22T11:12:02.622Z</time></trkpt><trkpt lat="43.172519" lon="12.3184461"><ele>266.0</ele><time>2026-03-22T11:12:04.622Z</time></trkpt><trkpt lat="43.1724427" lon="12.318356"><ele>266.0</ele><time>2026-03-22T11:12:06.622Z</time></trkpt><trkpt lat="43.172374" lon="12.318272"><ele>266.0</ele><time>2026-03-22T11:12:08.622Z</time></trkpt><trkpt lat="43.1723156" lon="12.3181977"><ele>266.0</ele><time>2026-03-22T11:12:10.623Z</time></trkpt><trkpt lat="43.1722573" lon="12.3181338"><ele>266.0</ele><time>2026-03-22T11:12:14.623Z</time></trkpt><trkpt lat="43.1722567" lon="12.3180335"><ele>266.0</ele><time>2026-03-22T11:12:20.622Z</time></trkpt><trkpt lat="43.1723201" lon="12.3179401"><ele>266.14285714285717</ele><time>2026-03-22T11:12:23.623Z</time></trkpt><trkpt lat="43.1723758" lon="12.3178905"><ele>266.2857142857143</ele><time>2026-03-22T11:12:25.623Z</time></trkpt><trkpt lat="43.17243" lon="12.3178421"><ele>266.42857142857144</ele><time>2026-03-22T11:12:27.623Z</time></trkpt><trkpt lat="43.1724891" lon="12.3178035"><ele>266.57142857142856</ele><time>2026-03-22T11:12:29.622Z</time></trkpt><trkpt lat="43.1725535" lon="12.3177358"><ele>266.7142857142857</ele><time>2026-03-22T11:12:32.622Z</time></trkpt><trkpt lat="43.1726166" lon="12.3176611"><ele>266.8571428571429</ele><time>2026-03-22T11:12:36.623Z</time></trkpt><trkpt lat="43.1726571" lon="12.3175786"><ele>267.0</ele><time>2026-03-22T11:12:40.622Z</time></trkpt><trkpt lat="43.1727079" lon="12.3175133"><ele>267.0</ele><time>2026-03-22T11:12:45.623Z</time></trkpt><trkpt lat="43.1727554" lon="12.3174546"><ele>267.0</ele><time>2026-03-22T11:12:49.623Z</time></trkpt><trkpt lat="43.1728217" lon="12.3174514"><ele>267.0</ele><time>2026-03-22T11:13:37.623Z</time></trkpt><trkpt lat="43.1728865" lon="12.3174071"><ele>267.0</ele><time>2026-03-22T11:13:41.623Z</time></trkpt><trkpt lat="43.1729485" lon="12.3173603"><ele>267.0</ele><time>2026-03-22T11:13:45.622Z</time></trkpt><trkpt lat="43.1730118" lon="12.3173056"><ele>267.0</ele><time>2026-03-22T11:13:50.623Z</time></trkpt></trkseg></trk></gpx>